<?xml version="1.0" encoding="UTF-8" standalone="no" ?>
<gpx xmlns="http://www.topografix.com/GPX/1/1" xmlns:xsi="http://www.w3.org/2001/XMLSchema-instance" xsi:schemaLocation="http://www.topografix.com/GPX/1/1 http://www.topografix.com/GPX/1/1/gpx.xsd" version="1.1" creator="VisuGPX - https://www.visugpx.com">
  <metadata>
    <name>2022 PassPortes MTB - Trail Running Portes du Soleil</name>
  </metadata>
  <trk>
    <name><![CDATA[2022 PassPortes MTB - Trail Running Portes du Soleil]]></name>
    <extensions>
      <line xmlns="http://www.topografix.com/GPX/gpx_style/0/2">
        <color>0000FF</color>
        <width>4</width>
      </line>
    </extensions>
    <trkseg>
      <trkpt lat="46.16091" lon="6.67195">
        <ele>1157</ele>
        <time>2000-01-01T01:53:06.000Z</time>
      </trkpt>
      <trkpt lat="46.16075" lon="6.67169">
        <ele>1157</ele>
        <time>2000-01-01T01:53:16.000Z</time>
      </trkpt>
      <trkpt lat="46.16058" lon="6.6714">
        <ele>1157</ele>
        <time>2000-01-01T01:53:26.000Z</time>
      </trkpt>
      <trkpt lat="46.1604" lon="6.67108">
        <ele>1157</ele>
        <time>2000-01-01T01:53:36.000Z</time>
      </trkpt>
      <trkpt lat="46.16015" lon="6.6706">
        <ele>1157</ele>
        <time>2000-01-01T01:53:46.000Z</time>
      </trkpt>
      <trkpt lat="46.15992" lon="6.6703">
        <ele>1159</ele>
        <time>2000-01-01T01:53:56.000Z</time>
      </trkpt>
      <trkpt lat="46.15972" lon="6.67005">
        <ele>1160</ele>
        <time>2000-01-01T01:54:06.000Z</time>
      </trkpt>
      <trkpt lat="46.15948" lon="6.66973">
        <ele>1161</ele>
        <time>2000-01-01T01:54:16.000Z</time>
      </trkpt>
      <trkpt lat="46.15922" lon="6.66946">
        <ele>1161</ele>
        <time>2000-01-01T01:54:26.000Z</time>
      </trkpt>
      <trkpt lat="46.15895" lon="6.66919">
        <ele>1160</ele>
        <time>2000-01-01T01:54:36.000Z</time>
      </trkpt>
      <trkpt lat="46.1586" lon="6.66883">
        <ele>1160</ele>
        <time>2000-01-01T01:54:46.000Z</time>
      </trkpt>
      <trkpt lat="46.15839" lon="6.66865">
        <ele>1160</ele>
        <time>2000-01-01T01:54:56.000Z</time>
      </trkpt>
      <trkpt lat="46.15817" lon="6.66847">
        <ele>1160</ele>
        <time>2000-01-01T01:55:06.000Z</time>
      </trkpt>
      <trkpt lat="46.15795" lon="6.66817">
        <ele>1160</ele>
        <time>2000-01-01T01:55:16.000Z</time>
      </trkpt>
      <trkpt lat="46.15776" lon="6.66792">
        <ele>1160</ele>
        <time>2000-01-01T01:55:26.000Z</time>
      </trkpt>
      <trkpt lat="46.15753" lon="6.66763">
        <ele>1160</ele>
        <time>2000-01-01T01:55:36.000Z</time>
      </trkpt>
      <trkpt lat="46.15734" lon="6.66782">
        <ele>1161</ele>
        <time>2000-01-01T01:55:46.000Z</time>
      </trkpt>
      <trkpt lat="46.15714" lon="6.66801">
        <ele>1163</ele>
        <time>2000-01-01T01:55:56.000Z</time>
      </trkpt>
      <trkpt lat="46.15699" lon="6.6682">
        <ele>1165</ele>
        <time>2000-01-01T01:56:06.000Z</time>
      </trkpt>
      <trkpt lat="46.15691" lon="6.66821">
        <ele>1165.9</ele>
        <time>2000-01-01T01:56:16.000Z</time>
      </trkpt>
      <trkpt lat="46.15671" lon="6.66833">
        <ele>1167</ele>
        <time>2000-01-01T01:56:26.000Z</time>
      </trkpt>
      <trkpt lat="46.15654" lon="6.6687">
        <ele>1172</ele>
        <time>2000-01-01T01:56:36.000Z</time>
      </trkpt>
      <trkpt lat="46.1564" lon="6.669">
        <ele>1176</ele>
        <time>2000-01-01T01:56:46.000Z</time>
      </trkpt>
      <trkpt lat="46.15623" lon="6.66938">
        <ele>1181</ele>
        <time>2000-01-01T01:56:56.000Z</time>
      </trkpt>
      <trkpt lat="46.156" lon="6.66991">
        <ele>1199</ele>
        <time>2000-01-01T01:57:06.000Z</time>
      </trkpt>
      <trkpt lat="46.15583" lon="6.67028">
        <ele>1208</ele>
        <time>2000-01-01T01:57:16.000Z</time>
      </trkpt>
      <trkpt lat="46.15569" lon="6.67058">
        <ele>1216</ele>
        <time>2000-01-01T01:57:26.000Z</time>
      </trkpt>
      <trkpt lat="46.15552" lon="6.67096">
        <ele>1222</ele>
        <time>2000-01-01T01:57:36.000Z</time>
      </trkpt>
      <trkpt lat="46.15529" lon="6.67149">
        <ele>1227</ele>
        <time>2000-01-01T01:57:46.000Z</time>
      </trkpt>
      <trkpt lat="46.15512" lon="6.67186">
        <ele>1229</ele>
        <time>2000-01-01T01:57:56.000Z</time>
      </trkpt>
      <trkpt lat="46.15498" lon="6.67216">
        <ele>1232</ele>
        <time>2000-01-01T01:58:06.000Z</time>
      </trkpt>
      <trkpt lat="46.15481" lon="6.67254">
        <ele>1234</ele>
        <time>2000-01-01T01:58:16.000Z</time>
      </trkpt>
      <trkpt lat="46.15458" lon="6.67307">
        <ele>1237</ele>
        <time>2000-01-01T01:58:26.000Z</time>
      </trkpt>
      <trkpt lat="46.15441" lon="6.67344">
        <ele>1239</ele>
        <time>2000-01-01T01:58:36.000Z</time>
      </trkpt>
      <trkpt lat="46.15427" lon="6.67374">
        <ele>1241</ele>
        <time>2000-01-01T01:58:46.000Z</time>
      </trkpt>
      <trkpt lat="46.15419" lon="6.67393">
        <ele>1243.1</ele>
        <time>2000-01-01T01:58:56.000Z</time>
      </trkpt>
      <trkpt lat="46.1541" lon="6.67412">
        <ele>1244</ele>
        <time>2000-01-01T01:59:06.000Z</time>
      </trkpt>
      <trkpt lat="46.15387" lon="6.67465">
        <ele>1249</ele>
        <time>2000-01-01T01:59:16.000Z</time>
      </trkpt>
      <trkpt lat="46.15371" lon="6.67499">
        <ele>1252</ele>
        <time>2000-01-01T01:59:26.000Z</time>
      </trkpt>
      <trkpt lat="46.15348" lon="6.6755">
        <ele>1258</ele>
        <time>2000-01-01T01:59:36.000Z</time>
      </trkpt>
      <trkpt lat="46.15327" lon="6.67598">
        <ele>1265</ele>
        <time>2000-01-01T01:59:46.000Z</time>
      </trkpt>
      <trkpt lat="46.15311" lon="6.67632">
        <ele>1271</ele>
        <time>2000-01-01T01:59:56.000Z</time>
      </trkpt>
      <trkpt lat="46.15287" lon="6.67684">
        <ele>1280</ele>
        <time>2000-01-01T02:00:06.000Z</time>
      </trkpt>
      <trkpt lat="46.15262" lon="6.67738">
        <ele>1289</ele>
        <time>2000-01-01T02:00:16.000Z</time>
      </trkpt>
      <trkpt lat="46.15237" lon="6.67792">
        <ele>1302</ele>
        <time>2000-01-01T02:00:26.000Z</time>
      </trkpt>
      <trkpt lat="46.15213" lon="6.67847">
        <ele>1315</ele>
        <time>2000-01-01T02:00:36.000Z</time>
      </trkpt>
      <trkpt lat="46.15188" lon="6.67901">
        <ele>1330</ele>
        <time>2000-01-01T02:00:46.000Z</time>
      </trkpt>
      <trkpt lat="46.15163" lon="6.67955">
        <ele>1346</ele>
        <time>2000-01-01T02:00:56.000Z</time>
      </trkpt>
      <trkpt lat="46.15138" lon="6.68009">
        <ele>1364</ele>
        <time>2000-01-01T02:01:06.000Z</time>
      </trkpt>
      <trkpt lat="46.15113" lon="6.68063">
        <ele>1379</ele>
        <time>2000-01-01T02:01:16.000Z</time>
      </trkpt>
      <trkpt lat="46.15088" lon="6.68118">
        <ele>1396</ele>
        <time>2000-01-01T02:01:26.000Z</time>
      </trkpt>
      <trkpt lat="46.15064" lon="6.68172">
        <ele>1417</ele>
        <time>2000-01-01T02:01:36.000Z</time>
      </trkpt>
      <trkpt lat="46.15039" lon="6.68226">
        <ele>1435</ele>
        <time>2000-01-01T02:01:46.000Z</time>
      </trkpt>
      <trkpt lat="46.15014" lon="6.6828">
        <ele>1446</ele>
        <time>2000-01-01T02:01:56.000Z</time>
      </trkpt>
      <trkpt lat="46.14989" lon="6.68335">
        <ele>1454</ele>
        <time>2000-01-01T02:02:06.000Z</time>
      </trkpt>
      <trkpt lat="46.14964" lon="6.68389">
        <ele>1461</ele>
        <time>2000-01-01T02:02:16.000Z</time>
      </trkpt>
      <trkpt lat="46.1494" lon="6.68443">
        <ele>1470</ele>
        <time>2000-01-01T02:02:26.000Z</time>
      </trkpt>
      <trkpt lat="46.14915" lon="6.68497">
        <ele>1479</ele>
        <time>2000-01-01T02:02:36.000Z</time>
      </trkpt>
      <trkpt lat="46.1489" lon="6.68551">
        <ele>1485</ele>
        <time>2000-01-01T02:02:46.000Z</time>
      </trkpt>
      <trkpt lat="46.14865" lon="6.68606">
        <ele>1493</ele>
        <time>2000-01-01T02:02:56.000Z</time>
      </trkpt>
      <trkpt lat="46.1484" lon="6.6866">
        <ele>1504</ele>
        <time>2000-01-01T02:03:06.000Z</time>
      </trkpt>
      <trkpt lat="46.14815" lon="6.68714">
        <ele>1518</ele>
        <time>2000-01-01T02:03:16.000Z</time>
      </trkpt>
      <trkpt lat="46.14791" lon="6.68768">
        <ele>1528</ele>
        <time>2000-01-01T02:03:26.000Z</time>
      </trkpt>
      <trkpt lat="46.14766" lon="6.68822">
        <ele>1540</ele>
        <time>2000-01-01T02:03:36.000Z</time>
      </trkpt>
      <trkpt lat="46.14741" lon="6.68877">
        <ele>1548</ele>
        <time>2000-01-01T02:03:46.000Z</time>
      </trkpt>
      <trkpt lat="46.14716" lon="6.68931">
        <ele>1553</ele>
        <time>2000-01-01T02:03:56.000Z</time>
      </trkpt>
      <trkpt lat="46.14691" lon="6.68985">
        <ele>1555</ele>
        <time>2000-01-01T02:04:06.000Z</time>
      </trkpt>
      <trkpt lat="46.14666" lon="6.69039">
        <ele>1560</ele>
        <time>2000-01-01T02:04:16.000Z</time>
      </trkpt>
      <trkpt lat="46.14642" lon="6.69094">
        <ele>1569</ele>
        <time>2000-01-01T02:04:26.000Z</time>
      </trkpt>
      <trkpt lat="46.14617" lon="6.69148">
        <ele>1576</ele>
        <time>2000-01-01T02:04:36.000Z</time>
      </trkpt>
      <trkpt lat="46.14603" lon="6.69178">
        <ele>1580</ele>
        <time>2000-01-01T02:04:46.000Z</time>
      </trkpt>
      <trkpt lat="46.14587" lon="6.69213">
        <ele>1587</ele>
        <time>2000-01-01T02:04:56.000Z</time>
      </trkpt>
      <trkpt lat="46.14567" lon="6.69257">
        <ele>1595</ele>
        <time>2000-01-01T02:05:06.000Z</time>
      </trkpt>
      <trkpt lat="46.14546" lon="6.69301">
        <ele>1604</ele>
        <time>2000-01-01T02:05:16.000Z</time>
      </trkpt>
      <trkpt lat="46.14526" lon="6.69346">
        <ele>1609</ele>
        <time>2000-01-01T02:05:26.000Z</time>
      </trkpt>
      <trkpt lat="46.14511" lon="6.69378">
        <ele>1611</ele>
        <time>2000-01-01T02:05:36.000Z</time>
      </trkpt>
      <trkpt lat="46.1449" lon="6.69423">
        <ele>1613</ele>
        <time>2000-01-01T02:05:46.000Z</time>
      </trkpt>
      <trkpt lat="46.14491" lon="6.69423">
        <ele>1612.9</ele>
        <time>2000-01-01T02:05:56.000Z</time>
      </trkpt>
      <trkpt lat="46.14481" lon="6.69431">
        <ele>1613.4</ele>
        <time>2000-01-01T02:06:06.000Z</time>
      </trkpt>
      <trkpt lat="46.14483" lon="6.69439">
        <ele>1613.9</ele>
        <time>2000-01-01T02:06:16.000Z</time>
      </trkpt>
      <trkpt lat="46.14489" lon="6.69442">
        <ele>1611</ele>
        <time>2000-01-01T02:06:26.000Z</time>
      </trkpt>
      <trkpt lat="46.14523" lon="6.69439">
        <ele>1610</ele>
        <time>2000-01-01T02:06:36.000Z</time>
      </trkpt>
      <trkpt lat="46.14538" lon="6.69434">
        <ele>1609.8</ele>
        <time>2000-01-01T02:06:46.000Z</time>
      </trkpt>
      <trkpt lat="46.14559" lon="6.69424">
        <ele>1610</ele>
        <time>2000-01-01T02:06:56.000Z</time>
      </trkpt>
      <trkpt lat="46.14572" lon="6.69419">
        <ele>1609.3</ele>
        <time>2000-01-01T02:07:06.000Z</time>
      </trkpt>
      <trkpt lat="46.14577" lon="6.69416">
        <ele>1609</ele>
        <time>2000-01-01T02:07:16.000Z</time>
      </trkpt>
      <trkpt lat="46.14581" lon="6.69413">
        <ele>1609.1</ele>
        <time>2000-01-01T02:07:26.000Z</time>
      </trkpt>
      <trkpt lat="46.14588" lon="6.69405">
        <ele>1608.3</ele>
        <time>2000-01-01T02:07:36.000Z</time>
      </trkpt>
      <trkpt lat="46.14602" lon="6.69381">
        <ele>1606</ele>
        <time>2000-01-01T02:07:46.000Z</time>
      </trkpt>
      <trkpt lat="46.14606" lon="6.69371">
        <ele>1605</ele>
        <time>2000-01-01T02:07:56.000Z</time>
      </trkpt>
      <trkpt lat="46.14614" lon="6.69363">
        <ele>1603.6</ele>
        <time>2000-01-01T02:08:06.000Z</time>
      </trkpt>
      <trkpt lat="46.14631" lon="6.6934">
        <ele>1601</ele>
        <time>2000-01-01T02:08:16.000Z</time>
      </trkpt>
      <trkpt lat="46.14637" lon="6.69331">
        <ele>1601.1</ele>
        <time>2000-01-01T02:08:26.000Z</time>
      </trkpt>
      <trkpt lat="46.14643" lon="6.69324">
        <ele>1600.7</ele>
        <time>2000-01-01T02:08:36.000Z</time>
      </trkpt>
      <trkpt lat="46.14647" lon="6.69321">
        <ele>1600</ele>
        <time>2000-01-01T02:08:46.000Z</time>
      </trkpt>
      <trkpt lat="46.14654" lon="6.69319">
        <ele>1600.5</ele>
        <time>2000-01-01T02:08:56.000Z</time>
      </trkpt>
      <trkpt lat="46.14697" lon="6.69312">
        <ele>1600</ele>
        <time>2000-01-01T02:09:06.000Z</time>
      </trkpt>
      <trkpt lat="46.14711" lon="6.69314">
        <ele>1599.4</ele>
        <time>2000-01-01T02:09:16.000Z</time>
      </trkpt>
      <trkpt lat="46.14729" lon="6.69314">
        <ele>1599</ele>
        <time>2000-01-01T02:09:26.000Z</time>
      </trkpt>
      <trkpt lat="46.14746" lon="6.69315">
        <ele>1597.9</ele>
        <time>2000-01-01T02:09:36.000Z</time>
      </trkpt>
      <trkpt lat="46.14758" lon="6.69314">
        <ele>1598</ele>
        <time>2000-01-01T02:09:46.000Z</time>
      </trkpt>
      <trkpt lat="46.14767" lon="6.69311">
        <ele>1594.9</ele>
        <time>2000-01-01T02:09:56.000Z</time>
      </trkpt>
      <trkpt lat="46.14781" lon="6.69304">
        <ele>1593</ele>
        <time>2000-01-01T02:10:06.000Z</time>
      </trkpt>
      <trkpt lat="46.14787" lon="6.69302">
        <ele>1592.5</ele>
        <time>2000-01-01T02:10:16.000Z</time>
      </trkpt>
      <trkpt lat="46.14796" lon="6.69301">
        <ele>1591.3</ele>
        <time>2000-01-01T02:10:26.000Z</time>
      </trkpt>
      <trkpt lat="46.14803" lon="6.69299">
        <ele>1591</ele>
        <time>2000-01-01T02:10:36.000Z</time>
      </trkpt>
      <trkpt lat="46.1481" lon="6.69296">
        <ele>1589.5</ele>
        <time>2000-01-01T02:10:46.000Z</time>
      </trkpt>
      <trkpt lat="46.14817" lon="6.69295">
        <ele>1588.6</ele>
        <time>2000-01-01T02:10:56.000Z</time>
      </trkpt>
      <trkpt lat="46.14826" lon="6.69296">
        <ele>1589</ele>
        <time>2000-01-01T02:11:06.000Z</time>
      </trkpt>
      <trkpt lat="46.14832" lon="6.69298">
        <ele>1586.9</ele>
        <time>2000-01-01T02:11:16.000Z</time>
      </trkpt>
      <trkpt lat="46.14839" lon="6.69304">
        <ele>1586.1</ele>
        <time>2000-01-01T02:11:26.000Z</time>
      </trkpt>
      <trkpt lat="46.1485" lon="6.69312">
        <ele>1585</ele>
        <time>2000-01-01T02:11:36.000Z</time>
      </trkpt>
      <trkpt lat="46.14859" lon="6.69321">
        <ele>1580.4</ele>
        <time>2000-01-01T02:11:46.000Z</time>
      </trkpt>
      <trkpt lat="46.14902" lon="6.69358">
        <ele>1571</ele>
        <time>2000-01-01T02:11:56.000Z</time>
      </trkpt>
      <trkpt lat="46.14911" lon="6.69368">
        <ele>1566.4</ele>
        <time>2000-01-01T02:12:06.000Z</time>
      </trkpt>
      <trkpt lat="46.14928" lon="6.69383">
        <ele>1564</ele>
        <time>2000-01-01T02:12:16.000Z</time>
      </trkpt>
      <trkpt lat="46.14939" lon="6.69394">
        <ele>1559.7</ele>
        <time>2000-01-01T02:12:26.000Z</time>
      </trkpt>
      <trkpt lat="46.14946" lon="6.69399">
        <ele>1560</ele>
        <time>2000-01-01T02:12:36.000Z</time>
      </trkpt>
      <trkpt lat="46.14957" lon="6.69411">
        <ele>1556.2</ele>
        <time>2000-01-01T02:12:46.000Z</time>
      </trkpt>
      <trkpt lat="46.14973" lon="6.69421">
        <ele>1554</ele>
        <time>2000-01-01T02:12:56.000Z</time>
      </trkpt>
      <trkpt lat="46.14984" lon="6.69431">
        <ele>1551.6</ele>
        <time>2000-01-01T02:13:06.000Z</time>
      </trkpt>
      <trkpt lat="46.15004" lon="6.69444">
        <ele>1550</ele>
        <time>2000-01-01T02:13:16.000Z</time>
      </trkpt>
      <trkpt lat="46.15012" lon="6.69448">
        <ele>1549</ele>
        <time>2000-01-01T02:13:26.000Z</time>
      </trkpt>
      <trkpt lat="46.15022" lon="6.69452">
        <ele>1548</ele>
        <time>2000-01-01T02:13:36.000Z</time>
      </trkpt>
      <trkpt lat="46.15045" lon="6.69459">
        <ele>1548</ele>
        <time>2000-01-01T02:13:46.000Z</time>
      </trkpt>
      <trkpt lat="46.1506" lon="6.69459">
        <ele>1546.2</ele>
        <time>2000-01-01T02:13:56.000Z</time>
      </trkpt>
      <trkpt lat="46.15078" lon="6.69458">
        <ele>1546</ele>
        <time>2000-01-01T02:14:06.000Z</time>
      </trkpt>
      <trkpt lat="46.15087" lon="6.69457">
        <ele>1544.8</ele>
        <time>2000-01-01T02:14:16.000Z</time>
      </trkpt>
      <trkpt lat="46.15095" lon="6.69455">
        <ele>1544.1</ele>
        <time>2000-01-01T02:14:26.000Z</time>
      </trkpt>
      <trkpt lat="46.15102" lon="6.69451">
        <ele>1544</ele>
        <time>2000-01-01T02:14:36.000Z</time>
      </trkpt>
      <trkpt lat="46.15111" lon="6.69443">
        <ele>1543</ele>
        <time>2000-01-01T02:14:46.000Z</time>
      </trkpt>
      <trkpt lat="46.15116" lon="6.69436">
        <ele>1542.1</ele>
        <time>2000-01-01T02:14:56.000Z</time>
      </trkpt>
      <trkpt lat="46.15118" lon="6.69435">
        <ele>1542</ele>
        <time>2000-01-01T02:15:06.000Z</time>
      </trkpt>
      <trkpt lat="46.15121" lon="6.69429">
        <ele>1541.2</ele>
        <time>2000-01-01T02:15:16.000Z</time>
      </trkpt>
      <trkpt lat="46.15136" lon="6.69412">
        <ele>1537</ele>
        <time>2000-01-01T02:15:26.000Z</time>
      </trkpt>
      <trkpt lat="46.15152" lon="6.69399">
        <ele>1534.4</ele>
        <time>2000-01-01T02:15:36.000Z</time>
      </trkpt>
      <trkpt lat="46.15185" lon="6.69385">
        <ele>1527</ele>
        <time>2000-01-01T02:15:46.000Z</time>
      </trkpt>
      <trkpt lat="46.15202" lon="6.69376">
        <ele>1523.9</ele>
        <time>2000-01-01T02:15:56.000Z</time>
      </trkpt>
      <trkpt lat="46.15208" lon="6.69375">
        <ele>1522</ele>
        <time>2000-01-01T02:16:06.000Z</time>
      </trkpt>
      <trkpt lat="46.15217" lon="6.69377">
        <ele>1521.7</ele>
        <time>2000-01-01T02:16:16.000Z</time>
      </trkpt>
      <trkpt lat="46.15224" lon="6.6938">
        <ele>1521.2</ele>
        <time>2000-01-01T02:16:26.000Z</time>
      </trkpt>
      <trkpt lat="46.15232" lon="6.69386">
        <ele>1520</ele>
        <time>2000-01-01T02:16:36.000Z</time>
      </trkpt>
      <trkpt lat="46.15244" lon="6.69402">
        <ele>1521.1</ele>
        <time>2000-01-01T02:16:46.000Z</time>
      </trkpt>
      <trkpt lat="46.15257" lon="6.69412">
        <ele>1520</ele>
        <time>2000-01-01T02:16:56.000Z</time>
      </trkpt>
      <trkpt lat="46.15265" lon="6.69413">
        <ele>1517.7</ele>
        <time>2000-01-01T02:17:06.000Z</time>
      </trkpt>
      <trkpt lat="46.15291" lon="6.69414">
        <ele>1514</ele>
        <time>2000-01-01T02:17:16.000Z</time>
      </trkpt>
      <trkpt lat="46.153" lon="6.69421">
        <ele>1512.5</ele>
        <time>2000-01-01T02:17:26.000Z</time>
      </trkpt>
      <trkpt lat="46.1531" lon="6.69424">
        <ele>1514</ele>
        <time>2000-01-01T02:17:36.000Z</time>
      </trkpt>
      <trkpt lat="46.15352" lon="6.69426">
        <ele>1506</ele>
        <time>2000-01-01T02:17:46.000Z</time>
      </trkpt>
      <trkpt lat="46.15359" lon="6.69491">
        <ele>1504</ele>
        <time>2000-01-01T02:17:56.000Z</time>
      </trkpt>
      <trkpt lat="46.15397" lon="6.69509">
        <ele>1502</ele>
        <time>2000-01-01T02:18:06.000Z</time>
      </trkpt>
      <trkpt lat="46.15386" lon="6.69522">
        <ele>1494.4</ele>
        <time>2000-01-01T02:18:16.000Z</time>
      </trkpt>
      <trkpt lat="46.15399" lon="6.69532">
        <ele>1492</ele>
        <time>2000-01-01T02:18:26.000Z</time>
      </trkpt>
      <trkpt lat="46.15368" lon="6.69537">
        <ele>1488</ele>
        <time>2000-01-01T02:18:36.000Z</time>
      </trkpt>
      <trkpt lat="46.15333" lon="6.69526">
        <ele>1486</ele>
        <time>2000-01-01T02:18:46.000Z</time>
      </trkpt>
      <trkpt lat="46.15326" lon="6.69542">
        <ele>1480.2</ele>
        <time>2000-01-01T02:18:56.000Z</time>
      </trkpt>
      <trkpt lat="46.15333" lon="6.69575">
        <ele>1471</ele>
        <time>2000-01-01T02:19:06.000Z</time>
      </trkpt>
      <trkpt lat="46.15348" lon="6.69605">
        <ele>1462</ele>
        <time>2000-01-01T02:19:16.000Z</time>
      </trkpt>
      <trkpt lat="46.15326" lon="6.69626">
        <ele>1455</ele>
        <time>2000-01-01T02:19:26.000Z</time>
      </trkpt>
      <trkpt lat="46.15321" lon="6.6964">
        <ele>1447.1</ele>
        <time>2000-01-01T02:19:36.000Z</time>
      </trkpt>
      <trkpt lat="46.15325" lon="6.6965">
        <ele>1443.1</ele>
        <time>2000-01-01T02:19:46.000Z</time>
      </trkpt>
      <trkpt lat="46.15366" lon="6.6964">
        <ele>1450</ele>
        <time>2000-01-01T02:19:56.000Z</time>
      </trkpt>
      <trkpt lat="46.15405" lon="6.69645">
        <ele>1441</ele>
        <time>2000-01-01T02:20:06.000Z</time>
      </trkpt>
      <trkpt lat="46.15434" lon="6.69641">
        <ele>1434</ele>
        <time>2000-01-01T02:20:16.000Z</time>
      </trkpt>
      <trkpt lat="46.15404" lon="6.69664">
        <ele>1431</ele>
        <time>2000-01-01T02:20:26.000Z</time>
      </trkpt>
      <trkpt lat="46.15371" lon="6.69679">
        <ele>1431</ele>
        <time>2000-01-01T02:20:36.000Z</time>
      </trkpt>
      <trkpt lat="46.15351" lon="6.69699">
        <ele>1425</ele>
        <time>2000-01-01T02:20:46.000Z</time>
      </trkpt>
      <trkpt lat="46.15331" lon="6.6972">
        <ele>1414</ele>
        <time>2000-01-01T02:20:56.000Z</time>
      </trkpt>
      <trkpt lat="46.15315" lon="6.69745">
        <ele>1410</ele>
        <time>2000-01-01T02:21:06.000Z</time>
      </trkpt>
      <trkpt lat="46.15358" lon="6.69747">
        <ele>1407</ele>
        <time>2000-01-01T02:21:16.000Z</time>
      </trkpt>
      <trkpt lat="46.15363" lon="6.69771">
        <ele>1392.6</ele>
        <time>2000-01-01T02:21:26.000Z</time>
      </trkpt>
      <trkpt lat="46.15333" lon="6.69786">
        <ele>1392</ele>
        <time>2000-01-01T02:21:36.000Z</time>
      </trkpt>
      <trkpt lat="46.15357" lon="6.69788">
        <ele>1389</ele>
        <time>2000-01-01T02:21:46.000Z</time>
      </trkpt>
      <trkpt lat="46.15384" lon="6.6979">
        <ele>1383</ele>
        <time>2000-01-01T02:21:56.000Z</time>
      </trkpt>
      <trkpt lat="46.15366" lon="6.69813">
        <ele>1377</ele>
        <time>2000-01-01T02:22:06.000Z</time>
      </trkpt>
      <trkpt lat="46.15346" lon="6.69836">
        <ele>1373</ele>
        <time>2000-01-01T02:22:16.000Z</time>
      </trkpt>
      <trkpt lat="46.1537" lon="6.69836">
        <ele>1372</ele>
        <time>2000-01-01T02:22:26.000Z</time>
      </trkpt>
      <trkpt lat="46.15395" lon="6.69836">
        <ele>1370</ele>
        <time>2000-01-01T02:22:36.000Z</time>
      </trkpt>
      <trkpt lat="46.15364" lon="6.69861">
        <ele>1365</ele>
        <time>2000-01-01T02:22:46.000Z</time>
      </trkpt>
      <trkpt lat="46.15388" lon="6.6986">
        <ele>1365</ele>
        <time>2000-01-01T02:22:56.000Z</time>
      </trkpt>
      <trkpt lat="46.15414" lon="6.69859">
        <ele>1360</ele>
        <time>2000-01-01T02:23:06.000Z</time>
      </trkpt>
      <trkpt lat="46.15381" lon="6.69887">
        <ele>1356</ele>
        <time>2000-01-01T02:23:16.000Z</time>
      </trkpt>
      <trkpt lat="46.15349" lon="6.69915">
        <ele>1347</ele>
        <time>2000-01-01T02:23:26.000Z</time>
      </trkpt>
      <trkpt lat="46.15317" lon="6.69943">
        <ele>1345</ele>
        <time>2000-01-01T02:23:36.000Z</time>
      </trkpt>
      <trkpt lat="46.15284" lon="6.69971">
        <ele>1345</ele>
        <time>2000-01-01T02:23:46.000Z</time>
      </trkpt>
      <trkpt lat="46.15264" lon="6.69989">
        <ele>1345</ele>
        <time>2000-01-01T02:23:56.000Z</time>
      </trkpt>
      <trkpt lat="46.15242" lon="6.70008">
        <ele>1343</ele>
        <time>2000-01-01T02:24:06.000Z</time>
      </trkpt>
      <trkpt lat="46.15222" lon="6.70039">
        <ele>1341</ele>
        <time>2000-01-01T02:24:16.000Z</time>
      </trkpt>
      <trkpt lat="46.15206" lon="6.70065">
        <ele>1339</ele>
        <time>2000-01-01T02:24:26.000Z</time>
      </trkpt>
      <trkpt lat="46.15188" lon="6.70092">
        <ele>1333</ele>
        <time>2000-01-01T02:24:36.000Z</time>
      </trkpt>
      <trkpt lat="46.15195" lon="6.70138">
        <ele>1332</ele>
        <time>2000-01-01T02:24:46.000Z</time>
      </trkpt>
      <trkpt lat="46.15202" lon="6.70184">
        <ele>1330</ele>
        <time>2000-01-01T02:24:56.000Z</time>
      </trkpt>
      <trkpt lat="46.1521" lon="6.70243">
        <ele>1327</ele>
        <time>2000-01-01T02:25:06.000Z</time>
      </trkpt>
      <trkpt lat="46.15215" lon="6.70281">
        <ele>1326</ele>
        <time>2000-01-01T02:25:16.000Z</time>
      </trkpt>
      <trkpt lat="46.15217" lon="6.70307">
        <ele>1325.5</ele>
        <time>2000-01-01T02:25:26.000Z</time>
      </trkpt>
      <trkpt lat="46.15222" lon="6.70329">
        <ele>1324</ele>
        <time>2000-01-01T02:25:36.000Z</time>
      </trkpt>
      <trkpt lat="46.15222" lon="6.70335">
        <ele>1323.9</ele>
        <time>2000-01-01T02:25:46.000Z</time>
      </trkpt>
      <trkpt lat="46.15226" lon="6.70356">
        <ele>1322</ele>
        <time>2000-01-01T02:25:56.000Z</time>
      </trkpt>
      <trkpt lat="46.15227" lon="6.70377">
        <ele>1320.9</ele>
        <time>2000-01-01T02:26:06.000Z</time>
      </trkpt>
      <trkpt lat="46.15226" lon="6.70381">
        <ele>1320.8</ele>
        <time>2000-01-01T02:26:16.000Z</time>
      </trkpt>
      <trkpt lat="46.15234" lon="6.70379">
        <ele>1321</ele>
        <time>2000-01-01T02:26:26.000Z</time>
      </trkpt>
      <trkpt lat="46.15226" lon="6.70381">
        <ele>1320.8</ele>
        <time>2000-01-01T02:26:36.000Z</time>
      </trkpt>
      <trkpt lat="46.15224" lon="6.70391">
        <ele>1320.5</ele>
        <time>2000-01-01T02:26:46.000Z</time>
      </trkpt>
      <trkpt lat="46.15209" lon="6.70425">
        <ele>1320</ele>
        <time>2000-01-01T02:26:56.000Z</time>
      </trkpt>
      <trkpt lat="46.15208" lon="6.70426">
        <ele>1319.7</ele>
        <time>2000-01-01T02:27:06.000Z</time>
      </trkpt>
      <trkpt lat="46.15206" lon="6.70435">
        <ele>1320</ele>
        <time>2000-01-01T02:27:16.000Z</time>
      </trkpt>
      <trkpt lat="46.15208" lon="6.70446">
        <ele>1320.1</ele>
        <time>2000-01-01T02:27:26.000Z</time>
      </trkpt>
      <trkpt lat="46.15211" lon="6.70454">
        <ele>1321</ele>
        <time>2000-01-01T02:27:36.000Z</time>
      </trkpt>
      <trkpt lat="46.15217" lon="6.70463">
        <ele>1321.1</ele>
        <time>2000-01-01T02:27:46.000Z</time>
      </trkpt>
      <trkpt lat="46.15223" lon="6.70468">
        <ele>1321.6</ele>
        <time>2000-01-01T02:27:56.000Z</time>
      </trkpt>
      <trkpt lat="46.15231" lon="6.70473">
        <ele>1323</ele>
        <time>2000-01-01T02:28:06.000Z</time>
      </trkpt>
      <trkpt lat="46.15239" lon="6.70475">
        <ele>1324.8</ele>
        <time>2000-01-01T02:28:16.000Z</time>
      </trkpt>
      <trkpt lat="46.15253" lon="6.70476">
        <ele>1323</ele>
        <time>2000-01-01T02:28:26.000Z</time>
      </trkpt>
      <trkpt lat="46.1528" lon="6.70473">
        <ele>1326</ele>
        <time>2000-01-01T02:28:36.000Z</time>
      </trkpt>
      <trkpt lat="46.15306" lon="6.70473">
        <ele>1332</ele>
        <time>2000-01-01T02:28:46.000Z</time>
      </trkpt>
      <trkpt lat="46.1531" lon="6.70475">
        <ele>1333.4</ele>
        <time>2000-01-01T02:28:56.000Z</time>
      </trkpt>
      <trkpt lat="46.15318" lon="6.70482">
        <ele>1334.6</ele>
        <time>2000-01-01T02:29:06.000Z</time>
      </trkpt>
      <trkpt lat="46.15362" lon="6.70466">
        <ele>1332</ele>
        <time>2000-01-01T02:29:16.000Z</time>
      </trkpt>
      <trkpt lat="46.15391" lon="6.70458">
        <ele>1331</ele>
        <time>2000-01-01T02:29:26.000Z</time>
      </trkpt>
      <trkpt lat="46.15406" lon="6.70453">
        <ele>1330.9</ele>
        <time>2000-01-01T02:29:36.000Z</time>
      </trkpt>
      <trkpt lat="46.15448" lon="6.70449">
        <ele>1326</ele>
        <time>2000-01-01T02:29:46.000Z</time>
      </trkpt>
      <trkpt lat="46.15461" lon="6.70447">
        <ele>1326.8</ele>
        <time>2000-01-01T02:29:56.000Z</time>
      </trkpt>
      <trkpt lat="46.15467" lon="6.70444">
        <ele>1324</ele>
        <time>2000-01-01T02:30:06.000Z</time>
      </trkpt>
      <trkpt lat="46.15476" lon="6.70436">
        <ele>1323.8</ele>
        <time>2000-01-01T02:30:16.000Z</time>
      </trkpt>
      <trkpt lat="46.15484" lon="6.70426">
        <ele>1321</ele>
        <time>2000-01-01T02:30:26.000Z</time>
      </trkpt>
      <trkpt lat="46.15495" lon="6.70415">
        <ele>1321.9</ele>
        <time>2000-01-01T02:30:36.000Z</time>
      </trkpt>
      <trkpt lat="46.15541" lon="6.70386">
        <ele>1314</ele>
        <time>2000-01-01T02:30:46.000Z</time>
      </trkpt>
      <trkpt lat="46.15556" lon="6.7038">
        <ele>1314.7</ele>
        <time>2000-01-01T02:30:56.000Z</time>
      </trkpt>
      <trkpt lat="46.1558" lon="6.70374">
        <ele>1311</ele>
        <time>2000-01-01T02:31:06.000Z</time>
      </trkpt>
      <trkpt lat="46.15604" lon="6.70369">
        <ele>1307</ele>
        <time>2000-01-01T02:31:16.000Z</time>
      </trkpt>
      <trkpt lat="46.15614" lon="6.70369">
        <ele>1308.2</ele>
        <time>2000-01-01T02:31:26.000Z</time>
      </trkpt>
      <trkpt lat="46.15616" lon="6.70368">
        <ele>1307.7</ele>
        <time>2000-01-01T02:31:36.000Z</time>
      </trkpt>
      <trkpt lat="46.15628" lon="6.70371">
        <ele>1307</ele>
        <time>2000-01-01T02:31:46.000Z</time>
      </trkpt>
      <trkpt lat="46.15651" lon="6.70381">
        <ele>1303</ele>
        <time>2000-01-01T02:31:56.000Z</time>
      </trkpt>
      <trkpt lat="46.1566" lon="6.70382">
        <ele>1303.4</ele>
        <time>2000-01-01T02:32:06.000Z</time>
      </trkpt>
      <trkpt lat="46.15668" lon="6.7038">
        <ele>1302</ele>
        <time>2000-01-01T02:32:16.000Z</time>
      </trkpt>
      <trkpt lat="46.15687" lon="6.70377">
        <ele>1299</ele>
        <time>2000-01-01T02:32:26.000Z</time>
      </trkpt>
      <trkpt lat="46.15696" lon="6.70378">
        <ele>1299.8</ele>
        <time>2000-01-01T02:32:36.000Z</time>
      </trkpt>
      <trkpt lat="46.15713" lon="6.70388">
        <ele>1297</ele>
        <time>2000-01-01T02:32:46.000Z</time>
      </trkpt>
      <trkpt lat="46.1572" lon="6.70389">
        <ele>1297.4</ele>
        <time>2000-01-01T02:32:56.000Z</time>
      </trkpt>
      <trkpt lat="46.15725" lon="6.70387">
        <ele>1296.4</ele>
        <time>2000-01-01T02:33:06.000Z</time>
      </trkpt>
      <trkpt lat="46.15729" lon="6.7038">
        <ele>1294.9</ele>
        <time>2000-01-01T02:33:16.000Z</time>
      </trkpt>
      <trkpt lat="46.15728" lon="6.70372">
        <ele>1295</ele>
        <time>2000-01-01T02:33:26.000Z</time>
      </trkpt>
      <trkpt lat="46.15724" lon="6.70363">
        <ele>1293.8</ele>
        <time>2000-01-01T02:33:36.000Z</time>
      </trkpt>
      <trkpt lat="46.15697" lon="6.7034">
        <ele>1291</ele>
        <time>2000-01-01T02:33:46.000Z</time>
      </trkpt>
      <trkpt lat="46.15687" lon="6.70326">
        <ele>1291.3</ele>
        <time>2000-01-01T02:33:56.000Z</time>
      </trkpt>
      <trkpt lat="46.15678" lon="6.7031">
        <ele>1288</ele>
        <time>2000-01-01T02:34:06.000Z</time>
      </trkpt>
      <trkpt lat="46.15669" lon="6.70291">
        <ele>1288.1</ele>
        <time>2000-01-01T02:34:16.000Z</time>
      </trkpt>
      <trkpt lat="46.15661" lon="6.70278">
        <ele>1286</ele>
        <time>2000-01-01T02:34:26.000Z</time>
      </trkpt>
      <trkpt lat="46.15655" lon="6.70272">
        <ele>1286.3</ele>
        <time>2000-01-01T02:34:36.000Z</time>
      </trkpt>
      <trkpt lat="46.15647" lon="6.70268">
        <ele>1285.8</ele>
        <time>2000-01-01T02:34:46.000Z</time>
      </trkpt>
      <trkpt lat="46.15639" lon="6.70266">
        <ele>1283</ele>
        <time>2000-01-01T02:34:56.000Z</time>
      </trkpt>
      <trkpt lat="46.15634" lon="6.70261">
        <ele>1285.4</ele>
        <time>2000-01-01T02:35:06.000Z</time>
      </trkpt>
      <trkpt lat="46.15631" lon="6.7025">
        <ele>1283.9</ele>
        <time>2000-01-01T02:35:16.000Z</time>
      </trkpt>
      <trkpt lat="46.15633" lon="6.70242">
        <ele>1283</ele>
        <time>2000-01-01T02:35:26.000Z</time>
      </trkpt>
      <trkpt lat="46.15638" lon="6.70238">
        <ele>1280.9</ele>
        <time>2000-01-01T02:35:36.000Z</time>
      </trkpt>
      <trkpt lat="46.15646" lon="6.70236">
        <ele>1279.7</ele>
        <time>2000-01-01T02:35:46.000Z</time>
      </trkpt>
      <trkpt lat="46.15662" lon="6.70243">
        <ele>1280</ele>
        <time>2000-01-01T02:35:56.000Z</time>
      </trkpt>
      <trkpt lat="46.15685" lon="6.70251">
        <ele>1278</ele>
        <time>2000-01-01T02:36:06.000Z</time>
      </trkpt>
      <trkpt lat="46.15691" lon="6.70252">
        <ele>1277.9</ele>
        <time>2000-01-01T02:36:16.000Z</time>
      </trkpt>
      <trkpt lat="46.15699" lon="6.70252">
        <ele>1277</ele>
        <time>2000-01-01T02:36:26.000Z</time>
      </trkpt>
      <trkpt lat="46.15708" lon="6.7025">
        <ele>1275</ele>
        <time>2000-01-01T02:36:36.000Z</time>
      </trkpt>
      <trkpt lat="46.15724" lon="6.70244">
        <ele>1273.6</ele>
        <time>2000-01-01T02:36:46.000Z</time>
      </trkpt>
      <trkpt lat="46.15734" lon="6.70239">
        <ele>1269</ele>
        <time>2000-01-01T02:36:56.000Z</time>
      </trkpt>
      <trkpt lat="46.1574" lon="6.70239">
        <ele>1271.3</ele>
        <time>2000-01-01T02:37:06.000Z</time>
      </trkpt>
      <trkpt lat="46.15752" lon="6.7024">
        <ele>1270.5</ele>
        <time>2000-01-01T02:37:16.000Z</time>
      </trkpt>
      <trkpt lat="46.15784" lon="6.70245">
        <ele>1267</ele>
        <time>2000-01-01T02:37:26.000Z</time>
      </trkpt>
      <trkpt lat="46.15811" lon="6.70248">
        <ele>1262</ele>
        <time>2000-01-01T02:37:36.000Z</time>
      </trkpt>
      <trkpt lat="46.15832" lon="6.70252">
        <ele>1262</ele>
        <time>2000-01-01T02:37:46.000Z</time>
      </trkpt>
      <trkpt lat="46.15839" lon="6.70254">
        <ele>1261.5</ele>
        <time>2000-01-01T02:37:56.000Z</time>
      </trkpt>
      <trkpt lat="46.15853" lon="6.70262">
        <ele>1259</ele>
        <time>2000-01-01T02:38:06.000Z</time>
      </trkpt>
      <trkpt lat="46.15873" lon="6.70276">
        <ele>1257</ele>
        <time>2000-01-01T02:38:16.000Z</time>
      </trkpt>
      <trkpt lat="46.15881" lon="6.7028">
        <ele>1256.6</ele>
        <time>2000-01-01T02:38:26.000Z</time>
      </trkpt>
      <trkpt lat="46.15894" lon="6.70288">
        <ele>1255</ele>
        <time>2000-01-01T02:38:36.000Z</time>
      </trkpt>
      <trkpt lat="46.15905" lon="6.70296">
        <ele>1253.8</ele>
        <time>2000-01-01T02:38:46.000Z</time>
      </trkpt>
      <trkpt lat="46.15926" lon="6.70316">
        <ele>1251</ele>
        <time>2000-01-01T02:38:56.000Z</time>
      </trkpt>
      <trkpt lat="46.15931" lon="6.70316">
        <ele>1250.2</ele>
        <time>2000-01-01T02:39:06.000Z</time>
      </trkpt>
      <trkpt lat="46.15936" lon="6.70314">
        <ele>1249.5</ele>
        <time>2000-01-01T02:39:16.000Z</time>
      </trkpt>
      <trkpt lat="46.15953" lon="6.70401">
        <ele>1251</ele>
        <time>2000-01-01T02:39:26.000Z</time>
      </trkpt>
      <trkpt lat="46.15953" lon="6.70403">
        <ele>1251.6</ele>
        <time>2000-01-01T02:39:36.000Z</time>
      </trkpt>
      <trkpt lat="46.15955" lon="6.70403">
        <ele>1251.3</ele>
        <time>2000-01-01T02:39:46.000Z</time>
      </trkpt>
      <trkpt lat="46.15969" lon="6.70407">
        <ele>1249.2</ele>
        <time>2000-01-01T02:39:56.000Z</time>
      </trkpt>
      <trkpt lat="46.15981" lon="6.70412">
        <ele>1247</ele>
        <time>2000-01-01T02:40:06.000Z</time>
      </trkpt>
      <trkpt lat="46.15995" lon="6.70423">
        <ele>1245.3</ele>
        <time>2000-01-01T02:40:16.000Z</time>
      </trkpt>
      <trkpt lat="46.16028" lon="6.70438">
        <ele>1243</ele>
        <time>2000-01-01T02:40:26.000Z</time>
      </trkpt>
      <trkpt lat="46.16035" lon="6.70442">
        <ele>1242</ele>
        <time>2000-01-01T02:40:36.000Z</time>
      </trkpt>
      <trkpt lat="46.16072" lon="6.7047">
        <ele>1238</ele>
        <time>2000-01-01T02:40:46.000Z</time>
      </trkpt>
      <trkpt lat="46.16084" lon="6.70476">
        <ele>1237.5</ele>
        <time>2000-01-01T02:40:56.000Z</time>
      </trkpt>
      <trkpt lat="46.16099" lon="6.70481">
        <ele>1236</ele>
        <time>2000-01-01T02:41:06.000Z</time>
      </trkpt>
      <trkpt lat="46.16115" lon="6.70483">
        <ele>1231.9</ele>
        <time>2000-01-01T02:41:16.000Z</time>
      </trkpt>
      <trkpt lat="46.16136" lon="6.70488">
        <ele>1229</ele>
        <time>2000-01-01T02:41:26.000Z</time>
      </trkpt>
      <trkpt lat="46.16151" lon="6.70497">
        <ele>1223</ele>
        <time>2000-01-01T02:41:36.000Z</time>
      </trkpt>
      <trkpt lat="46.16159" lon="6.705">
        <ele>1224</ele>
        <time>2000-01-01T02:41:46.000Z</time>
      </trkpt>
      <trkpt lat="46.16175" lon="6.70514">
        <ele>1219</ele>
        <time>2000-01-01T02:41:56.000Z</time>
      </trkpt>
      <trkpt lat="46.16194" lon="6.70552">
        <ele>1215</ele>
        <time>2000-01-01T02:42:06.000Z</time>
      </trkpt>
      <trkpt lat="46.16213" lon="6.70588">
        <ele>1211</ele>
        <time>2000-01-01T02:42:16.000Z</time>
      </trkpt>
      <trkpt lat="46.16234" lon="6.70636">
        <ele>1207</ele>
        <time>2000-01-01T02:42:26.000Z</time>
      </trkpt>
      <trkpt lat="46.16243" lon="6.70658">
        <ele>1204.9</ele>
        <time>2000-01-01T02:42:36.000Z</time>
      </trkpt>
      <trkpt lat="46.16251" lon="6.70668">
        <ele>1203</ele>
        <time>2000-01-01T02:42:46.000Z</time>
      </trkpt>
      <trkpt lat="46.16253" lon="6.70672">
        <ele>1202.7</ele>
        <time>2000-01-01T02:42:56.000Z</time>
      </trkpt>
      <trkpt lat="46.16274" lon="6.70704">
        <ele>1199</ele>
        <time>2000-01-01T02:43:06.000Z</time>
      </trkpt>
      <trkpt lat="46.16292" lon="6.70724">
        <ele>1195</ele>
        <time>2000-01-01T02:43:16.000Z</time>
      </trkpt>
      <trkpt lat="46.16316" lon="6.70758">
        <ele>1190</ele>
        <time>2000-01-01T02:43:26.000Z</time>
      </trkpt>
      <trkpt lat="46.16332" lon="6.70774">
        <ele>1185</ele>
        <time>2000-01-01T02:43:36.000Z</time>
      </trkpt>
      <trkpt lat="46.16364" lon="6.70777">
        <ele>1178</ele>
        <time>2000-01-01T02:43:46.000Z</time>
      </trkpt>
      <trkpt lat="46.16378" lon="6.70783">
        <ele>1172.7</ele>
        <time>2000-01-01T02:43:56.000Z</time>
      </trkpt>
      <trkpt lat="46.16386" lon="6.70795">
        <ele>1171</ele>
        <time>2000-01-01T02:44:06.000Z</time>
      </trkpt>
      <trkpt lat="46.16393" lon="6.70799">
        <ele>1168</ele>
        <time>2000-01-01T02:44:16.000Z</time>
      </trkpt>
      <trkpt lat="46.16399" lon="6.7081">
        <ele>1166.3</ele>
        <time>2000-01-01T02:44:26.000Z</time>
      </trkpt>
      <trkpt lat="46.16406" lon="6.70817">
        <ele>1165</ele>
        <time>2000-01-01T02:44:36.000Z</time>
      </trkpt>
      <trkpt lat="46.16407" lon="6.70815">
        <ele>1163.6</ele>
        <time>2000-01-01T02:44:46.000Z</time>
      </trkpt>
      <trkpt lat="46.16411" lon="6.70813">
        <ele>1161.9</ele>
        <time>2000-01-01T02:44:56.000Z</time>
      </trkpt>
      <trkpt lat="46.16445" lon="6.70808">
        <ele>1154</ele>
        <time>2000-01-01T02:45:06.000Z</time>
      </trkpt>
      <trkpt lat="46.16452" lon="6.70806">
        <ele>1136.8</ele>
        <time>2000-01-01T02:45:16.000Z</time>
      </trkpt>
      <trkpt lat="46.16477" lon="6.70802">
        <ele>1160</ele>
        <time>2000-01-01T02:45:26.000Z</time>
      </trkpt>
      <trkpt lat="46.16511" lon="6.70795">
        <ele>1161</ele>
        <time>2000-01-01T02:45:36.000Z</time>
      </trkpt>
      <trkpt lat="46.16525" lon="6.70798">
        <ele>1163.5</ele>
        <time>2000-01-01T02:45:46.000Z</time>
      </trkpt>
      <trkpt lat="46.1654" lon="6.70788">
        <ele>1161</ele>
        <time>2000-01-01T02:45:56.000Z</time>
      </trkpt>
      <trkpt lat="46.1655" lon="6.70785">
        <ele>1162.7</ele>
        <time>2000-01-01T02:46:06.000Z</time>
      </trkpt>
      <trkpt lat="46.16563" lon="6.70783">
        <ele>1160</ele>
        <time>2000-01-01T02:46:16.000Z</time>
      </trkpt>
      <trkpt lat="46.16582" lon="6.70783">
        <ele>1160</ele>
        <time>2000-01-01T02:46:26.000Z</time>
      </trkpt>
      <trkpt lat="46.16596" lon="6.70789">
        <ele>1158.2</ele>
        <time>2000-01-01T02:46:36.000Z</time>
      </trkpt>
      <trkpt lat="46.16604" lon="6.70791">
        <ele>1157</ele>
        <time>2000-01-01T02:46:46.000Z</time>
      </trkpt>
      <trkpt lat="46.16609" lon="6.70791">
        <ele>1156.8</ele>
        <time>2000-01-01T02:46:56.000Z</time>
      </trkpt>
      <trkpt lat="46.16616" lon="6.7079">
        <ele>1155.5</ele>
        <time>2000-01-01T02:47:06.000Z</time>
      </trkpt>
      <trkpt lat="46.16623" lon="6.7079">
        <ele>1154</ele>
        <time>2000-01-01T02:47:16.000Z</time>
      </trkpt>
      <trkpt lat="46.16628" lon="6.70789">
        <ele>1152.6</ele>
        <time>2000-01-01T02:47:26.000Z</time>
      </trkpt>
      <trkpt lat="46.16637" lon="6.70786">
        <ele>1151</ele>
        <time>2000-01-01T02:47:36.000Z</time>
      </trkpt>
      <trkpt lat="46.16665" lon="6.70779">
        <ele>1148</ele>
        <time>2000-01-01T02:47:46.000Z</time>
      </trkpt>
      <trkpt lat="46.16687" lon="6.70775">
        <ele>1144</ele>
        <time>2000-01-01T02:47:56.000Z</time>
      </trkpt>
      <trkpt lat="46.16694" lon="6.70772">
        <ele>1141.5</ele>
        <time>2000-01-01T02:48:06.000Z</time>
      </trkpt>
      <trkpt lat="46.16699" lon="6.70768">
        <ele>1140.8</ele>
        <time>2000-01-01T02:48:16.000Z</time>
      </trkpt>
      <trkpt lat="46.16707" lon="6.70758">
        <ele>1142</ele>
        <time>2000-01-01T02:48:26.000Z</time>
      </trkpt>
      <trkpt lat="46.1672" lon="6.70748">
        <ele>1138.4</ele>
        <time>2000-01-01T02:48:36.000Z</time>
      </trkpt>
      <trkpt lat="46.16728" lon="6.70743">
        <ele>1141</ele>
        <time>2000-01-01T02:48:46.000Z</time>
      </trkpt>
      <trkpt lat="46.16738" lon="6.70734">
        <ele>1135</ele>
        <time>2000-01-01T02:48:56.000Z</time>
      </trkpt>
      <trkpt lat="46.16746" lon="6.70725">
        <ele>1137</ele>
        <time>2000-01-01T02:49:06.000Z</time>
      </trkpt>
      <trkpt lat="46.16751" lon="6.70718">
        <ele>1133</ele>
        <time>2000-01-01T02:49:16.000Z</time>
      </trkpt>
      <trkpt lat="46.16754" lon="6.70706">
        <ele>1133.1</ele>
        <time>2000-01-01T02:49:26.000Z</time>
      </trkpt>
      <trkpt lat="46.16762" lon="6.70695">
        <ele>1131</ele>
        <time>2000-01-01T02:49:36.000Z</time>
      </trkpt>
      <trkpt lat="46.16769" lon="6.70688">
        <ele>1127.8</ele>
        <time>2000-01-01T02:49:46.000Z</time>
      </trkpt>
      <trkpt lat="46.16782" lon="6.70689">
        <ele>1130</ele>
        <time>2000-01-01T02:49:56.000Z</time>
      </trkpt>
      <trkpt lat="46.16803" lon="6.70692">
        <ele>1129</ele>
        <time>2000-01-01T02:50:06.000Z</time>
      </trkpt>
      <trkpt lat="46.16826" lon="6.70692">
        <ele>1129</ele>
        <time>2000-01-01T02:50:16.000Z</time>
      </trkpt>
      <trkpt lat="46.16835" lon="6.7069">
        <ele>1128</ele>
        <time>2000-01-01T02:50:26.000Z</time>
      </trkpt>
      <trkpt lat="46.16841" lon="6.70687">
        <ele>1127</ele>
        <time>2000-01-01T02:50:36.000Z</time>
      </trkpt>
      <trkpt lat="46.16852" lon="6.7068">
        <ele>1126</ele>
        <time>2000-01-01T02:50:46.000Z</time>
      </trkpt>
      <trkpt lat="46.16873" lon="6.70663">
        <ele>1124</ele>
        <time>2000-01-01T02:50:56.000Z</time>
      </trkpt>
      <trkpt lat="46.16878" lon="6.7066">
        <ele>1125.7</ele>
        <time>2000-01-01T02:51:06.000Z</time>
      </trkpt>
      <trkpt lat="46.16883" lon="6.70658">
        <ele>1125</ele>
        <time>2000-01-01T02:51:16.000Z</time>
      </trkpt>
      <trkpt lat="46.16896" lon="6.70655">
        <ele>1124</ele>
        <time>2000-01-01T02:51:26.000Z</time>
      </trkpt>
      <trkpt lat="46.16928" lon="6.70657">
        <ele>1121</ele>
        <time>2000-01-01T02:51:36.000Z</time>
      </trkpt>
      <trkpt lat="46.16936" lon="6.70657">
        <ele>1118</ele>
        <time>2000-01-01T02:51:46.000Z</time>
      </trkpt>
      <trkpt lat="46.16958" lon="6.70655">
        <ele>1117</ele>
        <time>2000-01-01T02:51:56.000Z</time>
      </trkpt>
      <trkpt lat="46.1697" lon="6.70656">
        <ele>1114.1</ele>
        <time>2000-01-01T02:52:06.000Z</time>
      </trkpt>
      <trkpt lat="46.16984" lon="6.70656">
        <ele>1115</ele>
        <time>2000-01-01T02:52:16.000Z</time>
      </trkpt>
      <trkpt lat="46.17" lon="6.70655">
        <ele>1111.8</ele>
        <time>2000-01-01T02:52:26.000Z</time>
      </trkpt>
      <trkpt lat="46.17016" lon="6.70651">
        <ele>1111</ele>
        <time>2000-01-01T02:52:36.000Z</time>
      </trkpt>
      <trkpt lat="46.17034" lon="6.70648">
        <ele>1108.5</ele>
        <time>2000-01-01T02:52:46.000Z</time>
      </trkpt>
      <trkpt lat="46.17047" lon="6.70645">
        <ele>1110</ele>
        <time>2000-01-01T02:52:56.000Z</time>
      </trkpt>
      <trkpt lat="46.17057" lon="6.70644">
        <ele>1106.8</ele>
        <time>2000-01-01T02:53:06.000Z</time>
      </trkpt>
      <trkpt lat="46.17067" lon="6.70644">
        <ele>1106</ele>
        <time>2000-01-01T02:53:16.000Z</time>
      </trkpt>
      <trkpt lat="46.17084" lon="6.70646">
        <ele>1102.7</ele>
        <time>2000-01-01T02:53:26.000Z</time>
      </trkpt>
      <trkpt lat="46.17094" lon="6.70646">
        <ele>1105</ele>
        <time>2000-01-01T02:53:36.000Z</time>
      </trkpt>
      <trkpt lat="46.17104" lon="6.70644">
        <ele>1098.1</ele>
        <time>2000-01-01T02:53:46.000Z</time>
      </trkpt>
      <trkpt lat="46.17108" lon="6.70642">
        <ele>1097.8</ele>
        <time>2000-01-01T02:53:56.000Z</time>
      </trkpt>
      <trkpt lat="46.17124" lon="6.70638">
        <ele>1098</ele>
        <time>2000-01-01T02:54:06.000Z</time>
      </trkpt>
      <trkpt lat="46.17133" lon="6.70634">
        <ele>1098.3</ele>
        <time>2000-01-01T02:54:16.000Z</time>
      </trkpt>
      <trkpt lat="46.17172" lon="6.70613">
        <ele>1093</ele>
        <time>2000-01-01T02:54:26.000Z</time>
      </trkpt>
      <trkpt lat="46.17189" lon="6.70605">
        <ele>1091.5</ele>
        <time>2000-01-01T02:54:36.000Z</time>
      </trkpt>
      <trkpt lat="46.17195" lon="6.70601">
        <ele>1092</ele>
        <time>2000-01-01T02:54:46.000Z</time>
      </trkpt>
      <trkpt lat="46.17208" lon="6.70597">
        <ele>1089.1</ele>
        <time>2000-01-01T02:54:56.000Z</time>
      </trkpt>
      <trkpt lat="46.1722" lon="6.70589">
        <ele>1092</ele>
        <time>2000-01-01T02:55:06.000Z</time>
      </trkpt>
      <trkpt lat="46.17224" lon="6.70588">
        <ele>1087.7</ele>
        <time>2000-01-01T02:55:16.000Z</time>
      </trkpt>
      <trkpt lat="46.17228" lon="6.70588">
        <ele>1086.9</ele>
        <time>2000-01-01T02:55:26.000Z</time>
      </trkpt>
      <trkpt lat="46.17233" lon="6.70585">
        <ele>1086.7</ele>
        <time>2000-01-01T02:55:36.000Z</time>
      </trkpt>
      <trkpt lat="46.17248" lon="6.70573">
        <ele>1087</ele>
        <time>2000-01-01T02:55:46.000Z</time>
      </trkpt>
      <trkpt lat="46.17252" lon="6.70568">
        <ele>1086.5</ele>
        <time>2000-01-01T02:55:56.000Z</time>
      </trkpt>
      <trkpt lat="46.17259" lon="6.70562">
        <ele>1086.5</ele>
        <time>2000-01-01T02:56:06.000Z</time>
      </trkpt>
      <trkpt lat="46.1729" lon="6.70545">
        <ele>1087</ele>
        <time>2000-01-01T02:56:16.000Z</time>
      </trkpt>
      <trkpt lat="46.17295" lon="6.70544">
        <ele>1085.7</ele>
        <time>2000-01-01T02:56:26.000Z</time>
      </trkpt>
      <trkpt lat="46.17309" lon="6.70538">
        <ele>1087</ele>
        <time>2000-01-01T02:56:36.000Z</time>
      </trkpt>
      <trkpt lat="46.17317" lon="6.70531">
        <ele>1084.9</ele>
        <time>2000-01-01T02:56:46.000Z</time>
      </trkpt>
      <trkpt lat="46.17327" lon="6.70524">
        <ele>1087</ele>
        <time>2000-01-01T02:56:56.000Z</time>
      </trkpt>
      <trkpt lat="46.17332" lon="6.70517">
        <ele>1084.1</ele>
        <time>2000-01-01T02:57:06.000Z</time>
      </trkpt>
      <trkpt lat="46.17347" lon="6.70505">
        <ele>1086</ele>
        <time>2000-01-01T02:57:16.000Z</time>
      </trkpt>
      <trkpt lat="46.17353" lon="6.70499">
        <ele>1082.6</ele>
        <time>2000-01-01T02:57:26.000Z</time>
      </trkpt>
      <trkpt lat="46.17371" lon="6.70486">
        <ele>1082</ele>
        <time>2000-01-01T02:57:36.000Z</time>
      </trkpt>
      <trkpt lat="46.17394" lon="6.70471">
        <ele>1081</ele>
        <time>2000-01-01T02:57:46.000Z</time>
      </trkpt>
      <trkpt lat="46.17411" lon="6.70458">
        <ele>1080</ele>
        <time>2000-01-01T02:57:56.000Z</time>
      </trkpt>
      <trkpt lat="46.17415" lon="6.70454">
        <ele>1078.5</ele>
        <time>2000-01-01T02:58:06.000Z</time>
      </trkpt>
      <trkpt lat="46.17433" lon="6.70441">
        <ele>1081</ele>
        <time>2000-01-01T02:58:16.000Z</time>
      </trkpt>
      <trkpt lat="46.17459" lon="6.70411">
        <ele>1081</ele>
        <time>2000-01-01T02:58:26.000Z</time>
      </trkpt>
      <trkpt lat="46.1747" lon="6.70406">
        <ele>1076.7</ele>
        <time>2000-01-01T02:58:36.000Z</time>
      </trkpt>
      <trkpt lat="46.17477" lon="6.70391">
        <ele>1081</ele>
        <time>2000-01-01T02:58:46.000Z</time>
      </trkpt>
      <trkpt lat="46.17488" lon="6.70387">
        <ele>1075.3</ele>
        <time>2000-01-01T02:58:56.000Z</time>
      </trkpt>
      <trkpt lat="46.175" lon="6.70374">
        <ele>1080</ele>
        <time>2000-01-01T02:59:06.000Z</time>
      </trkpt>
      <trkpt lat="46.17513" lon="6.70351">
        <ele>1079</ele>
        <time>2000-01-01T02:59:16.000Z</time>
      </trkpt>
      <trkpt lat="46.17526" lon="6.70353">
        <ele>1071</ele>
        <time>2000-01-01T02:59:26.000Z</time>
      </trkpt>
      <trkpt lat="46.17546" lon="6.70321">
        <ele>1075</ele>
        <time>2000-01-01T02:59:36.000Z</time>
      </trkpt>
      <trkpt lat="46.1756" lon="6.70305">
        <ele>1071</ele>
        <time>2000-01-01T02:59:46.000Z</time>
      </trkpt>
      <trkpt lat="46.1758" lon="6.70292">
        <ele>1071</ele>
        <time>2000-01-01T02:59:56.000Z</time>
      </trkpt>
      <trkpt lat="46.17595" lon="6.70289">
        <ele>1067.8</ele>
        <time>2000-01-01T03:00:06.000Z</time>
      </trkpt>
      <trkpt lat="46.17605" lon="6.70281">
        <ele>1071</ele>
        <time>2000-01-01T03:00:16.000Z</time>
      </trkpt>
      <trkpt lat="46.17611" lon="6.70272">
        <ele>1068.1</ele>
        <time>2000-01-01T03:00:26.000Z</time>
      </trkpt>
      <trkpt lat="46.17615" lon="6.70258">
        <ele>1067</ele>
        <time>2000-01-01T03:00:36.000Z</time>
      </trkpt>
      <trkpt lat="46.17624" lon="6.70237">
        <ele>1067</ele>
        <time>2000-01-01T03:00:46.000Z</time>
      </trkpt>
      <trkpt lat="46.17632" lon="6.70229">
        <ele>1064</ele>
        <time>2000-01-01T03:00:56.000Z</time>
      </trkpt>
      <trkpt lat="46.17642" lon="6.70231">
        <ele>1057.7</ele>
        <time>2000-01-01T03:01:06.000Z</time>
      </trkpt>
      <trkpt lat="46.17642" lon="6.7022">
        <ele>1058.5</ele>
        <time>2000-01-01T03:01:16.000Z</time>
      </trkpt>
      <trkpt lat="46.17649" lon="6.70222">
        <ele>1066</ele>
        <time>2000-01-01T03:01:26.000Z</time>
      </trkpt>
      <trkpt lat="46.1765" lon="6.702">
        <ele>1064</ele>
        <time>2000-01-01T03:01:36.000Z</time>
      </trkpt>
      <trkpt lat="46.17668" lon="6.70195">
        <ele>1068</ele>
        <time>2000-01-01T03:01:46.000Z</time>
      </trkpt>
      <trkpt lat="46.17678" lon="6.70191">
        <ele>1063.2</ele>
        <time>2000-01-01T03:01:56.000Z</time>
      </trkpt>
      <trkpt lat="46.17682" lon="6.70186">
        <ele>1063.5</ele>
        <time>2000-01-01T03:02:06.000Z</time>
      </trkpt>
      <trkpt lat="46.17687" lon="6.70172">
        <ele>1070</ele>
        <time>2000-01-01T03:02:16.000Z</time>
      </trkpt>
      <trkpt lat="46.17708" lon="6.70147">
        <ele>1070</ele>
        <time>2000-01-01T03:02:26.000Z</time>
      </trkpt>
      <trkpt lat="46.17714" lon="6.70145">
        <ele>1062.7</ele>
        <time>2000-01-01T03:02:36.000Z</time>
      </trkpt>
      <trkpt lat="46.17734" lon="6.70142">
        <ele>1065</ele>
        <time>2000-01-01T03:02:46.000Z</time>
      </trkpt>
      <trkpt lat="46.17738" lon="6.70127">
        <ele>1057.7</ele>
        <time>2000-01-01T03:02:56.000Z</time>
      </trkpt>
      <trkpt lat="46.17743" lon="6.70112">
        <ele>1064</ele>
        <time>2000-01-01T03:03:06.000Z</time>
      </trkpt>
      <trkpt lat="46.17752" lon="6.70092">
        <ele>1059.6</ele>
        <time>2000-01-01T03:03:16.000Z</time>
      </trkpt>
      <trkpt lat="46.17754" lon="6.70078">
        <ele>1063</ele>
        <time>2000-01-01T03:03:26.000Z</time>
      </trkpt>
      <trkpt lat="46.17772" lon="6.70083">
        <ele>1052.5</ele>
        <time>2000-01-01T03:03:36.000Z</time>
      </trkpt>
      <trkpt lat="46.17783" lon="6.70092">
        <ele>1048</ele>
        <time>2000-01-01T03:03:46.000Z</time>
      </trkpt>
      <trkpt lat="46.17793" lon="6.70095">
        <ele>1041.3</ele>
        <time>2000-01-01T03:03:56.000Z</time>
      </trkpt>
      <trkpt lat="46.17802" lon="6.70099">
        <ele>1038</ele>
        <time>2000-01-01T03:04:06.000Z</time>
      </trkpt>
      <trkpt lat="46.17807" lon="6.70115">
        <ele>1031.9</ele>
        <time>2000-01-01T03:04:16.000Z</time>
      </trkpt>
      <trkpt lat="46.17813" lon="6.70128">
        <ele>1029</ele>
        <time>2000-01-01T03:04:26.000Z</time>
      </trkpt>
      <trkpt lat="46.17823" lon="6.70142">
        <ele>1021.3</ele>
        <time>2000-01-01T03:04:36.000Z</time>
      </trkpt>
      <trkpt lat="46.17833" lon="6.70154">
        <ele>1018</ele>
        <time>2000-01-01T03:04:46.000Z</time>
      </trkpt>
      <trkpt lat="46.17838" lon="6.70165">
        <ele>1014.3</ele>
        <time>2000-01-01T03:04:56.000Z</time>
      </trkpt>
      <trkpt lat="46.17841" lon="6.70179">
        <ele>1012</ele>
        <time>2000-01-01T03:05:06.000Z</time>
      </trkpt>
      <trkpt lat="46.1785" lon="6.70173">
        <ele>1010.7</ele>
        <time>2000-01-01T03:05:16.000Z</time>
      </trkpt>
      <trkpt lat="46.17863" lon="6.70163">
        <ele>1009</ele>
        <time>2000-01-01T03:05:26.000Z</time>
      </trkpt>
      <trkpt lat="46.17874" lon="6.70153">
        <ele>1008</ele>
        <time>2000-01-01T03:05:36.000Z</time>
      </trkpt>
      <trkpt lat="46.17879" lon="6.70152">
        <ele>1006.8</ele>
        <time>2000-01-01T03:05:46.000Z</time>
      </trkpt>
      <trkpt lat="46.17884" lon="6.70155">
        <ele>1005</ele>
        <time>2000-01-01T03:05:56.000Z</time>
      </trkpt>
      <trkpt lat="46.17897" lon="6.70159">
        <ele>1001.4</ele>
        <time>2000-01-01T03:06:06.000Z</time>
      </trkpt>
      <trkpt lat="46.17915" lon="6.70161">
        <ele>997</ele>
        <time>2000-01-01T03:06:16.000Z</time>
      </trkpt>
      <trkpt lat="46.1793" lon="6.70157">
        <ele>994.8</ele>
        <time>2000-01-01T03:06:26.000Z</time>
      </trkpt>
      <trkpt lat="46.17939" lon="6.70152">
        <ele>995</ele>
        <time>2000-01-01T03:06:36.000Z</time>
      </trkpt>
      <trkpt lat="46.17957" lon="6.70133">
        <ele>992</ele>
        <time>2000-01-01T03:06:46.000Z</time>
      </trkpt>
      <trkpt lat="46.17966" lon="6.70136">
        <ele>989.4</ele>
        <time>2000-01-01T03:06:56.000Z</time>
      </trkpt>
      <trkpt lat="46.17975" lon="6.70142">
        <ele>989</ele>
        <time>2000-01-01T03:07:06.000Z</time>
      </trkpt>
      <trkpt lat="46.17988" lon="6.70149">
        <ele>984.9</ele>
        <time>2000-01-01T03:07:16.000Z</time>
      </trkpt>
      <trkpt lat="46.1799" lon="6.70131">
        <ele>988</ele>
        <time>2000-01-01T03:07:26.000Z</time>
      </trkpt>
      <trkpt lat="46.17986" lon="6.70109">
        <ele>987.1</ele>
        <time>2000-01-01T03:07:36.000Z</time>
      </trkpt>
      <trkpt lat="46.17992" lon="6.70097">
        <ele>987</ele>
        <time>2000-01-01T03:07:46.000Z</time>
      </trkpt>
      <trkpt lat="46.17998" lon="6.70095">
        <ele>985.9</ele>
        <time>2000-01-01T03:07:56.000Z</time>
      </trkpt>
      <trkpt lat="46.18011" lon="6.70078">
        <ele>987</ele>
        <time>2000-01-01T03:08:06.000Z</time>
      </trkpt>
      <trkpt lat="46.18012" lon="6.70076">
        <ele>985.7</ele>
        <time>2000-01-01T03:08:16.000Z</time>
      </trkpt>
      <trkpt lat="46.18016" lon="6.70072">
        <ele>985.6</ele>
        <time>2000-01-01T03:08:26.000Z</time>
      </trkpt>
      <trkpt lat="46.18017" lon="6.7007">
        <ele>985.6</ele>
        <time>2000-01-01T03:08:36.000Z</time>
      </trkpt>
      <trkpt lat="46.18018" lon="6.7007">
        <ele>985.5</ele>
        <time>2000-01-01T03:08:46.000Z</time>
      </trkpt>
      <trkpt lat="46.18022" lon="6.70065">
        <ele>985.4</ele>
        <time>2000-01-01T03:08:56.000Z</time>
      </trkpt>
      <trkpt lat="46.18024" lon="6.70061">
        <ele>985.3</ele>
        <time>2000-01-01T03:09:06.000Z</time>
      </trkpt>
      <trkpt lat="46.18028" lon="6.70045">
        <ele>988</ele>
        <time>2000-01-01T03:09:16.000Z</time>
      </trkpt>
      <trkpt lat="46.18029" lon="6.70035">
        <ele>987.7</ele>
        <time>2000-01-01T03:09:26.000Z</time>
      </trkpt>
      <trkpt lat="46.18029" lon="6.70026">
        <ele>988.9</ele>
        <time>2000-01-01T03:09:36.000Z</time>
      </trkpt>
      <trkpt lat="46.18032" lon="6.70013">
        <ele>990</ele>
        <time>2000-01-01T03:09:46.000Z</time>
      </trkpt>
      <trkpt lat="46.18036" lon="6.7">
        <ele>989.5</ele>
        <time>2000-01-01T03:09:56.000Z</time>
      </trkpt>
      <trkpt lat="46.18039" lon="6.69987">
        <ele>992</ele>
        <time>2000-01-01T03:10:06.000Z</time>
      </trkpt>
      <trkpt lat="46.18039" lon="6.69972">
        <ele>992</ele>
        <time>2000-01-01T03:10:16.000Z</time>
      </trkpt>
      <trkpt lat="46.18038" lon="6.69961">
        <ele>993.6</ele>
        <time>2000-01-01T03:10:26.000Z</time>
      </trkpt>
      <trkpt lat="46.18035" lon="6.69954">
        <ele>997</ele>
        <time>2000-01-01T03:10:36.000Z</time>
      </trkpt>
      <trkpt lat="46.18021" lon="6.69939">
        <ele>1000.2</ele>
        <time>2000-01-01T03:10:46.000Z</time>
      </trkpt>
      <trkpt lat="46.18018" lon="6.69933">
        <ele>1003</ele>
        <time>2000-01-01T03:10:56.000Z</time>
      </trkpt>
      <trkpt lat="46.18017" lon="6.69926">
        <ele>1003.5</ele>
        <time>2000-01-01T03:11:06.000Z</time>
      </trkpt>
      <trkpt lat="46.18017" lon="6.69919">
        <ele>1004.9</ele>
        <time>2000-01-01T03:11:16.000Z</time>
      </trkpt>
      <trkpt lat="46.18019" lon="6.69913">
        <ele>1005.5</ele>
        <time>2000-01-01T03:11:26.000Z</time>
      </trkpt>
      <trkpt lat="46.1802" lon="6.69904">
        <ele>1008</ele>
        <time>2000-01-01T03:11:36.000Z</time>
      </trkpt>
      <trkpt lat="46.18024" lon="6.6989">
        <ele>1007.8</ele>
        <time>2000-01-01T03:11:46.000Z</time>
      </trkpt>
      <trkpt lat="46.18034" lon="6.69865">
        <ele>1010</ele>
        <time>2000-01-01T03:11:56.000Z</time>
      </trkpt>
      <trkpt lat="46.18041" lon="6.69843">
        <ele>1012.4</ele>
        <time>2000-01-01T03:12:06.000Z</time>
      </trkpt>
      <trkpt lat="46.18049" lon="6.69826">
        <ele>1010</ele>
        <time>2000-01-01T03:12:16.000Z</time>
      </trkpt>
      <trkpt lat="46.18049" lon="6.69832">
        <ele>1013.2</ele>
        <time>2000-01-01T03:12:26.000Z</time>
      </trkpt>
      <trkpt lat="46.18061" lon="6.6985">
        <ele>1010</ele>
        <time>2000-01-01T03:12:36.000Z</time>
      </trkpt>
      <trkpt lat="46.18067" lon="6.69868">
        <ele>1003.9</ele>
        <time>2000-01-01T03:12:46.000Z</time>
      </trkpt>
      <trkpt lat="46.18077" lon="6.69889">
        <ele>1001</ele>
        <time>2000-01-01T03:12:56.000Z</time>
      </trkpt>
      <trkpt lat="46.18099" lon="6.69921">
        <ele>992</ele>
        <time>2000-01-01T03:13:06.000Z</time>
      </trkpt>
      <trkpt lat="46.1811" lon="6.69941">
        <ele>986.6</ele>
        <time>2000-01-01T03:13:16.000Z</time>
      </trkpt>
      <trkpt lat="46.18114" lon="6.6995">
        <ele>987</ele>
        <time>2000-01-01T03:13:26.000Z</time>
      </trkpt>
      <trkpt lat="46.18131" lon="6.69977">
        <ele>981</ele>
        <time>2000-01-01T03:13:36.000Z</time>
      </trkpt>
      <trkpt lat="46.1815" lon="6.70008">
        <ele>978</ele>
        <time>2000-01-01T03:13:46.000Z</time>
      </trkpt>
      <trkpt lat="46.18153" lon="6.70012">
        <ele>977.1</ele>
        <time>2000-01-01T03:13:56.000Z</time>
      </trkpt>
      <trkpt lat="46.18158" lon="6.70022">
        <ele>976.5</ele>
        <time>2000-01-01T03:14:06.000Z</time>
      </trkpt>
      <trkpt lat="46.18173" lon="6.70045">
        <ele>974</ele>
        <time>2000-01-01T03:14:16.000Z</time>
      </trkpt>
      <trkpt lat="46.18185" lon="6.70068">
        <ele>973</ele>
        <time>2000-01-01T03:14:26.000Z</time>
      </trkpt>
      <trkpt lat="46.18198" lon="6.7009">
        <ele>971</ele>
        <time>2000-01-01T03:14:36.000Z</time>
      </trkpt>
      <trkpt lat="46.1822" lon="6.7013">
        <ele>970</ele>
        <time>2000-01-01T03:14:46.000Z</time>
      </trkpt>
      <trkpt lat="46.18238" lon="6.70159">
        <ele>969</ele>
        <time>2000-01-01T03:14:56.000Z</time>
      </trkpt>
      <trkpt lat="46.18261" lon="6.70197">
        <ele>968</ele>
        <time>2000-01-01T03:15:06.000Z</time>
      </trkpt>
      <trkpt lat="46.18265" lon="6.70202">
        <ele>968.6</ele>
        <time>2000-01-01T03:15:16.000Z</time>
      </trkpt>
      <trkpt lat="46.18269" lon="6.70205">
        <ele>968.6</ele>
        <time>2000-01-01T03:15:26.000Z</time>
      </trkpt>
      <trkpt lat="46.18275" lon="6.70207">
        <ele>968.5</ele>
        <time>2000-01-01T03:15:36.000Z</time>
      </trkpt>
      <trkpt lat="46.18275" lon="6.7021">
        <ele>968.6</ele>
        <time>2000-01-01T03:15:46.000Z</time>
      </trkpt>
      <trkpt lat="46.18276" lon="6.70214">
        <ele>968</ele>
        <time>2000-01-01T03:15:56.000Z</time>
      </trkpt>
      <trkpt lat="46.1828" lon="6.7022">
        <ele>968.9</ele>
        <time>2000-01-01T03:16:06.000Z</time>
      </trkpt>
      <trkpt lat="46.18285" lon="6.7022">
        <ele>968.9</ele>
        <time>2000-01-01T03:16:16.000Z</time>
      </trkpt>
      <trkpt lat="46.18286" lon="6.70228">
        <ele>968.9</ele>
        <time>2000-01-01T03:16:26.000Z</time>
      </trkpt>
      <trkpt lat="46.18303" lon="6.7026">
        <ele>968</ele>
        <time>2000-01-01T03:16:36.000Z</time>
      </trkpt>
      <trkpt lat="46.18319" lon="6.70287">
        <ele>968</ele>
        <time>2000-01-01T03:16:46.000Z</time>
      </trkpt>
      <trkpt lat="46.18331" lon="6.70309">
        <ele>968</ele>
        <time>2000-01-01T03:16:56.000Z</time>
      </trkpt>
      <trkpt lat="46.18338" lon="6.70303">
        <ele>969</ele>
        <time>2000-01-01T03:17:06.000Z</time>
      </trkpt>
      <trkpt lat="46.18375" lon="6.70372">
        <ele>956</ele>
        <time>2000-01-01T03:17:16.000Z</time>
      </trkpt>
      <trkpt lat="46.18391" lon="6.70404">
        <ele>937</ele>
        <time>2000-01-01T03:17:26.000Z</time>
      </trkpt>
      <trkpt lat="46.18415" lon="6.7045">
        <ele>937</ele>
        <time>2000-01-01T03:17:36.000Z</time>
      </trkpt>
      <trkpt lat="46.18435" lon="6.70486">
        <ele>940</ele>
        <time>2000-01-01T03:17:46.000Z</time>
      </trkpt>
      <trkpt lat="46.18454" lon="6.70524">
        <ele>957</ele>
        <time>2000-01-01T03:17:56.000Z</time>
      </trkpt>
      <trkpt lat="46.18474" lon="6.70561">
        <ele>979</ele>
        <time>2000-01-01T03:18:06.000Z</time>
      </trkpt>
      <trkpt lat="46.18499" lon="6.7061">
        <ele>983</ele>
        <time>2000-01-01T03:18:16.000Z</time>
      </trkpt>
      <trkpt lat="46.18517" lon="6.70643">
        <ele>993</ele>
        <time>2000-01-01T03:18:26.000Z</time>
      </trkpt>
      <trkpt lat="46.18535" lon="6.70678">
        <ele>1005</ele>
        <time>2000-01-01T03:18:36.000Z</time>
      </trkpt>
      <trkpt lat="46.18551" lon="6.70708">
        <ele>1018</ele>
        <time>2000-01-01T03:18:46.000Z</time>
      </trkpt>
      <trkpt lat="46.1857" lon="6.70744">
        <ele>1033</ele>
        <time>2000-01-01T03:18:56.000Z</time>
      </trkpt>
      <trkpt lat="46.18586" lon="6.70776">
        <ele>1048</ele>
        <time>2000-01-01T03:19:06.000Z</time>
      </trkpt>
      <trkpt lat="46.18604" lon="6.70809">
        <ele>1065</ele>
        <time>2000-01-01T03:19:16.000Z</time>
      </trkpt>
      <trkpt lat="46.18618" lon="6.70837">
        <ele>1081</ele>
        <time>2000-01-01T03:19:26.000Z</time>
      </trkpt>
      <trkpt lat="46.18634" lon="6.70866">
        <ele>1099</ele>
        <time>2000-01-01T03:19:36.000Z</time>
      </trkpt>
      <trkpt lat="46.18644" lon="6.70886">
        <ele>1119.1</ele>
        <time>2000-01-01T03:19:46.000Z</time>
      </trkpt>
      <trkpt lat="46.18664" lon="6.70923">
        <ele>1137</ele>
        <time>2000-01-01T03:19:56.000Z</time>
      </trkpt>
      <trkpt lat="46.18683" lon="6.7096">
        <ele>1158</ele>
        <time>2000-01-01T03:20:06.000Z</time>
      </trkpt>
      <trkpt lat="46.18703" lon="6.70997">
        <ele>1168</ele>
        <time>2000-01-01T03:20:16.000Z</time>
      </trkpt>
      <trkpt lat="46.18726" lon="6.71042">
        <ele>1196</ele>
        <time>2000-01-01T03:20:26.000Z</time>
      </trkpt>
      <trkpt lat="46.18741" lon="6.71071">
        <ele>1217</ele>
        <time>2000-01-01T03:20:36.000Z</time>
      </trkpt>
      <trkpt lat="46.1876" lon="6.71106">
        <ele>1230</ele>
        <time>2000-01-01T03:20:46.000Z</time>
      </trkpt>
      <trkpt lat="46.18784" lon="6.71153">
        <ele>1262</ele>
        <time>2000-01-01T03:20:56.000Z</time>
      </trkpt>
      <trkpt lat="46.18799" lon="6.7118">
        <ele>1277</ele>
        <time>2000-01-01T03:21:06.000Z</time>
      </trkpt>
      <trkpt lat="46.18814" lon="6.71209">
        <ele>1286</ele>
        <time>2000-01-01T03:21:16.000Z</time>
      </trkpt>
      <trkpt lat="46.1883" lon="6.71241">
        <ele>1300</ele>
        <time>2000-01-01T03:21:26.000Z</time>
      </trkpt>
      <trkpt lat="46.18853" lon="6.71285">
        <ele>1315</ele>
        <time>2000-01-01T03:21:36.000Z</time>
      </trkpt>
      <trkpt lat="46.18876" lon="6.71329">
        <ele>1327</ele>
        <time>2000-01-01T03:21:46.000Z</time>
      </trkpt>
      <trkpt lat="46.189" lon="6.71372">
        <ele>1342</ele>
        <time>2000-01-01T03:21:56.000Z</time>
      </trkpt>
      <trkpt lat="46.18923" lon="6.71416">
        <ele>1352</ele>
        <time>2000-01-01T03:22:06.000Z</time>
      </trkpt>
      <trkpt lat="46.18938" lon="6.71446">
        <ele>1361</ele>
        <time>2000-01-01T03:22:16.000Z</time>
      </trkpt>
      <trkpt lat="46.18958" lon="6.71483">
        <ele>1375</ele>
        <time>2000-01-01T03:22:26.000Z</time>
      </trkpt>
      <trkpt lat="46.18976" lon="6.71519">
        <ele>1382</ele>
        <time>2000-01-01T03:22:36.000Z</time>
      </trkpt>
      <trkpt lat="46.18992" lon="6.71549">
        <ele>1393</ele>
        <time>2000-01-01T03:22:46.000Z</time>
      </trkpt>
      <trkpt lat="46.19005" lon="6.71575">
        <ele>1403</ele>
        <time>2000-01-01T03:22:56.000Z</time>
      </trkpt>
      <trkpt lat="46.19021" lon="6.71604">
        <ele>1411</ele>
        <time>2000-01-01T03:23:06.000Z</time>
      </trkpt>
      <trkpt lat="46.19037" lon="6.71634">
        <ele>1416</ele>
        <time>2000-01-01T03:23:16.000Z</time>
      </trkpt>
      <trkpt lat="46.19057" lon="6.71672">
        <ele>1423</ele>
        <time>2000-01-01T03:23:26.000Z</time>
      </trkpt>
      <trkpt lat="46.19073" lon="6.71703">
        <ele>1431</ele>
        <time>2000-01-01T03:23:36.000Z</time>
      </trkpt>
      <trkpt lat="46.19094" lon="6.71744">
        <ele>1442</ele>
        <time>2000-01-01T03:23:46.000Z</time>
      </trkpt>
      <trkpt lat="46.19105" lon="6.71764">
        <ele>1450.4</ele>
        <time>2000-01-01T03:23:56.000Z</time>
      </trkpt>
      <trkpt lat="46.19133" lon="6.71818">
        <ele>1456</ele>
        <time>2000-01-01T03:24:06.000Z</time>
      </trkpt>
      <trkpt lat="46.19102" lon="6.71822">
        <ele>1456</ele>
        <time>2000-01-01T03:24:16.000Z</time>
      </trkpt>
      <trkpt lat="46.19076" lon="6.71826">
        <ele>1453</ele>
        <time>2000-01-01T03:24:26.000Z</time>
      </trkpt>
      <trkpt lat="46.19045" lon="6.71831">
        <ele>1455</ele>
        <time>2000-01-01T03:24:36.000Z</time>
      </trkpt>
      <trkpt lat="46.19065" lon="6.71878">
        <ele>1458</ele>
        <time>2000-01-01T03:24:46.000Z</time>
      </trkpt>
      <trkpt lat="46.19085" lon="6.71925">
        <ele>1473</ele>
        <time>2000-01-01T03:24:56.000Z</time>
      </trkpt>
      <trkpt lat="46.19105" lon="6.71972">
        <ele>1484</ele>
        <time>2000-01-01T03:25:06.000Z</time>
      </trkpt>
      <trkpt lat="46.19125" lon="6.72019">
        <ele>1494</ele>
        <time>2000-01-01T03:25:16.000Z</time>
      </trkpt>
      <trkpt lat="46.19138" lon="6.72051">
        <ele>1503</ele>
        <time>2000-01-01T03:25:26.000Z</time>
      </trkpt>
      <trkpt lat="46.19155" lon="6.72091">
        <ele>1511</ele>
        <time>2000-01-01T03:25:36.000Z</time>
      </trkpt>
      <trkpt lat="46.19175" lon="6.72139">
        <ele>1521</ele>
        <time>2000-01-01T03:25:46.000Z</time>
      </trkpt>
      <trkpt lat="46.19195" lon="6.72187">
        <ele>1542</ele>
        <time>2000-01-01T03:25:56.000Z</time>
      </trkpt>
      <trkpt lat="46.19216" lon="6.72235">
        <ele>1559</ele>
        <time>2000-01-01T03:26:06.000Z</time>
      </trkpt>
      <trkpt lat="46.19236" lon="6.72284">
        <ele>1574</ele>
        <time>2000-01-01T03:26:16.000Z</time>
      </trkpt>
      <trkpt lat="46.19256" lon="6.72332">
        <ele>1586</ele>
        <time>2000-01-01T03:26:26.000Z</time>
      </trkpt>
      <trkpt lat="46.19278" lon="6.72384">
        <ele>1597</ele>
        <time>2000-01-01T03:26:36.000Z</time>
      </trkpt>
      <trkpt lat="46.19294" lon="6.72421">
        <ele>1608</ele>
        <time>2000-01-01T03:26:46.000Z</time>
      </trkpt>
      <trkpt lat="46.19307" lon="6.72453">
        <ele>1614</ele>
        <time>2000-01-01T03:26:56.000Z</time>
      </trkpt>
      <trkpt lat="46.19324" lon="6.72492">
        <ele>1621</ele>
        <time>2000-01-01T03:27:06.000Z</time>
      </trkpt>
      <trkpt lat="46.19346" lon="6.72546">
        <ele>1629</ele>
        <time>2000-01-01T03:27:16.000Z</time>
      </trkpt>
      <trkpt lat="46.19364" lon="6.72588">
        <ele>1634</ele>
        <time>2000-01-01T03:27:26.000Z</time>
      </trkpt>
      <trkpt lat="46.19382" lon="6.7263">
        <ele>1641</ele>
        <time>2000-01-01T03:27:36.000Z</time>
      </trkpt>
      <trkpt lat="46.19396" lon="6.72663">
        <ele>1645</ele>
        <time>2000-01-01T03:27:46.000Z</time>
      </trkpt>
      <trkpt lat="46.19415" lon="6.72707">
        <ele>1650</ele>
        <time>2000-01-01T03:27:56.000Z</time>
      </trkpt>
      <trkpt lat="46.19437" lon="6.72761">
        <ele>1657</ele>
        <time>2000-01-01T03:28:06.000Z</time>
      </trkpt>
      <trkpt lat="46.19453" lon="6.72798">
        <ele>1662</ele>
        <time>2000-01-01T03:28:16.000Z</time>
      </trkpt>
      <trkpt lat="46.19466" lon="6.7283">
        <ele>1670</ele>
        <time>2000-01-01T03:28:26.000Z</time>
      </trkpt>
      <trkpt lat="46.19483" lon="6.72869">
        <ele>1677</ele>
        <time>2000-01-01T03:28:36.000Z</time>
      </trkpt>
      <trkpt lat="46.19505" lon="6.72923">
        <ele>1687</ele>
        <time>2000-01-01T03:28:46.000Z</time>
      </trkpt>
      <trkpt lat="46.19523" lon="6.72965">
        <ele>1696</ele>
        <time>2000-01-01T03:28:56.000Z</time>
      </trkpt>
      <trkpt lat="46.19541" lon="6.73007">
        <ele>1704</ele>
        <time>2000-01-01T03:29:06.000Z</time>
      </trkpt>
      <trkpt lat="46.19555" lon="6.7304">
        <ele>1711</ele>
        <time>2000-01-01T03:29:16.000Z</time>
      </trkpt>
      <trkpt lat="46.19574" lon="6.73084">
        <ele>1719</ele>
        <time>2000-01-01T03:29:26.000Z</time>
      </trkpt>
      <trkpt lat="46.19588" lon="6.73119">
        <ele>1724</ele>
        <time>2000-01-01T03:29:36.000Z</time>
      </trkpt>
      <trkpt lat="46.1961" lon="6.73172">
        <ele>1736</ele>
        <time>2000-01-01T03:29:46.000Z</time>
      </trkpt>
      <trkpt lat="46.1963" lon="6.73219">
        <ele>1744</ele>
        <time>2000-01-01T03:29:56.000Z</time>
      </trkpt>
      <trkpt lat="46.19625" lon="6.73277">
        <ele>1745</ele>
        <time>2000-01-01T03:30:06.000Z</time>
      </trkpt>
      <trkpt lat="46.196" lon="6.73281">
        <ele>1740</ele>
        <time>2000-01-01T03:30:16.000Z</time>
      </trkpt>
      <trkpt lat="46.19573" lon="6.73285">
        <ele>1741</ele>
        <time>2000-01-01T03:30:26.000Z</time>
      </trkpt>
      <trkpt lat="46.19593" lon="6.73333">
        <ele>1743</ele>
        <time>2000-01-01T03:30:36.000Z</time>
      </trkpt>
      <trkpt lat="46.19609" lon="6.73369">
        <ele>1745</ele>
        <time>2000-01-01T03:30:46.000Z</time>
      </trkpt>
      <trkpt lat="46.19621" lon="6.73398">
        <ele>1750</ele>
        <time>2000-01-01T03:30:56.000Z</time>
      </trkpt>
      <trkpt lat="46.19635" lon="6.73428">
        <ele>1752</ele>
        <time>2000-01-01T03:31:06.000Z</time>
      </trkpt>
      <trkpt lat="46.19655" lon="6.73476">
        <ele>1756</ele>
        <time>2000-01-01T03:31:16.000Z</time>
      </trkpt>
      <trkpt lat="46.19676" lon="6.73523">
        <ele>1752</ele>
        <time>2000-01-01T03:31:26.000Z</time>
      </trkpt>
      <trkpt lat="46.19697" lon="6.73573">
        <ele>1749</ele>
        <time>2000-01-01T03:31:36.000Z</time>
      </trkpt>
      <trkpt lat="46.19722" lon="6.73609">
        <ele>1751</ele>
        <time>2000-01-01T03:31:46.000Z</time>
      </trkpt>
      <trkpt lat="46.19746" lon="6.73645">
        <ele>1751</ele>
        <time>2000-01-01T03:31:56.000Z</time>
      </trkpt>
      <trkpt lat="46.19766" lon="6.73674">
        <ele>1751</ele>
        <time>2000-01-01T03:32:06.000Z</time>
      </trkpt>
      <trkpt lat="46.19795" lon="6.73717">
        <ele>1757</ele>
        <time>2000-01-01T03:32:16.000Z</time>
      </trkpt>
      <trkpt lat="46.19825" lon="6.73762">
        <ele>1763</ele>
        <time>2000-01-01T03:32:26.000Z</time>
      </trkpt>
      <trkpt lat="46.19844" lon="6.73781">
        <ele>1765</ele>
        <time>2000-01-01T03:32:36.000Z</time>
      </trkpt>
      <trkpt lat="46.19864" lon="6.738">
        <ele>1767</ele>
        <time>2000-01-01T03:32:46.000Z</time>
      </trkpt>
      <trkpt lat="46.19882" lon="6.73838">
        <ele>1769</ele>
        <time>2000-01-01T03:32:56.000Z</time>
      </trkpt>
      <trkpt lat="46.19899" lon="6.73877">
        <ele>1768</ele>
        <time>2000-01-01T03:33:06.000Z</time>
      </trkpt>
      <trkpt lat="46.1992" lon="6.73922">
        <ele>1768</ele>
        <time>2000-01-01T03:33:16.000Z</time>
      </trkpt>
      <trkpt lat="46.1994" lon="6.73967">
        <ele>1753</ele>
        <time>2000-01-01T03:33:26.000Z</time>
      </trkpt>
      <trkpt lat="46.19958" lon="6.74006">
        <ele>1751</ele>
        <time>2000-01-01T03:33:36.000Z</time>
      </trkpt>
      <trkpt lat="46.19975" lon="6.74045">
        <ele>1759</ele>
        <time>2000-01-01T03:33:46.000Z</time>
      </trkpt>
      <trkpt lat="46.19997" lon="6.74092">
        <ele>1767</ele>
        <time>2000-01-01T03:33:56.000Z</time>
      </trkpt>
      <trkpt lat="46.20014" lon="6.7414">
        <ele>1761</ele>
        <time>2000-01-01T03:34:06.000Z</time>
      </trkpt>
      <trkpt lat="46.20031" lon="6.74187">
        <ele>1759</ele>
        <time>2000-01-01T03:34:16.000Z</time>
      </trkpt>
      <trkpt lat="46.20048" lon="6.74235">
        <ele>1759</ele>
        <time>2000-01-01T03:34:26.000Z</time>
      </trkpt>
      <trkpt lat="46.20061" lon="6.7427">
        <ele>1759</ele>
        <time>2000-01-01T03:34:36.000Z</time>
      </trkpt>
      <trkpt lat="46.2008" lon="6.74324">
        <ele>1764</ele>
        <time>2000-01-01T03:34:46.000Z</time>
      </trkpt>
      <trkpt lat="46.20076" lon="6.74366">
        <ele>1764</ele>
        <time>2000-01-01T03:34:56.000Z</time>
      </trkpt>
      <trkpt lat="46.20073" lon="6.74401">
        <ele>1764</ele>
        <time>2000-01-01T03:35:06.000Z</time>
      </trkpt>
      <trkpt lat="46.20069" lon="6.7444">
        <ele>1760</ele>
        <time>2000-01-01T03:35:16.000Z</time>
      </trkpt>
      <trkpt lat="46.20078" lon="6.74485">
        <ele>1755</ele>
        <time>2000-01-01T03:35:26.000Z</time>
      </trkpt>
      <trkpt lat="46.20087" lon="6.7453">
        <ele>1753</ele>
        <time>2000-01-01T03:35:36.000Z</time>
      </trkpt>
      <trkpt lat="46.20098" lon="6.74586">
        <ele>1749</ele>
        <time>2000-01-01T03:35:46.000Z</time>
      </trkpt>
      <trkpt lat="46.20101" lon="6.74634">
        <ele>1747</ele>
        <time>2000-01-01T03:35:56.000Z</time>
      </trkpt>
      <trkpt lat="46.20105" lon="6.74683">
        <ele>1746</ele>
        <time>2000-01-01T03:36:06.000Z</time>
      </trkpt>
      <trkpt lat="46.20107" lon="6.7472">
        <ele>1745</ele>
        <time>2000-01-01T03:36:16.000Z</time>
      </trkpt>
      <trkpt lat="46.2011" lon="6.74766">
        <ele>1745</ele>
        <time>2000-01-01T03:36:26.000Z</time>
      </trkpt>
      <trkpt lat="46.20119" lon="6.74818">
        <ele>1745</ele>
        <time>2000-01-01T03:36:36.000Z</time>
      </trkpt>
      <trkpt lat="46.20127" lon="6.7487">
        <ele>1749</ele>
        <time>2000-01-01T03:36:46.000Z</time>
      </trkpt>
      <trkpt lat="46.20136" lon="6.74922">
        <ele>1753</ele>
        <time>2000-01-01T03:36:56.000Z</time>
      </trkpt>
      <trkpt lat="46.20142" lon="6.74961">
        <ele>1755</ele>
        <time>2000-01-01T03:37:06.000Z</time>
      </trkpt>
      <trkpt lat="46.20152" lon="6.75019">
        <ele>1758</ele>
        <time>2000-01-01T03:37:16.000Z</time>
      </trkpt>
      <trkpt lat="46.20162" lon="6.75058">
        <ele>1763</ele>
        <time>2000-01-01T03:37:26.000Z</time>
      </trkpt>
      <trkpt lat="46.2017" lon="6.7509">
        <ele>1763</ele>
        <time>2000-01-01T03:37:36.000Z</time>
      </trkpt>
      <trkpt lat="46.20178" lon="6.75122">
        <ele>1763</ele>
        <time>2000-01-01T03:37:46.000Z</time>
      </trkpt>
      <trkpt lat="46.20189" lon="6.75159">
        <ele>1765</ele>
        <time>2000-01-01T03:37:56.000Z</time>
      </trkpt>
      <trkpt lat="46.20205" lon="6.75216">
        <ele>1772</ele>
        <time>2000-01-01T03:38:06.000Z</time>
      </trkpt>
      <trkpt lat="46.20211" lon="6.75259">
        <ele>1775</ele>
        <time>2000-01-01T03:38:16.000Z</time>
      </trkpt>
      <trkpt lat="46.20215" lon="6.75294">
        <ele>1777</ele>
        <time>2000-01-01T03:38:26.000Z</time>
      </trkpt>
      <trkpt lat="46.2022" lon="6.75332">
        <ele>1779</ele>
        <time>2000-01-01T03:38:36.000Z</time>
      </trkpt>
      <trkpt lat="46.20228" lon="6.75377">
        <ele>1779</ele>
        <time>2000-01-01T03:38:46.000Z</time>
      </trkpt>
      <trkpt lat="46.20237" lon="6.75422">
        <ele>1785</ele>
        <time>2000-01-01T03:38:56.000Z</time>
      </trkpt>
      <trkpt lat="46.20247" lon="6.75478">
        <ele>1787</ele>
        <time>2000-01-01T03:39:06.000Z</time>
      </trkpt>
      <trkpt lat="46.20248" lon="6.75519">
        <ele>1790</ele>
        <time>2000-01-01T03:39:16.000Z</time>
      </trkpt>
      <trkpt lat="46.2025" lon="6.75581">
        <ele>1787</ele>
        <time>2000-01-01T03:39:26.000Z</time>
      </trkpt>
      <trkpt lat="46.20244" lon="6.75625">
        <ele>1786</ele>
        <time>2000-01-01T03:39:36.000Z</time>
      </trkpt>
      <trkpt lat="46.20239" lon="6.75662">
        <ele>1785</ele>
        <time>2000-01-01T03:39:46.000Z</time>
      </trkpt>
      <trkpt lat="46.20232" lon="6.7571">
        <ele>1784</ele>
        <time>2000-01-01T03:39:56.000Z</time>
      </trkpt>
      <trkpt lat="46.20209" lon="6.75734">
        <ele>1779</ele>
        <time>2000-01-01T03:40:06.000Z</time>
      </trkpt>
      <trkpt lat="46.20174" lon="6.75771">
        <ele>1772</ele>
        <time>2000-01-01T03:40:16.000Z</time>
      </trkpt>
      <trkpt lat="46.20144" lon="6.75801">
        <ele>1770</ele>
        <time>2000-01-01T03:40:26.000Z</time>
      </trkpt>
      <trkpt lat="46.20125" lon="6.75821">
        <ele>1769</ele>
        <time>2000-01-01T03:40:36.000Z</time>
      </trkpt>
      <trkpt lat="46.20104" lon="6.75843">
        <ele>1767</ele>
        <time>2000-01-01T03:40:46.000Z</time>
      </trkpt>
      <trkpt lat="46.20081" lon="6.75855">
        <ele>1765</ele>
        <time>2000-01-01T03:40:56.000Z</time>
      </trkpt>
      <trkpt lat="46.20054" lon="6.75869">
        <ele>1762</ele>
        <time>2000-01-01T03:41:06.000Z</time>
      </trkpt>
      <trkpt lat="46.20033" lon="6.75898">
        <ele>1762</ele>
        <time>2000-01-01T03:41:16.000Z</time>
      </trkpt>
      <trkpt lat="46.20017" lon="6.75922">
        <ele>1761</ele>
        <time>2000-01-01T03:41:26.000Z</time>
      </trkpt>
      <trkpt lat="46.2" lon="6.75946">
        <ele>1761</ele>
        <time>2000-01-01T03:41:36.000Z</time>
      </trkpt>
      <trkpt lat="46.20019" lon="6.7598">
        <ele>1748</ele>
        <time>2000-01-01T03:41:46.000Z</time>
      </trkpt>
      <trkpt lat="46.20035" lon="6.76009">
        <ele>1741</ele>
        <time>2000-01-01T03:41:56.000Z</time>
      </trkpt>
      <trkpt lat="46.20054" lon="6.76045">
        <ele>1728</ele>
        <time>2000-01-01T03:42:06.000Z</time>
      </trkpt>
      <trkpt lat="46.20063" lon="6.76105">
        <ele>1720</ele>
        <time>2000-01-01T03:42:16.000Z</time>
      </trkpt>
      <trkpt lat="46.2008" lon="6.76139">
        <ele>1714</ele>
        <time>2000-01-01T03:42:26.000Z</time>
      </trkpt>
      <trkpt lat="46.20067" lon="6.76172">
        <ele>1712</ele>
        <time>2000-01-01T03:42:36.000Z</time>
      </trkpt>
      <trkpt lat="46.20048" lon="6.76216">
        <ele>1710</ele>
        <time>2000-01-01T03:42:46.000Z</time>
      </trkpt>
      <trkpt lat="46.2005" lon="6.76263">
        <ele>1707</ele>
        <time>2000-01-01T03:42:56.000Z</time>
      </trkpt>
      <trkpt lat="46.20051" lon="6.76309">
        <ele>1700</ele>
        <time>2000-01-01T03:43:06.000Z</time>
      </trkpt>
      <trkpt lat="46.20054" lon="6.76367">
        <ele>1699</ele>
        <time>2000-01-01T03:43:16.000Z</time>
      </trkpt>
      <trkpt lat="46.20069" lon="6.76409">
        <ele>1699</ele>
        <time>2000-01-01T03:43:26.000Z</time>
      </trkpt>
      <trkpt lat="46.20067" lon="6.76444">
        <ele>1699</ele>
        <time>2000-01-01T03:43:36.000Z</time>
      </trkpt>
      <trkpt lat="46.20066" lon="6.76482">
        <ele>1696</ele>
        <time>2000-01-01T03:43:46.000Z</time>
      </trkpt>
      <trkpt lat="46.20087" lon="6.76509">
        <ele>1687</ele>
        <time>2000-01-01T03:43:56.000Z</time>
      </trkpt>
      <trkpt lat="46.20122" lon="6.76551">
        <ele>1684</ele>
        <time>2000-01-01T03:44:06.000Z</time>
      </trkpt>
      <trkpt lat="46.20118" lon="6.76586">
        <ele>1681</ele>
        <time>2000-01-01T03:44:16.000Z</time>
      </trkpt>
      <trkpt lat="46.20113" lon="6.76624">
        <ele>1676</ele>
        <time>2000-01-01T03:44:26.000Z</time>
      </trkpt>
      <trkpt lat="46.2011" lon="6.76667">
        <ele>1672</ele>
        <time>2000-01-01T03:44:36.000Z</time>
      </trkpt>
      <trkpt lat="46.20098" lon="6.76719">
        <ele>1671</ele>
        <time>2000-01-01T03:44:46.000Z</time>
      </trkpt>
      <trkpt lat="46.20101" lon="6.76758">
        <ele>1663</ele>
        <time>2000-01-01T03:44:56.000Z</time>
      </trkpt>
      <trkpt lat="46.20104" lon="6.76813">
        <ele>1658</ele>
        <time>2000-01-01T03:45:06.000Z</time>
      </trkpt>
      <trkpt lat="46.20134" lon="6.76826">
        <ele>1650</ele>
        <time>2000-01-01T03:45:16.000Z</time>
      </trkpt>
      <trkpt lat="46.20162" lon="6.76848">
        <ele>1643</ele>
        <time>2000-01-01T03:45:26.000Z</time>
      </trkpt>
      <trkpt lat="46.2019" lon="6.76869">
        <ele>1643</ele>
        <time>2000-01-01T03:45:36.000Z</time>
      </trkpt>
      <trkpt lat="46.20223" lon="6.76894">
        <ele>1641</ele>
        <time>2000-01-01T03:45:46.000Z</time>
      </trkpt>
      <trkpt lat="46.20259" lon="6.7689">
        <ele>1641</ele>
        <time>2000-01-01T03:45:56.000Z</time>
      </trkpt>
      <trkpt lat="46.20294" lon="6.76886">
        <ele>1641</ele>
        <time>2000-01-01T03:46:06.000Z</time>
      </trkpt>
      <trkpt lat="46.2033" lon="6.76882">
        <ele>1642</ele>
        <time>2000-01-01T03:46:16.000Z</time>
      </trkpt>
      <trkpt lat="46.20374" lon="6.76877">
        <ele>1642</ele>
        <time>2000-01-01T03:46:26.000Z</time>
      </trkpt>
      <trkpt lat="46.20396" lon="6.76859">
        <ele>1638</ele>
        <time>2000-01-01T03:46:36.000Z</time>
      </trkpt>
      <trkpt lat="46.20419" lon="6.76839">
        <ele>1636</ele>
        <time>2000-01-01T03:46:46.000Z</time>
      </trkpt>
      <trkpt lat="46.20449" lon="6.76869">
        <ele>1635</ele>
        <time>2000-01-01T03:46:56.000Z</time>
      </trkpt>
      <trkpt lat="46.20481" lon="6.76864">
        <ele>1631</ele>
        <time>2000-01-01T03:47:06.000Z</time>
      </trkpt>
      <trkpt lat="46.20487" lon="6.76904">
        <ele>1628</ele>
        <time>2000-01-01T03:47:16.000Z</time>
      </trkpt>
      <trkpt lat="46.20496" lon="6.76967">
        <ele>1624</ele>
        <time>2000-01-01T03:47:26.000Z</time>
      </trkpt>
      <trkpt lat="46.20493" lon="6.77019">
        <ele>1622</ele>
        <time>2000-01-01T03:47:36.000Z</time>
      </trkpt>
      <trkpt lat="46.20499" lon="6.77083">
        <ele>1618</ele>
        <time>2000-01-01T03:47:46.000Z</time>
      </trkpt>
      <trkpt lat="46.20499" lon="6.77126">
        <ele>1616</ele>
        <time>2000-01-01T03:47:56.000Z</time>
      </trkpt>
      <trkpt lat="46.20494" lon="6.77164">
        <ele>1617</ele>
        <time>2000-01-01T03:48:06.000Z</time>
      </trkpt>
      <trkpt lat="46.20487" lon="6.77216">
        <ele>1618</ele>
        <time>2000-01-01T03:48:16.000Z</time>
      </trkpt>
      <trkpt lat="46.2048" lon="6.77252">
        <ele>1618</ele>
        <time>2000-01-01T03:48:26.000Z</time>
      </trkpt>
      <trkpt lat="46.20472" lon="6.77295">
        <ele>1616</ele>
        <time>2000-01-01T03:48:36.000Z</time>
      </trkpt>
      <trkpt lat="46.20464" lon="6.77341">
        <ele>1610</ele>
        <time>2000-01-01T03:48:46.000Z</time>
      </trkpt>
      <trkpt lat="46.2044" lon="6.77371">
        <ele>1607</ele>
        <time>2000-01-01T03:48:56.000Z</time>
      </trkpt>
      <trkpt lat="46.20422" lon="6.77394">
        <ele>1606</ele>
        <time>2000-01-01T03:49:06.000Z</time>
      </trkpt>
      <trkpt lat="46.20402" lon="6.77419">
        <ele>1606</ele>
        <time>2000-01-01T03:49:16.000Z</time>
      </trkpt>
      <trkpt lat="46.20375" lon="6.77452">
        <ele>1605</ele>
        <time>2000-01-01T03:49:26.000Z</time>
      </trkpt>
      <trkpt lat="46.2036" lon="6.77493">
        <ele>1602</ele>
        <time>2000-01-01T03:49:36.000Z</time>
      </trkpt>
      <trkpt lat="46.20361" lon="6.77535">
        <ele>1599</ele>
        <time>2000-01-01T03:49:46.000Z</time>
      </trkpt>
      <trkpt lat="46.20362" lon="6.77569">
        <ele>1598</ele>
        <time>2000-01-01T03:49:56.000Z</time>
      </trkpt>
      <trkpt lat="46.20363" lon="6.77605">
        <ele>1597</ele>
        <time>2000-01-01T03:50:06.000Z</time>
      </trkpt>
      <trkpt lat="46.20378" lon="6.77632">
        <ele>1597</ele>
        <time>2000-01-01T03:50:16.000Z</time>
      </trkpt>
      <trkpt lat="46.20392" lon="6.7766">
        <ele>1598</ele>
        <time>2000-01-01T03:50:26.000Z</time>
      </trkpt>
      <trkpt lat="46.20374" lon="6.77697">
        <ele>1599</ele>
        <time>2000-01-01T03:50:36.000Z</time>
      </trkpt>
      <trkpt lat="46.20357" lon="6.77735">
        <ele>1600</ele>
        <time>2000-01-01T03:50:46.000Z</time>
      </trkpt>
      <trkpt lat="46.20338" lon="6.77775">
        <ele>1600</ele>
        <time>2000-01-01T03:50:56.000Z</time>
      </trkpt>
      <trkpt lat="46.20329" lon="6.77816">
        <ele>1600</ele>
        <time>2000-01-01T03:51:06.000Z</time>
      </trkpt>
      <trkpt lat="46.20335" lon="6.77855">
        <ele>1600</ele>
        <time>2000-01-01T03:51:16.000Z</time>
      </trkpt>
      <trkpt lat="46.20345" lon="6.7791">
        <ele>1601</ele>
        <time>2000-01-01T03:51:26.000Z</time>
      </trkpt>
      <trkpt lat="46.20327" lon="6.77932">
        <ele>1602</ele>
        <time>2000-01-01T03:51:36.000Z</time>
      </trkpt>
      <trkpt lat="46.20308" lon="6.77956">
        <ele>1600</ele>
        <time>2000-01-01T03:51:46.000Z</time>
      </trkpt>
      <trkpt lat="46.20301" lon="6.77991">
        <ele>1598</ele>
        <time>2000-01-01T03:51:56.000Z</time>
      </trkpt>
      <trkpt lat="46.20294" lon="6.78032">
        <ele>1595</ele>
        <time>2000-01-01T03:52:06.000Z</time>
      </trkpt>
      <trkpt lat="46.20273" lon="6.78053">
        <ele>1595</ele>
        <time>2000-01-01T03:52:16.000Z</time>
      </trkpt>
      <trkpt lat="46.20247" lon="6.78078">
        <ele>1600</ele>
        <time>2000-01-01T03:52:26.000Z</time>
      </trkpt>
      <trkpt lat="46.20229" lon="6.78117">
        <ele>1602</ele>
        <time>2000-01-01T03:52:36.000Z</time>
      </trkpt>
      <trkpt lat="46.20212" lon="6.78156">
        <ele>1602</ele>
        <time>2000-01-01T03:52:46.000Z</time>
      </trkpt>
      <trkpt lat="46.20192" lon="6.78203">
        <ele>1602</ele>
        <time>2000-01-01T03:52:56.000Z</time>
      </trkpt>
      <trkpt lat="46.20169" lon="6.78233">
        <ele>1602</ele>
        <time>2000-01-01T03:53:06.000Z</time>
      </trkpt>
      <trkpt lat="46.2015" lon="6.78258">
        <ele>1602</ele>
        <time>2000-01-01T03:53:16.000Z</time>
      </trkpt>
      <trkpt lat="46.20125" lon="6.7829">
        <ele>1601</ele>
        <time>2000-01-01T03:53:26.000Z</time>
      </trkpt>
      <trkpt lat="46.20111" lon="6.7833">
        <ele>1600</ele>
        <time>2000-01-01T03:53:36.000Z</time>
      </trkpt>
      <trkpt lat="46.20098" lon="6.78363">
        <ele>1600</ele>
        <time>2000-01-01T03:53:46.000Z</time>
      </trkpt>
      <trkpt lat="46.20082" lon="6.78407">
        <ele>1600</ele>
        <time>2000-01-01T03:53:56.000Z</time>
      </trkpt>
      <trkpt lat="46.20069" lon="6.78446">
        <ele>1600</ele>
        <time>2000-01-01T03:54:06.000Z</time>
      </trkpt>
      <trkpt lat="46.20058" lon="6.78479">
        <ele>1600</ele>
        <time>2000-01-01T03:54:16.000Z</time>
      </trkpt>
      <trkpt lat="46.20045" lon="6.78517">
        <ele>1598</ele>
        <time>2000-01-01T03:54:26.000Z</time>
      </trkpt>
      <trkpt lat="46.20032" lon="6.78547">
        <ele>1596</ele>
        <time>2000-01-01T03:54:36.000Z</time>
      </trkpt>
      <trkpt lat="46.20018" lon="6.78581">
        <ele>1595</ele>
        <time>2000-01-01T03:54:46.000Z</time>
      </trkpt>
      <trkpt lat="46.19986" lon="6.78584">
        <ele>1595</ele>
        <time>2000-01-01T03:54:56.000Z</time>
      </trkpt>
      <trkpt lat="46.19954" lon="6.78587">
        <ele>1593</ele>
        <time>2000-01-01T03:55:06.000Z</time>
      </trkpt>
      <trkpt lat="46.19917" lon="6.7859">
        <ele>1591</ele>
        <time>2000-01-01T03:55:16.000Z</time>
      </trkpt>
      <trkpt lat="46.19904" lon="6.78631">
        <ele>1585</ele>
        <time>2000-01-01T03:55:26.000Z</time>
      </trkpt>
      <trkpt lat="46.19891" lon="6.78672">
        <ele>1584</ele>
        <time>2000-01-01T03:55:36.000Z</time>
      </trkpt>
      <trkpt lat="46.19878" lon="6.78713">
        <ele>1582</ele>
        <time>2000-01-01T03:55:46.000Z</time>
      </trkpt>
      <trkpt lat="46.19885" lon="6.7871">
        <ele>1580.3</ele>
        <time>2000-01-01T03:55:56.000Z</time>
      </trkpt>
      <trkpt lat="46.199" lon="6.78691">
        <ele>1581</ele>
        <time>2000-01-01T03:56:06.000Z</time>
      </trkpt>
      <trkpt lat="46.19927" lon="6.78644">
        <ele>1578</ele>
        <time>2000-01-01T03:56:16.000Z</time>
      </trkpt>
      <trkpt lat="46.1997" lon="6.78668">
        <ele>1577</ele>
        <time>2000-01-01T03:56:26.000Z</time>
      </trkpt>
      <trkpt lat="46.19991" lon="6.78673">
        <ele>1575</ele>
        <time>2000-01-01T03:56:36.000Z</time>
      </trkpt>
      <trkpt lat="46.20021" lon="6.78658">
        <ele>1575</ele>
        <time>2000-01-01T03:56:46.000Z</time>
      </trkpt>
      <trkpt lat="46.20038" lon="6.78634">
        <ele>1575</ele>
        <time>2000-01-01T03:56:56.000Z</time>
      </trkpt>
      <trkpt lat="46.20055" lon="6.78611">
        <ele>1574</ele>
        <time>2000-01-01T03:57:06.000Z</time>
      </trkpt>
      <trkpt lat="46.20088" lon="6.78595">
        <ele>1567</ele>
        <time>2000-01-01T03:57:16.000Z</time>
      </trkpt>
      <trkpt lat="46.20111" lon="6.78571">
        <ele>1561</ele>
        <time>2000-01-01T03:57:26.000Z</time>
      </trkpt>
      <trkpt lat="46.20146" lon="6.78535">
        <ele>1557</ele>
        <time>2000-01-01T03:57:36.000Z</time>
      </trkpt>
      <trkpt lat="46.20171" lon="6.78526">
        <ele>1553</ele>
        <time>2000-01-01T03:57:46.000Z</time>
      </trkpt>
      <trkpt lat="46.202" lon="6.78516">
        <ele>1552</ele>
        <time>2000-01-01T03:57:56.000Z</time>
      </trkpt>
      <trkpt lat="46.20224" lon="6.78498">
        <ele>1549</ele>
        <time>2000-01-01T03:58:06.000Z</time>
      </trkpt>
      <trkpt lat="46.2026" lon="6.78472">
        <ele>1548</ele>
        <time>2000-01-01T03:58:16.000Z</time>
      </trkpt>
      <trkpt lat="46.20279" lon="6.78441">
        <ele>1546</ele>
        <time>2000-01-01T03:58:26.000Z</time>
      </trkpt>
      <trkpt lat="46.20295" lon="6.78416">
        <ele>1546</ele>
        <time>2000-01-01T03:58:36.000Z</time>
      </trkpt>
      <trkpt lat="46.20312" lon="6.78391">
        <ele>1545</ele>
        <time>2000-01-01T03:58:46.000Z</time>
      </trkpt>
      <trkpt lat="46.20318" lon="6.78353">
        <ele>1545</ele>
        <time>2000-01-01T03:58:56.000Z</time>
      </trkpt>
      <trkpt lat="46.20326" lon="6.78301">
        <ele>1546</ele>
        <time>2000-01-01T03:59:06.000Z</time>
      </trkpt>
      <trkpt lat="46.20353" lon="6.78282">
        <ele>1546</ele>
        <time>2000-01-01T03:59:16.000Z</time>
      </trkpt>
      <trkpt lat="46.20375" lon="6.78265">
        <ele>1545</ele>
        <time>2000-01-01T03:59:26.000Z</time>
      </trkpt>
      <trkpt lat="46.20403" lon="6.78245">
        <ele>1545</ele>
        <time>2000-01-01T03:59:36.000Z</time>
      </trkpt>
      <trkpt lat="46.20419" lon="6.78207">
        <ele>1545</ele>
        <time>2000-01-01T03:59:46.000Z</time>
      </trkpt>
      <trkpt lat="46.20436" lon="6.78168">
        <ele>1543</ele>
        <time>2000-01-01T03:59:56.000Z</time>
      </trkpt>
      <trkpt lat="46.20453" lon="6.78127">
        <ele>1540</ele>
        <time>2000-01-01T04:00:06.000Z</time>
      </trkpt>
      <trkpt lat="46.20485" lon="6.78085">
        <ele>1531</ele>
        <time>2000-01-01T04:00:16.000Z</time>
      </trkpt>
      <trkpt lat="46.20502" lon="6.7805">
        <ele>1526</ele>
        <time>2000-01-01T04:00:26.000Z</time>
      </trkpt>
      <trkpt lat="46.20515" lon="6.78022">
        <ele>1522</ele>
        <time>2000-01-01T04:00:36.000Z</time>
      </trkpt>
      <trkpt lat="46.20528" lon="6.77993">
        <ele>1517</ele>
        <time>2000-01-01T04:00:46.000Z</time>
      </trkpt>
      <trkpt lat="46.20547" lon="6.77959">
        <ele>1511</ele>
        <time>2000-01-01T04:00:56.000Z</time>
      </trkpt>
      <trkpt lat="46.20563" lon="6.77929">
        <ele>1505</ele>
        <time>2000-01-01T04:01:06.000Z</time>
      </trkpt>
      <trkpt lat="46.20582" lon="6.77894">
        <ele>1501</ele>
        <time>2000-01-01T04:01:16.000Z</time>
      </trkpt>
      <trkpt lat="46.20604" lon="6.77863">
        <ele>1498</ele>
        <time>2000-01-01T04:01:26.000Z</time>
      </trkpt>
      <trkpt lat="46.20622" lon="6.77837">
        <ele>1496</ele>
        <time>2000-01-01T04:01:36.000Z</time>
      </trkpt>
      <trkpt lat="46.20645" lon="6.77805">
        <ele>1496</ele>
        <time>2000-01-01T04:01:46.000Z</time>
      </trkpt>
      <trkpt lat="46.20682" lon="6.7777">
        <ele>1495</ele>
        <time>2000-01-01T04:01:56.000Z</time>
      </trkpt>
      <trkpt lat="46.20672" lon="6.77714">
        <ele>1495</ele>
        <time>2000-01-01T04:02:06.000Z</time>
      </trkpt>
      <trkpt lat="46.2066" lon="6.77676">
        <ele>1497</ele>
        <time>2000-01-01T04:02:16.000Z</time>
      </trkpt>
      <trkpt lat="46.2065" lon="6.77644">
        <ele>1507</ele>
        <time>2000-01-01T04:02:26.000Z</time>
      </trkpt>
      <trkpt lat="46.20639" lon="6.77611">
        <ele>1502</ele>
        <time>2000-01-01T04:02:36.000Z</time>
      </trkpt>
      <trkpt lat="46.20714" lon="6.77806">
        <ele>1501</ele>
        <time>2000-01-01T04:02:56.000Z</time>
      </trkpt>
      <trkpt lat="46.20728" lon="6.77845">
        <ele>1502</ele>
        <time>2000-01-01T04:03:06.000Z</time>
      </trkpt>
      <trkpt lat="46.20741" lon="6.77878">
        <ele>1503</ele>
        <time>2000-01-01T04:03:16.000Z</time>
      </trkpt>
      <trkpt lat="46.20756" lon="6.77919">
        <ele>1507</ele>
        <time>2000-01-01T04:03:26.000Z</time>
      </trkpt>
      <trkpt lat="46.20778" lon="6.77975">
        <ele>1517</ele>
        <time>2000-01-01T04:03:36.000Z</time>
      </trkpt>
      <trkpt lat="46.20796" lon="6.78024">
        <ele>1531</ele>
        <time>2000-01-01T04:03:46.000Z</time>
      </trkpt>
      <trkpt lat="46.20814" lon="6.78073">
        <ele>1542</ele>
        <time>2000-01-01T04:03:56.000Z</time>
      </trkpt>
      <trkpt lat="46.20833" lon="6.78122">
        <ele>1556</ele>
        <time>2000-01-01T04:04:06.000Z</time>
      </trkpt>
      <trkpt lat="46.20851" lon="6.78171">
        <ele>1571</ele>
        <time>2000-01-01T04:04:16.000Z</time>
      </trkpt>
      <trkpt lat="46.20864" lon="6.78206">
        <ele>1584</ele>
        <time>2000-01-01T04:04:26.000Z</time>
      </trkpt>
      <trkpt lat="46.20883" lon="6.78258">
        <ele>1600</ele>
        <time>2000-01-01T04:04:36.000Z</time>
      </trkpt>
      <trkpt lat="46.20905" lon="6.78314">
        <ele>1612</ele>
        <time>2000-01-01T04:04:46.000Z</time>
      </trkpt>
      <trkpt lat="46.20921" lon="6.78358">
        <ele>1633</ele>
        <time>2000-01-01T04:04:56.000Z</time>
      </trkpt>
      <trkpt lat="46.20938" lon="6.78402">
        <ele>1660</ele>
        <time>2000-01-01T04:05:06.000Z</time>
      </trkpt>
      <trkpt lat="46.2095" lon="6.78436">
        <ele>1680</ele>
        <time>2000-01-01T04:05:16.000Z</time>
      </trkpt>
      <trkpt lat="46.20968" lon="6.78484">
        <ele>1701</ele>
        <time>2000-01-01T04:05:26.000Z</time>
      </trkpt>
      <trkpt lat="46.20985" lon="6.78528">
        <ele>1720</ele>
        <time>2000-01-01T04:05:36.000Z</time>
      </trkpt>
      <trkpt lat="46.21001" lon="6.78572">
        <ele>1749</ele>
        <time>2000-01-01T04:05:46.000Z</time>
      </trkpt>
      <trkpt lat="46.21014" lon="6.78606">
        <ele>1764</ele>
        <time>2000-01-01T04:05:56.000Z</time>
      </trkpt>
      <trkpt lat="46.21032" lon="6.78653">
        <ele>1783</ele>
        <time>2000-01-01T04:06:06.000Z</time>
      </trkpt>
      <trkpt lat="46.21049" lon="6.787">
        <ele>1797</ele>
        <time>2000-01-01T04:06:16.000Z</time>
      </trkpt>
      <trkpt lat="46.21067" lon="6.78747">
        <ele>1813</ele>
        <time>2000-01-01T04:06:26.000Z</time>
      </trkpt>
      <trkpt lat="46.21084" lon="6.78794">
        <ele>1830</ele>
        <time>2000-01-01T04:06:36.000Z</time>
      </trkpt>
      <trkpt lat="46.21097" lon="6.78829">
        <ele>1839</ele>
        <time>2000-01-01T04:06:46.000Z</time>
      </trkpt>
      <trkpt lat="46.21116" lon="6.78879">
        <ele>1856</ele>
        <time>2000-01-01T04:06:56.000Z</time>
      </trkpt>
      <trkpt lat="46.21138" lon="6.78936">
        <ele>1876</ele>
        <time>2000-01-01T04:07:06.000Z</time>
      </trkpt>
      <trkpt lat="46.21151" lon="6.78973">
        <ele>1889</ele>
        <time>2000-01-01T04:07:16.000Z</time>
      </trkpt>
      <trkpt lat="46.21173" lon="6.79032">
        <ele>1907</ele>
        <time>2000-01-01T04:07:26.000Z</time>
      </trkpt>
      <trkpt lat="46.21193" lon="6.79059">
        <ele>1909</ele>
        <time>2000-01-01T04:07:36.000Z</time>
      </trkpt>
      <trkpt lat="46.21194" lon="6.79057">
        <ele>1915</ele>
        <time>2000-01-01T04:07:46.000Z</time>
      </trkpt>
      <trkpt lat="46.21215" lon="6.79029">
        <ele>1910</ele>
        <time>2000-01-01T04:07:56.000Z</time>
      </trkpt>
      <trkpt lat="46.21237" lon="6.79011">
        <ele>1909</ele>
        <time>2000-01-01T04:08:06.000Z</time>
      </trkpt>
      <trkpt lat="46.21246" lon="6.7901">
        <ele>1908.4</ele>
        <time>2000-01-01T04:08:16.000Z</time>
      </trkpt>
      <trkpt lat="46.21255" lon="6.78989">
        <ele>1909</ele>
        <time>2000-01-01T04:08:26.000Z</time>
      </trkpt>
      <trkpt lat="46.2126" lon="6.78974">
        <ele>1906.4</ele>
        <time>2000-01-01T04:08:36.000Z</time>
      </trkpt>
      <trkpt lat="46.21272" lon="6.78934">
        <ele>1904</ele>
        <time>2000-01-01T04:08:46.000Z</time>
      </trkpt>
      <trkpt lat="46.21292" lon="6.78893">
        <ele>1902</ele>
        <time>2000-01-01T04:08:56.000Z</time>
      </trkpt>
      <trkpt lat="46.21302" lon="6.78869">
        <ele>1900</ele>
        <time>2000-01-01T04:09:06.000Z</time>
      </trkpt>
      <trkpt lat="46.21306" lon="6.78858">
        <ele>1900.6</ele>
        <time>2000-01-01T04:09:16.000Z</time>
      </trkpt>
      <trkpt lat="46.21329" lon="6.78827">
        <ele>1898</ele>
        <time>2000-01-01T04:09:26.000Z</time>
      </trkpt>
      <trkpt lat="46.21338" lon="6.78814">
        <ele>1898.1</ele>
        <time>2000-01-01T04:09:36.000Z</time>
      </trkpt>
      <trkpt lat="46.21347" lon="6.78799">
        <ele>1896</ele>
        <time>2000-01-01T04:09:46.000Z</time>
      </trkpt>
      <trkpt lat="46.21353" lon="6.78787">
        <ele>1896.3</ele>
        <time>2000-01-01T04:09:56.000Z</time>
      </trkpt>
      <trkpt lat="46.21366" lon="6.78766">
        <ele>1896</ele>
        <time>2000-01-01T04:10:06.000Z</time>
      </trkpt>
      <trkpt lat="46.21372" lon="6.78752">
        <ele>1896.5</ele>
        <time>2000-01-01T04:10:16.000Z</time>
      </trkpt>
      <trkpt lat="46.21384" lon="6.78716">
        <ele>1896</ele>
        <time>2000-01-01T04:10:26.000Z</time>
      </trkpt>
      <trkpt lat="46.21394" lon="6.78697">
        <ele>1897.2</ele>
        <time>2000-01-01T04:10:36.000Z</time>
      </trkpt>
      <trkpt lat="46.21399" lon="6.78689">
        <ele>1894</ele>
        <time>2000-01-01T04:10:46.000Z</time>
      </trkpt>
      <trkpt lat="46.21431" lon="6.78659">
        <ele>1893</ele>
        <time>2000-01-01T04:10:56.000Z</time>
      </trkpt>
      <trkpt lat="46.21445" lon="6.78641">
        <ele>1891</ele>
        <time>2000-01-01T04:11:06.000Z</time>
      </trkpt>
      <trkpt lat="46.21465" lon="6.78618">
        <ele>1885</ele>
        <time>2000-01-01T04:11:16.000Z</time>
      </trkpt>
      <trkpt lat="46.21472" lon="6.78606">
        <ele>1884.9</ele>
        <time>2000-01-01T04:11:26.000Z</time>
      </trkpt>
      <trkpt lat="46.21479" lon="6.78599">
        <ele>1881</ele>
        <time>2000-01-01T04:11:36.000Z</time>
      </trkpt>
      <trkpt lat="46.21484" lon="6.78591">
        <ele>1881.6</ele>
        <time>2000-01-01T04:11:46.000Z</time>
      </trkpt>
      <trkpt lat="46.21492" lon="6.78581">
        <ele>1881.3</ele>
        <time>2000-01-01T04:11:56.000Z</time>
      </trkpt>
      <trkpt lat="46.21498" lon="6.78577">
        <ele>1881</ele>
        <time>2000-01-01T04:12:06.000Z</time>
      </trkpt>
      <trkpt lat="46.21504" lon="6.78575">
        <ele>1881.8</ele>
        <time>2000-01-01T04:12:16.000Z</time>
      </trkpt>
      <trkpt lat="46.21518" lon="6.78568">
        <ele>1883</ele>
        <time>2000-01-01T04:12:26.000Z</time>
      </trkpt>
      <trkpt lat="46.21536" lon="6.78553">
        <ele>1886</ele>
        <time>2000-01-01T04:12:36.000Z</time>
      </trkpt>
      <trkpt lat="46.21542" lon="6.78546">
        <ele>1885.5</ele>
        <time>2000-01-01T04:12:46.000Z</time>
      </trkpt>
      <trkpt lat="46.21548" lon="6.78535">
        <ele>1888.5</ele>
        <time>2000-01-01T04:12:56.000Z</time>
      </trkpt>
      <trkpt lat="46.21551" lon="6.78525">
        <ele>1888</ele>
        <time>2000-01-01T04:13:06.000Z</time>
      </trkpt>
      <trkpt lat="46.21555" lon="6.78517">
        <ele>1892.6</ele>
        <time>2000-01-01T04:13:16.000Z</time>
      </trkpt>
      <trkpt lat="46.2157" lon="6.7848">
        <ele>1891</ele>
        <time>2000-01-01T04:13:26.000Z</time>
      </trkpt>
      <trkpt lat="46.21584" lon="6.78457">
        <ele>1894</ele>
        <time>2000-01-01T04:13:36.000Z</time>
      </trkpt>
      <trkpt lat="46.21601" lon="6.78432">
        <ele>1894</ele>
        <time>2000-01-01T04:13:46.000Z</time>
      </trkpt>
      <trkpt lat="46.2161" lon="6.7841">
        <ele>1896.6</ele>
        <time>2000-01-01T04:13:56.000Z</time>
      </trkpt>
      <trkpt lat="46.21621" lon="6.78366">
        <ele>1894</ele>
        <time>2000-01-01T04:14:06.000Z</time>
      </trkpt>
      <trkpt lat="46.21622" lon="6.78354">
        <ele>1893.9</ele>
        <time>2000-01-01T04:14:16.000Z</time>
      </trkpt>
      <trkpt lat="46.21629" lon="6.78309">
        <ele>1892</ele>
        <time>2000-01-01T04:14:26.000Z</time>
      </trkpt>
      <trkpt lat="46.21631" lon="6.78275">
        <ele>1891</ele>
        <time>2000-01-01T04:14:36.000Z</time>
      </trkpt>
      <trkpt lat="46.21629" lon="6.78253">
        <ele>1891.1</ele>
        <time>2000-01-01T04:14:46.000Z</time>
      </trkpt>
      <trkpt lat="46.21628" lon="6.78233">
        <ele>1889</ele>
        <time>2000-01-01T04:14:56.000Z</time>
      </trkpt>
      <trkpt lat="46.2163" lon="6.78217">
        <ele>1889.8</ele>
        <time>2000-01-01T04:15:06.000Z</time>
      </trkpt>
      <trkpt lat="46.21631" lon="6.78192">
        <ele>1887</ele>
        <time>2000-01-01T04:15:16.000Z</time>
      </trkpt>
      <trkpt lat="46.21628" lon="6.78147">
        <ele>1885</ele>
        <time>2000-01-01T04:15:26.000Z</time>
      </trkpt>
      <trkpt lat="46.21629" lon="6.78135">
        <ele>1885.3</ele>
        <time>2000-01-01T04:15:36.000Z</time>
      </trkpt>
      <trkpt lat="46.21632" lon="6.78119">
        <ele>1886</ele>
        <time>2000-01-01T04:15:46.000Z</time>
      </trkpt>
      <trkpt lat="46.21639" lon="6.78105">
        <ele>1887</ele>
        <time>2000-01-01T04:15:56.000Z</time>
      </trkpt>
      <trkpt lat="46.21653" lon="6.78081">
        <ele>1883</ele>
        <time>2000-01-01T04:16:06.000Z</time>
      </trkpt>
      <trkpt lat="46.21665" lon="6.78048">
        <ele>1884</ele>
        <time>2000-01-01T04:16:16.000Z</time>
      </trkpt>
      <trkpt lat="46.21681" lon="6.78023">
        <ele>1882</ele>
        <time>2000-01-01T04:16:26.000Z</time>
      </trkpt>
      <trkpt lat="46.21688" lon="6.78008">
        <ele>1884.9</ele>
        <time>2000-01-01T04:16:36.000Z</time>
      </trkpt>
      <trkpt lat="46.21695" lon="6.77999">
        <ele>1880</ele>
        <time>2000-01-01T04:16:46.000Z</time>
      </trkpt>
      <trkpt lat="46.21716" lon="6.7798">
        <ele>1879</ele>
        <time>2000-01-01T04:16:56.000Z</time>
      </trkpt>
      <trkpt lat="46.21741" lon="6.77958">
        <ele>1877</ele>
        <time>2000-01-01T04:17:06.000Z</time>
      </trkpt>
      <trkpt lat="46.21778" lon="6.77921">
        <ele>1873</ele>
        <time>2000-01-01T04:17:16.000Z</time>
      </trkpt>
      <trkpt lat="46.21801" lon="6.779">
        <ele>1868</ele>
        <time>2000-01-01T04:17:26.000Z</time>
      </trkpt>
      <trkpt lat="46.21834" lon="6.7787">
        <ele>1867</ele>
        <time>2000-01-01T04:17:36.000Z</time>
      </trkpt>
      <trkpt lat="46.21848" lon="6.7785">
        <ele>1867</ele>
        <time>2000-01-01T04:17:46.000Z</time>
      </trkpt>
      <trkpt lat="46.21865" lon="6.77836">
        <ele>1867</ele>
        <time>2000-01-01T04:17:56.000Z</time>
      </trkpt>
      <trkpt lat="46.21885" lon="6.77824">
        <ele>1867</ele>
        <time>2000-01-01T04:18:06.000Z</time>
      </trkpt>
      <trkpt lat="46.21903" lon="6.77796">
        <ele>1867</ele>
        <time>2000-01-01T04:18:16.000Z</time>
      </trkpt>
      <trkpt lat="46.21911" lon="6.77791">
        <ele>1866.4</ele>
        <time>2000-01-01T04:18:26.000Z</time>
      </trkpt>
      <trkpt lat="46.21911" lon="6.77795">
        <ele>1866.2</ele>
        <time>2000-01-01T04:18:36.000Z</time>
      </trkpt>
      <trkpt lat="46.21908" lon="6.7781">
        <ele>1865</ele>
        <time>2000-01-01T04:18:46.000Z</time>
      </trkpt>
      <trkpt lat="46.21908" lon="6.77819">
        <ele>1866.2</ele>
        <time>2000-01-01T04:18:56.000Z</time>
      </trkpt>
      <trkpt lat="46.2191" lon="6.7783">
        <ele>1865.9</ele>
        <time>2000-01-01T04:19:06.000Z</time>
      </trkpt>
      <trkpt lat="46.21922" lon="6.7786">
        <ele>1865</ele>
        <time>2000-01-01T04:19:16.000Z</time>
      </trkpt>
      <trkpt lat="46.21934" lon="6.77895">
        <ele>1865</ele>
        <time>2000-01-01T04:19:26.000Z</time>
      </trkpt>
      <trkpt lat="46.21936" lon="6.77897">
        <ele>1863.5</ele>
        <time>2000-01-01T04:19:36.000Z</time>
      </trkpt>
      <trkpt lat="46.2194" lon="6.77898">
        <ele>1861.3</ele>
        <time>2000-01-01T04:19:46.000Z</time>
      </trkpt>
      <trkpt lat="46.21941" lon="6.77897">
        <ele>1860.4</ele>
        <time>2000-01-01T04:19:56.000Z</time>
      </trkpt>
      <trkpt lat="46.21941" lon="6.77889">
        <ele>1858.1</ele>
        <time>2000-01-01T04:20:06.000Z</time>
      </trkpt>
      <trkpt lat="46.21935" lon="6.77876">
        <ele>1861</ele>
        <time>2000-01-01T04:20:16.000Z</time>
      </trkpt>
      <trkpt lat="46.21935" lon="6.77869">
        <ele>1857.5</ele>
        <time>2000-01-01T04:20:26.000Z</time>
      </trkpt>
      <trkpt lat="46.21936" lon="6.77868">
        <ele>1856.7</ele>
        <time>2000-01-01T04:20:36.000Z</time>
      </trkpt>
      <trkpt lat="46.21939" lon="6.77867">
        <ele>1854.6</ele>
        <time>2000-01-01T04:20:46.000Z</time>
      </trkpt>
      <trkpt lat="46.21947" lon="6.77881">
        <ele>1855</ele>
        <time>2000-01-01T04:20:56.000Z</time>
      </trkpt>
      <trkpt lat="46.21951" lon="6.77886">
        <ele>1851.6</ele>
        <time>2000-01-01T04:21:06.000Z</time>
      </trkpt>
      <trkpt lat="46.21954" lon="6.77891">
        <ele>1851.1</ele>
        <time>2000-01-01T04:21:16.000Z</time>
      </trkpt>
      <trkpt lat="46.21959" lon="6.77897">
        <ele>1849.8</ele>
        <time>2000-01-01T04:21:26.000Z</time>
      </trkpt>
      <trkpt lat="46.2197" lon="6.77913">
        <ele>1852</ele>
        <time>2000-01-01T04:21:36.000Z</time>
      </trkpt>
      <trkpt lat="46.21975" lon="6.77924">
        <ele>1846.5</ele>
        <time>2000-01-01T04:21:46.000Z</time>
      </trkpt>
      <trkpt lat="46.21979" lon="6.77934">
        <ele>1845.6</ele>
        <time>2000-01-01T04:21:56.000Z</time>
      </trkpt>
      <trkpt lat="46.2198" lon="6.77939">
        <ele>1850</ele>
        <time>2000-01-01T04:22:06.000Z</time>
      </trkpt>
      <trkpt lat="46.21985" lon="6.77954">
        <ele>1844.6</ele>
        <time>2000-01-01T04:22:16.000Z</time>
      </trkpt>
      <trkpt lat="46.21988" lon="6.77973">
        <ele>1849</ele>
        <time>2000-01-01T04:22:26.000Z</time>
      </trkpt>
      <trkpt lat="46.2199" lon="6.7798">
        <ele>1842.8</ele>
        <time>2000-01-01T04:22:36.000Z</time>
      </trkpt>
      <trkpt lat="46.21992" lon="6.77986">
        <ele>1841.3</ele>
        <time>2000-01-01T04:22:46.000Z</time>
      </trkpt>
      <trkpt lat="46.21994" lon="6.77989">
        <ele>1839.8</ele>
        <time>2000-01-01T04:22:56.000Z</time>
      </trkpt>
      <trkpt lat="46.21997" lon="6.77989">
        <ele>1837.4</ele>
        <time>2000-01-01T04:23:06.000Z</time>
      </trkpt>
      <trkpt lat="46.21997" lon="6.77983">
        <ele>1842</ele>
        <time>2000-01-01T04:23:16.000Z</time>
      </trkpt>
      <trkpt lat="46.21995" lon="6.77976">
        <ele>1838.8</ele>
        <time>2000-01-01T04:23:26.000Z</time>
      </trkpt>
      <trkpt lat="46.21995" lon="6.77971">
        <ele>1838.7</ele>
        <time>2000-01-01T04:23:36.000Z</time>
      </trkpt>
      <trkpt lat="46.21996" lon="6.77964">
        <ele>1837.8</ele>
        <time>2000-01-01T04:23:46.000Z</time>
      </trkpt>
      <trkpt lat="46.21996" lon="6.77955">
        <ele>1842</ele>
        <time>2000-01-01T04:23:56.000Z</time>
      </trkpt>
      <trkpt lat="46.21997" lon="6.77949">
        <ele>1836.8</ele>
        <time>2000-01-01T04:24:06.000Z</time>
      </trkpt>
      <trkpt lat="46.21996" lon="6.77943">
        <ele>1837.1</ele>
        <time>2000-01-01T04:24:16.000Z</time>
      </trkpt>
      <trkpt lat="46.21996" lon="6.77937">
        <ele>1836.2</ele>
        <time>2000-01-01T04:24:26.000Z</time>
      </trkpt>
      <trkpt lat="46.21995" lon="6.77931">
        <ele>1835.9</ele>
        <time>2000-01-01T04:24:36.000Z</time>
      </trkpt>
      <trkpt lat="46.21995" lon="6.77926">
        <ele>1837</ele>
        <time>2000-01-01T04:24:46.000Z</time>
      </trkpt>
      <trkpt lat="46.21988" lon="6.77905">
        <ele>1835.4</ele>
        <time>2000-01-01T04:24:56.000Z</time>
      </trkpt>
      <trkpt lat="46.21984" lon="6.77884">
        <ele>1833</ele>
        <time>2000-01-01T04:25:06.000Z</time>
      </trkpt>
      <trkpt lat="46.21986" lon="6.77879">
        <ele>1831.5</ele>
        <time>2000-01-01T04:25:16.000Z</time>
      </trkpt>
      <trkpt lat="46.21988" lon="6.77879">
        <ele>1830.5</ele>
        <time>2000-01-01T04:25:26.000Z</time>
      </trkpt>
      <trkpt lat="46.2199" lon="6.7788">
        <ele>1829.6</ele>
        <time>2000-01-01T04:25:36.000Z</time>
      </trkpt>
      <trkpt lat="46.21992" lon="6.77888">
        <ele>1829.9</ele>
        <time>2000-01-01T04:25:46.000Z</time>
      </trkpt>
      <trkpt lat="46.21995" lon="6.77893">
        <ele>1829.3</ele>
        <time>2000-01-01T04:25:56.000Z</time>
      </trkpt>
      <trkpt lat="46.22" lon="6.77895">
        <ele>1830</ele>
        <time>2000-01-01T04:26:06.000Z</time>
      </trkpt>
      <trkpt lat="46.22003" lon="6.77895">
        <ele>1825.5</ele>
        <time>2000-01-01T04:26:16.000Z</time>
      </trkpt>
      <trkpt lat="46.22004" lon="6.77894">
        <ele>1824.8</ele>
        <time>2000-01-01T04:26:26.000Z</time>
      </trkpt>
      <trkpt lat="46.22005" lon="6.77891">
        <ele>1823.8</ele>
        <time>2000-01-01T04:26:36.000Z</time>
      </trkpt>
      <trkpt lat="46.22005" lon="6.77886">
        <ele>1823.1</ele>
        <time>2000-01-01T04:26:46.000Z</time>
      </trkpt>
      <trkpt lat="46.22004" lon="6.77882">
        <ele>1823</ele>
        <time>2000-01-01T04:26:56.000Z</time>
      </trkpt>
      <trkpt lat="46.21994" lon="6.7786">
        <ele>1823</ele>
        <time>2000-01-01T04:27:06.000Z</time>
      </trkpt>
      <trkpt lat="46.21992" lon="6.7785">
        <ele>1823.3</ele>
        <time>2000-01-01T04:27:16.000Z</time>
      </trkpt>
      <trkpt lat="46.21993" lon="6.77847">
        <ele>1822.2</ele>
        <time>2000-01-01T04:27:26.000Z</time>
      </trkpt>
      <trkpt lat="46.21995" lon="6.77845">
        <ele>1820.9</ele>
        <time>2000-01-01T04:27:36.000Z</time>
      </trkpt>
      <trkpt lat="46.21997" lon="6.77846">
        <ele>1820.1</ele>
        <time>2000-01-01T04:27:46.000Z</time>
      </trkpt>
      <trkpt lat="46.22" lon="6.77849">
        <ele>1819.4</ele>
        <time>2000-01-01T04:27:56.000Z</time>
      </trkpt>
      <trkpt lat="46.22001" lon="6.77853">
        <ele>1817</ele>
        <time>2000-01-01T04:28:06.000Z</time>
      </trkpt>
      <trkpt lat="46.22003" lon="6.77855">
        <ele>1819.3</ele>
        <time>2000-01-01T04:28:16.000Z</time>
      </trkpt>
      <trkpt lat="46.22014" lon="6.77861">
        <ele>1815.4</ele>
        <time>2000-01-01T04:28:26.000Z</time>
      </trkpt>
      <trkpt lat="46.22018" lon="6.77864">
        <ele>1816</ele>
        <time>2000-01-01T04:28:36.000Z</time>
      </trkpt>
      <trkpt lat="46.22026" lon="6.77876">
        <ele>1811.5</ele>
        <time>2000-01-01T04:28:46.000Z</time>
      </trkpt>
      <trkpt lat="46.22033" lon="6.77895">
        <ele>1809</ele>
        <time>2000-01-01T04:28:56.000Z</time>
      </trkpt>
      <trkpt lat="46.22038" lon="6.77911">
        <ele>1807.8</ele>
        <time>2000-01-01T04:29:06.000Z</time>
      </trkpt>
      <trkpt lat="46.22041" lon="6.77918">
        <ele>1806.9</ele>
        <time>2000-01-01T04:29:16.000Z</time>
      </trkpt>
      <trkpt lat="46.22044" lon="6.77924">
        <ele>1806</ele>
        <time>2000-01-01T04:29:26.000Z</time>
      </trkpt>
      <trkpt lat="46.22059" lon="6.77941">
        <ele>1805</ele>
        <time>2000-01-01T04:29:36.000Z</time>
      </trkpt>
      <trkpt lat="46.22061" lon="6.77947">
        <ele>1801.1</ele>
        <time>2000-01-01T04:29:46.000Z</time>
      </trkpt>
      <trkpt lat="46.22063" lon="6.77955">
        <ele>1800.5</ele>
        <time>2000-01-01T04:29:56.000Z</time>
      </trkpt>
      <trkpt lat="46.22063" lon="6.77962">
        <ele>1800.6</ele>
        <time>2000-01-01T04:30:06.000Z</time>
      </trkpt>
      <trkpt lat="46.22062" lon="6.77972">
        <ele>1807</ele>
        <time>2000-01-01T04:30:16.000Z</time>
      </trkpt>
      <trkpt lat="46.22056" lon="6.7799">
        <ele>1799</ele>
        <time>2000-01-01T04:30:26.000Z</time>
      </trkpt>
      <trkpt lat="46.2205" lon="6.77999">
        <ele>1806</ele>
        <time>2000-01-01T04:30:36.000Z</time>
      </trkpt>
      <trkpt lat="46.22045" lon="6.78008">
        <ele>1802.1</ele>
        <time>2000-01-01T04:30:46.000Z</time>
      </trkpt>
      <trkpt lat="46.22039" lon="6.78021">
        <ele>1805</ele>
        <time>2000-01-01T04:30:56.000Z</time>
      </trkpt>
      <trkpt lat="46.22038" lon="6.78028">
        <ele>1800.7</ele>
        <time>2000-01-01T04:31:06.000Z</time>
      </trkpt>
      <trkpt lat="46.22036" lon="6.78036">
        <ele>1801</ele>
        <time>2000-01-01T04:31:16.000Z</time>
      </trkpt>
      <trkpt lat="46.22035" lon="6.78044">
        <ele>1800.5</ele>
        <time>2000-01-01T04:31:26.000Z</time>
      </trkpt>
      <trkpt lat="46.22031" lon="6.78063">
        <ele>1806</ele>
        <time>2000-01-01T04:31:36.000Z</time>
      </trkpt>
      <trkpt lat="46.22029" lon="6.78076">
        <ele>1801.6</ele>
        <time>2000-01-01T04:31:46.000Z</time>
      </trkpt>
      <trkpt lat="46.22029" lon="6.78099">
        <ele>1805</ele>
        <time>2000-01-01T04:31:56.000Z</time>
      </trkpt>
      <trkpt lat="46.2203" lon="6.78114">
        <ele>1804</ele>
        <time>2000-01-01T04:32:06.000Z</time>
      </trkpt>
      <trkpt lat="46.22033" lon="6.78135">
        <ele>1804</ele>
        <time>2000-01-01T04:32:16.000Z</time>
      </trkpt>
      <trkpt lat="46.22045" lon="6.78178">
        <ele>1802</ele>
        <time>2000-01-01T04:32:26.000Z</time>
      </trkpt>
      <trkpt lat="46.22045" lon="6.78188">
        <ele>1798.5</ele>
        <time>2000-01-01T04:32:36.000Z</time>
      </trkpt>
      <trkpt lat="46.22042" lon="6.78214">
        <ele>1800</ele>
        <time>2000-01-01T04:32:46.000Z</time>
      </trkpt>
      <trkpt lat="46.2204" lon="6.78221">
        <ele>1799.1</ele>
        <time>2000-01-01T04:32:56.000Z</time>
      </trkpt>
      <trkpt lat="46.22038" lon="6.78231">
        <ele>1799.2</ele>
        <time>2000-01-01T04:33:06.000Z</time>
      </trkpt>
      <trkpt lat="46.22032" lon="6.78272">
        <ele>1799</ele>
        <time>2000-01-01T04:33:16.000Z</time>
      </trkpt>
      <trkpt lat="46.22029" lon="6.78281">
        <ele>1796.5</ele>
        <time>2000-01-01T04:33:26.000Z</time>
      </trkpt>
      <trkpt lat="46.22027" lon="6.78291">
        <ele>1795</ele>
        <time>2000-01-01T04:33:36.000Z</time>
      </trkpt>
      <trkpt lat="46.22025" lon="6.78298">
        <ele>1799</ele>
        <time>2000-01-01T04:33:46.000Z</time>
      </trkpt>
      <trkpt lat="46.22021" lon="6.78304">
        <ele>1794.3</ele>
        <time>2000-01-01T04:33:56.000Z</time>
      </trkpt>
      <trkpt lat="46.2201" lon="6.78319">
        <ele>1796</ele>
        <time>2000-01-01T04:34:06.000Z</time>
      </trkpt>
      <trkpt lat="46.22005" lon="6.78324">
        <ele>1793.8</ele>
        <time>2000-01-01T04:34:16.000Z</time>
      </trkpt>
      <trkpt lat="46.21998" lon="6.78329">
        <ele>1794.1</ele>
        <time>2000-01-01T04:34:26.000Z</time>
      </trkpt>
      <trkpt lat="46.21992" lon="6.78332">
        <ele>1799</ele>
        <time>2000-01-01T04:34:36.000Z</time>
      </trkpt>
      <trkpt lat="46.21978" lon="6.78335">
        <ele>1795.4</ele>
        <time>2000-01-01T04:34:46.000Z</time>
      </trkpt>
      <trkpt lat="46.21968" lon="6.7834">
        <ele>1798</ele>
        <time>2000-01-01T04:34:56.000Z</time>
      </trkpt>
      <trkpt lat="46.21959" lon="6.7835">
        <ele>1796.8</ele>
        <time>2000-01-01T04:35:06.000Z</time>
      </trkpt>
      <trkpt lat="46.21947" lon="6.78372">
        <ele>1798</ele>
        <time>2000-01-01T04:35:16.000Z</time>
      </trkpt>
      <trkpt lat="46.21929" lon="6.78391">
        <ele>1797</ele>
        <time>2000-01-01T04:35:26.000Z</time>
      </trkpt>
      <trkpt lat="46.2192" lon="6.78398">
        <ele>1797.1</ele>
        <time>2000-01-01T04:35:36.000Z</time>
      </trkpt>
      <trkpt lat="46.21915" lon="6.78406">
        <ele>1796.7</ele>
        <time>2000-01-01T04:35:46.000Z</time>
      </trkpt>
      <trkpt lat="46.21911" lon="6.78419">
        <ele>1797</ele>
        <time>2000-01-01T04:35:56.000Z</time>
      </trkpt>
      <trkpt lat="46.21902" lon="6.78436">
        <ele>1792.5</ele>
        <time>2000-01-01T04:36:06.000Z</time>
      </trkpt>
      <trkpt lat="46.21892" lon="6.78445">
        <ele>1797</ele>
        <time>2000-01-01T04:36:16.000Z</time>
      </trkpt>
      <trkpt lat="46.2188" lon="6.78453">
        <ele>1795.2</ele>
        <time>2000-01-01T04:36:26.000Z</time>
      </trkpt>
      <trkpt lat="46.21872" lon="6.7846">
        <ele>1796</ele>
        <time>2000-01-01T04:36:36.000Z</time>
      </trkpt>
      <trkpt lat="46.21867" lon="6.78473">
        <ele>1793.2</ele>
        <time>2000-01-01T04:36:46.000Z</time>
      </trkpt>
      <trkpt lat="46.2186" lon="6.78486">
        <ele>1796</ele>
        <time>2000-01-01T04:36:56.000Z</time>
      </trkpt>
      <trkpt lat="46.21853" lon="6.78495">
        <ele>1790.9</ele>
        <time>2000-01-01T04:37:06.000Z</time>
      </trkpt>
      <trkpt lat="46.21844" lon="6.78504">
        <ele>1793</ele>
        <time>2000-01-01T04:37:16.000Z</time>
      </trkpt>
      <trkpt lat="46.21833" lon="6.7851">
        <ele>1789.4</ele>
        <time>2000-01-01T04:37:26.000Z</time>
      </trkpt>
      <trkpt lat="46.21813" lon="6.7853">
        <ele>1792</ele>
        <time>2000-01-01T04:37:36.000Z</time>
      </trkpt>
      <trkpt lat="46.21801" lon="6.78538">
        <ele>1785.4</ele>
        <time>2000-01-01T04:37:46.000Z</time>
      </trkpt>
      <trkpt lat="46.21783" lon="6.78559">
        <ele>1786</ele>
        <time>2000-01-01T04:37:56.000Z</time>
      </trkpt>
      <trkpt lat="46.2178" lon="6.78569">
        <ele>1778</ele>
        <time>2000-01-01T04:38:06.000Z</time>
      </trkpt>
      <trkpt lat="46.21772" lon="6.78577">
        <ele>1777.7</ele>
        <time>2000-01-01T04:38:16.000Z</time>
      </trkpt>
      <trkpt lat="46.2177" lon="6.7858">
        <ele>1783</ele>
        <time>2000-01-01T04:38:26.000Z</time>
      </trkpt>
      <trkpt lat="46.21768" lon="6.78593">
        <ele>1773.3</ele>
        <time>2000-01-01T04:38:36.000Z</time>
      </trkpt>
      <trkpt lat="46.21765" lon="6.78604">
        <ele>1770.3</ele>
        <time>2000-01-01T04:38:46.000Z</time>
      </trkpt>
      <trkpt lat="46.2175" lon="6.78629">
        <ele>1773</ele>
        <time>2000-01-01T04:38:56.000Z</time>
      </trkpt>
      <trkpt lat="46.21747" lon="6.7864">
        <ele>1763.7</ele>
        <time>2000-01-01T04:39:06.000Z</time>
      </trkpt>
      <trkpt lat="46.21736" lon="6.78661">
        <ele>1762</ele>
        <time>2000-01-01T04:39:16.000Z</time>
      </trkpt>
      <trkpt lat="46.21724" lon="6.78691">
        <ele>1756</ele>
        <time>2000-01-01T04:39:26.000Z</time>
      </trkpt>
      <trkpt lat="46.21716" lon="6.78702">
        <ele>1754.4</ele>
        <time>2000-01-01T04:39:36.000Z</time>
      </trkpt>
      <trkpt lat="46.21714" lon="6.78715">
        <ele>1754</ele>
        <time>2000-01-01T04:39:46.000Z</time>
      </trkpt>
      <trkpt lat="46.21713" lon="6.78747">
        <ele>1746</ele>
        <time>2000-01-01T04:39:56.000Z</time>
      </trkpt>
      <trkpt lat="46.2171" lon="6.7877">
        <ele>1739.1</ele>
        <time>2000-01-01T04:40:06.000Z</time>
      </trkpt>
      <trkpt lat="46.21711" lon="6.78773">
        <ele>1738.1</ele>
        <time>2000-01-01T04:40:16.000Z</time>
      </trkpt>
      <trkpt lat="46.21703" lon="6.78805">
        <ele>1736</ele>
        <time>2000-01-01T04:40:26.000Z</time>
      </trkpt>
      <trkpt lat="46.21702" lon="6.78812">
        <ele>1733.1</ele>
        <time>2000-01-01T04:40:36.000Z</time>
      </trkpt>
      <trkpt lat="46.21702" lon="6.78825">
        <ele>1730.8</ele>
        <time>2000-01-01T04:40:46.000Z</time>
      </trkpt>
      <trkpt lat="46.21701" lon="6.78836">
        <ele>1730</ele>
        <time>2000-01-01T04:40:56.000Z</time>
      </trkpt>
      <trkpt lat="46.21697" lon="6.78864">
        <ele>1728</ele>
        <time>2000-01-01T04:41:06.000Z</time>
      </trkpt>
      <trkpt lat="46.21701" lon="6.78927">
        <ele>1715</ele>
        <time>2000-01-01T04:41:16.000Z</time>
      </trkpt>
      <trkpt lat="46.21704" lon="6.78936">
        <ele>1713.6</ele>
        <time>2000-01-01T04:41:26.000Z</time>
      </trkpt>
      <trkpt lat="46.21706" lon="6.78946">
        <ele>1712.6</ele>
        <time>2000-01-01T04:41:36.000Z</time>
      </trkpt>
      <trkpt lat="46.21716" lon="6.79004">
        <ele>1704</ele>
        <time>2000-01-01T04:41:46.000Z</time>
      </trkpt>
      <trkpt lat="46.21722" lon="6.79029">
        <ele>1697.8</ele>
        <time>2000-01-01T04:41:56.000Z</time>
      </trkpt>
      <trkpt lat="46.21729" lon="6.79053">
        <ele>1693</ele>
        <time>2000-01-01T04:42:06.000Z</time>
      </trkpt>
      <trkpt lat="46.21728" lon="6.79065">
        <ele>1689.9</ele>
        <time>2000-01-01T04:42:16.000Z</time>
      </trkpt>
      <trkpt lat="46.21725" lon="6.79078">
        <ele>1687.8</ele>
        <time>2000-01-01T04:42:26.000Z</time>
      </trkpt>
      <trkpt lat="46.2171" lon="6.7913">
        <ele>1685</ele>
        <time>2000-01-01T04:42:36.000Z</time>
      </trkpt>
      <trkpt lat="46.21704" lon="6.79153">
        <ele>1676.2</ele>
        <time>2000-01-01T04:42:46.000Z</time>
      </trkpt>
      <trkpt lat="46.21694" lon="6.79181">
        <ele>1670</ele>
        <time>2000-01-01T04:42:56.000Z</time>
      </trkpt>
      <trkpt lat="46.2168" lon="6.79208">
        <ele>1669</ele>
        <time>2000-01-01T04:43:06.000Z</time>
      </trkpt>
      <trkpt lat="46.21664" lon="6.79243">
        <ele>1660</ele>
        <time>2000-01-01T04:43:16.000Z</time>
      </trkpt>
      <trkpt lat="46.21662" lon="6.7925">
        <ele>1657.7</ele>
        <time>2000-01-01T04:43:26.000Z</time>
      </trkpt>
      <trkpt lat="46.21685" lon="6.79248">
        <ele>1655</ele>
        <time>2000-01-01T04:43:36.000Z</time>
      </trkpt>
      <trkpt lat="46.2167" lon="6.79275">
        <ele>1653</ele>
        <time>2000-01-01T04:43:46.000Z</time>
      </trkpt>
      <trkpt lat="46.21655" lon="6.79302">
        <ele>1652</ele>
        <time>2000-01-01T04:43:56.000Z</time>
      </trkpt>
      <trkpt lat="46.21675" lon="6.79328">
        <ele>1646</ele>
        <time>2000-01-01T04:44:06.000Z</time>
      </trkpt>
      <trkpt lat="46.21703" lon="6.79362">
        <ele>1642</ele>
        <time>2000-01-01T04:44:16.000Z</time>
      </trkpt>
      <trkpt lat="46.21724" lon="6.79311">
        <ele>1640</ele>
        <time>2000-01-01T04:44:26.000Z</time>
      </trkpt>
      <trkpt lat="46.21748" lon="6.79308">
        <ele>1639</ele>
        <time>2000-01-01T04:44:36.000Z</time>
      </trkpt>
      <trkpt lat="46.21773" lon="6.79304">
        <ele>1638</ele>
        <time>2000-01-01T04:44:46.000Z</time>
      </trkpt>
      <trkpt lat="46.21789" lon="6.7933">
        <ele>1636</ele>
        <time>2000-01-01T04:44:56.000Z</time>
      </trkpt>
      <trkpt lat="46.21805" lon="6.79358">
        <ele>1635</ele>
        <time>2000-01-01T04:45:06.000Z</time>
      </trkpt>
      <trkpt lat="46.21822" lon="6.79407">
        <ele>1632</ele>
        <time>2000-01-01T04:45:16.000Z</time>
      </trkpt>
      <trkpt lat="46.2186" lon="6.79405">
        <ele>1624</ele>
        <time>2000-01-01T04:45:26.000Z</time>
      </trkpt>
      <trkpt lat="46.21893" lon="6.7945">
        <ele>1611</ele>
        <time>2000-01-01T04:45:36.000Z</time>
      </trkpt>
      <trkpt lat="46.21902" lon="6.79498">
        <ele>1604</ele>
        <time>2000-01-01T04:45:46.000Z</time>
      </trkpt>
      <trkpt lat="46.21945" lon="6.79519">
        <ele>1589</ele>
        <time>2000-01-01T04:45:56.000Z</time>
      </trkpt>
      <trkpt lat="46.21974" lon="6.79517">
        <ele>1579</ele>
        <time>2000-01-01T04:46:06.000Z</time>
      </trkpt>
      <trkpt lat="46.2202" lon="6.79515">
        <ele>1569</ele>
        <time>2000-01-01T04:46:16.000Z</time>
      </trkpt>
      <trkpt lat="46.22041" lon="6.79498">
        <ele>1557</ele>
        <time>2000-01-01T04:46:26.000Z</time>
      </trkpt>
      <trkpt lat="46.22063" lon="6.7948">
        <ele>1548</ele>
        <time>2000-01-01T04:46:36.000Z</time>
      </trkpt>
      <trkpt lat="46.22088" lon="6.79464">
        <ele>1544</ele>
        <time>2000-01-01T04:46:46.000Z</time>
      </trkpt>
      <trkpt lat="46.22122" lon="6.79442">
        <ele>1537</ele>
        <time>2000-01-01T04:46:56.000Z</time>
      </trkpt>
      <trkpt lat="46.22157" lon="6.79418">
        <ele>1527</ele>
        <time>2000-01-01T04:47:06.000Z</time>
      </trkpt>
      <trkpt lat="46.22139" lon="6.79405">
        <ele>1522</ele>
        <time>2000-01-01T04:47:16.000Z</time>
      </trkpt>
      <trkpt lat="46.22117" lon="6.79395">
        <ele>1521</ele>
        <time>2000-01-01T04:47:26.000Z</time>
      </trkpt>
      <trkpt lat="46.22111" lon="6.79347">
        <ele>1510</ele>
        <time>2000-01-01T04:47:36.000Z</time>
      </trkpt>
      <trkpt lat="46.22127" lon="6.79307">
        <ele>1506</ele>
        <time>2000-01-01T04:47:46.000Z</time>
      </trkpt>
      <trkpt lat="46.22144" lon="6.79298">
        <ele>1502.9</ele>
        <time>2000-01-01T04:47:56.000Z</time>
      </trkpt>
      <trkpt lat="46.22188" lon="6.79319">
        <ele>1499</ele>
        <time>2000-01-01T04:48:06.000Z</time>
      </trkpt>
      <trkpt lat="46.22212" lon="6.79319">
        <ele>1497</ele>
        <time>2000-01-01T04:48:16.000Z</time>
      </trkpt>
      <trkpt lat="46.22198" lon="6.79289">
        <ele>1494</ele>
        <time>2000-01-01T04:48:26.000Z</time>
      </trkpt>
      <trkpt lat="46.22182" lon="6.79253">
        <ele>1494</ele>
        <time>2000-01-01T04:48:36.000Z</time>
      </trkpt>
      <trkpt lat="46.22206" lon="6.7922">
        <ele>1490</ele>
        <time>2000-01-01T04:48:46.000Z</time>
      </trkpt>
      <trkpt lat="46.2223" lon="6.79187">
        <ele>1487</ele>
        <time>2000-01-01T04:48:56.000Z</time>
      </trkpt>
      <trkpt lat="46.22247" lon="6.79164">
        <ele>1484</ele>
        <time>2000-01-01T04:49:06.000Z</time>
      </trkpt>
      <trkpt lat="46.22264" lon="6.79141">
        <ele>1481</ele>
        <time>2000-01-01T04:49:16.000Z</time>
      </trkpt>
      <trkpt lat="46.22294" lon="6.79128">
        <ele>1477</ele>
        <time>2000-01-01T04:49:26.000Z</time>
      </trkpt>
      <trkpt lat="46.22325" lon="6.79114">
        <ele>1472</ele>
        <time>2000-01-01T04:49:36.000Z</time>
      </trkpt>
      <trkpt lat="46.2236" lon="6.79099">
        <ele>1467</ele>
        <time>2000-01-01T04:49:46.000Z</time>
      </trkpt>
      <trkpt lat="46.22347" lon="6.7913">
        <ele>1467</ele>
        <time>2000-01-01T04:49:56.000Z</time>
      </trkpt>
      <trkpt lat="46.22332" lon="6.79165">
        <ele>1467</ele>
        <time>2000-01-01T04:50:06.000Z</time>
      </trkpt>
      <trkpt lat="46.22334" lon="6.79229">
        <ele>1469</ele>
        <time>2000-01-01T04:50:16.000Z</time>
      </trkpt>
      <trkpt lat="46.22369" lon="6.79268">
        <ele>1471</ele>
        <time>2000-01-01T04:50:26.000Z</time>
      </trkpt>
      <trkpt lat="46.22395" lon="6.79255">
        <ele>1471</ele>
        <time>2000-01-01T04:50:36.000Z</time>
      </trkpt>
      <trkpt lat="46.22432" lon="6.79236">
        <ele>1471</ele>
        <time>2000-01-01T04:50:46.000Z</time>
      </trkpt>
      <trkpt lat="46.22455" lon="6.79225">
        <ele>1471</ele>
        <time>2000-01-01T04:50:56.000Z</time>
      </trkpt>
      <trkpt lat="46.22479" lon="6.79212">
        <ele>1471</ele>
        <time>2000-01-01T04:51:06.000Z</time>
      </trkpt>
      <trkpt lat="46.2251" lon="6.79186">
        <ele>1466</ele>
        <time>2000-01-01T04:51:16.000Z</time>
      </trkpt>
      <trkpt lat="46.22541" lon="6.7916">
        <ele>1464</ele>
        <time>2000-01-01T04:51:26.000Z</time>
      </trkpt>
      <trkpt lat="46.22572" lon="6.79135">
        <ele>1458</ele>
        <time>2000-01-01T04:51:36.000Z</time>
      </trkpt>
      <trkpt lat="46.22611" lon="6.79102">
        <ele>1453</ele>
        <time>2000-01-01T04:51:46.000Z</time>
      </trkpt>
      <trkpt lat="46.22633" lon="6.79084">
        <ele>1450</ele>
        <time>2000-01-01T04:51:56.000Z</time>
      </trkpt>
      <trkpt lat="46.2266" lon="6.79062">
        <ele>1449</ele>
        <time>2000-01-01T04:52:06.000Z</time>
      </trkpt>
      <trkpt lat="46.22691" lon="6.79058">
        <ele>1449</ele>
        <time>2000-01-01T04:52:16.000Z</time>
      </trkpt>
      <trkpt lat="46.22718" lon="6.79055">
        <ele>1449</ele>
        <time>2000-01-01T04:52:26.000Z</time>
      </trkpt>
      <trkpt lat="46.22757" lon="6.79051">
        <ele>1447</ele>
        <time>2000-01-01T04:52:36.000Z</time>
      </trkpt>
      <trkpt lat="46.22786" lon="6.79055">
        <ele>1442</ele>
        <time>2000-01-01T04:52:46.000Z</time>
      </trkpt>
      <trkpt lat="46.22809" lon="6.79058">
        <ele>1437</ele>
        <time>2000-01-01T04:52:56.000Z</time>
      </trkpt>
      <trkpt lat="46.22834" lon="6.79061">
        <ele>1430</ele>
        <time>2000-01-01T04:53:06.000Z</time>
      </trkpt>
      <trkpt lat="46.22873" lon="6.79065">
        <ele>1414</ele>
        <time>2000-01-01T04:53:16.000Z</time>
      </trkpt>
      <trkpt lat="46.22906" lon="6.79069">
        <ele>1399</ele>
        <time>2000-01-01T04:53:26.000Z</time>
      </trkpt>
      <trkpt lat="46.22939" lon="6.79073">
        <ele>1390</ele>
        <time>2000-01-01T04:53:36.000Z</time>
      </trkpt>
      <trkpt lat="46.22963" lon="6.79076">
        <ele>1384</ele>
        <time>2000-01-01T04:53:46.000Z</time>
      </trkpt>
      <trkpt lat="46.22987" lon="6.79079">
        <ele>1383</ele>
        <time>2000-01-01T04:53:56.000Z</time>
      </trkpt>
      <trkpt lat="46.2296" lon="6.79043">
        <ele>1382</ele>
        <time>2000-01-01T04:54:06.000Z</time>
      </trkpt>
      <trkpt lat="46.2297" lon="6.79012">
        <ele>1376</ele>
        <time>2000-01-01T04:54:16.000Z</time>
      </trkpt>
      <trkpt lat="46.22979" lon="6.7898">
        <ele>1367</ele>
        <time>2000-01-01T04:54:26.000Z</time>
      </trkpt>
      <trkpt lat="46.23006" lon="6.78999">
        <ele>1359</ele>
        <time>2000-01-01T04:54:36.000Z</time>
      </trkpt>
      <trkpt lat="46.2303" lon="6.79015">
        <ele>1354</ele>
        <time>2000-01-01T04:54:46.000Z</time>
      </trkpt>
      <trkpt lat="46.23058" lon="6.79034">
        <ele>1348</ele>
        <time>2000-01-01T04:54:56.000Z</time>
      </trkpt>
      <trkpt lat="46.23045" lon="6.79006">
        <ele>1344</ele>
        <time>2000-01-01T04:55:06.000Z</time>
      </trkpt>
      <trkpt lat="46.23031" lon="6.78978">
        <ele>1341</ele>
        <time>2000-01-01T04:55:16.000Z</time>
      </trkpt>
      <trkpt lat="46.23031" lon="6.78939">
        <ele>1341</ele>
        <time>2000-01-01T04:55:26.000Z</time>
      </trkpt>
      <trkpt lat="46.2303" lon="6.78886">
        <ele>1341</ele>
        <time>2000-01-01T04:55:36.000Z</time>
      </trkpt>
      <trkpt lat="46.23032" lon="6.7885">
        <ele>1330</ele>
        <time>2000-01-01T04:55:46.000Z</time>
      </trkpt>
      <trkpt lat="46.23034" lon="6.78809">
        <ele>1321</ele>
        <time>2000-01-01T04:55:56.000Z</time>
      </trkpt>
      <trkpt lat="46.23071" lon="6.78827">
        <ele>1314</ele>
        <time>2000-01-01T04:56:06.000Z</time>
      </trkpt>
      <trkpt lat="46.23107" lon="6.78845">
        <ele>1308</ele>
        <time>2000-01-01T04:56:16.000Z</time>
      </trkpt>
      <trkpt lat="46.23144" lon="6.78863">
        <ele>1301</ele>
        <time>2000-01-01T04:56:26.000Z</time>
      </trkpt>
      <trkpt lat="46.2318" lon="6.78881">
        <ele>1296</ele>
        <time>2000-01-01T04:56:36.000Z</time>
      </trkpt>
      <trkpt lat="46.23207" lon="6.78894">
        <ele>1296</ele>
        <time>2000-01-01T04:56:46.000Z</time>
      </trkpt>
      <trkpt lat="46.23247" lon="6.78914">
        <ele>1295</ele>
        <time>2000-01-01T04:56:56.000Z</time>
      </trkpt>
      <trkpt lat="46.23275" lon="6.78917">
        <ele>1294</ele>
        <time>2000-01-01T04:57:06.000Z</time>
      </trkpt>
      <trkpt lat="46.23318" lon="6.78923">
        <ele>1292</ele>
        <time>2000-01-01T04:57:16.000Z</time>
      </trkpt>
      <trkpt lat="46.23345" lon="6.78905">
        <ele>1291</ele>
        <time>2000-01-01T04:57:26.000Z</time>
      </trkpt>
      <trkpt lat="46.2338" lon="6.78925">
        <ele>1288</ele>
        <time>2000-01-01T04:57:36.000Z</time>
      </trkpt>
      <trkpt lat="46.23407" lon="6.7894">
        <ele>1286</ele>
        <time>2000-01-01T04:57:46.000Z</time>
      </trkpt>
      <trkpt lat="46.2345" lon="6.78963">
        <ele>1286</ele>
        <time>2000-01-01T04:57:56.000Z</time>
      </trkpt>
      <trkpt lat="46.23477" lon="6.78978">
        <ele>1286</ele>
        <time>2000-01-01T04:58:06.000Z</time>
      </trkpt>
      <trkpt lat="46.23499" lon="6.78991">
        <ele>1281</ele>
        <time>2000-01-01T04:58:16.000Z</time>
      </trkpt>
      <trkpt lat="46.23523" lon="6.79004">
        <ele>1280</ele>
        <time>2000-01-01T04:58:26.000Z</time>
      </trkpt>
      <trkpt lat="46.23534" lon="6.79035">
        <ele>1277</ele>
        <time>2000-01-01T04:58:36.000Z</time>
      </trkpt>
      <trkpt lat="46.23546" lon="6.79068">
        <ele>1277</ele>
        <time>2000-01-01T04:58:46.000Z</time>
      </trkpt>
      <trkpt lat="46.23554" lon="6.79109">
        <ele>1277</ele>
        <time>2000-01-01T04:58:56.000Z</time>
      </trkpt>
      <trkpt lat="46.23529" lon="6.79113">
        <ele>1278</ele>
        <time>2000-01-01T04:59:06.000Z</time>
      </trkpt>
      <trkpt lat="46.23503" lon="6.79116">
        <ele>1280</ele>
        <time>2000-01-01T04:59:16.000Z</time>
      </trkpt>
      <trkpt lat="46.23473" lon="6.79152">
        <ele>1284</ele>
        <time>2000-01-01T04:59:26.000Z</time>
      </trkpt>
      <trkpt lat="46.23444" lon="6.79187">
        <ele>1298</ele>
        <time>2000-01-01T04:59:36.000Z</time>
      </trkpt>
      <trkpt lat="46.23414" lon="6.79223">
        <ele>1325</ele>
        <time>2000-01-01T04:59:46.000Z</time>
      </trkpt>
      <trkpt lat="46.23384" lon="6.79259">
        <ele>1352</ele>
        <time>2000-01-01T04:59:56.000Z</time>
      </trkpt>
      <trkpt lat="46.23363" lon="6.79285">
        <ele>1377</ele>
        <time>2000-01-01T05:00:06.000Z</time>
      </trkpt>
      <trkpt lat="46.2333" lon="6.79324">
        <ele>1417</ele>
        <time>2000-01-01T05:00:16.000Z</time>
      </trkpt>
      <trkpt lat="46.23296" lon="6.79366">
        <ele>1447</ele>
        <time>2000-01-01T05:00:26.000Z</time>
      </trkpt>
      <trkpt lat="46.23261" lon="6.79407">
        <ele>1479</ele>
        <time>2000-01-01T05:00:36.000Z</time>
      </trkpt>
      <trkpt lat="46.23227" lon="6.79449">
        <ele>1511</ele>
        <time>2000-01-01T05:00:46.000Z</time>
      </trkpt>
      <trkpt lat="46.23196" lon="6.79486">
        <ele>1530</ele>
        <time>2000-01-01T05:00:56.000Z</time>
      </trkpt>
      <trkpt lat="46.23166" lon="6.79522">
        <ele>1553</ele>
        <time>2000-01-01T05:01:06.000Z</time>
      </trkpt>
      <trkpt lat="46.23135" lon="6.79559">
        <ele>1580</ele>
        <time>2000-01-01T05:01:16.000Z</time>
      </trkpt>
      <trkpt lat="46.23105" lon="6.79596">
        <ele>1590</ele>
        <time>2000-01-01T05:01:26.000Z</time>
      </trkpt>
      <trkpt lat="46.23074" lon="6.79633">
        <ele>1591</ele>
        <time>2000-01-01T05:01:36.000Z</time>
      </trkpt>
      <trkpt lat="46.23053" lon="6.79659">
        <ele>1591</ele>
        <time>2000-01-01T05:01:46.000Z</time>
      </trkpt>
      <trkpt lat="46.2302" lon="6.79698">
        <ele>1613</ele>
        <time>2000-01-01T05:01:56.000Z</time>
      </trkpt>
      <trkpt lat="46.22986" lon="6.7974">
        <ele>1624</ele>
        <time>2000-01-01T05:02:06.000Z</time>
      </trkpt>
      <trkpt lat="46.22951" lon="6.79781">
        <ele>1633</ele>
        <time>2000-01-01T05:02:16.000Z</time>
      </trkpt>
      <trkpt lat="46.22917" lon="6.79823">
        <ele>1638</ele>
        <time>2000-01-01T05:02:26.000Z</time>
      </trkpt>
      <trkpt lat="46.22882" lon="6.79864">
        <ele>1641</ele>
        <time>2000-01-01T05:02:36.000Z</time>
      </trkpt>
      <trkpt lat="46.22854" lon="6.79898">
        <ele>1647</ele>
        <time>2000-01-01T05:02:46.000Z</time>
      </trkpt>
      <trkpt lat="46.22825" lon="6.79933">
        <ele>1659</ele>
        <time>2000-01-01T05:02:56.000Z</time>
      </trkpt>
      <trkpt lat="46.22797" lon="6.79967">
        <ele>1667</ele>
        <time>2000-01-01T05:03:06.000Z</time>
      </trkpt>
      <trkpt lat="46.22776" lon="6.79993">
        <ele>1674</ele>
        <time>2000-01-01T05:03:16.000Z</time>
      </trkpt>
      <trkpt lat="46.22745" lon="6.80031">
        <ele>1682</ele>
        <time>2000-01-01T05:03:26.000Z</time>
      </trkpt>
      <trkpt lat="46.2271" lon="6.80072">
        <ele>1698</ele>
        <time>2000-01-01T05:03:36.000Z</time>
      </trkpt>
      <trkpt lat="46.22676" lon="6.80114">
        <ele>1718</ele>
        <time>2000-01-01T05:03:46.000Z</time>
      </trkpt>
      <trkpt lat="46.22641" lon="6.80155">
        <ele>1741</ele>
        <time>2000-01-01T05:03:56.000Z</time>
      </trkpt>
      <trkpt lat="46.22622" lon="6.80178">
        <ele>1749</ele>
        <time>2000-01-01T05:04:06.000Z</time>
      </trkpt>
      <trkpt lat="46.22599" lon="6.80206">
        <ele>1765</ele>
        <time>2000-01-01T05:04:16.000Z</time>
      </trkpt>
      <trkpt lat="46.22576" lon="6.80233">
        <ele>1771</ele>
        <time>2000-01-01T05:04:26.000Z</time>
      </trkpt>
      <trkpt lat="46.22571" lon="6.80235">
        <ele>1773.6</ele>
        <time>2000-01-01T05:04:36.000Z</time>
      </trkpt>
      <trkpt lat="46.22571" lon="6.80238">
        <ele>1773.4</ele>
        <time>2000-01-01T05:04:46.000Z</time>
      </trkpt>
      <trkpt lat="46.22574" lon="6.80245">
        <ele>1772.6</ele>
        <time>2000-01-01T05:04:56.000Z</time>
      </trkpt>
      <trkpt lat="46.22579" lon="6.80255">
        <ele>1771</ele>
        <time>2000-01-01T05:05:06.000Z</time>
      </trkpt>
      <trkpt lat="46.22584" lon="6.80263">
        <ele>1770.9</ele>
        <time>2000-01-01T05:05:16.000Z</time>
      </trkpt>
      <trkpt lat="46.22586" lon="6.80273">
        <ele>1770.7</ele>
        <time>2000-01-01T05:05:26.000Z</time>
      </trkpt>
      <trkpt lat="46.22587" lon="6.80283">
        <ele>1771</ele>
        <time>2000-01-01T05:05:36.000Z</time>
      </trkpt>
      <trkpt lat="46.22586" lon="6.80291">
        <ele>1770.7</ele>
        <time>2000-01-01T05:05:46.000Z</time>
      </trkpt>
      <trkpt lat="46.22583" lon="6.80299">
        <ele>1771.1</ele>
        <time>2000-01-01T05:05:56.000Z</time>
      </trkpt>
      <trkpt lat="46.2258" lon="6.80305">
        <ele>1771.7</ele>
        <time>2000-01-01T05:06:06.000Z</time>
      </trkpt>
      <trkpt lat="46.22576" lon="6.8031">
        <ele>1770</ele>
        <time>2000-01-01T05:06:16.000Z</time>
      </trkpt>
      <trkpt lat="46.22574" lon="6.80318">
        <ele>1772</ele>
        <time>2000-01-01T05:06:26.000Z</time>
      </trkpt>
      <trkpt lat="46.22576" lon="6.80327">
        <ele>1771</ele>
        <time>2000-01-01T05:06:36.000Z</time>
      </trkpt>
      <trkpt lat="46.22584" lon="6.80327">
        <ele>1769</ele>
        <time>2000-01-01T05:06:46.000Z</time>
      </trkpt>
      <trkpt lat="46.22612" lon="6.80323">
        <ele>1764</ele>
        <time>2000-01-01T05:06:56.000Z</time>
      </trkpt>
      <trkpt lat="46.22625" lon="6.80324">
        <ele>1763</ele>
        <time>2000-01-01T05:07:06.000Z</time>
      </trkpt>
      <trkpt lat="46.22633" lon="6.80327">
        <ele>1759</ele>
        <time>2000-01-01T05:07:16.000Z</time>
      </trkpt>
      <trkpt lat="46.22641" lon="6.80329">
        <ele>1758.7</ele>
        <time>2000-01-01T05:07:26.000Z</time>
      </trkpt>
      <trkpt lat="46.22651" lon="6.8033">
        <ele>1757.2</ele>
        <time>2000-01-01T05:07:36.000Z</time>
      </trkpt>
      <trkpt lat="46.22664" lon="6.80325">
        <ele>1752</ele>
        <time>2000-01-01T05:07:46.000Z</time>
      </trkpt>
      <trkpt lat="46.22679" lon="6.80321">
        <ele>1749.4</ele>
        <time>2000-01-01T05:07:56.000Z</time>
      </trkpt>
      <trkpt lat="46.22692" lon="6.80319">
        <ele>1741</ele>
        <time>2000-01-01T05:08:06.000Z</time>
      </trkpt>
      <trkpt lat="46.22721" lon="6.8031">
        <ele>1736</ele>
        <time>2000-01-01T05:08:16.000Z</time>
      </trkpt>
      <trkpt lat="46.22728" lon="6.80309">
        <ele>1738.7</ele>
        <time>2000-01-01T05:08:26.000Z</time>
      </trkpt>
      <trkpt lat="46.22734" lon="6.80306">
        <ele>1737.7</ele>
        <time>2000-01-01T05:08:36.000Z</time>
      </trkpt>
      <trkpt lat="46.22745" lon="6.80297">
        <ele>1736</ele>
        <time>2000-01-01T05:08:46.000Z</time>
      </trkpt>
      <trkpt lat="46.22753" lon="6.80292">
        <ele>1734.3</ele>
        <time>2000-01-01T05:08:56.000Z</time>
      </trkpt>
      <trkpt lat="46.2276" lon="6.80285">
        <ele>1731.7</ele>
        <time>2000-01-01T05:09:06.000Z</time>
      </trkpt>
      <trkpt lat="46.22763" lon="6.80272">
        <ele>1731</ele>
        <time>2000-01-01T05:09:16.000Z</time>
      </trkpt>
      <trkpt lat="46.22771" lon="6.80296">
        <ele>1730.1</ele>
        <time>2000-01-01T05:09:26.000Z</time>
      </trkpt>
      <trkpt lat="46.22777" lon="6.80324">
        <ele>1729</ele>
        <time>2000-01-01T05:09:36.000Z</time>
      </trkpt>
      <trkpt lat="46.22782" lon="6.80344">
        <ele>1729.3</ele>
        <time>2000-01-01T05:09:46.000Z</time>
      </trkpt>
      <trkpt lat="46.22787" lon="6.80361">
        <ele>1729</ele>
        <time>2000-01-01T05:09:56.000Z</time>
      </trkpt>
      <trkpt lat="46.22791" lon="6.80357">
        <ele>1728.5</ele>
        <time>2000-01-01T05:10:06.000Z</time>
      </trkpt>
      <trkpt lat="46.22804" lon="6.80353">
        <ele>1727.8</ele>
        <time>2000-01-01T05:10:16.000Z</time>
      </trkpt>
      <trkpt lat="46.2281" lon="6.80354">
        <ele>1727</ele>
        <time>2000-01-01T05:10:26.000Z</time>
      </trkpt>
      <trkpt lat="46.22818" lon="6.80357">
        <ele>1729.9</ele>
        <time>2000-01-01T05:10:36.000Z</time>
      </trkpt>
      <trkpt lat="46.22821" lon="6.80355">
        <ele>1729.9</ele>
        <time>2000-01-01T05:10:46.000Z</time>
      </trkpt>
      <trkpt lat="46.22823" lon="6.80352">
        <ele>1729.4</ele>
        <time>2000-01-01T05:10:56.000Z</time>
      </trkpt>
      <trkpt lat="46.22825" lon="6.80346">
        <ele>1721</ele>
        <time>2000-01-01T05:11:06.000Z</time>
      </trkpt>
      <trkpt lat="46.22831" lon="6.80335">
        <ele>1723.9</ele>
        <time>2000-01-01T05:11:16.000Z</time>
      </trkpt>
      <trkpt lat="46.22848" lon="6.80308">
        <ele>1715</ele>
        <time>2000-01-01T05:11:26.000Z</time>
      </trkpt>
      <trkpt lat="46.22852" lon="6.80299">
        <ele>1722.1</ele>
        <time>2000-01-01T05:11:36.000Z</time>
      </trkpt>
      <trkpt lat="46.22857" lon="6.80291">
        <ele>1721.8</ele>
        <time>2000-01-01T05:11:46.000Z</time>
      </trkpt>
      <trkpt lat="46.2286" lon="6.80284">
        <ele>1714</ele>
        <time>2000-01-01T05:11:56.000Z</time>
      </trkpt>
      <trkpt lat="46.22864" lon="6.8028">
        <ele>1720.9</ele>
        <time>2000-01-01T05:12:06.000Z</time>
      </trkpt>
      <trkpt lat="46.22865" lon="6.80276">
        <ele>1720.2</ele>
        <time>2000-01-01T05:12:16.000Z</time>
      </trkpt>
      <trkpt lat="46.22863" lon="6.80271">
        <ele>1718.1</ele>
        <time>2000-01-01T05:12:26.000Z</time>
      </trkpt>
      <trkpt lat="46.22864" lon="6.80268">
        <ele>1717.7</ele>
        <time>2000-01-01T05:12:36.000Z</time>
      </trkpt>
      <trkpt lat="46.22866" lon="6.80257">
        <ele>1713</ele>
        <time>2000-01-01T05:12:46.000Z</time>
      </trkpt>
      <trkpt lat="46.22872" lon="6.80246">
        <ele>1714.2</ele>
        <time>2000-01-01T05:12:56.000Z</time>
      </trkpt>
      <trkpt lat="46.22881" lon="6.8024">
        <ele>1713</ele>
        <time>2000-01-01T05:13:06.000Z</time>
      </trkpt>
      <trkpt lat="46.22882" lon="6.80237">
        <ele>1714.2</ele>
        <time>2000-01-01T05:13:16.000Z</time>
      </trkpt>
      <trkpt lat="46.22886" lon="6.80232">
        <ele>1713.7</ele>
        <time>2000-01-01T05:13:26.000Z</time>
      </trkpt>
      <trkpt lat="46.2289" lon="6.80224">
        <ele>1712</ele>
        <time>2000-01-01T05:13:36.000Z</time>
      </trkpt>
      <trkpt lat="46.22905" lon="6.802">
        <ele>1701</ele>
        <time>2000-01-01T05:13:46.000Z</time>
      </trkpt>
      <trkpt lat="46.22908" lon="6.80192">
        <ele>1707.1</ele>
        <time>2000-01-01T05:13:56.000Z</time>
      </trkpt>
      <trkpt lat="46.22919" lon="6.80167">
        <ele>1696</ele>
        <time>2000-01-01T05:14:06.000Z</time>
      </trkpt>
      <trkpt lat="46.22919" lon="6.80164">
        <ele>1700.6</ele>
        <time>2000-01-01T05:14:16.000Z</time>
      </trkpt>
      <trkpt lat="46.2292" lon="6.80161">
        <ele>1699.9</ele>
        <time>2000-01-01T05:14:26.000Z</time>
      </trkpt>
      <trkpt lat="46.22931" lon="6.80154">
        <ele>1699.9</ele>
        <time>2000-01-01T05:14:36.000Z</time>
      </trkpt>
      <trkpt lat="46.22938" lon="6.80141">
        <ele>1696</ele>
        <time>2000-01-01T05:14:46.000Z</time>
      </trkpt>
      <trkpt lat="46.22942" lon="6.80135">
        <ele>1697.9</ele>
        <time>2000-01-01T05:14:56.000Z</time>
      </trkpt>
      <trkpt lat="46.22949" lon="6.80133">
        <ele>1697.2</ele>
        <time>2000-01-01T05:15:06.000Z</time>
      </trkpt>
      <trkpt lat="46.22953" lon="6.80134">
        <ele>1696.5</ele>
        <time>2000-01-01T05:15:16.000Z</time>
      </trkpt>
      <trkpt lat="46.22957" lon="6.80137">
        <ele>1694</ele>
        <time>2000-01-01T05:15:26.000Z</time>
      </trkpt>
      <trkpt lat="46.22958" lon="6.80143">
        <ele>1697.2</ele>
        <time>2000-01-01T05:15:36.000Z</time>
      </trkpt>
      <trkpt lat="46.2296" lon="6.80145">
        <ele>1697.3</ele>
        <time>2000-01-01T05:15:46.000Z</time>
      </trkpt>
      <trkpt lat="46.22968" lon="6.80148">
        <ele>1696.7</ele>
        <time>2000-01-01T05:15:56.000Z</time>
      </trkpt>
      <trkpt lat="46.22973" lon="6.80149">
        <ele>1693</ele>
        <time>2000-01-01T05:16:06.000Z</time>
      </trkpt>
      <trkpt lat="46.22979" lon="6.80147">
        <ele>1694.1</ele>
        <time>2000-01-01T05:16:16.000Z</time>
      </trkpt>
      <trkpt lat="46.22985" lon="6.80144">
        <ele>1692</ele>
        <time>2000-01-01T05:16:26.000Z</time>
      </trkpt>
      <trkpt lat="46.22997" lon="6.80135">
        <ele>1688</ele>
        <time>2000-01-01T05:16:36.000Z</time>
      </trkpt>
      <trkpt lat="46.23007" lon="6.8012">
        <ele>1685</ele>
        <time>2000-01-01T05:16:46.000Z</time>
      </trkpt>
      <trkpt lat="46.23012" lon="6.80106">
        <ele>1683</ele>
        <time>2000-01-01T05:16:56.000Z</time>
      </trkpt>
      <trkpt lat="46.23018" lon="6.80095">
        <ele>1680.9</ele>
        <time>2000-01-01T05:17:06.000Z</time>
      </trkpt>
      <trkpt lat="46.23029" lon="6.80094">
        <ele>1681</ele>
        <time>2000-01-01T05:17:16.000Z</time>
      </trkpt>
      <trkpt lat="46.23038" lon="6.8009">
        <ele>1678.5</ele>
        <time>2000-01-01T05:17:26.000Z</time>
      </trkpt>
      <trkpt lat="46.23046" lon="6.80083">
        <ele>1676</ele>
        <time>2000-01-01T05:17:36.000Z</time>
      </trkpt>
      <trkpt lat="46.2305" lon="6.80071">
        <ele>1676</ele>
        <time>2000-01-01T05:17:46.000Z</time>
      </trkpt>
      <trkpt lat="46.2305" lon="6.80054">
        <ele>1674</ele>
        <time>2000-01-01T05:17:56.000Z</time>
      </trkpt>
      <trkpt lat="46.23051" lon="6.80046">
        <ele>1673.1</ele>
        <time>2000-01-01T05:18:06.000Z</time>
      </trkpt>
      <trkpt lat="46.23053" lon="6.80043">
        <ele>1672.3</ele>
        <time>2000-01-01T05:18:16.000Z</time>
      </trkpt>
      <trkpt lat="46.23051" lon="6.80037">
        <ele>1672.3</ele>
        <time>2000-01-01T05:18:26.000Z</time>
      </trkpt>
      <trkpt lat="46.23053" lon="6.80034">
        <ele>1671.4</ele>
        <time>2000-01-01T05:18:36.000Z</time>
      </trkpt>
      <trkpt lat="46.23059" lon="6.80028">
        <ele>1671</ele>
        <time>2000-01-01T05:18:46.000Z</time>
      </trkpt>
      <trkpt lat="46.23094" lon="6.80031">
        <ele>1664</ele>
        <time>2000-01-01T05:18:56.000Z</time>
      </trkpt>
      <trkpt lat="46.23119" lon="6.80052">
        <ele>1664</ele>
        <time>2000-01-01T05:19:06.000Z</time>
      </trkpt>
      <trkpt lat="46.23146" lon="6.80073">
        <ele>1664</ele>
        <time>2000-01-01T05:19:16.000Z</time>
      </trkpt>
      <trkpt lat="46.23171" lon="6.80094">
        <ele>1663</ele>
        <time>2000-01-01T05:19:26.000Z</time>
      </trkpt>
      <trkpt lat="46.23183" lon="6.80102">
        <ele>1664.9</ele>
        <time>2000-01-01T05:19:36.000Z</time>
      </trkpt>
      <trkpt lat="46.23191" lon="6.80101">
        <ele>1663</ele>
        <time>2000-01-01T05:19:46.000Z</time>
      </trkpt>
      <trkpt lat="46.23198" lon="6.80097">
        <ele>1663.5</ele>
        <time>2000-01-01T05:19:56.000Z</time>
      </trkpt>
      <trkpt lat="46.2321" lon="6.80098">
        <ele>1661</ele>
        <time>2000-01-01T05:20:06.000Z</time>
      </trkpt>
      <trkpt lat="46.23218" lon="6.80082">
        <ele>1660.4</ele>
        <time>2000-01-01T05:20:16.000Z</time>
      </trkpt>
      <trkpt lat="46.23226" lon="6.80064">
        <ele>1659</ele>
        <time>2000-01-01T05:20:26.000Z</time>
      </trkpt>
      <trkpt lat="46.2324" lon="6.80021">
        <ele>1656</ele>
        <time>2000-01-01T05:20:36.000Z</time>
      </trkpt>
      <trkpt lat="46.23245" lon="6.80003">
        <ele>1650.7</ele>
        <time>2000-01-01T05:20:46.000Z</time>
      </trkpt>
      <trkpt lat="46.23247" lon="6.79988">
        <ele>1651</ele>
        <time>2000-01-01T05:20:56.000Z</time>
      </trkpt>
      <trkpt lat="46.23247" lon="6.79971">
        <ele>1648.7</ele>
        <time>2000-01-01T05:21:06.000Z</time>
      </trkpt>
      <trkpt lat="46.23256" lon="6.79985">
        <ele>1648</ele>
        <time>2000-01-01T05:21:16.000Z</time>
      </trkpt>
      <trkpt lat="46.23265" lon="6.80015">
        <ele>1646</ele>
        <time>2000-01-01T05:21:26.000Z</time>
      </trkpt>
      <trkpt lat="46.2327" lon="6.80029">
        <ele>1644.2</ele>
        <time>2000-01-01T05:21:36.000Z</time>
      </trkpt>
      <trkpt lat="46.23278" lon="6.80042">
        <ele>1644</ele>
        <time>2000-01-01T05:21:46.000Z</time>
      </trkpt>
      <trkpt lat="46.23289" lon="6.80063">
        <ele>1639.8</ele>
        <time>2000-01-01T05:21:56.000Z</time>
      </trkpt>
      <trkpt lat="46.23297" lon="6.80071">
        <ele>1638</ele>
        <time>2000-01-01T05:22:06.000Z</time>
      </trkpt>
      <trkpt lat="46.23308" lon="6.80076">
        <ele>1638.7</ele>
        <time>2000-01-01T05:22:16.000Z</time>
      </trkpt>
      <trkpt lat="46.23319" lon="6.80076">
        <ele>1637</ele>
        <time>2000-01-01T05:22:26.000Z</time>
      </trkpt>
      <trkpt lat="46.23346" lon="6.8008">
        <ele>1637</ele>
        <time>2000-01-01T05:22:36.000Z</time>
      </trkpt>
      <trkpt lat="46.23351" lon="6.80085">
        <ele>1638.2</ele>
        <time>2000-01-01T05:22:46.000Z</time>
      </trkpt>
      <trkpt lat="46.23357" lon="6.80088">
        <ele>1638.7</ele>
        <time>2000-01-01T05:22:56.000Z</time>
      </trkpt>
      <trkpt lat="46.23363" lon="6.80092">
        <ele>1635</ele>
        <time>2000-01-01T05:23:06.000Z</time>
      </trkpt>
      <trkpt lat="46.23375" lon="6.80096">
        <ele>1641.3</ele>
        <time>2000-01-01T05:23:16.000Z</time>
      </trkpt>
      <trkpt lat="46.2338" lon="6.80095">
        <ele>1641.1</ele>
        <time>2000-01-01T05:23:26.000Z</time>
      </trkpt>
      <trkpt lat="46.23387" lon="6.8009">
        <ele>1635</ele>
        <time>2000-01-01T05:23:36.000Z</time>
      </trkpt>
      <trkpt lat="46.23394" lon="6.80084">
        <ele>1638.3</ele>
        <time>2000-01-01T05:23:46.000Z</time>
      </trkpt>
      <trkpt lat="46.23399" lon="6.80078">
        <ele>1638.2</ele>
        <time>2000-01-01T05:23:56.000Z</time>
      </trkpt>
      <trkpt lat="46.23415" lon="6.80062">
        <ele>1636</ele>
        <time>2000-01-01T05:24:06.000Z</time>
      </trkpt>
      <trkpt lat="46.23419" lon="6.8006">
        <ele>1638</ele>
        <time>2000-01-01T05:24:16.000Z</time>
      </trkpt>
      <trkpt lat="46.23425" lon="6.80059">
        <ele>1637.8</ele>
        <time>2000-01-01T05:24:26.000Z</time>
      </trkpt>
      <trkpt lat="46.23438" lon="6.80059">
        <ele>1637</ele>
        <time>2000-01-01T05:24:36.000Z</time>
      </trkpt>
      <trkpt lat="46.23444" lon="6.80062">
        <ele>1638.6</ele>
        <time>2000-01-01T05:24:46.000Z</time>
      </trkpt>
      <trkpt lat="46.23448" lon="6.80067">
        <ele>1639.1</ele>
        <time>2000-01-01T05:24:56.000Z</time>
      </trkpt>
      <trkpt lat="46.23456" lon="6.8008">
        <ele>1640</ele>
        <time>2000-01-01T05:25:06.000Z</time>
      </trkpt>
      <trkpt lat="46.23463" lon="6.80095">
        <ele>1643.1</ele>
        <time>2000-01-01T05:25:16.000Z</time>
      </trkpt>
      <trkpt lat="46.23465" lon="6.80098">
        <ele>1643.3</ele>
        <time>2000-01-01T05:25:26.000Z</time>
      </trkpt>
      <trkpt lat="46.23469" lon="6.80098">
        <ele>1640</ele>
        <time>2000-01-01T05:25:36.000Z</time>
      </trkpt>
      <trkpt lat="46.23476" lon="6.8009">
        <ele>1641.3</ele>
        <time>2000-01-01T05:25:46.000Z</time>
      </trkpt>
      <trkpt lat="46.23485" lon="6.80085">
        <ele>1641.2</ele>
        <time>2000-01-01T05:25:56.000Z</time>
      </trkpt>
      <trkpt lat="46.23491" lon="6.80084">
        <ele>1634</ele>
        <time>2000-01-01T05:26:06.000Z</time>
      </trkpt>
      <trkpt lat="46.23496" lon="6.80085">
        <ele>1642.1</ele>
        <time>2000-01-01T05:26:16.000Z</time>
      </trkpt>
      <trkpt lat="46.23501" lon="6.80084">
        <ele>1642.3</ele>
        <time>2000-01-01T05:26:26.000Z</time>
      </trkpt>
      <trkpt lat="46.23505" lon="6.80082">
        <ele>1642.1</ele>
        <time>2000-01-01T05:26:36.000Z</time>
      </trkpt>
      <trkpt lat="46.23516" lon="6.80069">
        <ele>1637</ele>
        <time>2000-01-01T05:26:46.000Z</time>
      </trkpt>
      <trkpt lat="46.2353" lon="6.80063">
        <ele>1635.7</ele>
        <time>2000-01-01T05:26:56.000Z</time>
      </trkpt>
      <trkpt lat="46.23538" lon="6.80064">
        <ele>1634</ele>
        <time>2000-01-01T05:27:06.000Z</time>
      </trkpt>
      <trkpt lat="46.23542" lon="6.80067">
        <ele>1636.1</ele>
        <time>2000-01-01T05:27:16.000Z</time>
      </trkpt>
      <trkpt lat="46.23548" lon="6.8007">
        <ele>1636.9</ele>
        <time>2000-01-01T05:27:26.000Z</time>
      </trkpt>
      <trkpt lat="46.23553" lon="6.80071">
        <ele>1636.7</ele>
        <time>2000-01-01T05:27:36.000Z</time>
      </trkpt>
      <trkpt lat="46.23558" lon="6.8007">
        <ele>1637</ele>
        <time>2000-01-01T05:27:46.000Z</time>
      </trkpt>
      <trkpt lat="46.23564" lon="6.80071">
        <ele>1634.2</ele>
        <time>2000-01-01T05:27:56.000Z</time>
      </trkpt>
      <trkpt lat="46.2357" lon="6.80073">
        <ele>1633.9</ele>
        <time>2000-01-01T05:28:06.000Z</time>
      </trkpt>
      <trkpt lat="46.23575" lon="6.80081">
        <ele>1637</ele>
        <time>2000-01-01T05:28:16.000Z</time>
      </trkpt>
      <trkpt lat="46.23589" lon="6.80098">
        <ele>1636.8</ele>
        <time>2000-01-01T05:28:26.000Z</time>
      </trkpt>
      <trkpt lat="46.23603" lon="6.80113">
        <ele>1637</ele>
        <time>2000-01-01T05:28:36.000Z</time>
      </trkpt>
      <trkpt lat="46.23616" lon="6.80129">
        <ele>1632.2</ele>
        <time>2000-01-01T05:28:46.000Z</time>
      </trkpt>
      <trkpt lat="46.23621" lon="6.80134">
        <ele>1633</ele>
        <time>2000-01-01T05:28:56.000Z</time>
      </trkpt>
      <trkpt lat="46.2363" lon="6.80151">
        <ele>1629</ele>
        <time>2000-01-01T05:29:06.000Z</time>
      </trkpt>
      <trkpt lat="46.23633" lon="6.8016">
        <ele>1631</ele>
        <time>2000-01-01T05:29:16.000Z</time>
      </trkpt>
      <trkpt lat="46.23637" lon="6.80165">
        <ele>1628.3</ele>
        <time>2000-01-01T05:29:26.000Z</time>
      </trkpt>
      <trkpt lat="46.23646" lon="6.80174">
        <ele>1625.3</ele>
        <time>2000-01-01T05:29:36.000Z</time>
      </trkpt>
      <trkpt lat="46.23653" lon="6.80182">
        <ele>1626</ele>
        <time>2000-01-01T05:29:46.000Z</time>
      </trkpt>
      <trkpt lat="46.2366" lon="6.80193">
        <ele>1624.9</ele>
        <time>2000-01-01T05:29:56.000Z</time>
      </trkpt>
      <trkpt lat="46.23667" lon="6.80201">
        <ele>1626</ele>
        <time>2000-01-01T05:30:06.000Z</time>
      </trkpt>
      <trkpt lat="46.23668" lon="6.80201">
        <ele>1623.9</ele>
        <time>2000-01-01T05:30:16.000Z</time>
      </trkpt>
      <trkpt lat="46.2368" lon="6.8021">
        <ele>1620.9</ele>
        <time>2000-01-01T05:30:26.000Z</time>
      </trkpt>
      <trkpt lat="46.23685" lon="6.80219">
        <ele>1623</ele>
        <time>2000-01-01T05:30:36.000Z</time>
      </trkpt>
      <trkpt lat="46.23687" lon="6.80226">
        <ele>1621.7</ele>
        <time>2000-01-01T05:30:46.000Z</time>
      </trkpt>
      <trkpt lat="46.23688" lon="6.80232">
        <ele>1622.4</ele>
        <time>2000-01-01T05:30:56.000Z</time>
      </trkpt>
      <trkpt lat="46.23693" lon="6.80238">
        <ele>1620.6</ele>
        <time>2000-01-01T05:31:06.000Z</time>
      </trkpt>
      <trkpt lat="46.23698" lon="6.80249">
        <ele>1622</ele>
        <time>2000-01-01T05:31:16.000Z</time>
      </trkpt>
      <trkpt lat="46.23703" lon="6.80263">
        <ele>1618.6</ele>
        <time>2000-01-01T05:31:26.000Z</time>
      </trkpt>
      <trkpt lat="46.23706" lon="6.80279">
        <ele>1619</ele>
        <time>2000-01-01T05:31:36.000Z</time>
      </trkpt>
      <trkpt lat="46.23713" lon="6.80333">
        <ele>1616</ele>
        <time>2000-01-01T05:31:46.000Z</time>
      </trkpt>
      <trkpt lat="46.23713" lon="6.80341">
        <ele>1612.2</ele>
        <time>2000-01-01T05:31:56.000Z</time>
      </trkpt>
      <trkpt lat="46.23714" lon="6.80356">
        <ele>1610.6</ele>
        <time>2000-01-01T05:32:06.000Z</time>
      </trkpt>
      <trkpt lat="46.23713" lon="6.80358">
        <ele>1611.2</ele>
        <time>2000-01-01T05:32:16.000Z</time>
      </trkpt>
      <trkpt lat="46.23707" lon="6.8038">
        <ele>1617</ele>
        <time>2000-01-01T05:32:26.000Z</time>
      </trkpt>
      <trkpt lat="46.23699" lon="6.80416">
        <ele>1615</ele>
        <time>2000-01-01T05:32:36.000Z</time>
      </trkpt>
      <trkpt lat="46.23696" lon="6.80437">
        <ele>1609.7</ele>
        <time>2000-01-01T05:32:46.000Z</time>
      </trkpt>
      <trkpt lat="46.23689" lon="6.80477">
        <ele>1614</ele>
        <time>2000-01-01T05:32:56.000Z</time>
      </trkpt>
      <trkpt lat="46.23683" lon="6.80493">
        <ele>1606.9</ele>
        <time>2000-01-01T05:33:06.000Z</time>
      </trkpt>
      <trkpt lat="46.23682" lon="6.80504">
        <ele>1605</ele>
        <time>2000-01-01T05:33:16.000Z</time>
      </trkpt>
      <trkpt lat="46.23683" lon="6.80509">
        <ele>1606.1</ele>
        <time>2000-01-01T05:33:26.000Z</time>
      </trkpt>
      <trkpt lat="46.23685" lon="6.80515">
        <ele>1605.7</ele>
        <time>2000-01-01T05:33:36.000Z</time>
      </trkpt>
      <trkpt lat="46.23693" lon="6.80526">
        <ele>1602</ele>
        <time>2000-01-01T05:33:46.000Z</time>
      </trkpt>
      <trkpt lat="46.23701" lon="6.80528">
        <ele>1599.2</ele>
        <time>2000-01-01T05:33:56.000Z</time>
      </trkpt>
      <trkpt lat="46.23706" lon="6.80532">
        <ele>1597</ele>
        <time>2000-01-01T05:34:06.000Z</time>
      </trkpt>
      <trkpt lat="46.23709" lon="6.80536">
        <ele>1595.5</ele>
        <time>2000-01-01T05:34:16.000Z</time>
      </trkpt>
      <trkpt lat="46.23709" lon="6.80542">
        <ele>1601</ele>
        <time>2000-01-01T05:34:26.000Z</time>
      </trkpt>
      <trkpt lat="46.23704" lon="6.80555">
        <ele>1598.5</ele>
        <time>2000-01-01T05:34:36.000Z</time>
      </trkpt>
      <trkpt lat="46.23703" lon="6.8056">
        <ele>1599.1</ele>
        <time>2000-01-01T05:34:46.000Z</time>
      </trkpt>
      <trkpt lat="46.23703" lon="6.80567">
        <ele>1599</ele>
        <time>2000-01-01T05:34:56.000Z</time>
      </trkpt>
      <trkpt lat="46.23705" lon="6.80571">
        <ele>1597.7</ele>
        <time>2000-01-01T05:35:06.000Z</time>
      </trkpt>
      <trkpt lat="46.23709" lon="6.80584">
        <ele>1595.8</ele>
        <time>2000-01-01T05:35:16.000Z</time>
      </trkpt>
      <trkpt lat="46.23712" lon="6.80591">
        <ele>1596</ele>
        <time>2000-01-01T05:35:26.000Z</time>
      </trkpt>
      <trkpt lat="46.23717" lon="6.80598">
        <ele>1593.8</ele>
        <time>2000-01-01T05:35:36.000Z</time>
      </trkpt>
      <trkpt lat="46.23721" lon="6.80608">
        <ele>1593.2</ele>
        <time>2000-01-01T05:35:46.000Z</time>
      </trkpt>
      <trkpt lat="46.23725" lon="6.80614">
        <ele>1593</ele>
        <time>2000-01-01T05:35:56.000Z</time>
      </trkpt>
      <trkpt lat="46.2373" lon="6.80619">
        <ele>1591.2</ele>
        <time>2000-01-01T05:36:06.000Z</time>
      </trkpt>
      <trkpt lat="46.23743" lon="6.80629">
        <ele>1587</ele>
        <time>2000-01-01T05:36:16.000Z</time>
      </trkpt>
      <trkpt lat="46.23747" lon="6.80635">
        <ele>1585.9</ele>
        <time>2000-01-01T05:36:26.000Z</time>
      </trkpt>
      <trkpt lat="46.23752" lon="6.80649">
        <ele>1584.9</ele>
        <time>2000-01-01T05:36:36.000Z</time>
      </trkpt>
      <trkpt lat="46.23755" lon="6.80655">
        <ele>1586</ele>
        <time>2000-01-01T05:36:46.000Z</time>
      </trkpt>
      <trkpt lat="46.23759" lon="6.8066">
        <ele>1583</ele>
        <time>2000-01-01T05:36:56.000Z</time>
      </trkpt>
      <trkpt lat="46.23768" lon="6.80664">
        <ele>1580.1</ele>
        <time>2000-01-01T05:37:06.000Z</time>
      </trkpt>
      <trkpt lat="46.23774" lon="6.80669">
        <ele>1578</ele>
        <time>2000-01-01T05:37:16.000Z</time>
      </trkpt>
      <trkpt lat="46.23777" lon="6.80676">
        <ele>1578</ele>
        <time>2000-01-01T05:37:26.000Z</time>
      </trkpt>
      <trkpt lat="46.23781" lon="6.80683">
        <ele>1576.9</ele>
        <time>2000-01-01T05:37:36.000Z</time>
      </trkpt>
      <trkpt lat="46.23785" lon="6.80687">
        <ele>1575.5</ele>
        <time>2000-01-01T05:37:46.000Z</time>
      </trkpt>
      <trkpt lat="46.2379" lon="6.80688">
        <ele>1576</ele>
        <time>2000-01-01T05:37:56.000Z</time>
      </trkpt>
      <trkpt lat="46.23794" lon="6.80691">
        <ele>1572.3</ele>
        <time>2000-01-01T05:38:06.000Z</time>
      </trkpt>
      <trkpt lat="46.23797" lon="6.80696">
        <ele>1571.8</ele>
        <time>2000-01-01T05:38:16.000Z</time>
      </trkpt>
      <trkpt lat="46.23798" lon="6.80701">
        <ele>1572.8</ele>
        <time>2000-01-01T05:38:26.000Z</time>
      </trkpt>
      <trkpt lat="46.238" lon="6.80707">
        <ele>1573.6</ele>
        <time>2000-01-01T05:38:36.000Z</time>
      </trkpt>
      <trkpt lat="46.23804" lon="6.8071">
        <ele>1571</ele>
        <time>2000-01-01T05:38:46.000Z</time>
      </trkpt>
      <trkpt lat="46.2381" lon="6.80713">
        <ele>1572.5</ele>
        <time>2000-01-01T05:38:56.000Z</time>
      </trkpt>
      <trkpt lat="46.23815" lon="6.80714">
        <ele>1571.9</ele>
        <time>2000-01-01T05:39:06.000Z</time>
      </trkpt>
      <trkpt lat="46.2383" lon="6.8072">
        <ele>1570</ele>
        <time>2000-01-01T05:39:16.000Z</time>
      </trkpt>
      <trkpt lat="46.23835" lon="6.80719">
        <ele>1570.4</ele>
        <time>2000-01-01T05:39:26.000Z</time>
      </trkpt>
      <trkpt lat="46.23842" lon="6.80719">
        <ele>1569.7</ele>
        <time>2000-01-01T05:39:36.000Z</time>
      </trkpt>
      <trkpt lat="46.23847" lon="6.8072">
        <ele>1569.5</ele>
        <time>2000-01-01T05:39:46.000Z</time>
      </trkpt>
      <trkpt lat="46.23866" lon="6.80736">
        <ele>1569</ele>
        <time>2000-01-01T05:39:56.000Z</time>
      </trkpt>
      <trkpt lat="46.23874" lon="6.80739">
        <ele>1567.1</ele>
        <time>2000-01-01T05:40:06.000Z</time>
      </trkpt>
      <trkpt lat="46.23884" lon="6.80741">
        <ele>1565</ele>
        <time>2000-01-01T05:40:16.000Z</time>
      </trkpt>
      <trkpt lat="46.23889" lon="6.80743">
        <ele>1565</ele>
        <time>2000-01-01T05:40:26.000Z</time>
      </trkpt>
      <trkpt lat="46.23894" lon="6.80746">
        <ele>1564.3</ele>
        <time>2000-01-01T05:40:36.000Z</time>
      </trkpt>
      <trkpt lat="46.23906" lon="6.8075">
        <ele>1563.5</ele>
        <time>2000-01-01T05:40:46.000Z</time>
      </trkpt>
      <trkpt lat="46.23913" lon="6.80756">
        <ele>1563</ele>
        <time>2000-01-01T05:40:56.000Z</time>
      </trkpt>
      <trkpt lat="46.23919" lon="6.80765">
        <ele>1562.3</ele>
        <time>2000-01-01T05:41:06.000Z</time>
      </trkpt>
      <trkpt lat="46.23923" lon="6.80769">
        <ele>1561.3</ele>
        <time>2000-01-01T05:41:16.000Z</time>
      </trkpt>
      <trkpt lat="46.23935" lon="6.80772">
        <ele>1560</ele>
        <time>2000-01-01T05:41:26.000Z</time>
      </trkpt>
      <trkpt lat="46.23941" lon="6.80777">
        <ele>1557.7</ele>
        <time>2000-01-01T05:41:36.000Z</time>
      </trkpt>
      <trkpt lat="46.23946" lon="6.80785">
        <ele>1557.7</ele>
        <time>2000-01-01T05:41:46.000Z</time>
      </trkpt>
      <trkpt lat="46.23951" lon="6.80796">
        <ele>1557</ele>
        <time>2000-01-01T05:41:56.000Z</time>
      </trkpt>
      <trkpt lat="46.23959" lon="6.80803">
        <ele>1555.8</ele>
        <time>2000-01-01T05:42:06.000Z</time>
      </trkpt>
      <trkpt lat="46.23965" lon="6.80807">
        <ele>1554.1</ele>
        <time>2000-01-01T05:42:16.000Z</time>
      </trkpt>
      <trkpt lat="46.23971" lon="6.80808">
        <ele>1549</ele>
        <time>2000-01-01T05:42:26.000Z</time>
      </trkpt>
      <trkpt lat="46.23977" lon="6.80807">
        <ele>1550.2</ele>
        <time>2000-01-01T05:42:36.000Z</time>
      </trkpt>
      <trkpt lat="46.23985" lon="6.80807">
        <ele>1548.2</ele>
        <time>2000-01-01T05:42:46.000Z</time>
      </trkpt>
      <trkpt lat="46.23997" lon="6.8081">
        <ele>1545</ele>
        <time>2000-01-01T05:42:56.000Z</time>
      </trkpt>
      <trkpt lat="46.24003" lon="6.80814">
        <ele>1547.2</ele>
        <time>2000-01-01T05:43:06.000Z</time>
      </trkpt>
      <trkpt lat="46.24017" lon="6.80818">
        <ele>1544</ele>
        <time>2000-01-01T05:43:16.000Z</time>
      </trkpt>
      <trkpt lat="46.24024" lon="6.80818">
        <ele>1547.9</ele>
        <time>2000-01-01T05:43:26.000Z</time>
      </trkpt>
      <trkpt lat="46.24036" lon="6.80814">
        <ele>1543</ele>
        <time>2000-01-01T05:43:36.000Z</time>
      </trkpt>
      <trkpt lat="46.24047" lon="6.80812">
        <ele>1543.6</ele>
        <time>2000-01-01T05:43:46.000Z</time>
      </trkpt>
      <trkpt lat="46.24059" lon="6.80811">
        <ele>1543</ele>
        <time>2000-01-01T05:43:56.000Z</time>
      </trkpt>
      <trkpt lat="46.24074" lon="6.80812">
        <ele>1541.8</ele>
        <time>2000-01-01T05:44:06.000Z</time>
      </trkpt>
      <trkpt lat="46.24091" lon="6.80812">
        <ele>1539</ele>
        <time>2000-01-01T05:44:16.000Z</time>
      </trkpt>
      <trkpt lat="46.241" lon="6.80814">
        <ele>1538.4</ele>
        <time>2000-01-01T05:44:26.000Z</time>
      </trkpt>
      <trkpt lat="46.24122" lon="6.80822">
        <ele>1537</ele>
        <time>2000-01-01T05:44:36.000Z</time>
      </trkpt>
      <trkpt lat="46.24139" lon="6.8083">
        <ele>1536.8</ele>
        <time>2000-01-01T05:44:46.000Z</time>
      </trkpt>
      <trkpt lat="46.24149" lon="6.80839">
        <ele>1537</ele>
        <time>2000-01-01T05:44:56.000Z</time>
      </trkpt>
      <trkpt lat="46.24161" lon="6.80851">
        <ele>1536.4</ele>
        <time>2000-01-01T05:45:06.000Z</time>
      </trkpt>
      <trkpt lat="46.24168" lon="6.80855">
        <ele>1537</ele>
        <time>2000-01-01T05:45:16.000Z</time>
      </trkpt>
      <trkpt lat="46.24174" lon="6.80855">
        <ele>1535.4</ele>
        <time>2000-01-01T05:45:26.000Z</time>
      </trkpt>
      <trkpt lat="46.24182" lon="6.80858">
        <ele>1535.6</ele>
        <time>2000-01-01T05:45:36.000Z</time>
      </trkpt>
      <trkpt lat="46.24199" lon="6.8086">
        <ele>1532</ele>
        <time>2000-01-01T05:45:46.000Z</time>
      </trkpt>
      <trkpt lat="46.24205" lon="6.8086">
        <ele>1533.3</ele>
        <time>2000-01-01T05:45:56.000Z</time>
      </trkpt>
      <trkpt lat="46.24215" lon="6.80862">
        <ele>1531.9</ele>
        <time>2000-01-01T05:46:06.000Z</time>
      </trkpt>
      <trkpt lat="46.24222" lon="6.80867">
        <ele>1531</ele>
        <time>2000-01-01T05:46:16.000Z</time>
      </trkpt>
      <trkpt lat="46.2423" lon="6.80874">
        <ele>1531.6</ele>
        <time>2000-01-01T05:46:26.000Z</time>
      </trkpt>
      <trkpt lat="46.24232" lon="6.80876">
        <ele>1531.5</ele>
        <time>2000-01-01T05:46:36.000Z</time>
      </trkpt>
      <trkpt lat="46.24247" lon="6.80899">
        <ele>1531</ele>
        <time>2000-01-01T05:46:46.000Z</time>
      </trkpt>
      <trkpt lat="46.24264" lon="6.80928">
        <ele>1530</ele>
        <time>2000-01-01T05:46:56.000Z</time>
      </trkpt>
      <trkpt lat="46.24287" lon="6.80968">
        <ele>1529</ele>
        <time>2000-01-01T05:47:06.000Z</time>
      </trkpt>
      <trkpt lat="46.24296" lon="6.80985">
        <ele>1524.9</ele>
        <time>2000-01-01T05:47:16.000Z</time>
      </trkpt>
      <trkpt lat="46.24307" lon="6.81002">
        <ele>1528</ele>
        <time>2000-01-01T05:47:26.000Z</time>
      </trkpt>
      <trkpt lat="46.24314" lon="6.81014">
        <ele>1521.9</ele>
        <time>2000-01-01T05:47:36.000Z</time>
      </trkpt>
      <trkpt lat="46.24316" lon="6.81028">
        <ele>1525</ele>
        <time>2000-01-01T05:47:46.000Z</time>
      </trkpt>
      <trkpt lat="46.2432" lon="6.81039">
        <ele>1525.1</ele>
        <time>2000-01-01T05:47:56.000Z</time>
      </trkpt>
      <trkpt lat="46.24325" lon="6.81049">
        <ele>1525.4</ele>
        <time>2000-01-01T05:48:06.000Z</time>
      </trkpt>
      <trkpt lat="46.24331" lon="6.81056">
        <ele>1525</ele>
        <time>2000-01-01T05:48:16.000Z</time>
      </trkpt>
      <trkpt lat="46.24339" lon="6.81062">
        <ele>1523.9</ele>
        <time>2000-01-01T05:48:26.000Z</time>
      </trkpt>
      <trkpt lat="46.24345" lon="6.81068">
        <ele>1524.3</ele>
        <time>2000-01-01T05:48:36.000Z</time>
      </trkpt>
      <trkpt lat="46.2435" lon="6.81072">
        <ele>1523</ele>
        <time>2000-01-01T05:48:46.000Z</time>
      </trkpt>
      <trkpt lat="46.24361" lon="6.81079">
        <ele>1522.2</ele>
        <time>2000-01-01T05:48:56.000Z</time>
      </trkpt>
      <trkpt lat="46.24373" lon="6.81095">
        <ele>1526</ele>
        <time>2000-01-01T05:49:06.000Z</time>
      </trkpt>
      <trkpt lat="46.24379" lon="6.81101">
        <ele>1523.9</ele>
        <time>2000-01-01T05:49:16.000Z</time>
      </trkpt>
      <trkpt lat="46.24396" lon="6.81121">
        <ele>1523</ele>
        <time>2000-01-01T05:49:26.000Z</time>
      </trkpt>
      <trkpt lat="46.24416" lon="6.81169">
        <ele>1521</ele>
        <time>2000-01-01T05:49:36.000Z</time>
      </trkpt>
      <trkpt lat="46.24426" lon="6.81197">
        <ele>1520</ele>
        <time>2000-01-01T05:49:46.000Z</time>
      </trkpt>
      <trkpt lat="46.24445" lon="6.81223">
        <ele>1526</ele>
        <time>2000-01-01T05:49:56.000Z</time>
      </trkpt>
      <trkpt lat="46.24469" lon="6.81252">
        <ele>1533</ele>
        <time>2000-01-01T05:50:06.000Z</time>
      </trkpt>
      <trkpt lat="46.24485" lon="6.81277">
        <ele>1529</ele>
        <time>2000-01-01T05:50:16.000Z</time>
      </trkpt>
      <trkpt lat="46.24501" lon="6.81303">
        <ele>1526</ele>
        <time>2000-01-01T05:50:26.000Z</time>
      </trkpt>
      <trkpt lat="46.24526" lon="6.81346">
        <ele>1527</ele>
        <time>2000-01-01T05:50:36.000Z</time>
      </trkpt>
      <trkpt lat="46.2454" lon="6.81378">
        <ele>1526</ele>
        <time>2000-01-01T05:50:46.000Z</time>
      </trkpt>
      <trkpt lat="46.24543" lon="6.81386">
        <ele>1523.3</ele>
        <time>2000-01-01T05:50:56.000Z</time>
      </trkpt>
      <trkpt lat="46.24544" lon="6.81392">
        <ele>1523</ele>
        <time>2000-01-01T05:51:06.000Z</time>
      </trkpt>
      <trkpt lat="46.24542" lon="6.81422">
        <ele>1526</ele>
        <time>2000-01-01T05:51:16.000Z</time>
      </trkpt>
      <trkpt lat="46.24543" lon="6.81434">
        <ele>1520.4</ele>
        <time>2000-01-01T05:51:26.000Z</time>
      </trkpt>
      <trkpt lat="46.24541" lon="6.81453">
        <ele>1524</ele>
        <time>2000-01-01T05:51:36.000Z</time>
      </trkpt>
      <trkpt lat="46.24538" lon="6.8146">
        <ele>1515</ele>
        <time>2000-01-01T05:51:46.000Z</time>
      </trkpt>
      <trkpt lat="46.24533" lon="6.81469">
        <ele>1514.7</ele>
        <time>2000-01-01T05:51:56.000Z</time>
      </trkpt>
      <trkpt lat="46.24528" lon="6.81476">
        <ele>1523</ele>
        <time>2000-01-01T05:52:06.000Z</time>
      </trkpt>
      <trkpt lat="46.24519" lon="6.81482">
        <ele>1516.6</ele>
        <time>2000-01-01T05:52:16.000Z</time>
      </trkpt>
      <trkpt lat="46.24517" lon="6.81485">
        <ele>1515.9</ele>
        <time>2000-01-01T05:52:26.000Z</time>
      </trkpt>
      <trkpt lat="46.24516" lon="6.8149">
        <ele>1513.4</ele>
        <time>2000-01-01T05:52:36.000Z</time>
      </trkpt>
      <trkpt lat="46.24513" lon="6.81498">
        <ele>1518</ele>
        <time>2000-01-01T05:52:46.000Z</time>
      </trkpt>
      <trkpt lat="46.24501" lon="6.81517">
        <ele>1506.7</ele>
        <time>2000-01-01T05:52:56.000Z</time>
      </trkpt>
      <trkpt lat="46.24497" lon="6.81525">
        <ele>1508</ele>
        <time>2000-01-01T05:53:06.000Z</time>
      </trkpt>
      <trkpt lat="46.24487" lon="6.8154">
        <ele>1502.5</ele>
        <time>2000-01-01T05:53:16.000Z</time>
      </trkpt>
      <trkpt lat="46.24484" lon="6.81547">
        <ele>1506</ele>
        <time>2000-01-01T05:53:26.000Z</time>
      </trkpt>
      <trkpt lat="46.24482" lon="6.81556">
        <ele>1498.6</ele>
        <time>2000-01-01T05:53:36.000Z</time>
      </trkpt>
      <trkpt lat="46.24478" lon="6.81567">
        <ele>1496.9</ele>
        <time>2000-01-01T05:53:46.000Z</time>
      </trkpt>
      <trkpt lat="46.24471" lon="6.81577">
        <ele>1499</ele>
        <time>2000-01-01T05:53:56.000Z</time>
      </trkpt>
      <trkpt lat="46.24466" lon="6.81586">
        <ele>1495.3</ele>
        <time>2000-01-01T05:54:06.000Z</time>
      </trkpt>
      <trkpt lat="46.24464" lon="6.81594">
        <ele>1493.5</ele>
        <time>2000-01-01T05:54:16.000Z</time>
      </trkpt>
      <trkpt lat="46.2446" lon="6.81603">
        <ele>1493</ele>
        <time>2000-01-01T05:54:26.000Z</time>
      </trkpt>
      <trkpt lat="46.24454" lon="6.81611">
        <ele>1490.3</ele>
        <time>2000-01-01T05:54:36.000Z</time>
      </trkpt>
      <trkpt lat="46.24455" lon="6.81615">
        <ele>1489.3</ele>
        <time>2000-01-01T05:54:46.000Z</time>
      </trkpt>
      <trkpt lat="46.24454" lon="6.8162">
        <ele>1488.4</ele>
        <time>2000-01-01T05:54:56.000Z</time>
      </trkpt>
      <trkpt lat="46.24452" lon="6.81626">
        <ele>1490</ele>
        <time>2000-01-01T05:55:06.000Z</time>
      </trkpt>
      <trkpt lat="46.24446" lon="6.81635">
        <ele>1486.6</ele>
        <time>2000-01-01T05:55:16.000Z</time>
      </trkpt>
      <trkpt lat="46.24442" lon="6.81643">
        <ele>1486.8</ele>
        <time>2000-01-01T05:55:26.000Z</time>
      </trkpt>
      <trkpt lat="46.2444" lon="6.81654">
        <ele>1489</ele>
        <time>2000-01-01T05:55:36.000Z</time>
      </trkpt>
      <trkpt lat="46.24444" lon="6.81705">
        <ele>1481</ele>
        <time>2000-01-01T05:55:46.000Z</time>
      </trkpt>
      <trkpt lat="46.24445" lon="6.81712">
        <ele>1480.3</ele>
        <time>2000-01-01T05:55:56.000Z</time>
      </trkpt>
      <trkpt lat="46.24448" lon="6.81718">
        <ele>1479.7</ele>
        <time>2000-01-01T05:56:06.000Z</time>
      </trkpt>
      <trkpt lat="46.24453" lon="6.81722">
        <ele>1478.8</ele>
        <time>2000-01-01T05:56:16.000Z</time>
      </trkpt>
      <trkpt lat="46.24464" lon="6.81727">
        <ele>1476</ele>
        <time>2000-01-01T05:56:26.000Z</time>
      </trkpt>
      <trkpt lat="46.24482" lon="6.81744">
        <ele>1474</ele>
        <time>2000-01-01T05:56:36.000Z</time>
      </trkpt>
      <trkpt lat="46.24493" lon="6.81749">
        <ele>1472.6</ele>
        <time>2000-01-01T05:56:46.000Z</time>
      </trkpt>
      <trkpt lat="46.24507" lon="6.81754">
        <ele>1471</ele>
        <time>2000-01-01T05:56:56.000Z</time>
      </trkpt>
      <trkpt lat="46.24522" lon="6.81763">
        <ele>1470.7</ele>
        <time>2000-01-01T05:57:06.000Z</time>
      </trkpt>
      <trkpt lat="46.24533" lon="6.81766">
        <ele>1469</ele>
        <time>2000-01-01T05:57:16.000Z</time>
      </trkpt>
      <trkpt lat="46.2454" lon="6.81767">
        <ele>1470</ele>
        <time>2000-01-01T05:57:26.000Z</time>
      </trkpt>
      <trkpt lat="46.24561" lon="6.81766">
        <ele>1466</ele>
        <time>2000-01-01T05:57:36.000Z</time>
      </trkpt>
      <trkpt lat="46.24589" lon="6.81762">
        <ele>1466</ele>
        <time>2000-01-01T05:57:46.000Z</time>
      </trkpt>
      <trkpt lat="46.24595" lon="6.81762">
        <ele>1465.9</ele>
        <time>2000-01-01T05:57:56.000Z</time>
      </trkpt>
      <trkpt lat="46.24602" lon="6.81763">
        <ele>1465.2</ele>
        <time>2000-01-01T05:58:06.000Z</time>
      </trkpt>
      <trkpt lat="46.24609" lon="6.81766">
        <ele>1465</ele>
        <time>2000-01-01T05:58:16.000Z</time>
      </trkpt>
      <trkpt lat="46.24619" lon="6.81774">
        <ele>1462.1</ele>
        <time>2000-01-01T05:58:26.000Z</time>
      </trkpt>
      <trkpt lat="46.24631" lon="6.81786">
        <ele>1460</ele>
        <time>2000-01-01T05:58:36.000Z</time>
      </trkpt>
      <trkpt lat="46.24639" lon="6.81797">
        <ele>1458</ele>
        <time>2000-01-01T05:58:46.000Z</time>
      </trkpt>
      <trkpt lat="46.24647" lon="6.8181">
        <ele>1457</ele>
        <time>2000-01-01T05:58:56.000Z</time>
      </trkpt>
      <trkpt lat="46.24651" lon="6.81819">
        <ele>1455.4</ele>
        <time>2000-01-01T05:59:06.000Z</time>
      </trkpt>
      <trkpt lat="46.24654" lon="6.81828">
        <ele>1454.4</ele>
        <time>2000-01-01T05:59:16.000Z</time>
      </trkpt>
      <trkpt lat="46.24656" lon="6.81846">
        <ele>1457</ele>
        <time>2000-01-01T05:59:26.000Z</time>
      </trkpt>
      <trkpt lat="46.24656" lon="6.81863">
        <ele>1454.4</ele>
        <time>2000-01-01T05:59:36.000Z</time>
      </trkpt>
      <trkpt lat="46.24655" lon="6.81879">
        <ele>1454</ele>
        <time>2000-01-01T05:59:46.000Z</time>
      </trkpt>
      <trkpt lat="46.24656" lon="6.81888">
        <ele>1454.1</ele>
        <time>2000-01-01T05:59:56.000Z</time>
      </trkpt>
      <trkpt lat="46.24664" lon="6.81908">
        <ele>1450</ele>
        <time>2000-01-01T06:00:06.000Z</time>
      </trkpt>
      <trkpt lat="46.24667" lon="6.81913">
        <ele>1448.2</ele>
        <time>2000-01-01T06:00:16.000Z</time>
      </trkpt>
      <trkpt lat="46.24668" lon="6.81916">
        <ele>1447.4</ele>
        <time>2000-01-01T06:00:26.000Z</time>
      </trkpt>
      <trkpt lat="46.24678" lon="6.8193">
        <ele>1447</ele>
        <time>2000-01-01T06:00:36.000Z</time>
      </trkpt>
      <trkpt lat="46.247" lon="6.81952">
        <ele>1444</ele>
        <time>2000-01-01T06:00:46.000Z</time>
      </trkpt>
      <trkpt lat="46.24711" lon="6.81969">
        <ele>1436.5</ele>
        <time>2000-01-01T06:00:56.000Z</time>
      </trkpt>
      <trkpt lat="46.24719" lon="6.81983">
        <ele>1437</ele>
        <time>2000-01-01T06:01:06.000Z</time>
      </trkpt>
      <trkpt lat="46.24726" lon="6.81998">
        <ele>1430.7</ele>
        <time>2000-01-01T06:01:16.000Z</time>
      </trkpt>
      <trkpt lat="46.24736" lon="6.82035">
        <ele>1427</ele>
        <time>2000-01-01T06:01:26.000Z</time>
      </trkpt>
      <trkpt lat="46.24746" lon="6.82092">
        <ele>1424</ele>
        <time>2000-01-01T06:01:36.000Z</time>
      </trkpt>
      <trkpt lat="46.24748" lon="6.82115">
        <ele>1421.9</ele>
        <time>2000-01-01T06:01:46.000Z</time>
      </trkpt>
      <trkpt lat="46.24754" lon="6.82144">
        <ele>1422</ele>
        <time>2000-01-01T06:01:56.000Z</time>
      </trkpt>
      <trkpt lat="46.24756" lon="6.82158">
        <ele>1416.7</ele>
        <time>2000-01-01T06:02:06.000Z</time>
      </trkpt>
      <trkpt lat="46.24756" lon="6.82173">
        <ele>1421</ele>
        <time>2000-01-01T06:02:16.000Z</time>
      </trkpt>
      <trkpt lat="46.24754" lon="6.82193">
        <ele>1413.1</ele>
        <time>2000-01-01T06:02:26.000Z</time>
      </trkpt>
      <trkpt lat="46.24748" lon="6.82236">
        <ele>1411</ele>
        <time>2000-01-01T06:02:36.000Z</time>
      </trkpt>
      <trkpt lat="46.24748" lon="6.82245">
        <ele>1407.4</ele>
        <time>2000-01-01T06:02:46.000Z</time>
      </trkpt>
      <trkpt lat="46.2475" lon="6.82255">
        <ele>1405.6</ele>
        <time>2000-01-01T06:02:56.000Z</time>
      </trkpt>
      <trkpt lat="46.24751" lon="6.82265">
        <ele>1405</ele>
        <time>2000-01-01T06:03:06.000Z</time>
      </trkpt>
      <trkpt lat="46.24751" lon="6.82276">
        <ele>1403.6</ele>
        <time>2000-01-01T06:03:16.000Z</time>
      </trkpt>
      <trkpt lat="46.24749" lon="6.82287">
        <ele>1401.1</ele>
        <time>2000-01-01T06:03:26.000Z</time>
      </trkpt>
      <trkpt lat="46.24746" lon="6.82294">
        <ele>1403</ele>
        <time>2000-01-01T06:03:36.000Z</time>
      </trkpt>
      <trkpt lat="46.24739" lon="6.82304">
        <ele>1399</ele>
        <time>2000-01-01T06:03:46.000Z</time>
      </trkpt>
      <trkpt lat="46.24731" lon="6.82314">
        <ele>1398</ele>
        <time>2000-01-01T06:03:56.000Z</time>
      </trkpt>
      <trkpt lat="46.24725" lon="6.82326">
        <ele>1396.4</ele>
        <time>2000-01-01T06:04:06.000Z</time>
      </trkpt>
      <trkpt lat="46.24719" lon="6.82342">
        <ele>1397</ele>
        <time>2000-01-01T06:04:16.000Z</time>
      </trkpt>
      <trkpt lat="46.24711" lon="6.82361">
        <ele>1392.7</ele>
        <time>2000-01-01T06:04:26.000Z</time>
      </trkpt>
      <trkpt lat="46.24704" lon="6.82383">
        <ele>1391</ele>
        <time>2000-01-01T06:04:36.000Z</time>
      </trkpt>
      <trkpt lat="46.24693" lon="6.82412">
        <ele>1390</ele>
        <time>2000-01-01T06:04:46.000Z</time>
      </trkpt>
      <trkpt lat="46.24686" lon="6.82425">
        <ele>1387.9</ele>
        <time>2000-01-01T06:04:56.000Z</time>
      </trkpt>
      <trkpt lat="46.24677" lon="6.8244">
        <ele>1389</ele>
        <time>2000-01-01T06:05:06.000Z</time>
      </trkpt>
      <trkpt lat="46.24673" lon="6.8245">
        <ele>1384.7</ele>
        <time>2000-01-01T06:05:16.000Z</time>
      </trkpt>
      <trkpt lat="46.24671" lon="6.82458">
        <ele>1383.3</ele>
        <time>2000-01-01T06:05:26.000Z</time>
      </trkpt>
      <trkpt lat="46.24672" lon="6.82469">
        <ele>1381</ele>
        <time>2000-01-01T06:05:36.000Z</time>
      </trkpt>
      <trkpt lat="46.24674" lon="6.82478">
        <ele>1379.5</ele>
        <time>2000-01-01T06:05:46.000Z</time>
      </trkpt>
      <trkpt lat="46.24686" lon="6.82497">
        <ele>1378</ele>
        <time>2000-01-01T06:05:56.000Z</time>
      </trkpt>
      <trkpt lat="46.24699" lon="6.82509">
        <ele>1375.6</ele>
        <time>2000-01-01T06:06:06.000Z</time>
      </trkpt>
      <trkpt lat="46.24717" lon="6.82524">
        <ele>1374</ele>
        <time>2000-01-01T06:06:16.000Z</time>
      </trkpt>
      <trkpt lat="46.24736" lon="6.82538">
        <ele>1373</ele>
        <time>2000-01-01T06:06:26.000Z</time>
      </trkpt>
      <trkpt lat="46.24769" lon="6.82571">
        <ele>1370</ele>
        <time>2000-01-01T06:06:36.000Z</time>
      </trkpt>
      <trkpt lat="46.24784" lon="6.82582">
        <ele>1368.2</ele>
        <time>2000-01-01T06:06:46.000Z</time>
      </trkpt>
      <trkpt lat="46.24798" lon="6.82588">
        <ele>1367</ele>
        <time>2000-01-01T06:06:56.000Z</time>
      </trkpt>
      <trkpt lat="46.24811" lon="6.82592">
        <ele>1366.7</ele>
        <time>2000-01-01T06:07:06.000Z</time>
      </trkpt>
      <trkpt lat="46.24833" lon="6.82596">
        <ele>1363</ele>
        <time>2000-01-01T06:07:16.000Z</time>
      </trkpt>
      <trkpt lat="46.24859" lon="6.82599">
        <ele>1361</ele>
        <time>2000-01-01T06:07:26.000Z</time>
      </trkpt>
      <trkpt lat="46.24903" lon="6.82599">
        <ele>1356</ele>
        <time>2000-01-01T06:07:36.000Z</time>
      </trkpt>
      <trkpt lat="46.24915" lon="6.826">
        <ele>1352.6</ele>
        <time>2000-01-01T06:07:46.000Z</time>
      </trkpt>
      <trkpt lat="46.24971" lon="6.82609">
        <ele>1343</ele>
        <time>2000-01-01T06:07:56.000Z</time>
      </trkpt>
      <trkpt lat="46.2498" lon="6.82613">
        <ele>1342.8</ele>
        <time>2000-01-01T06:08:06.000Z</time>
      </trkpt>
      <trkpt lat="46.25014" lon="6.82645">
        <ele>1340</ele>
        <time>2000-01-01T06:08:16.000Z</time>
      </trkpt>
      <trkpt lat="46.25042" lon="6.82684">
        <ele>1334</ele>
        <time>2000-01-01T06:08:26.000Z</time>
      </trkpt>
      <trkpt lat="46.25065" lon="6.82707">
        <ele>1330</ele>
        <time>2000-01-01T06:08:36.000Z</time>
      </trkpt>
      <trkpt lat="46.251" lon="6.82743">
        <ele>1323</ele>
        <time>2000-01-01T06:08:46.000Z</time>
      </trkpt>
      <trkpt lat="46.25116" lon="6.82765">
        <ele>1319</ele>
        <time>2000-01-01T06:08:56.000Z</time>
      </trkpt>
      <trkpt lat="46.25127" lon="6.82782">
        <ele>1317</ele>
        <time>2000-01-01T06:09:06.000Z</time>
      </trkpt>
      <trkpt lat="46.25129" lon="6.82786">
        <ele>1316</ele>
        <time>2000-01-01T06:09:16.000Z</time>
      </trkpt>
      <trkpt lat="46.25138" lon="6.82798">
        <ele>1314.3</ele>
        <time>2000-01-01T06:09:26.000Z</time>
      </trkpt>
      <trkpt lat="46.25159" lon="6.82818">
        <ele>1308</ele>
        <time>2000-01-01T06:09:36.000Z</time>
      </trkpt>
      <trkpt lat="46.25167" lon="6.82827">
        <ele>1305.1</ele>
        <time>2000-01-01T06:09:46.000Z</time>
      </trkpt>
      <trkpt lat="46.2517" lon="6.82836">
        <ele>1304</ele>
        <time>2000-01-01T06:09:56.000Z</time>
      </trkpt>
      <trkpt lat="46.25171" lon="6.82852">
        <ele>1302</ele>
        <time>2000-01-01T06:10:06.000Z</time>
      </trkpt>
      <trkpt lat="46.25171" lon="6.82871">
        <ele>1302.3</ele>
        <time>2000-01-01T06:10:16.000Z</time>
      </trkpt>
      <trkpt lat="46.25173" lon="6.82893">
        <ele>1301</ele>
        <time>2000-01-01T06:10:26.000Z</time>
      </trkpt>
      <trkpt lat="46.25177" lon="6.82927">
        <ele>1300</ele>
        <time>2000-01-01T06:10:36.000Z</time>
      </trkpt>
      <trkpt lat="46.25181" lon="6.82964">
        <ele>1290</ele>
        <time>2000-01-01T06:10:46.000Z</time>
      </trkpt>
      <trkpt lat="46.25184" lon="6.82983">
        <ele>1289.4</ele>
        <time>2000-01-01T06:10:56.000Z</time>
      </trkpt>
      <trkpt lat="46.25203" lon="6.83042">
        <ele>1284</ele>
        <time>2000-01-01T06:11:06.000Z</time>
      </trkpt>
      <trkpt lat="46.25217" lon="6.83095">
        <ele>1279</ele>
        <time>2000-01-01T06:11:16.000Z</time>
      </trkpt>
      <trkpt lat="46.25224" lon="6.83117">
        <ele>1275</ele>
        <time>2000-01-01T06:11:26.000Z</time>
      </trkpt>
      <trkpt lat="46.25233" lon="6.83138">
        <ele>1273</ele>
        <time>2000-01-01T06:11:36.000Z</time>
      </trkpt>
      <trkpt lat="46.25248" lon="6.83163">
        <ele>1271</ele>
        <time>2000-01-01T06:11:46.000Z</time>
      </trkpt>
      <trkpt lat="46.25271" lon="6.83199">
        <ele>1266</ele>
        <time>2000-01-01T06:11:56.000Z</time>
      </trkpt>
      <trkpt lat="46.25282" lon="6.83219">
        <ele>1265</ele>
        <time>2000-01-01T06:12:06.000Z</time>
      </trkpt>
      <trkpt lat="46.25287" lon="6.83234">
        <ele>1266</ele>
        <time>2000-01-01T06:12:16.000Z</time>
      </trkpt>
      <trkpt lat="46.25291" lon="6.83243">
        <ele>1264.3</ele>
        <time>2000-01-01T06:12:26.000Z</time>
      </trkpt>
      <trkpt lat="46.25315" lon="6.8327">
        <ele>1260</ele>
        <time>2000-01-01T06:12:36.000Z</time>
      </trkpt>
      <trkpt lat="46.25326" lon="6.83295">
        <ele>1260</ele>
        <time>2000-01-01T06:12:46.000Z</time>
      </trkpt>
      <trkpt lat="46.25331" lon="6.83302">
        <ele>1257.1</ele>
        <time>2000-01-01T06:12:56.000Z</time>
      </trkpt>
      <trkpt lat="46.25352" lon="6.83335">
        <ele>1255</ele>
        <time>2000-01-01T06:13:06.000Z</time>
      </trkpt>
      <trkpt lat="46.25382" lon="6.83386">
        <ele>1256</ele>
        <time>2000-01-01T06:13:16.000Z</time>
      </trkpt>
      <trkpt lat="46.254" lon="6.83418">
        <ele>1255</ele>
        <time>2000-01-01T06:13:26.000Z</time>
      </trkpt>
      <trkpt lat="46.25428" lon="6.83467">
        <ele>1255</ele>
        <time>2000-01-01T06:13:36.000Z</time>
      </trkpt>
      <trkpt lat="46.25446" lon="6.83503">
        <ele>1255</ele>
        <time>2000-01-01T06:13:46.000Z</time>
      </trkpt>
      <trkpt lat="46.25463" lon="6.83546">
        <ele>1255</ele>
        <time>2000-01-01T06:13:56.000Z</time>
      </trkpt>
      <trkpt lat="46.2548" lon="6.83588">
        <ele>1256</ele>
        <time>2000-01-01T06:14:06.000Z</time>
      </trkpt>
      <trkpt lat="46.25493" lon="6.83621">
        <ele>1256</ele>
        <time>2000-01-01T06:14:16.000Z</time>
      </trkpt>
      <trkpt lat="46.25509" lon="6.83661">
        <ele>1256</ele>
        <time>2000-01-01T06:14:26.000Z</time>
      </trkpt>
      <trkpt lat="46.25522" lon="6.83688">
        <ele>1256</ele>
        <time>2000-01-01T06:14:36.000Z</time>
      </trkpt>
      <trkpt lat="46.25533" lon="6.83709">
        <ele>1258.4</ele>
        <time>2000-01-01T06:14:46.000Z</time>
      </trkpt>
      <trkpt lat="46.25545" lon="6.8373">
        <ele>1257</ele>
        <time>2000-01-01T06:14:56.000Z</time>
      </trkpt>
      <trkpt lat="46.25555" lon="6.83744">
        <ele>1257.1</ele>
        <time>2000-01-01T06:15:06.000Z</time>
      </trkpt>
      <trkpt lat="46.2557" lon="6.8376">
        <ele>1257</ele>
        <time>2000-01-01T06:15:16.000Z</time>
      </trkpt>
      <trkpt lat="46.25583" lon="6.83778">
        <ele>1256.2</ele>
        <time>2000-01-01T06:15:26.000Z</time>
      </trkpt>
      <trkpt lat="46.25603" lon="6.83817">
        <ele>1255</ele>
        <time>2000-01-01T06:15:36.000Z</time>
      </trkpt>
      <trkpt lat="46.25615" lon="6.83837">
        <ele>1254.2</ele>
        <time>2000-01-01T06:15:46.000Z</time>
      </trkpt>
      <trkpt lat="46.25623" lon="6.83856">
        <ele>1254</ele>
        <time>2000-01-01T06:15:56.000Z</time>
      </trkpt>
      <trkpt lat="46.25635" lon="6.83887">
        <ele>1254</ele>
        <time>2000-01-01T06:16:06.000Z</time>
      </trkpt>
      <trkpt lat="46.25648" lon="6.83923">
        <ele>1253</ele>
        <time>2000-01-01T06:16:16.000Z</time>
      </trkpt>
      <trkpt lat="46.25657" lon="6.83936">
        <ele>1253.5</ele>
        <time>2000-01-01T06:16:26.000Z</time>
      </trkpt>
      <trkpt lat="46.2568" lon="6.83955">
        <ele>1250</ele>
        <time>2000-01-01T06:16:36.000Z</time>
      </trkpt>
      <trkpt lat="46.25696" lon="6.83971">
        <ele>1249</ele>
        <time>2000-01-01T06:16:46.000Z</time>
      </trkpt>
      <trkpt lat="46.2571" lon="6.83989">
        <ele>1247</ele>
        <time>2000-01-01T06:16:56.000Z</time>
      </trkpt>
      <trkpt lat="46.25721" lon="6.84008">
        <ele>1244.6</ele>
        <time>2000-01-01T06:17:06.000Z</time>
      </trkpt>
      <trkpt lat="46.25729" lon="6.84027">
        <ele>1242</ele>
        <time>2000-01-01T06:17:16.000Z</time>
      </trkpt>
      <trkpt lat="46.25733" lon="6.84028">
        <ele>1242.2</ele>
        <time>2000-01-01T06:17:26.000Z</time>
      </trkpt>
      <trkpt lat="46.25746" lon="6.84057">
        <ele>1241</ele>
        <time>2000-01-01T06:17:36.000Z</time>
      </trkpt>
      <trkpt lat="46.2576" lon="6.84069">
        <ele>1240.1</ele>
        <time>2000-01-01T06:17:46.000Z</time>
      </trkpt>
      <trkpt lat="46.25788" lon="6.84042">
        <ele>1238</ele>
        <time>2000-01-01T06:17:56.000Z</time>
      </trkpt>
      <trkpt lat="46.25831" lon="6.84063">
        <ele>1235</ele>
        <time>2000-01-01T06:18:06.000Z</time>
      </trkpt>
      <trkpt lat="46.25863" lon="6.8407">
        <ele>1234</ele>
        <time>2000-01-01T06:18:16.000Z</time>
      </trkpt>
      <trkpt lat="46.25891" lon="6.84077">
        <ele>1233</ele>
        <time>2000-01-01T06:18:26.000Z</time>
      </trkpt>
      <trkpt lat="46.25915" lon="6.84082">
        <ele>1232</ele>
        <time>2000-01-01T06:18:36.000Z</time>
      </trkpt>
      <trkpt lat="46.25938" lon="6.84088">
        <ele>1231</ele>
        <time>2000-01-01T06:18:46.000Z</time>
      </trkpt>
      <trkpt lat="46.2597" lon="6.84086">
        <ele>1229</ele>
        <time>2000-01-01T06:18:56.000Z</time>
      </trkpt>
      <trkpt lat="46.26003" lon="6.84083">
        <ele>1228</ele>
        <time>2000-01-01T06:19:06.000Z</time>
      </trkpt>
      <trkpt lat="46.26045" lon="6.8408">
        <ele>1227</ele>
        <time>2000-01-01T06:19:16.000Z</time>
      </trkpt>
      <trkpt lat="46.26069" lon="6.8407">
        <ele>1225</ele>
        <time>2000-01-01T06:19:26.000Z</time>
      </trkpt>
      <trkpt lat="46.26098" lon="6.84058">
        <ele>1222</ele>
        <time>2000-01-01T06:19:36.000Z</time>
      </trkpt>
      <trkpt lat="46.26124" lon="6.84067">
        <ele>1222</ele>
        <time>2000-01-01T06:19:46.000Z</time>
      </trkpt>
      <trkpt lat="46.2616" lon="6.8408">
        <ele>1220</ele>
        <time>2000-01-01T06:19:56.000Z</time>
      </trkpt>
      <trkpt lat="46.262" lon="6.84093">
        <ele>1218</ele>
        <time>2000-01-01T06:20:06.000Z</time>
      </trkpt>
      <trkpt lat="46.2624" lon="6.84105">
        <ele>1215</ele>
        <time>2000-01-01T06:20:16.000Z</time>
      </trkpt>
      <trkpt lat="46.26269" lon="6.84114">
        <ele>1214</ele>
        <time>2000-01-01T06:20:26.000Z</time>
      </trkpt>
      <trkpt lat="46.26293" lon="6.84122">
        <ele>1212</ele>
        <time>2000-01-01T06:20:36.000Z</time>
      </trkpt>
      <trkpt lat="46.26319" lon="6.84131">
        <ele>1211</ele>
        <time>2000-01-01T06:20:46.000Z</time>
      </trkpt>
      <trkpt lat="46.26358" lon="6.84143">
        <ele>1209</ele>
        <time>2000-01-01T06:20:56.000Z</time>
      </trkpt>
      <trkpt lat="46.2639" lon="6.84153">
        <ele>1205</ele>
        <time>2000-01-01T06:21:06.000Z</time>
      </trkpt>
      <trkpt lat="46.26422" lon="6.84164">
        <ele>1204</ele>
        <time>2000-01-01T06:21:16.000Z</time>
      </trkpt>
      <trkpt lat="46.26445" lon="6.84171">
        <ele>1203</ele>
        <time>2000-01-01T06:21:26.000Z</time>
      </trkpt>
      <trkpt lat="46.26469" lon="6.84179">
        <ele>1201</ele>
        <time>2000-01-01T06:21:36.000Z</time>
      </trkpt>
      <trkpt lat="46.26494" lon="6.84175">
        <ele>1199</ele>
        <time>2000-01-01T06:21:46.000Z</time>
      </trkpt>
      <trkpt lat="46.26524" lon="6.8417">
        <ele>1198</ele>
        <time>2000-01-01T06:21:56.000Z</time>
      </trkpt>
      <trkpt lat="46.26555" lon="6.84166">
        <ele>1196</ele>
        <time>2000-01-01T06:22:06.000Z</time>
      </trkpt>
      <trkpt lat="46.2659" lon="6.84151">
        <ele>1194</ele>
        <time>2000-01-01T06:22:16.000Z</time>
      </trkpt>
      <trkpt lat="46.26624" lon="6.84138">
        <ele>1192</ele>
        <time>2000-01-01T06:22:26.000Z</time>
      </trkpt>
      <trkpt lat="46.26643" lon="6.84146">
        <ele>1191</ele>
        <time>2000-01-01T06:22:36.000Z</time>
      </trkpt>
      <trkpt lat="46.26665" lon="6.84141">
        <ele>1191</ele>
        <time>2000-01-01T06:22:46.000Z</time>
      </trkpt>
      <trkpt lat="46.26689" lon="6.8415">
        <ele>1192</ele>
        <time>2000-01-01T06:22:56.000Z</time>
      </trkpt>
      <trkpt lat="46.267" lon="6.8415">
        <ele>1192.6</ele>
        <time>2000-01-01T06:23:06.000Z</time>
      </trkpt>
      <trkpt lat="46.26716" lon="6.84159">
        <ele>1192</ele>
        <time>2000-01-01T06:23:16.000Z</time>
      </trkpt>
      <trkpt lat="46.26717" lon="6.84165">
        <ele>1194.8</ele>
        <time>2000-01-01T06:23:26.000Z</time>
      </trkpt>
      <trkpt lat="46.26733" lon="6.84178">
        <ele>1194</ele>
        <time>2000-01-01T06:23:36.000Z</time>
      </trkpt>
      <trkpt lat="46.2671" lon="6.84187">
        <ele>1196</ele>
        <time>2000-01-01T06:23:46.000Z</time>
      </trkpt>
      <trkpt lat="46.26685" lon="6.84197">
        <ele>1200</ele>
        <time>2000-01-01T06:23:56.000Z</time>
      </trkpt>
      <trkpt lat="46.26665" lon="6.84242">
        <ele>1207</ele>
        <time>2000-01-01T06:24:06.000Z</time>
      </trkpt>
      <trkpt lat="46.26672" lon="6.8425">
        <ele>1209</ele>
        <time>2000-01-01T06:24:16.000Z</time>
      </trkpt>
      <trkpt lat="46.26675" lon="6.84306">
        <ele>1217</ele>
        <time>2000-01-01T06:24:36.000Z</time>
      </trkpt>
      <trkpt lat="46.26678" lon="6.84363">
        <ele>1242</ele>
        <time>2000-01-01T06:24:46.000Z</time>
      </trkpt>
      <trkpt lat="46.2668" lon="6.84404">
        <ele>1253</ele>
        <time>2000-01-01T06:24:56.000Z</time>
      </trkpt>
      <trkpt lat="46.26683" lon="6.84455">
        <ele>1272</ele>
        <time>2000-01-01T06:25:06.000Z</time>
      </trkpt>
      <trkpt lat="46.26686" lon="6.84506">
        <ele>1296</ele>
        <time>2000-01-01T06:25:16.000Z</time>
      </trkpt>
      <trkpt lat="46.26689" lon="6.84556">
        <ele>1322</ele>
        <time>2000-01-01T06:25:26.000Z</time>
      </trkpt>
      <trkpt lat="46.26693" lon="6.84612">
        <ele>1358</ele>
        <time>2000-01-01T06:25:36.000Z</time>
      </trkpt>
      <trkpt lat="46.26697" lon="6.84674">
        <ele>1392</ele>
        <time>2000-01-01T06:25:46.000Z</time>
      </trkpt>
      <trkpt lat="46.267" lon="6.84735">
        <ele>1433</ele>
        <time>2000-01-01T06:25:56.000Z</time>
      </trkpt>
      <trkpt lat="46.26704" lon="6.84797">
        <ele>1465</ele>
        <time>2000-01-01T06:26:06.000Z</time>
      </trkpt>
      <trkpt lat="46.26708" lon="6.84859">
        <ele>1485</ele>
        <time>2000-01-01T06:26:16.000Z</time>
      </trkpt>
      <trkpt lat="46.26712" lon="6.8492">
        <ele>1494</ele>
        <time>2000-01-01T06:26:26.000Z</time>
      </trkpt>
      <trkpt lat="46.26715" lon="6.84982">
        <ele>1506</ele>
        <time>2000-01-01T06:26:36.000Z</time>
      </trkpt>
      <trkpt lat="46.26719" lon="6.85044">
        <ele>1507</ele>
        <time>2000-01-01T06:26:46.000Z</time>
      </trkpt>
      <trkpt lat="46.26723" lon="6.85106">
        <ele>1509</ele>
        <time>2000-01-01T06:26:56.000Z</time>
      </trkpt>
      <trkpt lat="46.26727" lon="6.85167">
        <ele>1510</ele>
        <time>2000-01-01T06:27:06.000Z</time>
      </trkpt>
      <trkpt lat="46.26731" lon="6.85229">
        <ele>1512</ele>
        <time>2000-01-01T06:27:16.000Z</time>
      </trkpt>
      <trkpt lat="46.26734" lon="6.85291">
        <ele>1515</ele>
        <time>2000-01-01T06:27:26.000Z</time>
      </trkpt>
      <trkpt lat="46.26737" lon="6.8533">
        <ele>1521</ele>
        <time>2000-01-01T06:27:36.000Z</time>
      </trkpt>
      <trkpt lat="46.2674" lon="6.85383">
        <ele>1536</ele>
        <time>2000-01-01T06:27:46.000Z</time>
      </trkpt>
      <trkpt lat="46.26744" lon="6.85437">
        <ele>1548</ele>
        <time>2000-01-01T06:27:56.000Z</time>
      </trkpt>
      <trkpt lat="46.26748" lon="6.85491">
        <ele>1561</ele>
        <time>2000-01-01T06:28:06.000Z</time>
      </trkpt>
      <trkpt lat="46.26751" lon="6.85546">
        <ele>1575</ele>
        <time>2000-01-01T06:28:16.000Z</time>
      </trkpt>
      <trkpt lat="46.26755" lon="6.856">
        <ele>1590</ele>
        <time>2000-01-01T06:28:26.000Z</time>
      </trkpt>
      <trkpt lat="46.26757" lon="6.85633">
        <ele>1602</ele>
        <time>2000-01-01T06:28:36.000Z</time>
      </trkpt>
      <trkpt lat="46.2676" lon="6.85667">
        <ele>1609</ele>
        <time>2000-01-01T06:28:46.000Z</time>
      </trkpt>
      <trkpt lat="46.26762" lon="6.85693">
        <ele>1618</ele>
        <time>2000-01-01T06:28:56.000Z</time>
      </trkpt>
      <trkpt lat="46.26767" lon="6.85742">
        <ele>1627</ele>
        <time>2000-01-01T06:29:06.000Z</time>
      </trkpt>
      <trkpt lat="46.26767" lon="6.85746">
        <ele>1627.4</ele>
        <time>2000-01-01T06:29:16.000Z</time>
      </trkpt>
      <trkpt lat="46.2677" lon="6.85789">
        <ele>1632</ele>
        <time>2000-01-01T06:29:26.000Z</time>
      </trkpt>
      <trkpt lat="46.26748" lon="6.85807">
        <ele>1633</ele>
        <time>2000-01-01T06:29:36.000Z</time>
      </trkpt>
      <trkpt lat="46.26721" lon="6.85828">
        <ele>1632</ele>
        <time>2000-01-01T06:29:46.000Z</time>
      </trkpt>
      <trkpt lat="46.26715" lon="6.85802">
        <ele>1636</ele>
        <time>2000-01-01T06:29:56.000Z</time>
      </trkpt>
      <trkpt lat="46.26713" lon="6.85801">
        <ele>1631.9</ele>
        <time>2000-01-01T06:30:06.000Z</time>
      </trkpt>
      <trkpt lat="46.26709" lon="6.8589">
        <ele>1640</ele>
        <time>2000-01-01T06:30:16.000Z</time>
      </trkpt>
      <trkpt lat="46.26682" lon="6.85905">
        <ele>1640</ele>
        <time>2000-01-01T06:30:26.000Z</time>
      </trkpt>
      <trkpt lat="46.26659" lon="6.85918">
        <ele>1640</ele>
        <time>2000-01-01T06:30:36.000Z</time>
      </trkpt>
      <trkpt lat="46.26635" lon="6.85932">
        <ele>1640</ele>
        <time>2000-01-01T06:30:46.000Z</time>
      </trkpt>
      <trkpt lat="46.26612" lon="6.85955">
        <ele>1643</ele>
        <time>2000-01-01T06:30:56.000Z</time>
      </trkpt>
      <trkpt lat="46.26576" lon="6.85991">
        <ele>1649</ele>
        <time>2000-01-01T06:31:06.000Z</time>
      </trkpt>
      <trkpt lat="46.26551" lon="6.86015">
        <ele>1651</ele>
        <time>2000-01-01T06:31:16.000Z</time>
      </trkpt>
      <trkpt lat="46.2653" lon="6.86036">
        <ele>1654</ele>
        <time>2000-01-01T06:31:26.000Z</time>
      </trkpt>
      <trkpt lat="46.26504" lon="6.86061">
        <ele>1658</ele>
        <time>2000-01-01T06:31:36.000Z</time>
      </trkpt>
      <trkpt lat="46.26469" lon="6.86104">
        <ele>1666</ele>
        <time>2000-01-01T06:31:46.000Z</time>
      </trkpt>
      <trkpt lat="46.26468" lon="6.86141">
        <ele>1670</ele>
        <time>2000-01-01T06:31:56.000Z</time>
      </trkpt>
      <trkpt lat="46.26466" lon="6.86186">
        <ele>1670</ele>
        <time>2000-01-01T06:32:06.000Z</time>
      </trkpt>
      <trkpt lat="46.26493" lon="6.86187">
        <ele>1671</ele>
        <time>2000-01-01T06:32:16.000Z</time>
      </trkpt>
      <trkpt lat="46.2653" lon="6.86188">
        <ele>1671</ele>
        <time>2000-01-01T06:32:26.000Z</time>
      </trkpt>
      <trkpt lat="46.26567" lon="6.8619">
        <ele>1675</ele>
        <time>2000-01-01T06:32:36.000Z</time>
      </trkpt>
      <trkpt lat="46.26596" lon="6.86229">
        <ele>1681</ele>
        <time>2000-01-01T06:32:46.000Z</time>
      </trkpt>
      <trkpt lat="46.26593" lon="6.86259">
        <ele>1682</ele>
        <time>2000-01-01T06:32:56.000Z</time>
      </trkpt>
      <trkpt lat="46.26578" lon="6.86293">
        <ele>1682</ele>
        <time>2000-01-01T06:33:06.000Z</time>
      </trkpt>
      <trkpt lat="46.26555" lon="6.86344">
        <ele>1684</ele>
        <time>2000-01-01T06:33:16.000Z</time>
      </trkpt>
      <trkpt lat="46.26548" lon="6.86378">
        <ele>1685</ele>
        <time>2000-01-01T06:33:26.000Z</time>
      </trkpt>
      <trkpt lat="46.2654" lon="6.86417">
        <ele>1688</ele>
        <time>2000-01-01T06:33:36.000Z</time>
      </trkpt>
      <trkpt lat="46.26538" lon="6.86459">
        <ele>1689</ele>
        <time>2000-01-01T06:33:46.000Z</time>
      </trkpt>
      <trkpt lat="46.26536" lon="6.86493">
        <ele>1691</ele>
        <time>2000-01-01T06:33:56.000Z</time>
      </trkpt>
      <trkpt lat="46.26534" lon="6.86529">
        <ele>1692</ele>
        <time>2000-01-01T06:34:06.000Z</time>
      </trkpt>
      <trkpt lat="46.26549" lon="6.86546">
        <ele>1692</ele>
        <time>2000-01-01T06:34:16.000Z</time>
      </trkpt>
      <trkpt lat="46.26553" lon="6.86581">
        <ele>1692</ele>
        <time>2000-01-01T06:34:26.000Z</time>
      </trkpt>
      <trkpt lat="46.26558" lon="6.86619">
        <ele>1692</ele>
        <time>2000-01-01T06:34:36.000Z</time>
      </trkpt>
      <trkpt lat="46.26552" lon="6.86653">
        <ele>1692</ele>
        <time>2000-01-01T06:34:46.000Z</time>
      </trkpt>
      <trkpt lat="46.26546" lon="6.86688">
        <ele>1692</ele>
        <time>2000-01-01T06:34:56.000Z</time>
      </trkpt>
      <trkpt lat="46.26533" lon="6.8672">
        <ele>1690</ele>
        <time>2000-01-01T06:35:06.000Z</time>
      </trkpt>
      <trkpt lat="46.26516" lon="6.86761">
        <ele>1690</ele>
        <time>2000-01-01T06:35:16.000Z</time>
      </trkpt>
      <trkpt lat="46.26488" lon="6.86786">
        <ele>1689</ele>
        <time>2000-01-01T06:35:26.000Z</time>
      </trkpt>
      <trkpt lat="46.26463" lon="6.86809">
        <ele>1689</ele>
        <time>2000-01-01T06:35:36.000Z</time>
      </trkpt>
      <trkpt lat="46.26442" lon="6.86829">
        <ele>1689</ele>
        <time>2000-01-01T06:35:46.000Z</time>
      </trkpt>
      <trkpt lat="46.26418" lon="6.86851">
        <ele>1688</ele>
        <time>2000-01-01T06:35:56.000Z</time>
      </trkpt>
      <trkpt lat="46.26385" lon="6.86866">
        <ele>1688</ele>
        <time>2000-01-01T06:36:06.000Z</time>
      </trkpt>
      <trkpt lat="46.26351" lon="6.8688">
        <ele>1689</ele>
        <time>2000-01-01T06:36:16.000Z</time>
      </trkpt>
      <trkpt lat="46.26324" lon="6.86892">
        <ele>1690</ele>
        <time>2000-01-01T06:36:26.000Z</time>
      </trkpt>
      <trkpt lat="46.26282" lon="6.86911">
        <ele>1693</ele>
        <time>2000-01-01T06:36:36.000Z</time>
      </trkpt>
      <trkpt lat="46.26264" lon="6.86941">
        <ele>1693</ele>
        <time>2000-01-01T06:36:46.000Z</time>
      </trkpt>
      <trkpt lat="46.26255" lon="6.8698">
        <ele>1694</ele>
        <time>2000-01-01T06:36:56.000Z</time>
      </trkpt>
      <trkpt lat="46.2624" lon="6.87044">
        <ele>1696</ele>
        <time>2000-01-01T06:37:06.000Z</time>
      </trkpt>
      <trkpt lat="46.26243" lon="6.87095">
        <ele>1699</ele>
        <time>2000-01-01T06:37:16.000Z</time>
      </trkpt>
      <trkpt lat="46.2622" lon="6.8708">
        <ele>1705</ele>
        <time>2000-01-01T06:37:26.000Z</time>
      </trkpt>
      <trkpt lat="46.26193" lon="6.87061">
        <ele>1710</ele>
        <time>2000-01-01T06:37:36.000Z</time>
      </trkpt>
      <trkpt lat="46.26193" lon="6.87014">
        <ele>1711</ele>
        <time>2000-01-01T06:37:46.000Z</time>
      </trkpt>
      <trkpt lat="46.2619" lon="6.86966">
        <ele>1717</ele>
        <time>2000-01-01T06:37:56.000Z</time>
      </trkpt>
      <trkpt lat="46.26186" lon="6.86918">
        <ele>1722</ele>
        <time>2000-01-01T06:38:06.000Z</time>
      </trkpt>
      <trkpt lat="46.26184" lon="6.86883">
        <ele>1724</ele>
        <time>2000-01-01T06:38:16.000Z</time>
      </trkpt>
      <trkpt lat="46.26181" lon="6.86846">
        <ele>1728</ele>
        <time>2000-01-01T06:38:26.000Z</time>
      </trkpt>
      <trkpt lat="46.26187" lon="6.86795">
        <ele>1733</ele>
        <time>2000-01-01T06:38:36.000Z</time>
      </trkpt>
      <trkpt lat="46.26199" lon="6.86791">
        <ele>1723.3</ele>
        <time>2000-01-01T06:38:46.000Z</time>
      </trkpt>
      <trkpt lat="46.26157" lon="6.86816">
        <ele>1736</ele>
        <time>2000-01-01T06:38:56.000Z</time>
      </trkpt>
      <trkpt lat="46.26153" lon="6.86857">
        <ele>1739</ele>
        <time>2000-01-01T06:39:06.000Z</time>
      </trkpt>
      <trkpt lat="46.26145" lon="6.86919">
        <ele>1741</ele>
        <time>2000-01-01T06:39:16.000Z</time>
      </trkpt>
      <trkpt lat="46.26121" lon="6.86956">
        <ele>1744</ele>
        <time>2000-01-01T06:39:26.000Z</time>
      </trkpt>
      <trkpt lat="46.26099" lon="6.86989">
        <ele>1747</ele>
        <time>2000-01-01T06:39:36.000Z</time>
      </trkpt>
      <trkpt lat="46.26077" lon="6.87022">
        <ele>1750</ele>
        <time>2000-01-01T06:39:46.000Z</time>
      </trkpt>
      <trkpt lat="46.26051" lon="6.87061">
        <ele>1751</ele>
        <time>2000-01-01T06:39:56.000Z</time>
      </trkpt>
      <trkpt lat="46.26021" lon="6.87087">
        <ele>1755</ele>
        <time>2000-01-01T06:40:06.000Z</time>
      </trkpt>
      <trkpt lat="46.25996" lon="6.87075">
        <ele>1764</ele>
        <time>2000-01-01T06:40:16.000Z</time>
      </trkpt>
      <trkpt lat="46.25964" lon="6.87061">
        <ele>1770</ele>
        <time>2000-01-01T06:40:26.000Z</time>
      </trkpt>
      <trkpt lat="46.2595" lon="6.87044">
        <ele>1766.9</ele>
        <time>2000-01-01T06:40:36.000Z</time>
      </trkpt>
      <trkpt lat="46.25935" lon="6.87078">
        <ele>1769</ele>
        <time>2000-01-01T06:40:46.000Z</time>
      </trkpt>
      <trkpt lat="46.25947" lon="6.87109">
        <ele>1768</ele>
        <time>2000-01-01T06:40:56.000Z</time>
      </trkpt>
      <trkpt lat="46.25961" lon="6.87143">
        <ele>1777</ele>
        <time>2000-01-01T06:41:06.000Z</time>
      </trkpt>
      <trkpt lat="46.25953" lon="6.87155">
        <ele>1767.3</ele>
        <time>2000-01-01T06:41:16.000Z</time>
      </trkpt>
      <trkpt lat="46.25869" lon="6.8716">
        <ele>1781</ele>
        <time>2000-01-01T06:41:26.000Z</time>
      </trkpt>
      <trkpt lat="46.25867" lon="6.87207">
        <ele>1785</ele>
        <time>2000-01-01T06:41:36.000Z</time>
      </trkpt>
      <trkpt lat="46.25849" lon="6.87242">
        <ele>1788</ele>
        <time>2000-01-01T06:41:46.000Z</time>
      </trkpt>
      <trkpt lat="46.25834" lon="6.87271">
        <ele>1788</ele>
        <time>2000-01-01T06:41:56.000Z</time>
      </trkpt>
      <trkpt lat="46.25816" lon="6.87306">
        <ele>1787</ele>
        <time>2000-01-01T06:42:06.000Z</time>
      </trkpt>
      <trkpt lat="46.25791" lon="6.87317">
        <ele>1784</ele>
        <time>2000-01-01T06:42:16.000Z</time>
      </trkpt>
      <trkpt lat="46.25761" lon="6.8733">
        <ele>1781</ele>
        <time>2000-01-01T06:42:26.000Z</time>
      </trkpt>
      <trkpt lat="46.25727" lon="6.87344">
        <ele>1770</ele>
        <time>2000-01-01T06:42:36.000Z</time>
      </trkpt>
      <trkpt lat="46.25702" lon="6.87332">
        <ele>1768</ele>
        <time>2000-01-01T06:42:46.000Z</time>
      </trkpt>
      <trkpt lat="46.25668" lon="6.87314">
        <ele>1765</ele>
        <time>2000-01-01T06:42:56.000Z</time>
      </trkpt>
      <trkpt lat="46.25634" lon="6.87311">
        <ele>1760</ele>
        <time>2000-01-01T06:43:06.000Z</time>
      </trkpt>
      <trkpt lat="46.25604" lon="6.87307">
        <ele>1757</ele>
        <time>2000-01-01T06:43:16.000Z</time>
      </trkpt>
      <trkpt lat="46.25579" lon="6.87304">
        <ele>1755</ele>
        <time>2000-01-01T06:43:26.000Z</time>
      </trkpt>
      <trkpt lat="46.25549" lon="6.87301">
        <ele>1752</ele>
        <time>2000-01-01T06:43:36.000Z</time>
      </trkpt>
      <trkpt lat="46.25513" lon="6.8731">
        <ele>1748</ele>
        <time>2000-01-01T06:43:46.000Z</time>
      </trkpt>
      <trkpt lat="46.25479" lon="6.87318">
        <ele>1743</ele>
        <time>2000-01-01T06:43:56.000Z</time>
      </trkpt>
      <trkpt lat="46.25445" lon="6.87325">
        <ele>1740</ele>
        <time>2000-01-01T06:44:06.000Z</time>
      </trkpt>
      <trkpt lat="46.25418" lon="6.87331">
        <ele>1738</ele>
        <time>2000-01-01T06:44:16.000Z</time>
      </trkpt>
      <trkpt lat="46.2538" lon="6.8734">
        <ele>1735</ele>
        <time>2000-01-01T06:44:26.000Z</time>
      </trkpt>
      <trkpt lat="46.25353" lon="6.87336">
        <ele>1734</ele>
        <time>2000-01-01T06:44:36.000Z</time>
      </trkpt>
      <trkpt lat="46.25318" lon="6.87331">
        <ele>1731</ele>
        <time>2000-01-01T06:44:46.000Z</time>
      </trkpt>
      <trkpt lat="46.25289" lon="6.87322">
        <ele>1729</ele>
        <time>2000-01-01T06:44:56.000Z</time>
      </trkpt>
      <trkpt lat="46.25266" lon="6.87314">
        <ele>1726</ele>
        <time>2000-01-01T06:45:06.000Z</time>
      </trkpt>
      <trkpt lat="46.2524" lon="6.87306">
        <ele>1722</ele>
        <time>2000-01-01T06:45:16.000Z</time>
      </trkpt>
      <trkpt lat="46.2521" lon="6.87316">
        <ele>1721</ele>
        <time>2000-01-01T06:45:26.000Z</time>
      </trkpt>
      <trkpt lat="46.25185" lon="6.87325">
        <ele>1717</ele>
        <time>2000-01-01T06:45:36.000Z</time>
      </trkpt>
      <trkpt lat="46.25154" lon="6.87336">
        <ele>1712</ele>
        <time>2000-01-01T06:45:46.000Z</time>
      </trkpt>
      <trkpt lat="46.25133" lon="6.87311">
        <ele>1707</ele>
        <time>2000-01-01T06:45:56.000Z</time>
      </trkpt>
      <trkpt lat="46.25104" lon="6.87276">
        <ele>1700</ele>
        <time>2000-01-01T06:46:06.000Z</time>
      </trkpt>
      <trkpt lat="46.25092" lon="6.87211">
        <ele>1691</ele>
        <time>2000-01-01T06:46:16.000Z</time>
      </trkpt>
      <trkpt lat="46.25083" lon="6.87199">
        <ele>1688.5</ele>
        <time>2000-01-01T06:46:26.000Z</time>
      </trkpt>
      <trkpt lat="46.25125" lon="6.87137">
        <ele>1687</ele>
        <time>2000-01-01T06:46:36.000Z</time>
      </trkpt>
      <trkpt lat="46.25099" lon="6.87098">
        <ele>1679</ele>
        <time>2000-01-01T06:46:46.000Z</time>
      </trkpt>
      <trkpt lat="46.25073" lon="6.87098">
        <ele>1676</ele>
        <time>2000-01-01T06:46:56.000Z</time>
      </trkpt>
      <trkpt lat="46.25065" lon="6.87075">
        <ele>1673.3</ele>
        <time>2000-01-01T06:47:06.000Z</time>
      </trkpt>
      <trkpt lat="46.2505" lon="6.87067">
        <ele>1674</ele>
        <time>2000-01-01T06:47:16.000Z</time>
      </trkpt>
      <trkpt lat="46.25041" lon="6.87061">
        <ele>1670.8</ele>
        <time>2000-01-01T06:47:26.000Z</time>
      </trkpt>
      <trkpt lat="46.25021" lon="6.87032">
        <ele>1673</ele>
        <time>2000-01-01T06:47:36.000Z</time>
      </trkpt>
      <trkpt lat="46.2501" lon="6.87014">
        <ele>1668.6</ele>
        <time>2000-01-01T06:47:46.000Z</time>
      </trkpt>
      <trkpt lat="46.24984" lon="6.86983">
        <ele>1675</ele>
        <time>2000-01-01T06:47:56.000Z</time>
      </trkpt>
      <trkpt lat="46.24971" lon="6.86957">
        <ele>1676</ele>
        <time>2000-01-01T06:48:06.000Z</time>
      </trkpt>
      <trkpt lat="46.2496" lon="6.86947">
        <ele>1662.3</ele>
        <time>2000-01-01T06:48:16.000Z</time>
      </trkpt>
      <trkpt lat="46.24953" lon="6.86928">
        <ele>1673</ele>
        <time>2000-01-01T06:48:26.000Z</time>
      </trkpt>
      <trkpt lat="46.24949" lon="6.8692">
        <ele>1662.7</ele>
        <time>2000-01-01T06:48:36.000Z</time>
      </trkpt>
      <trkpt lat="46.24942" lon="6.86909">
        <ele>1662.7</ele>
        <time>2000-01-01T06:48:46.000Z</time>
      </trkpt>
      <trkpt lat="46.24928" lon="6.86898">
        <ele>1673</ele>
        <time>2000-01-01T06:48:56.000Z</time>
      </trkpt>
      <trkpt lat="46.24911" lon="6.86879">
        <ele>1673</ele>
        <time>2000-01-01T06:49:06.000Z</time>
      </trkpt>
      <trkpt lat="46.24891" lon="6.86869">
        <ele>1673</ele>
        <time>2000-01-01T06:49:16.000Z</time>
      </trkpt>
      <trkpt lat="46.24871" lon="6.86855">
        <ele>1673</ele>
        <time>2000-01-01T06:49:26.000Z</time>
      </trkpt>
      <trkpt lat="46.24861" lon="6.8685">
        <ele>1666.8</ele>
        <time>2000-01-01T06:49:36.000Z</time>
      </trkpt>
      <trkpt lat="46.24835" lon="6.8685">
        <ele>1673</ele>
        <time>2000-01-01T06:49:46.000Z</time>
      </trkpt>
      <trkpt lat="46.24821" lon="6.86843">
        <ele>1665.5</ele>
        <time>2000-01-01T06:49:56.000Z</time>
      </trkpt>
      <trkpt lat="46.24809" lon="6.86841">
        <ele>1674</ele>
        <time>2000-01-01T06:50:06.000Z</time>
      </trkpt>
      <trkpt lat="46.24793" lon="6.8684">
        <ele>1664.4</ele>
        <time>2000-01-01T06:50:16.000Z</time>
      </trkpt>
      <trkpt lat="46.24778" lon="6.86847">
        <ele>1672</ele>
        <time>2000-01-01T06:50:26.000Z</time>
      </trkpt>
      <trkpt lat="46.24765" lon="6.86855">
        <ele>1660.9</ele>
        <time>2000-01-01T06:50:36.000Z</time>
      </trkpt>
      <trkpt lat="46.24752" lon="6.86864">
        <ele>1670</ele>
        <time>2000-01-01T06:50:46.000Z</time>
      </trkpt>
      <trkpt lat="46.24736" lon="6.86872">
        <ele>1662.1</ele>
        <time>2000-01-01T06:50:56.000Z</time>
      </trkpt>
      <trkpt lat="46.24728" lon="6.86882">
        <ele>1660</ele>
        <time>2000-01-01T06:51:06.000Z</time>
      </trkpt>
      <trkpt lat="46.24721" lon="6.86885">
        <ele>1663.2</ele>
        <time>2000-01-01T06:51:16.000Z</time>
      </trkpt>
      <trkpt lat="46.2471" lon="6.86885">
        <ele>1661.1</ele>
        <time>2000-01-01T06:51:26.000Z</time>
      </trkpt>
      <trkpt lat="46.24708" lon="6.86883">
        <ele>1660</ele>
        <time>2000-01-01T06:51:36.000Z</time>
      </trkpt>
      <trkpt lat="46.24696" lon="6.86876">
        <ele>1658.8</ele>
        <time>2000-01-01T06:51:46.000Z</time>
      </trkpt>
      <trkpt lat="46.24687" lon="6.86864">
        <ele>1660</ele>
        <time>2000-01-01T06:51:56.000Z</time>
      </trkpt>
      <trkpt lat="46.24682" lon="6.86852">
        <ele>1656.1</ele>
        <time>2000-01-01T06:52:06.000Z</time>
      </trkpt>
      <trkpt lat="46.24676" lon="6.86841">
        <ele>1657</ele>
        <time>2000-01-01T06:52:16.000Z</time>
      </trkpt>
      <trkpt lat="46.24667" lon="6.86828">
        <ele>1654.1</ele>
        <time>2000-01-01T06:52:26.000Z</time>
      </trkpt>
      <trkpt lat="46.24657" lon="6.86811">
        <ele>1655</ele>
        <time>2000-01-01T06:52:36.000Z</time>
      </trkpt>
      <trkpt lat="46.24649" lon="6.86789">
        <ele>1651.2</ele>
        <time>2000-01-01T06:52:46.000Z</time>
      </trkpt>
      <trkpt lat="46.24644" lon="6.86762">
        <ele>1654</ele>
        <time>2000-01-01T06:52:56.000Z</time>
      </trkpt>
      <trkpt lat="46.24637" lon="6.8673">
        <ele>1647</ele>
        <time>2000-01-01T06:53:06.000Z</time>
      </trkpt>
      <trkpt lat="46.24636" lon="6.86694">
        <ele>1643</ele>
        <time>2000-01-01T06:53:16.000Z</time>
      </trkpt>
      <trkpt lat="46.24637" lon="6.86671">
        <ele>1639.6</ele>
        <time>2000-01-01T06:53:26.000Z</time>
      </trkpt>
      <trkpt lat="46.2464" lon="6.86652">
        <ele>1643</ele>
        <time>2000-01-01T06:53:36.000Z</time>
      </trkpt>
      <trkpt lat="46.24639" lon="6.8663">
        <ele>1636.4</ele>
        <time>2000-01-01T06:53:46.000Z</time>
      </trkpt>
      <trkpt lat="46.24632" lon="6.86606">
        <ele>1641</ele>
        <time>2000-01-01T06:53:56.000Z</time>
      </trkpt>
      <trkpt lat="46.24625" lon="6.86587">
        <ele>1633.2</ele>
        <time>2000-01-01T06:54:06.000Z</time>
      </trkpt>
      <trkpt lat="46.24616" lon="6.8657">
        <ele>1639</ele>
        <time>2000-01-01T06:54:16.000Z</time>
      </trkpt>
      <trkpt lat="46.24598" lon="6.86556">
        <ele>1630</ele>
        <time>2000-01-01T06:54:26.000Z</time>
      </trkpt>
      <trkpt lat="46.24598" lon="6.86555">
        <ele>1629.2</ele>
        <time>2000-01-01T06:54:36.000Z</time>
      </trkpt>
      <trkpt lat="46.24573" lon="6.86486">
        <ele>1632</ele>
        <time>2000-01-01T06:54:46.000Z</time>
      </trkpt>
      <trkpt lat="46.24585" lon="6.86422">
        <ele>1631</ele>
        <time>2000-01-01T06:54:56.000Z</time>
      </trkpt>
      <trkpt lat="46.2458" lon="6.8639">
        <ele>1637</ele>
        <time>2000-01-01T06:55:06.000Z</time>
      </trkpt>
      <trkpt lat="46.24593" lon="6.86328">
        <ele>1643</ele>
        <time>2000-01-01T06:55:16.000Z</time>
      </trkpt>
      <trkpt lat="46.24592" lon="6.86274">
        <ele>1641</ele>
        <time>2000-01-01T06:55:26.000Z</time>
      </trkpt>
      <trkpt lat="46.24588" lon="6.86222">
        <ele>1645</ele>
        <time>2000-01-01T06:55:36.000Z</time>
      </trkpt>
      <trkpt lat="46.24601" lon="6.86169">
        <ele>1649</ele>
        <time>2000-01-01T06:55:46.000Z</time>
      </trkpt>
      <trkpt lat="46.24617" lon="6.86117">
        <ele>1647</ele>
        <time>2000-01-01T06:55:56.000Z</time>
      </trkpt>
      <trkpt lat="46.24607" lon="6.86092">
        <ele>1646</ele>
        <time>2000-01-01T06:56:06.000Z</time>
      </trkpt>
      <trkpt lat="46.24607" lon="6.86049">
        <ele>1645</ele>
        <time>2000-01-01T06:56:16.000Z</time>
      </trkpt>
      <trkpt lat="46.24602" lon="6.86023">
        <ele>1643.3</ele>
        <time>2000-01-01T06:56:26.000Z</time>
      </trkpt>
      <trkpt lat="46.24596" lon="6.85967">
        <ele>1642</ele>
        <time>2000-01-01T06:56:36.000Z</time>
      </trkpt>
      <trkpt lat="46.24617" lon="6.85942">
        <ele>1643</ele>
        <time>2000-01-01T06:56:46.000Z</time>
      </trkpt>
      <trkpt lat="46.24645" lon="6.85907">
        <ele>1642</ele>
        <time>2000-01-01T06:56:56.000Z</time>
      </trkpt>
      <trkpt lat="46.24653" lon="6.85849">
        <ele>1642</ele>
        <time>2000-01-01T06:57:06.000Z</time>
      </trkpt>
      <trkpt lat="46.2469" lon="6.85813">
        <ele>1633</ele>
        <time>2000-01-01T06:57:16.000Z</time>
      </trkpt>
      <trkpt lat="46.24697" lon="6.85748">
        <ele>1632</ele>
        <time>2000-01-01T06:57:26.000Z</time>
      </trkpt>
      <trkpt lat="46.24712" lon="6.85742">
        <ele>1625.9</ele>
        <time>2000-01-01T06:57:36.000Z</time>
      </trkpt>
      <trkpt lat="46.24742" lon="6.85738">
        <ele>1637</ele>
        <time>2000-01-01T06:57:46.000Z</time>
      </trkpt>
      <trkpt lat="46.24767" lon="6.85744">
        <ele>1639</ele>
        <time>2000-01-01T06:57:56.000Z</time>
      </trkpt>
      <trkpt lat="46.24787" lon="6.85725">
        <ele>1638</ele>
        <time>2000-01-01T06:58:06.000Z</time>
      </trkpt>
      <trkpt lat="46.24809" lon="6.85705">
        <ele>1637</ele>
        <time>2000-01-01T06:58:16.000Z</time>
      </trkpt>
      <trkpt lat="46.24821" lon="6.85669">
        <ele>1632</ele>
        <time>2000-01-01T06:58:26.000Z</time>
      </trkpt>
      <trkpt lat="46.24838" lon="6.85619">
        <ele>1622</ele>
        <time>2000-01-01T06:58:36.000Z</time>
      </trkpt>
      <trkpt lat="46.24843" lon="6.85566">
        <ele>1615</ele>
        <time>2000-01-01T06:58:46.000Z</time>
      </trkpt>
      <trkpt lat="46.2485" lon="6.85529">
        <ele>1605</ele>
        <time>2000-01-01T06:58:56.000Z</time>
      </trkpt>
      <trkpt lat="46.24869" lon="6.85516">
        <ele>1605</ele>
        <time>2000-01-01T06:59:06.000Z</time>
      </trkpt>
      <trkpt lat="46.2489" lon="6.85489">
        <ele>1604</ele>
        <time>2000-01-01T06:59:16.000Z</time>
      </trkpt>
      <trkpt lat="46.24936" lon="6.85482">
        <ele>1604</ele>
        <time>2000-01-01T06:59:26.000Z</time>
      </trkpt>
      <trkpt lat="46.24959" lon="6.85489">
        <ele>1604</ele>
        <time>2000-01-01T06:59:36.000Z</time>
      </trkpt>
      <trkpt lat="46.24982" lon="6.85495">
        <ele>1600</ele>
        <time>2000-01-01T06:59:46.000Z</time>
      </trkpt>
      <trkpt lat="46.2499" lon="6.85489">
        <ele>1602.4</ele>
        <time>2000-01-01T06:59:56.000Z</time>
      </trkpt>
      <trkpt lat="46.25003" lon="6.8545">
        <ele>1596</ele>
        <time>2000-01-01T07:00:06.000Z</time>
      </trkpt>
      <trkpt lat="46.25017" lon="6.85421">
        <ele>1591</ele>
        <time>2000-01-01T07:00:16.000Z</time>
      </trkpt>
      <trkpt lat="46.25031" lon="6.8539">
        <ele>1584</ele>
        <time>2000-01-01T07:00:26.000Z</time>
      </trkpt>
      <trkpt lat="46.25064" lon="6.85368">
        <ele>1584</ele>
        <time>2000-01-01T07:00:36.000Z</time>
      </trkpt>
      <trkpt lat="46.25095" lon="6.85396">
        <ele>1585</ele>
        <time>2000-01-01T07:00:46.000Z</time>
      </trkpt>
      <trkpt lat="46.25131" lon="6.85388">
        <ele>1582</ele>
        <time>2000-01-01T07:00:56.000Z</time>
      </trkpt>
      <trkpt lat="46.25141" lon="6.85356">
        <ele>1579</ele>
        <time>2000-01-01T07:01:06.000Z</time>
      </trkpt>
      <trkpt lat="46.25131" lon="6.8533">
        <ele>1574</ele>
        <time>2000-01-01T07:01:16.000Z</time>
      </trkpt>
      <trkpt lat="46.25109" lon="6.85303">
        <ele>1573</ele>
        <time>2000-01-01T07:01:26.000Z</time>
      </trkpt>
      <trkpt lat="46.25076" lon="6.8526">
        <ele>1569</ele>
        <time>2000-01-01T07:01:36.000Z</time>
      </trkpt>
      <trkpt lat="46.25073" lon="6.85262">
        <ele>1565.8</ele>
        <time>2000-01-01T07:01:46.000Z</time>
      </trkpt>
      <trkpt lat="46.25046" lon="6.85271">
        <ele>1565</ele>
        <time>2000-01-01T07:01:56.000Z</time>
      </trkpt>
      <trkpt lat="46.25025" lon="6.85264">
        <ele>1560</ele>
        <time>2000-01-01T07:02:06.000Z</time>
      </trkpt>
      <trkpt lat="46.2501" lon="6.85272">
        <ele>1560.6</ele>
        <time>2000-01-01T07:02:16.000Z</time>
      </trkpt>
      <trkpt lat="46.24996" lon="6.85281">
        <ele>1556</ele>
        <time>2000-01-01T07:02:26.000Z</time>
      </trkpt>
      <trkpt lat="46.24958" lon="6.85318">
        <ele>1558</ele>
        <time>2000-01-01T07:02:36.000Z</time>
      </trkpt>
      <trkpt lat="46.24927" lon="6.85362">
        <ele>1556</ele>
        <time>2000-01-01T07:02:46.000Z</time>
      </trkpt>
      <trkpt lat="46.24904" lon="6.85357">
        <ele>1554</ele>
        <time>2000-01-01T07:02:56.000Z</time>
      </trkpt>
      <trkpt lat="46.2488" lon="6.85351">
        <ele>1549</ele>
        <time>2000-01-01T07:03:06.000Z</time>
      </trkpt>
      <trkpt lat="46.24847" lon="6.85347">
        <ele>1545</ele>
        <time>2000-01-01T07:03:16.000Z</time>
      </trkpt>
      <trkpt lat="46.24822" lon="6.85369">
        <ele>1545</ele>
        <time>2000-01-01T07:03:26.000Z</time>
      </trkpt>
      <trkpt lat="46.24801" lon="6.85386">
        <ele>1546</ele>
        <time>2000-01-01T07:03:36.000Z</time>
      </trkpt>
      <trkpt lat="46.2478" lon="6.85405">
        <ele>1546</ele>
        <time>2000-01-01T07:03:46.000Z</time>
      </trkpt>
      <trkpt lat="46.24764" lon="6.85465">
        <ele>1550</ele>
        <time>2000-01-01T07:03:56.000Z</time>
      </trkpt>
      <trkpt lat="46.24741" lon="6.8548">
        <ele>1549</ele>
        <time>2000-01-01T07:04:06.000Z</time>
      </trkpt>
      <trkpt lat="46.24715" lon="6.85495">
        <ele>1549</ele>
        <time>2000-01-01T07:04:16.000Z</time>
      </trkpt>
      <trkpt lat="46.24678" lon="6.85516">
        <ele>1541</ele>
        <time>2000-01-01T07:04:26.000Z</time>
      </trkpt>
      <trkpt lat="46.24651" lon="6.8554">
        <ele>1539</ele>
        <time>2000-01-01T07:04:36.000Z</time>
      </trkpt>
      <trkpt lat="46.24625" lon="6.85563">
        <ele>1536</ele>
        <time>2000-01-01T07:04:46.000Z</time>
      </trkpt>
      <trkpt lat="46.24598" lon="6.85587">
        <ele>1533</ele>
        <time>2000-01-01T07:04:56.000Z</time>
      </trkpt>
      <trkpt lat="46.24577" lon="6.85619">
        <ele>1535</ele>
        <time>2000-01-01T07:05:06.000Z</time>
      </trkpt>
      <trkpt lat="46.2456" lon="6.85646">
        <ele>1537</ele>
        <time>2000-01-01T07:05:16.000Z</time>
      </trkpt>
      <trkpt lat="46.24539" lon="6.8568">
        <ele>1536</ele>
        <time>2000-01-01T07:05:26.000Z</time>
      </trkpt>
      <trkpt lat="46.24504" lon="6.85697">
        <ele>1536</ele>
        <time>2000-01-01T07:05:36.000Z</time>
      </trkpt>
      <trkpt lat="46.24488" lon="6.85734">
        <ele>1537</ele>
        <time>2000-01-01T07:05:46.000Z</time>
      </trkpt>
      <trkpt lat="46.24474" lon="6.85766">
        <ele>1535</ele>
        <time>2000-01-01T07:05:56.000Z</time>
      </trkpt>
      <trkpt lat="46.24457" lon="6.85806">
        <ele>1534</ele>
        <time>2000-01-01T07:06:06.000Z</time>
      </trkpt>
      <trkpt lat="46.24448" lon="6.85841">
        <ele>1534</ele>
        <time>2000-01-01T07:06:16.000Z</time>
      </trkpt>
      <trkpt lat="46.24436" lon="6.85883">
        <ele>1531</ele>
        <time>2000-01-01T07:06:26.000Z</time>
      </trkpt>
      <trkpt lat="46.24412" lon="6.85894">
        <ele>1528</ele>
        <time>2000-01-01T07:06:36.000Z</time>
      </trkpt>
      <trkpt lat="46.24383" lon="6.85907">
        <ele>1519</ele>
        <time>2000-01-01T07:06:46.000Z</time>
      </trkpt>
      <trkpt lat="46.24366" lon="6.85935">
        <ele>1514</ele>
        <time>2000-01-01T07:06:56.000Z</time>
      </trkpt>
      <trkpt lat="46.24363" lon="6.85961">
        <ele>1516.7</ele>
        <time>2000-01-01T07:07:06.000Z</time>
      </trkpt>
      <trkpt lat="46.24349" lon="6.85913">
        <ele>1505</ele>
        <time>2000-01-01T07:07:16.000Z</time>
      </trkpt>
      <trkpt lat="46.24356" lon="6.85849">
        <ele>1504</ele>
        <time>2000-01-01T07:07:26.000Z</time>
      </trkpt>
      <trkpt lat="46.24383" lon="6.8581">
        <ele>1503</ele>
        <time>2000-01-01T07:07:36.000Z</time>
      </trkpt>
      <trkpt lat="46.24353" lon="6.85817">
        <ele>1493</ele>
        <time>2000-01-01T07:07:46.000Z</time>
      </trkpt>
      <trkpt lat="46.2432" lon="6.85864">
        <ele>1488</ele>
        <time>2000-01-01T07:07:56.000Z</time>
      </trkpt>
      <trkpt lat="46.24297" lon="6.85905">
        <ele>1484</ele>
        <time>2000-01-01T07:08:06.000Z</time>
      </trkpt>
      <trkpt lat="46.24283" lon="6.85892">
        <ele>1480.9</ele>
        <time>2000-01-01T07:08:16.000Z</time>
      </trkpt>
      <trkpt lat="46.24303" lon="6.85836">
        <ele>1480</ele>
        <time>2000-01-01T07:08:26.000Z</time>
      </trkpt>
      <trkpt lat="46.24292" lon="6.858">
        <ele>1478</ele>
        <time>2000-01-01T07:08:36.000Z</time>
      </trkpt>
      <trkpt lat="46.24313" lon="6.8578">
        <ele>1477</ele>
        <time>2000-01-01T07:08:46.000Z</time>
      </trkpt>
      <trkpt lat="46.24338" lon="6.85757">
        <ele>1477</ele>
        <time>2000-01-01T07:08:56.000Z</time>
      </trkpt>
      <trkpt lat="46.2436" lon="6.85723">
        <ele>1477</ele>
        <time>2000-01-01T07:09:06.000Z</time>
      </trkpt>
      <trkpt lat="46.24383" lon="6.8569">
        <ele>1477</ele>
        <time>2000-01-01T07:09:16.000Z</time>
      </trkpt>
      <trkpt lat="46.24409" lon="6.85649">
        <ele>1472</ele>
        <time>2000-01-01T07:09:26.000Z</time>
      </trkpt>
      <trkpt lat="46.24429" lon="6.85594">
        <ele>1468</ele>
        <time>2000-01-01T07:09:36.000Z</time>
      </trkpt>
      <trkpt lat="46.24455" lon="6.8557">
        <ele>1466</ele>
        <time>2000-01-01T07:09:46.000Z</time>
      </trkpt>
      <trkpt lat="46.24465" lon="6.85535">
        <ele>1465</ele>
        <time>2000-01-01T07:09:56.000Z</time>
      </trkpt>
      <trkpt lat="46.24476" lon="6.85491">
        <ele>1468</ele>
        <time>2000-01-01T07:10:06.000Z</time>
      </trkpt>
      <trkpt lat="46.24494" lon="6.85437">
        <ele>1465</ele>
        <time>2000-01-01T07:10:16.000Z</time>
      </trkpt>
      <trkpt lat="46.24501" lon="6.85392">
        <ele>1462</ele>
        <time>2000-01-01T07:10:26.000Z</time>
      </trkpt>
      <trkpt lat="46.24509" lon="6.85353">
        <ele>1457</ele>
        <time>2000-01-01T07:10:36.000Z</time>
      </trkpt>
      <trkpt lat="46.24521" lon="6.85295">
        <ele>1444</ele>
        <time>2000-01-01T07:10:46.000Z</time>
      </trkpt>
      <trkpt lat="46.24539" lon="6.85273">
        <ele>1439</ele>
        <time>2000-01-01T07:10:56.000Z</time>
      </trkpt>
      <trkpt lat="46.24558" lon="6.85248">
        <ele>1439</ele>
        <time>2000-01-01T07:11:06.000Z</time>
      </trkpt>
      <trkpt lat="46.2457" lon="6.85217">
        <ele>1438</ele>
        <time>2000-01-01T07:11:16.000Z</time>
      </trkpt>
      <trkpt lat="46.24583" lon="6.85184">
        <ele>1436</ele>
        <time>2000-01-01T07:11:26.000Z</time>
      </trkpt>
      <trkpt lat="46.24611" lon="6.85161">
        <ele>1436</ele>
        <time>2000-01-01T07:11:36.000Z</time>
      </trkpt>
      <trkpt lat="46.24636" lon="6.85141">
        <ele>1432</ele>
        <time>2000-01-01T07:11:46.000Z</time>
      </trkpt>
      <trkpt lat="46.24674" lon="6.85111">
        <ele>1424</ele>
        <time>2000-01-01T07:11:56.000Z</time>
      </trkpt>
      <trkpt lat="46.24698" lon="6.85107">
        <ele>1421</ele>
        <time>2000-01-01T07:12:06.000Z</time>
      </trkpt>
      <trkpt lat="46.24724" lon="6.85102">
        <ele>1419</ele>
        <time>2000-01-01T07:12:16.000Z</time>
      </trkpt>
      <trkpt lat="46.24746" lon="6.85081">
        <ele>1416</ele>
        <time>2000-01-01T07:12:26.000Z</time>
      </trkpt>
      <trkpt lat="46.24748" lon="6.85045">
        <ele>1408</ele>
        <time>2000-01-01T07:12:36.000Z</time>
      </trkpt>
      <trkpt lat="46.24751" lon="6.85006">
        <ele>1405</ele>
        <time>2000-01-01T07:12:46.000Z</time>
      </trkpt>
      <trkpt lat="46.24764" lon="6.84965">
        <ele>1404</ele>
        <time>2000-01-01T07:12:56.000Z</time>
      </trkpt>
      <trkpt lat="46.24785" lon="6.84927">
        <ele>1398</ele>
        <time>2000-01-01T07:13:06.000Z</time>
      </trkpt>
      <trkpt lat="46.24803" lon="6.84893">
        <ele>1398</ele>
        <time>2000-01-01T07:13:16.000Z</time>
      </trkpt>
      <trkpt lat="46.24819" lon="6.84864">
        <ele>1393</ele>
        <time>2000-01-01T07:13:26.000Z</time>
      </trkpt>
      <trkpt lat="46.24837" lon="6.8483">
        <ele>1389</ele>
        <time>2000-01-01T07:13:36.000Z</time>
      </trkpt>
      <trkpt lat="46.24868" lon="6.84815">
        <ele>1388</ele>
        <time>2000-01-01T07:13:46.000Z</time>
      </trkpt>
      <trkpt lat="46.24892" lon="6.84812">
        <ele>1385</ele>
        <time>2000-01-01T07:13:56.000Z</time>
      </trkpt>
      <trkpt lat="46.24918" lon="6.84808">
        <ele>1382</ele>
        <time>2000-01-01T07:14:06.000Z</time>
      </trkpt>
      <trkpt lat="46.2494" lon="6.8478">
        <ele>1378</ele>
        <time>2000-01-01T07:14:16.000Z</time>
      </trkpt>
      <trkpt lat="46.24957" lon="6.84756">
        <ele>1378</ele>
        <time>2000-01-01T07:14:26.000Z</time>
      </trkpt>
      <trkpt lat="46.24976" lon="6.84731">
        <ele>1377</ele>
        <time>2000-01-01T07:14:36.000Z</time>
      </trkpt>
      <trkpt lat="46.24978" lon="6.84716">
        <ele>1379</ele>
        <time>2000-01-01T07:14:46.000Z</time>
      </trkpt>
      <trkpt lat="46.24978" lon="6.84705">
        <ele>1377.9</ele>
        <time>2000-01-01T07:14:56.000Z</time>
      </trkpt>
      <trkpt lat="46.24966" lon="6.8471">
        <ele>1376</ele>
        <time>2000-01-01T07:15:06.000Z</time>
      </trkpt>
      <trkpt lat="46.24945" lon="6.84746">
        <ele>1372</ele>
        <time>2000-01-01T07:15:16.000Z</time>
      </trkpt>
      <trkpt lat="46.24902" lon="6.84765">
        <ele>1372</ele>
        <time>2000-01-01T07:15:26.000Z</time>
      </trkpt>
      <trkpt lat="46.24929" lon="6.84727">
        <ele>1370</ele>
        <time>2000-01-01T07:15:36.000Z</time>
      </trkpt>
      <trkpt lat="46.24939" lon="6.84687">
        <ele>1370</ele>
        <time>2000-01-01T07:15:46.000Z</time>
      </trkpt>
      <trkpt lat="46.24948" lon="6.84654">
        <ele>1370</ele>
        <time>2000-01-01T07:15:56.000Z</time>
      </trkpt>
      <trkpt lat="46.24957" lon="6.84617">
        <ele>1370</ele>
        <time>2000-01-01T07:16:06.000Z</time>
      </trkpt>
      <trkpt lat="46.24957" lon="6.84602">
        <ele>1370.3</ele>
        <time>2000-01-01T07:16:16.000Z</time>
      </trkpt>
      <trkpt lat="46.24893" lon="6.84609">
        <ele>1374</ele>
        <time>2000-01-01T07:16:26.000Z</time>
      </trkpt>
      <trkpt lat="46.24859" lon="6.84619">
        <ele>1376</ele>
        <time>2000-01-01T07:16:36.000Z</time>
      </trkpt>
      <trkpt lat="46.24826" lon="6.84628">
        <ele>1376</ele>
        <time>2000-01-01T07:16:46.000Z</time>
      </trkpt>
      <trkpt lat="46.248" lon="6.84635">
        <ele>1376</ele>
        <time>2000-01-01T07:16:56.000Z</time>
      </trkpt>
      <trkpt lat="46.24767" lon="6.84645">
        <ele>1376</ele>
        <time>2000-01-01T07:17:06.000Z</time>
      </trkpt>
      <trkpt lat="46.24742" lon="6.84649">
        <ele>1376</ele>
        <time>2000-01-01T07:17:16.000Z</time>
      </trkpt>
      <trkpt lat="46.24714" lon="6.84653">
        <ele>1377</ele>
        <time>2000-01-01T07:17:26.000Z</time>
      </trkpt>
      <trkpt lat="46.24688" lon="6.84656">
        <ele>1377</ele>
        <time>2000-01-01T07:17:36.000Z</time>
      </trkpt>
      <trkpt lat="46.24659" lon="6.84677">
        <ele>1378</ele>
        <time>2000-01-01T07:17:46.000Z</time>
      </trkpt>
      <trkpt lat="46.24628" lon="6.84677">
        <ele>1379</ele>
        <time>2000-01-01T07:17:56.000Z</time>
      </trkpt>
      <trkpt lat="46.24608" lon="6.84696">
        <ele>1378</ele>
        <time>2000-01-01T07:18:06.000Z</time>
      </trkpt>
      <trkpt lat="46.24585" lon="6.84718">
        <ele>1378</ele>
        <time>2000-01-01T07:18:16.000Z</time>
      </trkpt>
      <trkpt lat="46.24556" lon="6.84726">
        <ele>1378</ele>
        <time>2000-01-01T07:18:26.000Z</time>
      </trkpt>
      <trkpt lat="46.24533" lon="6.84731">
        <ele>1379</ele>
        <time>2000-01-01T07:18:36.000Z</time>
      </trkpt>
      <trkpt lat="46.24509" lon="6.84738">
        <ele>1379</ele>
        <time>2000-01-01T07:18:46.000Z</time>
      </trkpt>
      <trkpt lat="46.24473" lon="6.84757">
        <ele>1380</ele>
        <time>2000-01-01T07:18:56.000Z</time>
      </trkpt>
      <trkpt lat="46.24451" lon="6.84782">
        <ele>1380</ele>
        <time>2000-01-01T07:19:06.000Z</time>
      </trkpt>
      <trkpt lat="46.24417" lon="6.84819">
        <ele>1381</ele>
        <time>2000-01-01T07:19:16.000Z</time>
      </trkpt>
      <trkpt lat="46.2442" lon="6.84853">
        <ele>1381</ele>
        <time>2000-01-01T07:19:26.000Z</time>
      </trkpt>
      <trkpt lat="46.24423" lon="6.8489">
        <ele>1382</ele>
        <time>2000-01-01T07:19:36.000Z</time>
      </trkpt>
      <trkpt lat="46.24398" lon="6.84941">
        <ele>1382</ele>
        <time>2000-01-01T07:19:46.000Z</time>
      </trkpt>
      <trkpt lat="46.24376" lon="6.84964">
        <ele>1382</ele>
        <time>2000-01-01T07:19:56.000Z</time>
      </trkpt>
      <trkpt lat="46.24346" lon="6.84997">
        <ele>1382</ele>
        <time>2000-01-01T07:20:06.000Z</time>
      </trkpt>
      <trkpt lat="46.24328" lon="6.85036">
        <ele>1382</ele>
        <time>2000-01-01T07:20:16.000Z</time>
      </trkpt>
      <trkpt lat="46.24297" lon="6.8505">
        <ele>1382</ele>
        <time>2000-01-01T07:20:26.000Z</time>
      </trkpt>
      <trkpt lat="46.24267" lon="6.85065">
        <ele>1378</ele>
        <time>2000-01-01T07:20:36.000Z</time>
      </trkpt>
      <trkpt lat="46.24228" lon="6.85083">
        <ele>1374</ele>
        <time>2000-01-01T07:20:46.000Z</time>
      </trkpt>
      <trkpt lat="46.24196" lon="6.85084">
        <ele>1370</ele>
        <time>2000-01-01T07:20:56.000Z</time>
      </trkpt>
      <trkpt lat="46.24164" lon="6.85084">
        <ele>1369</ele>
        <time>2000-01-01T07:21:06.000Z</time>
      </trkpt>
      <trkpt lat="46.24126" lon="6.85085">
        <ele>1367</ele>
        <time>2000-01-01T07:21:16.000Z</time>
      </trkpt>
      <trkpt lat="46.24101" lon="6.85088">
        <ele>1366</ele>
        <time>2000-01-01T07:21:26.000Z</time>
      </trkpt>
      <trkpt lat="46.24074" lon="6.85092">
        <ele>1364</ele>
        <time>2000-01-01T07:21:36.000Z</time>
      </trkpt>
      <trkpt lat="46.24047" lon="6.85104">
        <ele>1363</ele>
        <time>2000-01-01T07:21:46.000Z</time>
      </trkpt>
      <trkpt lat="46.24006" lon="6.85124">
        <ele>1360</ele>
        <time>2000-01-01T07:21:56.000Z</time>
      </trkpt>
      <trkpt lat="46.23974" lon="6.85112">
        <ele>1358</ele>
        <time>2000-01-01T07:22:06.000Z</time>
      </trkpt>
      <trkpt lat="46.23943" lon="6.85101">
        <ele>1355</ele>
        <time>2000-01-01T07:22:16.000Z</time>
      </trkpt>
      <trkpt lat="46.239" lon="6.85085">
        <ele>1352</ele>
        <time>2000-01-01T07:22:26.000Z</time>
      </trkpt>
      <trkpt lat="46.23878" lon="6.85101">
        <ele>1350</ele>
        <time>2000-01-01T07:22:36.000Z</time>
      </trkpt>
      <trkpt lat="46.23853" lon="6.85119">
        <ele>1349</ele>
        <time>2000-01-01T07:22:46.000Z</time>
      </trkpt>
      <trkpt lat="46.23831" lon="6.85134">
        <ele>1348</ele>
        <time>2000-01-01T07:22:56.000Z</time>
      </trkpt>
      <trkpt lat="46.23805" lon="6.85146">
        <ele>1346</ele>
        <time>2000-01-01T07:23:06.000Z</time>
      </trkpt>
      <trkpt lat="46.23771" lon="6.8516">
        <ele>1346</ele>
        <time>2000-01-01T07:23:16.000Z</time>
      </trkpt>
      <trkpt lat="46.23736" lon="6.85192">
        <ele>1343</ele>
        <time>2000-01-01T07:23:26.000Z</time>
      </trkpt>
      <trkpt lat="46.23721" lon="6.85223">
        <ele>1341</ele>
        <time>2000-01-01T07:23:36.000Z</time>
      </trkpt>
      <trkpt lat="46.23702" lon="6.85261">
        <ele>1339</ele>
        <time>2000-01-01T07:23:46.000Z</time>
      </trkpt>
      <trkpt lat="46.23676" lon="6.85279">
        <ele>1338</ele>
        <time>2000-01-01T07:23:56.000Z</time>
      </trkpt>
      <trkpt lat="46.23654" lon="6.85294">
        <ele>1335</ele>
        <time>2000-01-01T07:24:06.000Z</time>
      </trkpt>
      <trkpt lat="46.23632" lon="6.8531">
        <ele>1334</ele>
        <time>2000-01-01T07:24:16.000Z</time>
      </trkpt>
      <trkpt lat="46.23627" lon="6.85343">
        <ele>1331</ele>
        <time>2000-01-01T07:24:26.000Z</time>
      </trkpt>
      <trkpt lat="46.23638" lon="6.85373">
        <ele>1330</ele>
        <time>2000-01-01T07:24:36.000Z</time>
      </trkpt>
      <trkpt lat="46.23659" lon="6.85392">
        <ele>1326</ele>
        <time>2000-01-01T07:24:46.000Z</time>
      </trkpt>
      <trkpt lat="46.23684" lon="6.85416">
        <ele>1324</ele>
        <time>2000-01-01T07:24:56.000Z</time>
      </trkpt>
      <trkpt lat="46.23696" lon="6.85454">
        <ele>1322</ele>
        <time>2000-01-01T07:25:06.000Z</time>
      </trkpt>
      <trkpt lat="46.23694" lon="6.85495">
        <ele>1321</ele>
        <time>2000-01-01T07:25:16.000Z</time>
      </trkpt>
      <trkpt lat="46.23691" lon="6.85559">
        <ele>1319</ele>
        <time>2000-01-01T07:25:26.000Z</time>
      </trkpt>
      <trkpt lat="46.237" lon="6.85596">
        <ele>1318</ele>
        <time>2000-01-01T07:25:36.000Z</time>
      </trkpt>
      <trkpt lat="46.23712" lon="6.85649">
        <ele>1317</ele>
        <time>2000-01-01T07:25:46.000Z</time>
      </trkpt>
      <trkpt lat="46.23707" lon="6.85688">
        <ele>1317</ele>
        <time>2000-01-01T07:25:56.000Z</time>
      </trkpt>
      <trkpt lat="46.237" lon="6.85742">
        <ele>1316</ele>
        <time>2000-01-01T07:26:06.000Z</time>
      </trkpt>
      <trkpt lat="46.23693" lon="6.85804">
        <ele>1316</ele>
        <time>2000-01-01T07:26:16.000Z</time>
      </trkpt>
      <trkpt lat="46.23658" lon="6.85798">
        <ele>1321</ele>
        <time>2000-01-01T07:26:26.000Z</time>
      </trkpt>
      <trkpt lat="46.23636" lon="6.85815">
        <ele>1327</ele>
        <time>2000-01-01T07:26:36.000Z</time>
      </trkpt>
      <trkpt lat="46.23613" lon="6.85825">
        <ele>1332</ele>
        <time>2000-01-01T07:26:46.000Z</time>
      </trkpt>
      <trkpt lat="46.23589" lon="6.85836">
        <ele>1339</ele>
        <time>2000-01-01T07:26:56.000Z</time>
      </trkpt>
      <trkpt lat="46.23558" lon="6.85844">
        <ele>1359</ele>
        <time>2000-01-01T07:27:06.000Z</time>
      </trkpt>
      <trkpt lat="46.23528" lon="6.85852">
        <ele>1377</ele>
        <time>2000-01-01T07:27:16.000Z</time>
      </trkpt>
      <trkpt lat="46.23497" lon="6.8586">
        <ele>1396</ele>
        <time>2000-01-01T07:27:26.000Z</time>
      </trkpt>
      <trkpt lat="46.23458" lon="6.8587">
        <ele>1426</ele>
        <time>2000-01-01T07:27:36.000Z</time>
      </trkpt>
      <trkpt lat="46.23419" lon="6.8588">
        <ele>1451</ele>
        <time>2000-01-01T07:27:46.000Z</time>
      </trkpt>
      <trkpt lat="46.2338" lon="6.8589">
        <ele>1480</ele>
        <time>2000-01-01T07:27:56.000Z</time>
      </trkpt>
      <trkpt lat="46.23341" lon="6.85899">
        <ele>1499</ele>
        <time>2000-01-01T07:28:06.000Z</time>
      </trkpt>
      <trkpt lat="46.23302" lon="6.85909">
        <ele>1527</ele>
        <time>2000-01-01T07:28:16.000Z</time>
      </trkpt>
      <trkpt lat="46.23275" lon="6.85916">
        <ele>1542</ele>
        <time>2000-01-01T07:28:26.000Z</time>
      </trkpt>
      <trkpt lat="46.23236" lon="6.85926">
        <ele>1562</ele>
        <time>2000-01-01T07:28:36.000Z</time>
      </trkpt>
      <trkpt lat="46.23204" lon="6.85935">
        <ele>1573</ele>
        <time>2000-01-01T07:28:46.000Z</time>
      </trkpt>
      <trkpt lat="46.23172" lon="6.85943">
        <ele>1586</ele>
        <time>2000-01-01T07:28:56.000Z</time>
      </trkpt>
      <trkpt lat="46.2313" lon="6.85955">
        <ele>1600</ele>
        <time>2000-01-01T07:29:06.000Z</time>
      </trkpt>
      <trkpt lat="46.23092" lon="6.85966">
        <ele>1609</ele>
        <time>2000-01-01T07:29:16.000Z</time>
      </trkpt>
      <trkpt lat="46.23054" lon="6.85976">
        <ele>1625</ele>
        <time>2000-01-01T07:29:26.000Z</time>
      </trkpt>
      <trkpt lat="46.23016" lon="6.85987">
        <ele>1642</ele>
        <time>2000-01-01T07:29:36.000Z</time>
      </trkpt>
      <trkpt lat="46.22978" lon="6.85998">
        <ele>1654</ele>
        <time>2000-01-01T07:29:46.000Z</time>
      </trkpt>
      <trkpt lat="46.22949" lon="6.86006">
        <ele>1665</ele>
        <time>2000-01-01T07:29:56.000Z</time>
      </trkpt>
      <trkpt lat="46.22926" lon="6.86012">
        <ele>1672</ele>
        <time>2000-01-01T07:30:06.000Z</time>
      </trkpt>
      <trkpt lat="46.22903" lon="6.86019">
        <ele>1678</ele>
        <time>2000-01-01T07:30:16.000Z</time>
      </trkpt>
      <trkpt lat="46.22871" lon="6.86028">
        <ele>1684</ele>
        <time>2000-01-01T07:30:26.000Z</time>
      </trkpt>
      <trkpt lat="46.22838" lon="6.86036">
        <ele>1694</ele>
        <time>2000-01-01T07:30:36.000Z</time>
      </trkpt>
      <trkpt lat="46.22815" lon="6.86043">
        <ele>1699</ele>
        <time>2000-01-01T07:30:46.000Z</time>
      </trkpt>
      <trkpt lat="46.22792" lon="6.86049">
        <ele>1704</ele>
        <time>2000-01-01T07:30:56.000Z</time>
      </trkpt>
      <trkpt lat="46.22751" lon="6.86061">
        <ele>1718</ele>
        <time>2000-01-01T07:31:06.000Z</time>
      </trkpt>
      <trkpt lat="46.22714" lon="6.86071">
        <ele>1737</ele>
        <time>2000-01-01T07:31:16.000Z</time>
      </trkpt>
      <trkpt lat="46.22677" lon="6.86081">
        <ele>1754</ele>
        <time>2000-01-01T07:31:26.000Z</time>
      </trkpt>
      <trkpt lat="46.2264" lon="6.86091">
        <ele>1765</ele>
        <time>2000-01-01T07:31:36.000Z</time>
      </trkpt>
      <trkpt lat="46.22603" lon="6.86101">
        <ele>1778</ele>
        <time>2000-01-01T07:31:46.000Z</time>
      </trkpt>
      <trkpt lat="46.22561" lon="6.86113">
        <ele>1793</ele>
        <time>2000-01-01T07:31:56.000Z</time>
      </trkpt>
      <trkpt lat="46.22537" lon="6.86119">
        <ele>1801</ele>
        <time>2000-01-01T07:32:06.000Z</time>
      </trkpt>
      <trkpt lat="46.22514" lon="6.86126">
        <ele>1807</ele>
        <time>2000-01-01T07:32:16.000Z</time>
      </trkpt>
      <trkpt lat="46.22483" lon="6.86142">
        <ele>1807</ele>
        <time>2000-01-01T07:32:26.000Z</time>
      </trkpt>
      <trkpt lat="46.22455" lon="6.86157">
        <ele>1807</ele>
        <time>2000-01-01T07:32:36.000Z</time>
      </trkpt>
      <trkpt lat="46.22433" lon="6.86169">
        <ele>1805</ele>
        <time>2000-01-01T07:32:46.000Z</time>
      </trkpt>
      <trkpt lat="46.22409" lon="6.86182">
        <ele>1799</ele>
        <time>2000-01-01T07:32:56.000Z</time>
      </trkpt>
      <trkpt lat="46.22383" lon="6.86181">
        <ele>1795</ele>
        <time>2000-01-01T07:33:06.000Z</time>
      </trkpt>
      <trkpt lat="46.22349" lon="6.86179">
        <ele>1789</ele>
        <time>2000-01-01T07:33:16.000Z</time>
      </trkpt>
      <trkpt lat="46.22309" lon="6.86169">
        <ele>1783</ele>
        <time>2000-01-01T07:33:26.000Z</time>
      </trkpt>
      <trkpt lat="46.22274" lon="6.86186">
        <ele>1771</ele>
        <time>2000-01-01T07:33:36.000Z</time>
      </trkpt>
      <trkpt lat="46.22249" lon="6.86186">
        <ele>1764</ele>
        <time>2000-01-01T07:33:46.000Z</time>
      </trkpt>
      <trkpt lat="46.22222" lon="6.86186">
        <ele>1761</ele>
        <time>2000-01-01T07:33:56.000Z</time>
      </trkpt>
      <trkpt lat="46.22185" lon="6.8619">
        <ele>1750</ele>
        <time>2000-01-01T07:34:06.000Z</time>
      </trkpt>
      <trkpt lat="46.22164" lon="6.8621">
        <ele>1742</ele>
        <time>2000-01-01T07:34:16.000Z</time>
      </trkpt>
      <trkpt lat="46.2214" lon="6.86233">
        <ele>1737</ele>
        <time>2000-01-01T07:34:26.000Z</time>
      </trkpt>
      <trkpt lat="46.22118" lon="6.86184">
        <ele>1733</ele>
        <time>2000-01-01T07:34:36.000Z</time>
      </trkpt>
      <trkpt lat="46.22078" lon="6.86173">
        <ele>1730</ele>
        <time>2000-01-01T07:34:46.000Z</time>
      </trkpt>
      <trkpt lat="46.2207" lon="6.86135">
        <ele>1731</ele>
        <time>2000-01-01T07:34:56.000Z</time>
      </trkpt>
      <trkpt lat="46.2206" lon="6.86079">
        <ele>1732</ele>
        <time>2000-01-01T07:35:06.000Z</time>
      </trkpt>
      <trkpt lat="46.22042" lon="6.8605">
        <ele>1732</ele>
        <time>2000-01-01T07:35:16.000Z</time>
      </trkpt>
      <trkpt lat="46.22018" lon="6.86012">
        <ele>1733</ele>
        <time>2000-01-01T07:35:26.000Z</time>
      </trkpt>
      <trkpt lat="46.22007" lon="6.85982">
        <ele>1735</ele>
        <time>2000-01-01T07:35:36.000Z</time>
      </trkpt>
      <trkpt lat="46.21996" lon="6.8595">
        <ele>1738</ele>
        <time>2000-01-01T07:35:46.000Z</time>
      </trkpt>
      <trkpt lat="46.21972" lon="6.85942">
        <ele>1738</ele>
        <time>2000-01-01T07:35:56.000Z</time>
      </trkpt>
      <trkpt lat="46.21943" lon="6.85933">
        <ele>1737</ele>
        <time>2000-01-01T07:36:06.000Z</time>
      </trkpt>
      <trkpt lat="46.2191" lon="6.85939">
        <ele>1737</ele>
        <time>2000-01-01T07:36:16.000Z</time>
      </trkpt>
      <trkpt lat="46.21878" lon="6.85945">
        <ele>1737</ele>
        <time>2000-01-01T07:36:26.000Z</time>
      </trkpt>
      <trkpt lat="46.21854" lon="6.8595">
        <ele>1738</ele>
        <time>2000-01-01T07:36:36.000Z</time>
      </trkpt>
      <trkpt lat="46.21831" lon="6.85954">
        <ele>1738</ele>
        <time>2000-01-01T07:36:46.000Z</time>
      </trkpt>
      <trkpt lat="46.21805" lon="6.85987">
        <ele>1738</ele>
        <time>2000-01-01T07:36:56.000Z</time>
      </trkpt>
      <trkpt lat="46.21778" lon="6.8602">
        <ele>1739</ele>
        <time>2000-01-01T07:37:06.000Z</time>
      </trkpt>
      <trkpt lat="46.21757" lon="6.86046">
        <ele>1739</ele>
        <time>2000-01-01T07:37:16.000Z</time>
      </trkpt>
      <trkpt lat="46.21726" lon="6.86085">
        <ele>1735</ele>
        <time>2000-01-01T07:37:26.000Z</time>
      </trkpt>
      <trkpt lat="46.21696" lon="6.86124">
        <ele>1735</ele>
        <time>2000-01-01T07:37:36.000Z</time>
      </trkpt>
      <trkpt lat="46.21669" lon="6.86085">
        <ele>1736</ele>
        <time>2000-01-01T07:37:46.000Z</time>
      </trkpt>
      <trkpt lat="46.21645" lon="6.86052">
        <ele>1738</ele>
        <time>2000-01-01T07:37:56.000Z</time>
      </trkpt>
      <trkpt lat="46.21621" lon="6.86018">
        <ele>1740</ele>
        <time>2000-01-01T07:38:06.000Z</time>
      </trkpt>
      <trkpt lat="46.21604" lon="6.85995">
        <ele>1743</ele>
        <time>2000-01-01T07:38:16.000Z</time>
      </trkpt>
      <trkpt lat="46.21587" lon="6.8597">
        <ele>1744</ele>
        <time>2000-01-01T07:38:26.000Z</time>
      </trkpt>
      <trkpt lat="46.21569" lon="6.85944">
        <ele>1744</ele>
        <time>2000-01-01T07:38:36.000Z</time>
      </trkpt>
      <trkpt lat="46.21548" lon="6.85913">
        <ele>1745</ele>
        <time>2000-01-01T07:38:46.000Z</time>
      </trkpt>
      <trkpt lat="46.21527" lon="6.85873">
        <ele>1748</ele>
        <time>2000-01-01T07:38:56.000Z</time>
      </trkpt>
      <trkpt lat="46.21507" lon="6.85832">
        <ele>1749</ele>
        <time>2000-01-01T07:39:06.000Z</time>
      </trkpt>
      <trkpt lat="46.2149" lon="6.858">
        <ele>1752</ele>
        <time>2000-01-01T07:39:16.000Z</time>
      </trkpt>
      <trkpt lat="46.21467" lon="6.85755">
        <ele>1751</ele>
        <time>2000-01-01T07:39:26.000Z</time>
      </trkpt>
      <trkpt lat="46.21439" lon="6.85723">
        <ele>1750</ele>
        <time>2000-01-01T07:39:36.000Z</time>
      </trkpt>
      <trkpt lat="46.21411" lon="6.85691">
        <ele>1750</ele>
        <time>2000-01-01T07:39:46.000Z</time>
      </trkpt>
      <trkpt lat="46.21383" lon="6.85659">
        <ele>1750</ele>
        <time>2000-01-01T07:39:56.000Z</time>
      </trkpt>
      <trkpt lat="46.21364" lon="6.85638">
        <ele>1750</ele>
        <time>2000-01-01T07:40:06.000Z</time>
      </trkpt>
      <trkpt lat="46.21346" lon="6.85617">
        <ele>1750</ele>
        <time>2000-01-01T07:40:16.000Z</time>
      </trkpt>
      <trkpt lat="46.21322" lon="6.85593">
        <ele>1748</ele>
        <time>2000-01-01T07:40:26.000Z</time>
      </trkpt>
      <trkpt lat="46.21302" lon="6.85573">
        <ele>1747</ele>
        <time>2000-01-01T07:40:36.000Z</time>
      </trkpt>
      <trkpt lat="46.2128" lon="6.85551">
        <ele>1748</ele>
        <time>2000-01-01T07:40:46.000Z</time>
      </trkpt>
      <trkpt lat="46.21263" lon="6.85517">
        <ele>1749</ele>
        <time>2000-01-01T07:40:56.000Z</time>
      </trkpt>
      <trkpt lat="46.21236" lon="6.85463">
        <ele>1749</ele>
        <time>2000-01-01T07:41:06.000Z</time>
      </trkpt>
      <trkpt lat="46.21207" lon="6.85433">
        <ele>1748</ele>
        <time>2000-01-01T07:41:16.000Z</time>
      </trkpt>
      <trkpt lat="46.21178" lon="6.85403">
        <ele>1748</ele>
        <time>2000-01-01T07:41:26.000Z</time>
      </trkpt>
      <trkpt lat="46.21149" lon="6.85373">
        <ele>1745</ele>
        <time>2000-01-01T07:41:36.000Z</time>
      </trkpt>
      <trkpt lat="46.21111" lon="6.85334">
        <ele>1744</ele>
        <time>2000-01-01T07:41:46.000Z</time>
      </trkpt>
      <trkpt lat="46.21119" lon="6.85374">
        <ele>1736</ele>
        <time>2000-01-01T07:41:56.000Z</time>
      </trkpt>
      <trkpt lat="46.21132" lon="6.85437">
        <ele>1732</ele>
        <time>2000-01-01T07:42:06.000Z</time>
      </trkpt>
      <trkpt lat="46.21113" lon="6.85464">
        <ele>1722</ele>
        <time>2000-01-01T07:42:16.000Z</time>
      </trkpt>
      <trkpt lat="46.21087" lon="6.85499">
        <ele>1713</ele>
        <time>2000-01-01T07:42:26.000Z</time>
      </trkpt>
      <trkpt lat="46.21058" lon="6.8553">
        <ele>1708</ele>
        <time>2000-01-01T07:42:36.000Z</time>
      </trkpt>
      <trkpt lat="46.21029" lon="6.85562">
        <ele>1706</ele>
        <time>2000-01-01T07:42:46.000Z</time>
      </trkpt>
      <trkpt lat="46.21" lon="6.85593">
        <ele>1704</ele>
        <time>2000-01-01T07:42:56.000Z</time>
      </trkpt>
      <trkpt lat="46.2098" lon="6.85614">
        <ele>1702</ele>
        <time>2000-01-01T07:43:06.000Z</time>
      </trkpt>
      <trkpt lat="46.20957" lon="6.85639">
        <ele>1700</ele>
        <time>2000-01-01T07:43:16.000Z</time>
      </trkpt>
      <trkpt lat="46.20932" lon="6.85656">
        <ele>1697</ele>
        <time>2000-01-01T07:43:26.000Z</time>
      </trkpt>
      <trkpt lat="46.20899" lon="6.8568">
        <ele>1697</ele>
        <time>2000-01-01T07:43:36.000Z</time>
      </trkpt>
      <trkpt lat="46.2088" lon="6.85654">
        <ele>1697</ele>
        <time>2000-01-01T07:43:46.000Z</time>
      </trkpt>
      <trkpt lat="46.20857" lon="6.85624">
        <ele>1698</ele>
        <time>2000-01-01T07:43:56.000Z</time>
      </trkpt>
      <trkpt lat="46.20835" lon="6.85652">
        <ele>1699</ele>
        <time>2000-01-01T07:44:06.000Z</time>
      </trkpt>
      <trkpt lat="46.20817" lon="6.85676">
        <ele>1702</ele>
        <time>2000-01-01T07:44:16.000Z</time>
      </trkpt>
      <trkpt lat="46.20798" lon="6.85701">
        <ele>1703</ele>
        <time>2000-01-01T07:44:26.000Z</time>
      </trkpt>
      <trkpt lat="46.20775" lon="6.85726">
        <ele>1705</ele>
        <time>2000-01-01T07:44:36.000Z</time>
      </trkpt>
      <trkpt lat="46.2074" lon="6.85765">
        <ele>1705</ele>
        <time>2000-01-01T07:44:46.000Z</time>
      </trkpt>
      <trkpt lat="46.20714" lon="6.85771">
        <ele>1706</ele>
        <time>2000-01-01T07:44:56.000Z</time>
      </trkpt>
      <trkpt lat="46.20683" lon="6.85778">
        <ele>1706</ele>
        <time>2000-01-01T07:45:06.000Z</time>
      </trkpt>
      <trkpt lat="46.20666" lon="6.85804">
        <ele>1706</ele>
        <time>2000-01-01T07:45:16.000Z</time>
      </trkpt>
      <trkpt lat="46.20653" lon="6.85837">
        <ele>1702</ele>
        <time>2000-01-01T07:45:26.000Z</time>
      </trkpt>
      <trkpt lat="46.20617" lon="6.85844">
        <ele>1702</ele>
        <time>2000-01-01T07:45:36.000Z</time>
      </trkpt>
      <trkpt lat="46.2059" lon="6.85836">
        <ele>1705</ele>
        <time>2000-01-01T07:45:46.000Z</time>
      </trkpt>
      <trkpt lat="46.20554" lon="6.85826">
        <ele>1705</ele>
        <time>2000-01-01T07:45:56.000Z</time>
      </trkpt>
      <trkpt lat="46.20519" lon="6.85836">
        <ele>1700</ele>
        <time>2000-01-01T07:46:06.000Z</time>
      </trkpt>
      <trkpt lat="46.20503" lon="6.85826">
        <ele>1700.6</ele>
        <time>2000-01-01T07:46:16.000Z</time>
      </trkpt>
      <trkpt lat="46.20507" lon="6.85851">
        <ele>1697</ele>
        <time>2000-01-01T07:46:26.000Z</time>
      </trkpt>
      <trkpt lat="46.20519" lon="6.8586">
        <ele>1694.4</ele>
        <time>2000-01-01T07:46:36.000Z</time>
      </trkpt>
      <trkpt lat="46.20563" lon="6.85868">
        <ele>1695</ele>
        <time>2000-01-01T07:46:46.000Z</time>
      </trkpt>
      <trkpt lat="46.20589" lon="6.85897">
        <ele>1691</ele>
        <time>2000-01-01T07:46:56.000Z</time>
      </trkpt>
      <trkpt lat="46.20614" lon="6.85904">
        <ele>1686</ele>
        <time>2000-01-01T07:47:06.000Z</time>
      </trkpt>
      <trkpt lat="46.20642" lon="6.85913">
        <ele>1684</ele>
        <time>2000-01-01T07:47:16.000Z</time>
      </trkpt>
      <trkpt lat="46.20666" lon="6.8592">
        <ele>1684</ele>
        <time>2000-01-01T07:47:26.000Z</time>
      </trkpt>
      <trkpt lat="46.20693" lon="6.85928">
        <ele>1682</ele>
        <time>2000-01-01T07:47:36.000Z</time>
      </trkpt>
      <trkpt lat="46.20716" lon="6.85941">
        <ele>1676</ele>
        <time>2000-01-01T07:47:46.000Z</time>
      </trkpt>
      <trkpt lat="46.20743" lon="6.85956">
        <ele>1674</ele>
        <time>2000-01-01T07:47:56.000Z</time>
      </trkpt>
      <trkpt lat="46.20742" lon="6.85985">
        <ele>1667</ele>
        <time>2000-01-01T07:48:06.000Z</time>
      </trkpt>
      <trkpt lat="46.20708" lon="6.86024">
        <ele>1664</ele>
        <time>2000-01-01T07:48:16.000Z</time>
      </trkpt>
      <trkpt lat="46.20683" lon="6.86029">
        <ele>1665</ele>
        <time>2000-01-01T07:48:26.000Z</time>
      </trkpt>
      <trkpt lat="46.20672" lon="6.85997">
        <ele>1666</ele>
        <time>2000-01-01T07:48:36.000Z</time>
      </trkpt>
      <trkpt lat="46.2066" lon="6.85961">
        <ele>1666</ele>
        <time>2000-01-01T07:48:46.000Z</time>
      </trkpt>
      <trkpt lat="46.20664" lon="6.85995">
        <ele>1667</ele>
        <time>2000-01-01T07:48:56.000Z</time>
      </trkpt>
      <trkpt lat="46.20656" lon="6.85947">
        <ele>1678</ele>
        <time>2000-01-01T07:49:06.000Z</time>
      </trkpt>
      <trkpt lat="46.20648" lon="6.85899">
        <ele>1690</ele>
        <time>2000-01-01T07:49:16.000Z</time>
      </trkpt>
      <trkpt lat="46.20642" lon="6.85862">
        <ele>1696</ele>
        <time>2000-01-01T07:49:26.000Z</time>
      </trkpt>
      <trkpt lat="46.20634" lon="6.85816">
        <ele>1706</ele>
        <time>2000-01-01T07:49:36.000Z</time>
      </trkpt>
      <trkpt lat="46.20625" lon="6.85756">
        <ele>1718</ele>
        <time>2000-01-01T07:49:46.000Z</time>
      </trkpt>
      <trkpt lat="46.20616" lon="6.85701">
        <ele>1730</ele>
        <time>2000-01-01T07:49:56.000Z</time>
      </trkpt>
      <trkpt lat="46.20606" lon="6.85645">
        <ele>1751</ele>
        <time>2000-01-01T07:50:06.000Z</time>
      </trkpt>
      <trkpt lat="46.20597" lon="6.8559">
        <ele>1775</ele>
        <time>2000-01-01T07:50:16.000Z</time>
      </trkpt>
      <trkpt lat="46.20588" lon="6.85534">
        <ele>1793</ele>
        <time>2000-01-01T07:50:26.000Z</time>
      </trkpt>
      <trkpt lat="46.20579" lon="6.85479">
        <ele>1813</ele>
        <time>2000-01-01T07:50:36.000Z</time>
      </trkpt>
      <trkpt lat="46.20572" lon="6.85443">
        <ele>1822</ele>
        <time>2000-01-01T07:50:46.000Z</time>
      </trkpt>
      <trkpt lat="46.20565" lon="6.85398">
        <ele>1833</ele>
        <time>2000-01-01T07:50:56.000Z</time>
      </trkpt>
      <trkpt lat="46.2056" lon="6.85362">
        <ele>1842</ele>
        <time>2000-01-01T07:51:06.000Z</time>
      </trkpt>
      <trkpt lat="46.2055" lon="6.85305">
        <ele>1857</ele>
        <time>2000-01-01T07:51:16.000Z</time>
      </trkpt>
      <trkpt lat="46.2054" lon="6.85248">
        <ele>1879</ele>
        <time>2000-01-01T07:51:26.000Z</time>
      </trkpt>
      <trkpt lat="46.20531" lon="6.85191">
        <ele>1902</ele>
        <time>2000-01-01T07:51:36.000Z</time>
      </trkpt>
      <trkpt lat="46.20521" lon="6.85134">
        <ele>1927</ele>
        <time>2000-01-01T07:51:46.000Z</time>
      </trkpt>
      <trkpt lat="46.20511" lon="6.85077">
        <ele>1951</ele>
        <time>2000-01-01T07:51:56.000Z</time>
      </trkpt>
      <trkpt lat="46.20501" lon="6.8502">
        <ele>1970</ele>
        <time>2000-01-01T07:52:06.000Z</time>
      </trkpt>
      <trkpt lat="46.20494" lon="6.84979">
        <ele>1980</ele>
        <time>2000-01-01T07:52:16.000Z</time>
      </trkpt>
      <trkpt lat="46.20483" lon="6.84914">
        <ele>1994</ele>
        <time>2000-01-01T07:52:26.000Z</time>
      </trkpt>
      <trkpt lat="46.20474" lon="6.84856">
        <ele>2000</ele>
        <time>2000-01-01T07:52:36.000Z</time>
      </trkpt>
      <trkpt lat="46.20464" lon="6.84798">
        <ele>2003</ele>
        <time>2000-01-01T07:52:46.000Z</time>
      </trkpt>
      <trkpt lat="46.20451" lon="6.84764">
        <ele>2006</ele>
        <time>2000-01-01T07:52:56.000Z</time>
      </trkpt>
      <trkpt lat="46.20434" lon="6.84718">
        <ele>2011</ele>
        <time>2000-01-01T07:53:06.000Z</time>
      </trkpt>
      <trkpt lat="46.20411" lon="6.84688">
        <ele>2012</ele>
        <time>2000-01-01T07:53:16.000Z</time>
      </trkpt>
      <trkpt lat="46.20388" lon="6.84657">
        <ele>2012</ele>
        <time>2000-01-01T07:53:26.000Z</time>
      </trkpt>
      <trkpt lat="46.20364" lon="6.84626">
        <ele>2013</ele>
        <time>2000-01-01T07:53:36.000Z</time>
      </trkpt>
      <trkpt lat="46.20334" lon="6.84599">
        <ele>2011</ele>
        <time>2000-01-01T07:53:46.000Z</time>
      </trkpt>
      <trkpt lat="46.20303" lon="6.84573">
        <ele>2010</ele>
        <time>2000-01-01T07:53:56.000Z</time>
      </trkpt>
      <trkpt lat="46.20273" lon="6.84546">
        <ele>2009</ele>
        <time>2000-01-01T07:54:06.000Z</time>
      </trkpt>
      <trkpt lat="46.20236" lon="6.84514">
        <ele>2009</ele>
        <time>2000-01-01T07:54:16.000Z</time>
      </trkpt>
      <trkpt lat="46.20216" lon="6.84491">
        <ele>2009</ele>
        <time>2000-01-01T07:54:26.000Z</time>
      </trkpt>
      <trkpt lat="46.20191" lon="6.84463">
        <ele>2015</ele>
        <time>2000-01-01T07:54:36.000Z</time>
      </trkpt>
      <trkpt lat="46.20164" lon="6.84431">
        <ele>2024</ele>
        <time>2000-01-01T07:54:46.000Z</time>
      </trkpt>
      <trkpt lat="46.20134" lon="6.84419">
        <ele>2030</ele>
        <time>2000-01-01T07:54:56.000Z</time>
      </trkpt>
      <trkpt lat="46.20104" lon="6.84407">
        <ele>2034</ele>
        <time>2000-01-01T07:55:06.000Z</time>
      </trkpt>
      <trkpt lat="46.20073" lon="6.84395">
        <ele>2039</ele>
        <time>2000-01-01T07:55:16.000Z</time>
      </trkpt>
      <trkpt lat="46.20064" lon="6.84378">
        <ele>2051.4</ele>
        <time>2000-01-01T07:55:26.000Z</time>
      </trkpt>
      <trkpt lat="46.20057" lon="6.84392">
        <ele>2039</ele>
        <time>2000-01-01T07:55:36.000Z</time>
      </trkpt>
      <trkpt lat="46.20028" lon="6.84401">
        <ele>2042</ele>
        <time>2000-01-01T07:55:46.000Z</time>
      </trkpt>
      <trkpt lat="46.19992" lon="6.8438">
        <ele>2045</ele>
        <time>2000-01-01T07:55:56.000Z</time>
      </trkpt>
      <trkpt lat="46.19971" lon="6.84359">
        <ele>2045</ele>
        <time>2000-01-01T07:56:06.000Z</time>
      </trkpt>
      <trkpt lat="46.19943" lon="6.84344">
        <ele>2046</ele>
        <time>2000-01-01T07:56:16.000Z</time>
      </trkpt>
      <trkpt lat="46.19924" lon="6.84317">
        <ele>2050</ele>
        <time>2000-01-01T07:56:26.000Z</time>
      </trkpt>
      <trkpt lat="46.19913" lon="6.84289">
        <ele>2053</ele>
        <time>2000-01-01T07:56:36.000Z</time>
      </trkpt>
      <trkpt lat="46.19896" lon="6.84282">
        <ele>2053.3</ele>
        <time>2000-01-01T07:56:46.000Z</time>
      </trkpt>
      <trkpt lat="46.1986" lon="6.84259">
        <ele>2051</ele>
        <time>2000-01-01T07:56:56.000Z</time>
      </trkpt>
      <trkpt lat="46.19844" lon="6.84251">
        <ele>2050.6</ele>
        <time>2000-01-01T07:57:06.000Z</time>
      </trkpt>
      <trkpt lat="46.19832" lon="6.84256">
        <ele>2050</ele>
        <time>2000-01-01T07:57:16.000Z</time>
      </trkpt>
      <trkpt lat="46.198" lon="6.84233">
        <ele>2050</ele>
        <time>2000-01-01T07:57:26.000Z</time>
      </trkpt>
      <trkpt lat="46.19776" lon="6.84239">
        <ele>2042</ele>
        <time>2000-01-01T07:57:36.000Z</time>
      </trkpt>
      <trkpt lat="46.19746" lon="6.84245">
        <ele>2035</ele>
        <time>2000-01-01T07:57:46.000Z</time>
      </trkpt>
      <trkpt lat="46.19724" lon="6.84242">
        <ele>2030</ele>
        <time>2000-01-01T07:57:56.000Z</time>
      </trkpt>
      <trkpt lat="46.19718" lon="6.8423">
        <ele>2034.9</ele>
        <time>2000-01-01T07:58:06.000Z</time>
      </trkpt>
      <trkpt lat="46.19632" lon="6.84254">
        <ele>2005</ele>
        <time>2000-01-01T07:58:16.000Z</time>
      </trkpt>
      <trkpt lat="46.1961" lon="6.84242">
        <ele>1998</ele>
        <time>2000-01-01T07:58:26.000Z</time>
      </trkpt>
      <trkpt lat="46.19587" lon="6.84229">
        <ele>1994</ele>
        <time>2000-01-01T07:58:36.000Z</time>
      </trkpt>
      <trkpt lat="46.1958" lon="6.84188">
        <ele>1993</ele>
        <time>2000-01-01T07:58:46.000Z</time>
      </trkpt>
      <trkpt lat="46.19573" lon="6.84154">
        <ele>1993</ele>
        <time>2000-01-01T07:58:56.000Z</time>
      </trkpt>
      <trkpt lat="46.19567" lon="6.84118">
        <ele>1991</ele>
        <time>2000-01-01T07:59:06.000Z</time>
      </trkpt>
      <trkpt lat="46.19556" lon="6.84063">
        <ele>1988</ele>
        <time>2000-01-01T07:59:16.000Z</time>
      </trkpt>
      <trkpt lat="46.19548" lon="6.84018">
        <ele>1983</ele>
        <time>2000-01-01T07:59:26.000Z</time>
      </trkpt>
      <trkpt lat="46.19539" lon="6.83972">
        <ele>1979</ele>
        <time>2000-01-01T07:59:36.000Z</time>
      </trkpt>
      <trkpt lat="46.19529" lon="6.83915">
        <ele>1973</ele>
        <time>2000-01-01T07:59:46.000Z</time>
      </trkpt>
      <trkpt lat="46.19519" lon="6.83864">
        <ele>1965</ele>
        <time>2000-01-01T07:59:56.000Z</time>
      </trkpt>
      <trkpt lat="46.19502" lon="6.83875">
        <ele>1962</ele>
        <time>2000-01-01T08:00:06.000Z</time>
      </trkpt>
      <trkpt lat="46.19482" lon="6.83842">
        <ele>1955</ele>
        <time>2000-01-01T08:00:16.000Z</time>
      </trkpt>
      <trkpt lat="46.19464" lon="6.83813">
        <ele>1949</ele>
        <time>2000-01-01T08:00:26.000Z</time>
      </trkpt>
      <trkpt lat="46.19442" lon="6.83777">
        <ele>1938</ele>
        <time>2000-01-01T08:00:36.000Z</time>
      </trkpt>
      <trkpt lat="46.19422" lon="6.83743">
        <ele>1927</ele>
        <time>2000-01-01T08:00:46.000Z</time>
      </trkpt>
      <trkpt lat="46.19404" lon="6.83714">
        <ele>1917</ele>
        <time>2000-01-01T08:00:56.000Z</time>
      </trkpt>
      <trkpt lat="46.19381" lon="6.83676">
        <ele>1907</ele>
        <time>2000-01-01T08:01:06.000Z</time>
      </trkpt>
      <trkpt lat="46.19371" lon="6.83685">
        <ele>1903.5</ele>
        <time>2000-01-01T08:01:16.000Z</time>
      </trkpt>
      <trkpt lat="46.19332" lon="6.83704">
        <ele>1896</ele>
        <time>2000-01-01T08:01:26.000Z</time>
      </trkpt>
      <trkpt lat="46.19303" lon="6.83727">
        <ele>1890</ele>
        <time>2000-01-01T08:01:36.000Z</time>
      </trkpt>
      <trkpt lat="46.19281" lon="6.83765">
        <ele>1886</ele>
        <time>2000-01-01T08:01:46.000Z</time>
      </trkpt>
      <trkpt lat="46.19272" lon="6.83798">
        <ele>1884</ele>
        <time>2000-01-01T08:01:56.000Z</time>
      </trkpt>
      <trkpt lat="46.19261" lon="6.83834">
        <ele>1882</ele>
        <time>2000-01-01T08:02:06.000Z</time>
      </trkpt>
      <trkpt lat="46.19238" lon="6.83811">
        <ele>1870</ele>
        <time>2000-01-01T08:02:16.000Z</time>
      </trkpt>
      <trkpt lat="46.19218" lon="6.8379">
        <ele>1867</ele>
        <time>2000-01-01T08:02:26.000Z</time>
      </trkpt>
      <trkpt lat="46.19229" lon="6.83745">
        <ele>1865</ele>
        <time>2000-01-01T08:02:36.000Z</time>
      </trkpt>
      <trkpt lat="46.19223" lon="6.8368">
        <ele>1862</ele>
        <time>2000-01-01T08:02:46.000Z</time>
      </trkpt>
      <trkpt lat="46.19225" lon="6.83646">
        <ele>1859</ele>
        <time>2000-01-01T08:02:56.000Z</time>
      </trkpt>
      <trkpt lat="46.19227" lon="6.83611">
        <ele>1857</ele>
        <time>2000-01-01T08:03:06.000Z</time>
      </trkpt>
      <trkpt lat="46.19235" lon="6.83555">
        <ele>1853</ele>
        <time>2000-01-01T08:03:16.000Z</time>
      </trkpt>
      <trkpt lat="46.19201" lon="6.83565">
        <ele>1849</ele>
        <time>2000-01-01T08:03:26.000Z</time>
      </trkpt>
      <trkpt lat="46.19173" lon="6.83562">
        <ele>1843</ele>
        <time>2000-01-01T08:03:36.000Z</time>
      </trkpt>
      <trkpt lat="46.19126" lon="6.83561">
        <ele>1835</ele>
        <time>2000-01-01T08:03:46.000Z</time>
      </trkpt>
      <trkpt lat="46.19096" lon="6.83589">
        <ele>1830</ele>
        <time>2000-01-01T08:03:56.000Z</time>
      </trkpt>
      <trkpt lat="46.19081" lon="6.83627">
        <ele>1824</ele>
        <time>2000-01-01T08:04:06.000Z</time>
      </trkpt>
      <trkpt lat="46.19059" lon="6.83666">
        <ele>1820</ele>
        <time>2000-01-01T08:04:16.000Z</time>
      </trkpt>
      <trkpt lat="46.19067" lon="6.83663">
        <ele>1816.6</ele>
        <time>2000-01-01T08:04:26.000Z</time>
      </trkpt>
      <trkpt lat="46.19061" lon="6.83651">
        <ele>1815.7</ele>
        <time>2000-01-01T08:04:36.000Z</time>
      </trkpt>
      <trkpt lat="46.19054" lon="6.83647">
        <ele>1816</ele>
        <time>2000-01-01T08:04:46.000Z</time>
      </trkpt>
      <trkpt lat="46.19043" lon="6.83644">
        <ele>1813.2</ele>
        <time>2000-01-01T08:04:56.000Z</time>
      </trkpt>
      <trkpt lat="46.19037" lon="6.83638">
        <ele>1813.9</ele>
        <time>2000-01-01T08:05:06.000Z</time>
      </trkpt>
      <trkpt lat="46.19025" lon="6.83619">
        <ele>1815</ele>
        <time>2000-01-01T08:05:16.000Z</time>
      </trkpt>
      <trkpt lat="46.19019" lon="6.83614">
        <ele>1816.8</ele>
        <time>2000-01-01T08:05:26.000Z</time>
      </trkpt>
      <trkpt lat="46.19006" lon="6.83608">
        <ele>1812</ele>
        <time>2000-01-01T08:05:36.000Z</time>
      </trkpt>
      <trkpt lat="46.18992" lon="6.83597">
        <ele>1814.1</ele>
        <time>2000-01-01T08:05:46.000Z</time>
      </trkpt>
      <trkpt lat="46.18983" lon="6.83582">
        <ele>1812</ele>
        <time>2000-01-01T08:05:56.000Z</time>
      </trkpt>
      <trkpt lat="46.18979" lon="6.83571">
        <ele>1813.2</ele>
        <time>2000-01-01T08:06:06.000Z</time>
      </trkpt>
      <trkpt lat="46.1896" lon="6.83491">
        <ele>1813</ele>
        <time>2000-01-01T08:06:16.000Z</time>
      </trkpt>
      <trkpt lat="46.18956" lon="6.83481">
        <ele>1810.7</ele>
        <time>2000-01-01T08:06:26.000Z</time>
      </trkpt>
      <trkpt lat="46.18948" lon="6.83467">
        <ele>1813</ele>
        <time>2000-01-01T08:06:36.000Z</time>
      </trkpt>
      <trkpt lat="46.18927" lon="6.83446">
        <ele>1813</ele>
        <time>2000-01-01T08:06:46.000Z</time>
      </trkpt>
      <trkpt lat="46.18912" lon="6.83432">
        <ele>1809.4</ele>
        <time>2000-01-01T08:06:56.000Z</time>
      </trkpt>
      <trkpt lat="46.18904" lon="6.83421">
        <ele>1811</ele>
        <time>2000-01-01T08:07:06.000Z</time>
      </trkpt>
      <trkpt lat="46.18882" lon="6.83402">
        <ele>1809</ele>
        <time>2000-01-01T08:07:16.000Z</time>
      </trkpt>
      <trkpt lat="46.18858" lon="6.83379">
        <ele>1803</ele>
        <time>2000-01-01T08:07:26.000Z</time>
      </trkpt>
      <trkpt lat="46.18855" lon="6.83372">
        <ele>1807.4</ele>
        <time>2000-01-01T08:07:36.000Z</time>
      </trkpt>
      <trkpt lat="46.1885" lon="6.83343">
        <ele>1803</ele>
        <time>2000-01-01T08:07:46.000Z</time>
      </trkpt>
      <trkpt lat="46.18845" lon="6.83323">
        <ele>1807.3</ele>
        <time>2000-01-01T08:07:56.000Z</time>
      </trkpt>
      <trkpt lat="46.18827" lon="6.83278">
        <ele>1809</ele>
        <time>2000-01-01T08:08:06.000Z</time>
      </trkpt>
      <trkpt lat="46.18815" lon="6.83241">
        <ele>1807</ele>
        <time>2000-01-01T08:08:16.000Z</time>
      </trkpt>
      <trkpt lat="46.18809" lon="6.83232">
        <ele>1805.3</ele>
        <time>2000-01-01T08:08:26.000Z</time>
      </trkpt>
      <trkpt lat="46.18801" lon="6.83225">
        <ele>1804.7</ele>
        <time>2000-01-01T08:08:36.000Z</time>
      </trkpt>
      <trkpt lat="46.18782" lon="6.83214">
        <ele>1808</ele>
        <time>2000-01-01T08:08:46.000Z</time>
      </trkpt>
      <trkpt lat="46.18779" lon="6.83208">
        <ele>1804.3</ele>
        <time>2000-01-01T08:08:56.000Z</time>
      </trkpt>
      <trkpt lat="46.18774" lon="6.83188">
        <ele>1807</ele>
        <time>2000-01-01T08:09:06.000Z</time>
      </trkpt>
      <trkpt lat="46.18758" lon="6.83158">
        <ele>1806</ele>
        <time>2000-01-01T08:09:16.000Z</time>
      </trkpt>
      <trkpt lat="46.18739" lon="6.83121">
        <ele>1807</ele>
        <time>2000-01-01T08:09:26.000Z</time>
      </trkpt>
      <trkpt lat="46.18735" lon="6.83112">
        <ele>1807</ele>
        <time>2000-01-01T08:09:36.000Z</time>
      </trkpt>
      <trkpt lat="46.18733" lon="6.83087">
        <ele>1809</ele>
        <time>2000-01-01T08:09:46.000Z</time>
      </trkpt>
      <trkpt lat="46.18733" lon="6.83021">
        <ele>1811</ele>
        <time>2000-01-01T08:09:56.000Z</time>
      </trkpt>
      <trkpt lat="46.18732" lon="6.83013">
        <ele>1812.4</ele>
        <time>2000-01-01T08:10:06.000Z</time>
      </trkpt>
      <trkpt lat="46.18716" lon="6.82974">
        <ele>1814</ele>
        <time>2000-01-01T08:10:16.000Z</time>
      </trkpt>
      <trkpt lat="46.18713" lon="6.82949">
        <ele>1817</ele>
        <time>2000-01-01T08:10:26.000Z</time>
      </trkpt>
      <trkpt lat="46.18712" lon="6.8292">
        <ele>1820</ele>
        <time>2000-01-01T08:10:36.000Z</time>
      </trkpt>
      <trkpt lat="46.18717" lon="6.82863">
        <ele>1823</ele>
        <time>2000-01-01T08:10:46.000Z</time>
      </trkpt>
      <trkpt lat="46.18713" lon="6.82827">
        <ele>1821</ele>
        <time>2000-01-01T08:10:56.000Z</time>
      </trkpt>
      <trkpt lat="46.18708" lon="6.82786">
        <ele>1823</ele>
        <time>2000-01-01T08:11:06.000Z</time>
      </trkpt>
      <trkpt lat="46.18711" lon="6.82759">
        <ele>1826</ele>
        <time>2000-01-01T08:11:16.000Z</time>
      </trkpt>
      <trkpt lat="46.1871" lon="6.82717">
        <ele>1827</ele>
        <time>2000-01-01T08:11:26.000Z</time>
      </trkpt>
      <trkpt lat="46.18712" lon="6.82678">
        <ele>1835</ele>
        <time>2000-01-01T08:11:36.000Z</time>
      </trkpt>
      <trkpt lat="46.18711" lon="6.82673">
        <ele>1829.4</ele>
        <time>2000-01-01T08:11:46.000Z</time>
      </trkpt>
      <trkpt lat="46.18706" lon="6.82667">
        <ele>1825.2</ele>
        <time>2000-01-01T08:11:56.000Z</time>
      </trkpt>
      <trkpt lat="46.18703" lon="6.82636">
        <ele>1835</ele>
        <time>2000-01-01T08:12:06.000Z</time>
      </trkpt>
      <trkpt lat="46.18698" lon="6.82619">
        <ele>1826.9</ele>
        <time>2000-01-01T08:12:16.000Z</time>
      </trkpt>
      <trkpt lat="46.18692" lon="6.82614">
        <ele>1835</ele>
        <time>2000-01-01T08:12:26.000Z</time>
      </trkpt>
      <trkpt lat="46.1868" lon="6.82607">
        <ele>1825.1</ele>
        <time>2000-01-01T08:12:36.000Z</time>
      </trkpt>
      <trkpt lat="46.18668" lon="6.82585">
        <ele>1835</ele>
        <time>2000-01-01T08:12:46.000Z</time>
      </trkpt>
      <trkpt lat="46.18662" lon="6.82578">
        <ele>1828.8</ele>
        <time>2000-01-01T08:12:56.000Z</time>
      </trkpt>
      <trkpt lat="46.18656" lon="6.82573">
        <ele>1829.2</ele>
        <time>2000-01-01T08:13:06.000Z</time>
      </trkpt>
      <trkpt lat="46.18605" lon="6.82543">
        <ele>1835</ele>
        <time>2000-01-01T08:13:16.000Z</time>
      </trkpt>
      <trkpt lat="46.18571" lon="6.8253">
        <ele>1835</ele>
        <time>2000-01-01T08:13:26.000Z</time>
      </trkpt>
      <trkpt lat="46.18547" lon="6.8252">
        <ele>1835</ele>
        <time>2000-01-01T08:13:36.000Z</time>
      </trkpt>
      <trkpt lat="46.1852" lon="6.82508">
        <ele>1835</ele>
        <time>2000-01-01T08:13:46.000Z</time>
      </trkpt>
      <trkpt lat="46.18498" lon="6.82493">
        <ele>1838</ele>
        <time>2000-01-01T08:13:56.000Z</time>
      </trkpt>
      <trkpt lat="46.18476" lon="6.82478">
        <ele>1840</ele>
        <time>2000-01-01T08:14:06.000Z</time>
      </trkpt>
      <trkpt lat="46.18463" lon="6.82461">
        <ele>1833</ele>
        <time>2000-01-01T08:14:16.000Z</time>
      </trkpt>
      <trkpt lat="46.18452" lon="6.82432">
        <ele>1844</ele>
        <time>2000-01-01T08:14:26.000Z</time>
      </trkpt>
      <trkpt lat="46.18446" lon="6.82425">
        <ele>1834.6</ele>
        <time>2000-01-01T08:14:36.000Z</time>
      </trkpt>
      <trkpt lat="46.1844" lon="6.82422">
        <ele>1835.7</ele>
        <time>2000-01-01T08:14:46.000Z</time>
      </trkpt>
      <trkpt lat="46.18434" lon="6.82424">
        <ele>1841</ele>
        <time>2000-01-01T08:14:56.000Z</time>
      </trkpt>
      <trkpt lat="46.18428" lon="6.8243">
        <ele>1836.9</ele>
        <time>2000-01-01T08:15:06.000Z</time>
      </trkpt>
      <trkpt lat="46.18424" lon="6.8244">
        <ele>1836.5</ele>
        <time>2000-01-01T08:15:16.000Z</time>
      </trkpt>
      <trkpt lat="46.18421" lon="6.82454">
        <ele>1839</ele>
        <time>2000-01-01T08:15:26.000Z</time>
      </trkpt>
      <trkpt lat="46.18416" lon="6.82464">
        <ele>1837.4</ele>
        <time>2000-01-01T08:15:36.000Z</time>
      </trkpt>
      <trkpt lat="46.1841" lon="6.82467">
        <ele>1837.8</ele>
        <time>2000-01-01T08:15:46.000Z</time>
      </trkpt>
      <trkpt lat="46.18396" lon="6.82469">
        <ele>1838</ele>
        <time>2000-01-01T08:15:56.000Z</time>
      </trkpt>
      <trkpt lat="46.18375" lon="6.82468">
        <ele>1840</ele>
        <time>2000-01-01T08:16:06.000Z</time>
      </trkpt>
      <trkpt lat="46.1837" lon="6.82465">
        <ele>1838.8</ele>
        <time>2000-01-01T08:16:16.000Z</time>
      </trkpt>
      <trkpt lat="46.18349" lon="6.82439">
        <ele>1842</ele>
        <time>2000-01-01T08:16:26.000Z</time>
      </trkpt>
      <trkpt lat="46.18331" lon="6.82421">
        <ele>1843</ele>
        <time>2000-01-01T08:16:36.000Z</time>
      </trkpt>
      <trkpt lat="46.18296" lon="6.82393">
        <ele>1845</ele>
        <time>2000-01-01T08:16:46.000Z</time>
      </trkpt>
      <trkpt lat="46.18269" lon="6.82378">
        <ele>1846</ele>
        <time>2000-01-01T08:16:56.000Z</time>
      </trkpt>
      <trkpt lat="46.18259" lon="6.82377">
        <ele>1847.7</ele>
        <time>2000-01-01T08:17:06.000Z</time>
      </trkpt>
      <trkpt lat="46.1825" lon="6.82379">
        <ele>1847</ele>
        <time>2000-01-01T08:17:16.000Z</time>
      </trkpt>
      <trkpt lat="46.18245" lon="6.82378">
        <ele>1845.3</ele>
        <time>2000-01-01T08:17:26.000Z</time>
      </trkpt>
      <trkpt lat="46.18241" lon="6.82373">
        <ele>1844.2</ele>
        <time>2000-01-01T08:17:36.000Z</time>
      </trkpt>
      <trkpt lat="46.18225" lon="6.8234">
        <ele>1853</ele>
        <time>2000-01-01T08:17:46.000Z</time>
      </trkpt>
      <trkpt lat="46.18214" lon="6.82324">
        <ele>1847.3</ele>
        <time>2000-01-01T08:17:56.000Z</time>
      </trkpt>
      <trkpt lat="46.18202" lon="6.8232">
        <ele>1851</ele>
        <time>2000-01-01T08:18:06.000Z</time>
      </trkpt>
      <trkpt lat="46.18198" lon="6.82322">
        <ele>1847.3</ele>
        <time>2000-01-01T08:18:16.000Z</time>
      </trkpt>
      <trkpt lat="46.18193" lon="6.82329">
        <ele>1846.5</ele>
        <time>2000-01-01T08:18:26.000Z</time>
      </trkpt>
      <trkpt lat="46.18187" lon="6.82346">
        <ele>1850</ele>
        <time>2000-01-01T08:18:36.000Z</time>
      </trkpt>
      <trkpt lat="46.18183" lon="6.82354">
        <ele>1844.8</ele>
        <time>2000-01-01T08:18:46.000Z</time>
      </trkpt>
      <trkpt lat="46.18159" lon="6.82381">
        <ele>1842</ele>
        <time>2000-01-01T08:18:56.000Z</time>
      </trkpt>
      <trkpt lat="46.18154" lon="6.82389">
        <ele>1840.3</ele>
        <time>2000-01-01T08:19:06.000Z</time>
      </trkpt>
      <trkpt lat="46.18148" lon="6.82413">
        <ele>1836</ele>
        <time>2000-01-01T08:19:16.000Z</time>
      </trkpt>
      <trkpt lat="46.18139" lon="6.82428">
        <ele>1834.9</ele>
        <time>2000-01-01T08:19:26.000Z</time>
      </trkpt>
      <trkpt lat="46.18133" lon="6.82432">
        <ele>1835</ele>
        <time>2000-01-01T08:19:36.000Z</time>
      </trkpt>
      <trkpt lat="46.1809" lon="6.82438">
        <ele>1835</ele>
        <time>2000-01-01T08:19:46.000Z</time>
      </trkpt>
      <trkpt lat="46.18076" lon="6.82447">
        <ele>1827.3</ele>
        <time>2000-01-01T08:19:56.000Z</time>
      </trkpt>
      <trkpt lat="46.18067" lon="6.8245">
        <ele>1835</ele>
        <time>2000-01-01T08:20:06.000Z</time>
      </trkpt>
      <trkpt lat="46.18058" lon="6.82451">
        <ele>1826.3</ele>
        <time>2000-01-01T08:20:16.000Z</time>
      </trkpt>
      <trkpt lat="46.1805" lon="6.8245">
        <ele>1826.6</ele>
        <time>2000-01-01T08:20:26.000Z</time>
      </trkpt>
      <trkpt lat="46.18041" lon="6.82452">
        <ele>1835</ele>
        <time>2000-01-01T08:20:36.000Z</time>
      </trkpt>
      <trkpt lat="46.18026" lon="6.8246">
        <ele>1826.2</ele>
        <time>2000-01-01T08:20:46.000Z</time>
      </trkpt>
      <trkpt lat="46.17995" lon="6.82482">
        <ele>1834</ele>
        <time>2000-01-01T08:20:56.000Z</time>
      </trkpt>
      <trkpt lat="46.17984" lon="6.82488">
        <ele>1828.9</ele>
        <time>2000-01-01T08:21:06.000Z</time>
      </trkpt>
      <trkpt lat="46.17975" lon="6.82491">
        <ele>1834</ele>
        <time>2000-01-01T08:21:16.000Z</time>
      </trkpt>
      <trkpt lat="46.17969" lon="6.82497">
        <ele>1829.1</ele>
        <time>2000-01-01T08:21:26.000Z</time>
      </trkpt>
      <trkpt lat="46.17959" lon="6.82529">
        <ele>1832</ele>
        <time>2000-01-01T08:21:36.000Z</time>
      </trkpt>
      <trkpt lat="46.17952" lon="6.8254">
        <ele>1829.2</ele>
        <time>2000-01-01T08:21:46.000Z</time>
      </trkpt>
      <trkpt lat="46.17933" lon="6.82559">
        <ele>1831</ele>
        <time>2000-01-01T08:21:56.000Z</time>
      </trkpt>
      <trkpt lat="46.17927" lon="6.82563">
        <ele>1827.4</ele>
        <time>2000-01-01T08:22:06.000Z</time>
      </trkpt>
      <trkpt lat="46.17922" lon="6.82561">
        <ele>1826.8</ele>
        <time>2000-01-01T08:22:16.000Z</time>
      </trkpt>
      <trkpt lat="46.17919" lon="6.82576">
        <ele>1829</ele>
        <time>2000-01-01T08:22:26.000Z</time>
      </trkpt>
      <trkpt lat="46.17907" lon="6.82599">
        <ele>1826</ele>
        <time>2000-01-01T08:22:36.000Z</time>
      </trkpt>
      <trkpt lat="46.17899" lon="6.82625">
        <ele>1826</ele>
        <time>2000-01-01T08:22:46.000Z</time>
      </trkpt>
      <trkpt lat="46.17891" lon="6.82663">
        <ele>1826</ele>
        <time>2000-01-01T08:22:56.000Z</time>
      </trkpt>
      <trkpt lat="46.17879" lon="6.82709">
        <ele>1824</ele>
        <time>2000-01-01T08:23:06.000Z</time>
      </trkpt>
      <trkpt lat="46.17868" lon="6.82761">
        <ele>1823</ele>
        <time>2000-01-01T08:23:16.000Z</time>
      </trkpt>
      <trkpt lat="46.1786" lon="6.82796">
        <ele>1822</ele>
        <time>2000-01-01T08:23:26.000Z</time>
      </trkpt>
      <trkpt lat="46.1785" lon="6.8284">
        <ele>1819</ele>
        <time>2000-01-01T08:23:36.000Z</time>
      </trkpt>
      <trkpt lat="46.17848" lon="6.82863">
        <ele>1823.6</ele>
        <time>2000-01-01T08:23:46.000Z</time>
      </trkpt>
      <trkpt lat="46.17851" lon="6.82911">
        <ele>1815</ele>
        <time>2000-01-01T08:23:56.000Z</time>
      </trkpt>
      <trkpt lat="46.17846" lon="6.82949">
        <ele>1814</ele>
        <time>2000-01-01T08:24:06.000Z</time>
      </trkpt>
      <trkpt lat="46.17844" lon="6.8299">
        <ele>1810</ele>
        <time>2000-01-01T08:24:16.000Z</time>
      </trkpt>
      <trkpt lat="46.17841" lon="6.83056">
        <ele>1808</ele>
        <time>2000-01-01T08:24:26.000Z</time>
      </trkpt>
      <trkpt lat="46.17836" lon="6.83086">
        <ele>1808</ele>
        <time>2000-01-01T08:24:36.000Z</time>
      </trkpt>
      <trkpt lat="46.17822" lon="6.83142">
        <ele>1808</ele>
        <time>2000-01-01T08:24:46.000Z</time>
      </trkpt>
      <trkpt lat="46.17816" lon="6.83157">
        <ele>1811.3</ele>
        <time>2000-01-01T08:24:56.000Z</time>
      </trkpt>
      <trkpt lat="46.17812" lon="6.83181">
        <ele>1806</ele>
        <time>2000-01-01T08:25:06.000Z</time>
      </trkpt>
      <trkpt lat="46.17807" lon="6.83197">
        <ele>1810</ele>
        <time>2000-01-01T08:25:16.000Z</time>
      </trkpt>
      <trkpt lat="46.17794" lon="6.8322">
        <ele>1805</ele>
        <time>2000-01-01T08:25:26.000Z</time>
      </trkpt>
      <trkpt lat="46.17781" lon="6.83238">
        <ele>1808.2</ele>
        <time>2000-01-01T08:25:36.000Z</time>
      </trkpt>
      <trkpt lat="46.17763" lon="6.83267">
        <ele>1804</ele>
        <time>2000-01-01T08:25:46.000Z</time>
      </trkpt>
      <trkpt lat="46.17753" lon="6.83286">
        <ele>1806.5</ele>
        <time>2000-01-01T08:25:56.000Z</time>
      </trkpt>
      <trkpt lat="46.17743" lon="6.83301">
        <ele>1804</ele>
        <time>2000-01-01T08:26:06.000Z</time>
      </trkpt>
      <trkpt lat="46.17735" lon="6.8331">
        <ele>1806</ele>
        <time>2000-01-01T08:26:16.000Z</time>
      </trkpt>
      <trkpt lat="46.17731" lon="6.83315">
        <ele>1806</ele>
        <time>2000-01-01T08:26:26.000Z</time>
      </trkpt>
      <trkpt lat="46.17727" lon="6.83319">
        <ele>1800</ele>
        <time>2000-01-01T08:26:36.000Z</time>
      </trkpt>
      <trkpt lat="46.17724" lon="6.83323">
        <ele>1805.9</ele>
        <time>2000-01-01T08:26:46.000Z</time>
      </trkpt>
      <trkpt lat="46.17719" lon="6.83332">
        <ele>1805.9</ele>
        <time>2000-01-01T08:26:56.000Z</time>
      </trkpt>
      <trkpt lat="46.17715" lon="6.83334">
        <ele>1805</ele>
        <time>2000-01-01T08:27:06.000Z</time>
      </trkpt>
      <trkpt lat="46.17703" lon="6.8335">
        <ele>1800</ele>
        <time>2000-01-01T08:27:16.000Z</time>
      </trkpt>
      <trkpt lat="46.17697" lon="6.83362">
        <ele>1803.9</ele>
        <time>2000-01-01T08:27:26.000Z</time>
      </trkpt>
      <trkpt lat="46.17692" lon="6.83384">
        <ele>1801</ele>
        <time>2000-01-01T08:27:36.000Z</time>
      </trkpt>
      <trkpt lat="46.17686" lon="6.83402">
        <ele>1801.7</ele>
        <time>2000-01-01T08:27:46.000Z</time>
      </trkpt>
      <trkpt lat="46.17671" lon="6.83432">
        <ele>1801</ele>
        <time>2000-01-01T08:27:56.000Z</time>
      </trkpt>
      <trkpt lat="46.17653" lon="6.8347">
        <ele>1800</ele>
        <time>2000-01-01T08:28:06.000Z</time>
      </trkpt>
      <trkpt lat="46.17645" lon="6.83477">
        <ele>1798</ele>
        <time>2000-01-01T08:28:16.000Z</time>
      </trkpt>
      <trkpt lat="46.17628" lon="6.83483">
        <ele>1799</ele>
        <time>2000-01-01T08:28:26.000Z</time>
      </trkpt>
      <trkpt lat="46.17615" lon="6.83489">
        <ele>1795.5</ele>
        <time>2000-01-01T08:28:36.000Z</time>
      </trkpt>
      <trkpt lat="46.17607" lon="6.83495">
        <ele>1797</ele>
        <time>2000-01-01T08:28:46.000Z</time>
      </trkpt>
      <trkpt lat="46.17593" lon="6.83513">
        <ele>1796</ele>
        <time>2000-01-01T08:28:56.000Z</time>
      </trkpt>
      <trkpt lat="46.17588" lon="6.83517">
        <ele>1794</ele>
        <time>2000-01-01T08:29:06.000Z</time>
      </trkpt>
      <trkpt lat="46.17584" lon="6.83518">
        <ele>1793.1</ele>
        <time>2000-01-01T08:29:16.000Z</time>
      </trkpt>
      <trkpt lat="46.17581" lon="6.83514">
        <ele>1792.2</ele>
        <time>2000-01-01T08:29:26.000Z</time>
      </trkpt>
      <trkpt lat="46.17589" lon="6.83501">
        <ele>1793</ele>
        <time>2000-01-01T08:29:56.000Z</time>
      </trkpt>
      <trkpt lat="46.17597" lon="6.83481">
        <ele>1791.1</ele>
        <time>2000-01-01T08:30:06.000Z</time>
      </trkpt>
      <trkpt lat="46.17606" lon="6.83452">
        <ele>1789</ele>
        <time>2000-01-01T08:30:16.000Z</time>
      </trkpt>
      <trkpt lat="46.1761" lon="6.83428">
        <ele>1787.3</ele>
        <time>2000-01-01T08:30:26.000Z</time>
      </trkpt>
      <trkpt lat="46.1762" lon="6.83386">
        <ele>1786</ele>
        <time>2000-01-01T08:30:36.000Z</time>
      </trkpt>
      <trkpt lat="46.17622" lon="6.8338">
        <ele>1782.8</ele>
        <time>2000-01-01T08:30:46.000Z</time>
      </trkpt>
      <trkpt lat="46.17633" lon="6.83366">
        <ele>1784</ele>
        <time>2000-01-01T08:30:56.000Z</time>
      </trkpt>
      <trkpt lat="46.17635" lon="6.83358">
        <ele>1781.7</ele>
        <time>2000-01-01T08:31:06.000Z</time>
      </trkpt>
      <trkpt lat="46.17639" lon="6.83329">
        <ele>1782</ele>
        <time>2000-01-01T08:31:16.000Z</time>
      </trkpt>
      <trkpt lat="46.17655" lon="6.83281">
        <ele>1780</ele>
        <time>2000-01-01T08:31:26.000Z</time>
      </trkpt>
      <trkpt lat="46.17657" lon="6.8327">
        <ele>1775.4</ele>
        <time>2000-01-01T08:31:36.000Z</time>
      </trkpt>
      <trkpt lat="46.17657" lon="6.83261">
        <ele>1775</ele>
        <time>2000-01-01T08:31:46.000Z</time>
      </trkpt>
      <trkpt lat="46.17646" lon="6.83224">
        <ele>1772</ele>
        <time>2000-01-01T08:31:56.000Z</time>
      </trkpt>
      <trkpt lat="46.17632" lon="6.83202">
        <ele>1769</ele>
        <time>2000-01-01T08:32:06.000Z</time>
      </trkpt>
      <trkpt lat="46.17616" lon="6.83188">
        <ele>1764</ele>
        <time>2000-01-01T08:32:16.000Z</time>
      </trkpt>
      <trkpt lat="46.17612" lon="6.83181">
        <ele>1764.8</ele>
        <time>2000-01-01T08:32:26.000Z</time>
      </trkpt>
      <trkpt lat="46.1761" lon="6.83171">
        <ele>1763.8</ele>
        <time>2000-01-01T08:32:36.000Z</time>
      </trkpt>
      <trkpt lat="46.1761" lon="6.83161">
        <ele>1760</ele>
        <time>2000-01-01T08:32:46.000Z</time>
      </trkpt>
      <trkpt lat="46.17614" lon="6.83148">
        <ele>1762.1</ele>
        <time>2000-01-01T08:32:56.000Z</time>
      </trkpt>
      <trkpt lat="46.17637" lon="6.83092">
        <ele>1760</ele>
        <time>2000-01-01T08:33:06.000Z</time>
      </trkpt>
      <trkpt lat="46.17641" lon="6.83074">
        <ele>1755.7</ele>
        <time>2000-01-01T08:33:16.000Z</time>
      </trkpt>
      <trkpt lat="46.17643" lon="6.83063">
        <ele>1759</ele>
        <time>2000-01-01T08:33:26.000Z</time>
      </trkpt>
      <trkpt lat="46.17646" lon="6.83022">
        <ele>1757</ele>
        <time>2000-01-01T08:33:36.000Z</time>
      </trkpt>
      <trkpt lat="46.17645" lon="6.83013">
        <ele>1752.9</ele>
        <time>2000-01-01T08:33:46.000Z</time>
      </trkpt>
      <trkpt lat="46.17642" lon="6.83008">
        <ele>1752</ele>
        <time>2000-01-01T08:33:56.000Z</time>
      </trkpt>
      <trkpt lat="46.17638" lon="6.83006">
        <ele>1751.1</ele>
        <time>2000-01-01T08:34:06.000Z</time>
      </trkpt>
      <trkpt lat="46.17625" lon="6.83009">
        <ele>1752</ele>
        <time>2000-01-01T08:34:16.000Z</time>
      </trkpt>
      <trkpt lat="46.1762" lon="6.83009">
        <ele>1748.4</ele>
        <time>2000-01-01T08:34:26.000Z</time>
      </trkpt>
      <trkpt lat="46.17589" lon="6.8299">
        <ele>1742</ele>
        <time>2000-01-01T08:34:36.000Z</time>
      </trkpt>
      <trkpt lat="46.17579" lon="6.82986">
        <ele>1741.9</ele>
        <time>2000-01-01T08:34:46.000Z</time>
      </trkpt>
      <trkpt lat="46.17565" lon="6.82984">
        <ele>1738</ele>
        <time>2000-01-01T08:34:56.000Z</time>
      </trkpt>
      <trkpt lat="46.17547" lon="6.82983">
        <ele>1737.9</ele>
        <time>2000-01-01T08:35:06.000Z</time>
      </trkpt>
      <trkpt lat="46.17539" lon="6.82988">
        <ele>1732</ele>
        <time>2000-01-01T08:35:16.000Z</time>
      </trkpt>
      <trkpt lat="46.17529" lon="6.83">
        <ele>1738</ele>
        <time>2000-01-01T08:35:26.000Z</time>
      </trkpt>
      <trkpt lat="46.17516" lon="6.83034">
        <ele>1731</ele>
        <time>2000-01-01T08:35:36.000Z</time>
      </trkpt>
      <trkpt lat="46.17503" lon="6.8306">
        <ele>1729</ele>
        <time>2000-01-01T08:35:46.000Z</time>
      </trkpt>
      <trkpt lat="46.17499" lon="6.83062">
        <ele>1732.5</ele>
        <time>2000-01-01T08:35:56.000Z</time>
      </trkpt>
      <trkpt lat="46.17492" lon="6.83053">
        <ele>1731</ele>
        <time>2000-01-01T08:36:06.000Z</time>
      </trkpt>
      <trkpt lat="46.17489" lon="6.83028">
        <ele>1723</ele>
        <time>2000-01-01T08:36:16.000Z</time>
      </trkpt>
      <trkpt lat="46.17492" lon="6.83007">
        <ele>1729</ele>
        <time>2000-01-01T08:36:26.000Z</time>
      </trkpt>
      <trkpt lat="46.17508" lon="6.82932">
        <ele>1719</ele>
        <time>2000-01-01T08:36:36.000Z</time>
      </trkpt>
      <trkpt lat="46.17512" lon="6.82922">
        <ele>1720.7</ele>
        <time>2000-01-01T08:36:46.000Z</time>
      </trkpt>
      <trkpt lat="46.17516" lon="6.82916">
        <ele>1720.3</ele>
        <time>2000-01-01T08:36:56.000Z</time>
      </trkpt>
      <trkpt lat="46.17527" lon="6.82906">
        <ele>1719</ele>
        <time>2000-01-01T08:37:06.000Z</time>
      </trkpt>
      <trkpt lat="46.17538" lon="6.82889">
        <ele>1718.1</ele>
        <time>2000-01-01T08:37:16.000Z</time>
      </trkpt>
      <trkpt lat="46.17543" lon="6.82883">
        <ele>1721</ele>
        <time>2000-01-01T08:37:26.000Z</time>
      </trkpt>
      <trkpt lat="46.17554" lon="6.82878">
        <ele>1718.2</ele>
        <time>2000-01-01T08:37:36.000Z</time>
      </trkpt>
      <trkpt lat="46.17557" lon="6.82873">
        <ele>1718.2</ele>
        <time>2000-01-01T08:37:46.000Z</time>
      </trkpt>
      <trkpt lat="46.1756" lon="6.82866">
        <ele>1719</ele>
        <time>2000-01-01T08:37:56.000Z</time>
      </trkpt>
      <trkpt lat="46.1756" lon="6.82857">
        <ele>1718</ele>
        <time>2000-01-01T08:38:06.000Z</time>
      </trkpt>
      <trkpt lat="46.17548" lon="6.82828">
        <ele>1717</ele>
        <time>2000-01-01T08:38:16.000Z</time>
      </trkpt>
      <trkpt lat="46.17536" lon="6.82786">
        <ele>1709</ele>
        <time>2000-01-01T08:38:26.000Z</time>
      </trkpt>
      <trkpt lat="46.17535" lon="6.82771">
        <ele>1710.5</ele>
        <time>2000-01-01T08:38:36.000Z</time>
      </trkpt>
      <trkpt lat="46.17536" lon="6.82757">
        <ele>1710</ele>
        <time>2000-01-01T08:38:46.000Z</time>
      </trkpt>
      <trkpt lat="46.17541" lon="6.82748">
        <ele>1707.2</ele>
        <time>2000-01-01T08:38:56.000Z</time>
      </trkpt>
      <trkpt lat="46.17554" lon="6.82737">
        <ele>1709</ele>
        <time>2000-01-01T08:39:06.000Z</time>
      </trkpt>
      <trkpt lat="46.17556" lon="6.82733">
        <ele>1706.9</ele>
        <time>2000-01-01T08:39:16.000Z</time>
      </trkpt>
      <trkpt lat="46.17557" lon="6.82725">
        <ele>1705.3</ele>
        <time>2000-01-01T08:39:26.000Z</time>
      </trkpt>
      <trkpt lat="46.17553" lon="6.827">
        <ele>1709</ele>
        <time>2000-01-01T08:39:36.000Z</time>
      </trkpt>
      <trkpt lat="46.17552" lon="6.82688">
        <ele>1702</ele>
        <time>2000-01-01T08:39:46.000Z</time>
      </trkpt>
      <trkpt lat="46.17554" lon="6.82668">
        <ele>1705</ele>
        <time>2000-01-01T08:39:56.000Z</time>
      </trkpt>
      <trkpt lat="46.1756" lon="6.82649">
        <ele>1700.8</ele>
        <time>2000-01-01T08:40:06.000Z</time>
      </trkpt>
      <trkpt lat="46.1756" lon="6.82633">
        <ele>1705</ele>
        <time>2000-01-01T08:40:16.000Z</time>
      </trkpt>
      <trkpt lat="46.17556" lon="6.82621">
        <ele>1698.8</ele>
        <time>2000-01-01T08:40:26.000Z</time>
      </trkpt>
      <trkpt lat="46.17549" lon="6.82623">
        <ele>1696.5</ele>
        <time>2000-01-01T08:40:36.000Z</time>
      </trkpt>
      <trkpt lat="46.17548" lon="6.82629">
        <ele>1701</ele>
        <time>2000-01-01T08:40:46.000Z</time>
      </trkpt>
      <trkpt lat="46.17548" lon="6.82642">
        <ele>1696.2</ele>
        <time>2000-01-01T08:40:56.000Z</time>
      </trkpt>
      <trkpt lat="46.17545" lon="6.82652">
        <ele>1696.1</ele>
        <time>2000-01-01T08:41:06.000Z</time>
      </trkpt>
      <trkpt lat="46.17536" lon="6.82672">
        <ele>1700</ele>
        <time>2000-01-01T08:41:16.000Z</time>
      </trkpt>
      <trkpt lat="46.17525" lon="6.827">
        <ele>1699</ele>
        <time>2000-01-01T08:41:26.000Z</time>
      </trkpt>
      <trkpt lat="46.17512" lon="6.82722">
        <ele>1698</ele>
        <time>2000-01-01T08:41:36.000Z</time>
      </trkpt>
      <trkpt lat="46.17491" lon="6.82749">
        <ele>1696</ele>
        <time>2000-01-01T08:41:46.000Z</time>
      </trkpt>
      <trkpt lat="46.17483" lon="6.82751">
        <ele>1687.6</ele>
        <time>2000-01-01T08:41:56.000Z</time>
      </trkpt>
      <trkpt lat="46.17475" lon="6.8275">
        <ele>1685.6</ele>
        <time>2000-01-01T08:42:06.000Z</time>
      </trkpt>
      <trkpt lat="46.17454" lon="6.8274">
        <ele>1687</ele>
        <time>2000-01-01T08:42:16.000Z</time>
      </trkpt>
      <trkpt lat="46.17448" lon="6.82738">
        <ele>1682.4</ele>
        <time>2000-01-01T08:42:26.000Z</time>
      </trkpt>
      <trkpt lat="46.1744" lon="6.82739">
        <ele>1681.5</ele>
        <time>2000-01-01T08:42:36.000Z</time>
      </trkpt>
      <trkpt lat="46.17413" lon="6.82757">
        <ele>1682</ele>
        <time>2000-01-01T08:42:46.000Z</time>
      </trkpt>
      <trkpt lat="46.17395" lon="6.82762">
        <ele>1675.5</ele>
        <time>2000-01-01T08:42:56.000Z</time>
      </trkpt>
      <trkpt lat="46.17386" lon="6.82767">
        <ele>1679</ele>
        <time>2000-01-01T08:43:06.000Z</time>
      </trkpt>
      <trkpt lat="46.17378" lon="6.82774">
        <ele>1673.5</ele>
        <time>2000-01-01T08:43:16.000Z</time>
      </trkpt>
      <trkpt lat="46.17371" lon="6.82784">
        <ele>1679</ele>
        <time>2000-01-01T08:43:26.000Z</time>
      </trkpt>
      <trkpt lat="46.17361" lon="6.82791">
        <ele>1670.9</ele>
        <time>2000-01-01T08:43:36.000Z</time>
      </trkpt>
      <trkpt lat="46.17337" lon="6.82805">
        <ele>1672</ele>
        <time>2000-01-01T08:43:46.000Z</time>
      </trkpt>
      <trkpt lat="46.17323" lon="6.82807">
        <ele>1666.3</ele>
        <time>2000-01-01T08:43:56.000Z</time>
      </trkpt>
      <trkpt lat="46.17306" lon="6.82805">
        <ele>1667</ele>
        <time>2000-01-01T08:44:06.000Z</time>
      </trkpt>
      <trkpt lat="46.17299" lon="6.82809">
        <ele>1664.4</ele>
        <time>2000-01-01T08:44:16.000Z</time>
      </trkpt>
      <trkpt lat="46.17294" lon="6.8282">
        <ele>1663.4</ele>
        <time>2000-01-01T08:44:26.000Z</time>
      </trkpt>
      <trkpt lat="46.17289" lon="6.82847">
        <ele>1666</ele>
        <time>2000-01-01T08:44:36.000Z</time>
      </trkpt>
      <trkpt lat="46.1729" lon="6.82861">
        <ele>1659.9</ele>
        <time>2000-01-01T08:44:46.000Z</time>
      </trkpt>
      <trkpt lat="46.17298" lon="6.82879">
        <ele>1665</ele>
        <time>2000-01-01T08:44:56.000Z</time>
      </trkpt>
      <trkpt lat="46.17284" lon="6.8289">
        <ele>1656.2</ele>
        <time>2000-01-01T08:45:06.000Z</time>
      </trkpt>
      <trkpt lat="46.17266" lon="6.8291">
        <ele>1656</ele>
        <time>2000-01-01T08:45:16.000Z</time>
      </trkpt>
      <trkpt lat="46.17253" lon="6.82924">
        <ele>1648.3</ele>
        <time>2000-01-01T08:45:26.000Z</time>
      </trkpt>
      <trkpt lat="46.1724" lon="6.82948">
        <ele>1651</ele>
        <time>2000-01-01T08:45:36.000Z</time>
      </trkpt>
      <trkpt lat="46.17225" lon="6.82994">
        <ele>1648</ele>
        <time>2000-01-01T08:45:46.000Z</time>
      </trkpt>
      <trkpt lat="46.17209" lon="6.83039">
        <ele>1645</ele>
        <time>2000-01-01T08:45:56.000Z</time>
      </trkpt>
      <trkpt lat="46.17197" lon="6.83076">
        <ele>1642</ele>
        <time>2000-01-01T08:46:06.000Z</time>
      </trkpt>
      <trkpt lat="46.17178" lon="6.83132">
        <ele>1632</ele>
        <time>2000-01-01T08:46:16.000Z</time>
      </trkpt>
      <trkpt lat="46.17177" lon="6.83176">
        <ele>1625</ele>
        <time>2000-01-01T08:46:26.000Z</time>
      </trkpt>
      <trkpt lat="46.17176" lon="6.83212">
        <ele>1618</ele>
        <time>2000-01-01T08:46:36.000Z</time>
      </trkpt>
      <trkpt lat="46.17175" lon="6.83255">
        <ele>1613</ele>
        <time>2000-01-01T08:46:46.000Z</time>
      </trkpt>
      <trkpt lat="46.17159" lon="6.83287">
        <ele>1609</ele>
        <time>2000-01-01T08:46:56.000Z</time>
      </trkpt>
      <trkpt lat="46.17136" lon="6.83332">
        <ele>1608</ele>
        <time>2000-01-01T08:47:06.000Z</time>
      </trkpt>
      <trkpt lat="46.17113" lon="6.83353">
        <ele>1604</ele>
        <time>2000-01-01T08:47:16.000Z</time>
      </trkpt>
      <trkpt lat="46.17083" lon="6.83382">
        <ele>1597</ele>
        <time>2000-01-01T08:47:26.000Z</time>
      </trkpt>
      <trkpt lat="46.17053" lon="6.83409">
        <ele>1595</ele>
        <time>2000-01-01T08:47:36.000Z</time>
      </trkpt>
      <trkpt lat="46.17034" lon="6.83454">
        <ele>1587</ele>
        <time>2000-01-01T08:47:46.000Z</time>
      </trkpt>
      <trkpt lat="46.17019" lon="6.83489">
        <ele>1578</ele>
        <time>2000-01-01T08:47:56.000Z</time>
      </trkpt>
      <trkpt lat="46.16995" lon="6.83543">
        <ele>1565</ele>
        <time>2000-01-01T08:48:06.000Z</time>
      </trkpt>
      <trkpt lat="46.16982" lon="6.83575">
        <ele>1562</ele>
        <time>2000-01-01T08:48:16.000Z</time>
      </trkpt>
      <trkpt lat="46.16965" lon="6.83613">
        <ele>1554</ele>
        <time>2000-01-01T08:48:26.000Z</time>
      </trkpt>
      <trkpt lat="46.16939" lon="6.83624">
        <ele>1541</ele>
        <time>2000-01-01T08:48:36.000Z</time>
      </trkpt>
      <trkpt lat="46.16902" lon="6.8364">
        <ele>1531</ele>
        <time>2000-01-01T08:48:46.000Z</time>
      </trkpt>
      <trkpt lat="46.16858" lon="6.83658">
        <ele>1517</ele>
        <time>2000-01-01T08:48:56.000Z</time>
      </trkpt>
      <trkpt lat="46.16823" lon="6.83678">
        <ele>1510</ele>
        <time>2000-01-01T08:49:06.000Z</time>
      </trkpt>
      <trkpt lat="46.16788" lon="6.83699">
        <ele>1504</ele>
        <time>2000-01-01T08:49:16.000Z</time>
      </trkpt>
      <trkpt lat="46.16753" lon="6.83719">
        <ele>1501</ele>
        <time>2000-01-01T08:49:26.000Z</time>
      </trkpt>
      <trkpt lat="46.16717" lon="6.83739">
        <ele>1496</ele>
        <time>2000-01-01T08:49:36.000Z</time>
      </trkpt>
      <trkpt lat="46.16695" lon="6.83752">
        <ele>1496</ele>
        <time>2000-01-01T08:49:46.000Z</time>
      </trkpt>
      <trkpt lat="46.16672" lon="6.83766">
        <ele>1491</ele>
        <time>2000-01-01T08:49:56.000Z</time>
      </trkpt>
      <trkpt lat="46.16641" lon="6.83785">
        <ele>1488</ele>
        <time>2000-01-01T08:50:06.000Z</time>
      </trkpt>
      <trkpt lat="46.1661" lon="6.83804">
        <ele>1481</ele>
        <time>2000-01-01T08:50:16.000Z</time>
      </trkpt>
      <trkpt lat="46.16587" lon="6.83818">
        <ele>1473</ele>
        <time>2000-01-01T08:50:26.000Z</time>
      </trkpt>
      <trkpt lat="46.16561" lon="6.83834">
        <ele>1472</ele>
        <time>2000-01-01T08:50:36.000Z</time>
      </trkpt>
      <trkpt lat="46.16551" lon="6.83873">
        <ele>1471</ele>
        <time>2000-01-01T08:50:46.000Z</time>
      </trkpt>
      <trkpt lat="46.16528" lon="6.83887">
        <ele>1456</ele>
        <time>2000-01-01T08:50:56.000Z</time>
      </trkpt>
      <trkpt lat="46.16503" lon="6.83903">
        <ele>1447</ele>
        <time>2000-01-01T08:51:06.000Z</time>
      </trkpt>
      <trkpt lat="46.1648" lon="6.83931">
        <ele>1439</ele>
        <time>2000-01-01T08:51:16.000Z</time>
      </trkpt>
      <trkpt lat="46.1646" lon="6.83954">
        <ele>1432</ele>
        <time>2000-01-01T08:51:26.000Z</time>
      </trkpt>
      <trkpt lat="46.16436" lon="6.83982">
        <ele>1429</ele>
        <time>2000-01-01T08:51:36.000Z</time>
      </trkpt>
      <trkpt lat="46.16432" lon="6.83965">
        <ele>1426</ele>
        <time>2000-01-01T08:51:46.000Z</time>
      </trkpt>
      <trkpt lat="46.16438" lon="6.83905">
        <ele>1419</ele>
        <time>2000-01-01T08:51:56.000Z</time>
      </trkpt>
      <trkpt lat="46.16443" lon="6.83871">
        <ele>1419</ele>
        <time>2000-01-01T08:52:06.000Z</time>
      </trkpt>
      <trkpt lat="46.16444" lon="6.83842">
        <ele>1415</ele>
        <time>2000-01-01T08:52:16.000Z</time>
      </trkpt>
      <trkpt lat="46.1645" lon="6.8381">
        <ele>1407</ele>
        <time>2000-01-01T08:52:26.000Z</time>
      </trkpt>
      <trkpt lat="46.16451" lon="6.83793">
        <ele>1412.9</ele>
        <time>2000-01-01T08:52:36.000Z</time>
      </trkpt>
      <trkpt lat="46.16455" lon="6.83765">
        <ele>1404</ele>
        <time>2000-01-01T08:52:46.000Z</time>
      </trkpt>
      <trkpt lat="46.16464" lon="6.83742">
        <ele>1408.2</ele>
        <time>2000-01-01T08:52:56.000Z</time>
      </trkpt>
      <trkpt lat="46.16473" lon="6.8373">
        <ele>1401</ele>
        <time>2000-01-01T08:53:06.000Z</time>
      </trkpt>
      <trkpt lat="46.16478" lon="6.8372">
        <ele>1408.3</ele>
        <time>2000-01-01T08:53:16.000Z</time>
      </trkpt>
      <trkpt lat="46.16485" lon="6.83708">
        <ele>1397</ele>
        <time>2000-01-01T08:53:26.000Z</time>
      </trkpt>
      <trkpt lat="46.16487" lon="6.83698">
        <ele>1406.8</ele>
        <time>2000-01-01T08:53:36.000Z</time>
      </trkpt>
      <trkpt lat="46.16487" lon="6.83689">
        <ele>1404.8</ele>
        <time>2000-01-01T08:53:46.000Z</time>
      </trkpt>
      <trkpt lat="46.16485" lon="6.83685">
        <ele>1403.5</ele>
        <time>2000-01-01T08:53:56.000Z</time>
      </trkpt>
      <trkpt lat="46.16482" lon="6.83683">
        <ele>1395</ele>
        <time>2000-01-01T08:54:06.000Z</time>
      </trkpt>
      <trkpt lat="46.16475" lon="6.83685">
        <ele>1402</ele>
        <time>2000-01-01T08:54:16.000Z</time>
      </trkpt>
      <trkpt lat="46.16471" lon="6.83701">
        <ele>1394</ele>
        <time>2000-01-01T08:54:26.000Z</time>
      </trkpt>
      <trkpt lat="46.16462" lon="6.83713">
        <ele>1402.4</ele>
        <time>2000-01-01T08:54:36.000Z</time>
      </trkpt>
      <trkpt lat="46.16449" lon="6.83723">
        <ele>1391</ele>
        <time>2000-01-01T08:54:46.000Z</time>
      </trkpt>
      <trkpt lat="46.16433" lon="6.8374">
        <ele>1389</ele>
        <time>2000-01-01T08:54:56.000Z</time>
      </trkpt>
      <trkpt lat="46.16415" lon="6.83767">
        <ele>1388</ele>
        <time>2000-01-01T08:55:06.000Z</time>
      </trkpt>
      <trkpt lat="46.16398" lon="6.83798">
        <ele>1386</ele>
        <time>2000-01-01T08:55:16.000Z</time>
      </trkpt>
      <trkpt lat="46.16379" lon="6.83842">
        <ele>1388</ele>
        <time>2000-01-01T08:55:26.000Z</time>
      </trkpt>
      <trkpt lat="46.16373" lon="6.83874">
        <ele>1386</ele>
        <time>2000-01-01T08:55:36.000Z</time>
      </trkpt>
      <trkpt lat="46.16356" lon="6.83907">
        <ele>1384</ele>
        <time>2000-01-01T08:55:46.000Z</time>
      </trkpt>
      <trkpt lat="46.1634" lon="6.83936">
        <ele>1377</ele>
        <time>2000-01-01T08:55:56.000Z</time>
      </trkpt>
      <trkpt lat="46.16329" lon="6.83965">
        <ele>1374</ele>
        <time>2000-01-01T08:56:06.000Z</time>
      </trkpt>
      <trkpt lat="46.16318" lon="6.83997">
        <ele>1371</ele>
        <time>2000-01-01T08:56:16.000Z</time>
      </trkpt>
      <trkpt lat="46.16306" lon="6.84034">
        <ele>1370</ele>
        <time>2000-01-01T08:56:26.000Z</time>
      </trkpt>
      <trkpt lat="46.16301" lon="6.84072">
        <ele>1369</ele>
        <time>2000-01-01T08:56:36.000Z</time>
      </trkpt>
      <trkpt lat="46.16292" lon="6.84107">
        <ele>1366</ele>
        <time>2000-01-01T08:56:46.000Z</time>
      </trkpt>
      <trkpt lat="46.16282" lon="6.84136">
        <ele>1365</ele>
        <time>2000-01-01T08:56:56.000Z</time>
      </trkpt>
      <trkpt lat="46.16279" lon="6.84167">
        <ele>1361</ele>
        <time>2000-01-01T08:57:06.000Z</time>
      </trkpt>
      <trkpt lat="46.16276" lon="6.84213">
        <ele>1360</ele>
        <time>2000-01-01T08:57:16.000Z</time>
      </trkpt>
      <trkpt lat="46.16276" lon="6.84221">
        <ele>1360.2</ele>
        <time>2000-01-01T08:57:26.000Z</time>
      </trkpt>
      <trkpt lat="46.16273" lon="6.84226">
        <ele>1358.5</ele>
        <time>2000-01-01T08:57:36.000Z</time>
      </trkpt>
      <trkpt lat="46.16259" lon="6.84153">
        <ele>1357</ele>
        <time>2000-01-01T08:57:46.000Z</time>
      </trkpt>
      <trkpt lat="46.16262" lon="6.84112">
        <ele>1354</ele>
        <time>2000-01-01T08:57:56.000Z</time>
      </trkpt>
      <trkpt lat="46.16265" lon="6.84051">
        <ele>1348</ele>
        <time>2000-01-01T08:58:06.000Z</time>
      </trkpt>
      <trkpt lat="46.1627" lon="6.84007">
        <ele>1344</ele>
        <time>2000-01-01T08:58:16.000Z</time>
      </trkpt>
      <trkpt lat="46.16273" lon="6.83971">
        <ele>1344</ele>
        <time>2000-01-01T08:58:26.000Z</time>
      </trkpt>
      <trkpt lat="46.16278" lon="6.83926">
        <ele>1339</ele>
        <time>2000-01-01T08:58:36.000Z</time>
      </trkpt>
      <trkpt lat="46.16268" lon="6.8395">
        <ele>1341</ele>
        <time>2000-01-01T08:58:46.000Z</time>
      </trkpt>
      <trkpt lat="46.16262" lon="6.83995">
        <ele>1341</ele>
        <time>2000-01-01T08:58:56.000Z</time>
      </trkpt>
      <trkpt lat="46.16252" lon="6.84036">
        <ele>1341</ele>
        <time>2000-01-01T08:59:06.000Z</time>
      </trkpt>
      <trkpt lat="46.16245" lon="6.84069">
        <ele>1338</ele>
        <time>2000-01-01T08:59:16.000Z</time>
      </trkpt>
      <trkpt lat="46.16236" lon="6.84104">
        <ele>1338</ele>
        <time>2000-01-01T08:59:26.000Z</time>
      </trkpt>
      <trkpt lat="46.16234" lon="6.84144">
        <ele>1339</ele>
        <time>2000-01-01T08:59:36.000Z</time>
      </trkpt>
      <trkpt lat="46.16232" lon="6.84202">
        <ele>1342</ele>
        <time>2000-01-01T08:59:46.000Z</time>
      </trkpt>
      <trkpt lat="46.16242" lon="6.84253">
        <ele>1335</ele>
        <time>2000-01-01T08:59:56.000Z</time>
      </trkpt>
      <trkpt lat="46.16216" lon="6.8429">
        <ele>1329</ele>
        <time>2000-01-01T09:00:06.000Z</time>
      </trkpt>
      <trkpt lat="46.16216" lon="6.84339">
        <ele>1327</ele>
        <time>2000-01-01T09:00:16.000Z</time>
      </trkpt>
      <trkpt lat="46.16216" lon="6.84387">
        <ele>1327</ele>
        <time>2000-01-01T09:00:26.000Z</time>
      </trkpt>
      <trkpt lat="46.16215" lon="6.84423">
        <ele>1327</ele>
        <time>2000-01-01T09:00:36.000Z</time>
      </trkpt>
      <trkpt lat="46.16215" lon="6.84465">
        <ele>1324</ele>
        <time>2000-01-01T09:00:46.000Z</time>
      </trkpt>
      <trkpt lat="46.16209" lon="6.84501">
        <ele>1322</ele>
        <time>2000-01-01T09:00:56.000Z</time>
      </trkpt>
      <trkpt lat="46.16206" lon="6.84516">
        <ele>1321.9</ele>
        <time>2000-01-01T09:01:06.000Z</time>
      </trkpt>
      <trkpt lat="46.16208" lon="6.84538">
        <ele>1325</ele>
        <time>2000-01-01T09:01:16.000Z</time>
      </trkpt>
      <trkpt lat="46.16211" lon="6.8458">
        <ele>1324</ele>
        <time>2000-01-01T09:01:26.000Z</time>
      </trkpt>
      <trkpt lat="46.16215" lon="6.84638">
        <ele>1324</ele>
        <time>2000-01-01T09:01:36.000Z</time>
      </trkpt>
      <trkpt lat="46.16218" lon="6.84671">
        <ele>1325</ele>
        <time>2000-01-01T09:01:46.000Z</time>
      </trkpt>
      <trkpt lat="46.16221" lon="6.84705">
        <ele>1324</ele>
        <time>2000-01-01T09:01:56.000Z</time>
      </trkpt>
      <trkpt lat="46.16224" lon="6.84732">
        <ele>1324</ele>
        <time>2000-01-01T09:02:06.000Z</time>
      </trkpt>
      <trkpt lat="46.16228" lon="6.84768">
        <ele>1320</ele>
        <time>2000-01-01T09:02:16.000Z</time>
      </trkpt>
      <trkpt lat="46.16233" lon="6.84823">
        <ele>1311</ele>
        <time>2000-01-01T09:02:26.000Z</time>
      </trkpt>
      <trkpt lat="46.16236" lon="6.84859">
        <ele>1306</ele>
        <time>2000-01-01T09:02:36.000Z</time>
      </trkpt>
      <trkpt lat="46.16255" lon="6.84917">
        <ele>1305</ele>
        <time>2000-01-01T09:02:46.000Z</time>
      </trkpt>
      <trkpt lat="46.1626" lon="6.8497">
        <ele>1289</ele>
        <time>2000-01-01T09:02:56.000Z</time>
      </trkpt>
      <trkpt lat="46.16277" lon="6.85012">
        <ele>1291</ele>
        <time>2000-01-01T09:03:06.000Z</time>
      </trkpt>
      <trkpt lat="46.16291" lon="6.85044">
        <ele>1288</ele>
        <time>2000-01-01T09:03:16.000Z</time>
      </trkpt>
      <trkpt lat="46.16308" lon="6.85085">
        <ele>1286</ele>
        <time>2000-01-01T09:03:26.000Z</time>
      </trkpt>
      <trkpt lat="46.16323" lon="6.85123">
        <ele>1284</ele>
        <time>2000-01-01T09:03:36.000Z</time>
      </trkpt>
      <trkpt lat="46.16332" lon="6.85159">
        <ele>1279</ele>
        <time>2000-01-01T09:03:46.000Z</time>
      </trkpt>
      <trkpt lat="46.16342" lon="6.85179">
        <ele>1273.4</ele>
        <time>2000-01-01T09:03:56.000Z</time>
      </trkpt>
      <trkpt lat="46.16355" lon="6.85197">
        <ele>1275</ele>
        <time>2000-01-01T09:04:06.000Z</time>
      </trkpt>
      <trkpt lat="46.16389" lon="6.85233">
        <ele>1275</ele>
        <time>2000-01-01T09:04:16.000Z</time>
      </trkpt>
      <trkpt lat="46.16397" lon="6.85245">
        <ele>1268.5</ele>
        <time>2000-01-01T09:04:26.000Z</time>
      </trkpt>
      <trkpt lat="46.16407" lon="6.85264">
        <ele>1271</ele>
        <time>2000-01-01T09:04:36.000Z</time>
      </trkpt>
      <trkpt lat="46.16422" lon="6.85297">
        <ele>1269</ele>
        <time>2000-01-01T09:04:46.000Z</time>
      </trkpt>
      <trkpt lat="46.16444" lon="6.85345">
        <ele>1266</ele>
        <time>2000-01-01T09:04:56.000Z</time>
      </trkpt>
      <trkpt lat="46.16448" lon="6.85352">
        <ele>1256.2</ele>
        <time>2000-01-01T09:05:06.000Z</time>
      </trkpt>
      <trkpt lat="46.16464" lon="6.85368">
        <ele>1264</ele>
        <time>2000-01-01T09:05:16.000Z</time>
      </trkpt>
      <trkpt lat="46.16471" lon="6.85378">
        <ele>1251.3</ele>
        <time>2000-01-01T09:05:26.000Z</time>
      </trkpt>
      <trkpt lat="46.1648" lon="6.85396">
        <ele>1258</ele>
        <time>2000-01-01T09:05:36.000Z</time>
      </trkpt>
      <trkpt lat="46.16492" lon="6.85425">
        <ele>1257</ele>
        <time>2000-01-01T09:05:46.000Z</time>
      </trkpt>
      <trkpt lat="46.16503" lon="6.85455">
        <ele>1253</ele>
        <time>2000-01-01T09:05:56.000Z</time>
      </trkpt>
      <trkpt lat="46.1654" lon="6.85489">
        <ele>1250</ele>
        <time>2000-01-01T09:06:06.000Z</time>
      </trkpt>
      <trkpt lat="46.16563" lon="6.85508">
        <ele>1247</ele>
        <time>2000-01-01T09:06:16.000Z</time>
      </trkpt>
      <trkpt lat="46.16571" lon="6.85513">
        <ele>1227.4</ele>
        <time>2000-01-01T09:06:26.000Z</time>
      </trkpt>
      <trkpt lat="46.16587" lon="6.85532">
        <ele>1243</ele>
        <time>2000-01-01T09:06:36.000Z</time>
      </trkpt>
      <trkpt lat="46.16597" lon="6.8556">
        <ele>1240</ele>
        <time>2000-01-01T09:06:46.000Z</time>
      </trkpt>
      <trkpt lat="46.16616" lon="6.8559">
        <ele>1237</ele>
        <time>2000-01-01T09:06:56.000Z</time>
      </trkpt>
      <trkpt lat="46.16646" lon="6.85635">
        <ele>1229</ele>
        <time>2000-01-01T09:07:06.000Z</time>
      </trkpt>
      <trkpt lat="46.16658" lon="6.85689">
        <ele>1214</ele>
        <time>2000-01-01T09:07:16.000Z</time>
      </trkpt>
      <trkpt lat="46.16661" lon="6.85694">
        <ele>1195.7</ele>
        <time>2000-01-01T09:07:26.000Z</time>
      </trkpt>
      <trkpt lat="46.16697" lon="6.85745">
        <ele>1208</ele>
        <time>2000-01-01T09:07:36.000Z</time>
      </trkpt>
      <trkpt lat="46.16718" lon="6.8578">
        <ele>1205</ele>
        <time>2000-01-01T09:07:46.000Z</time>
      </trkpt>
      <trkpt lat="46.16745" lon="6.85818">
        <ele>1198</ele>
        <time>2000-01-01T09:07:56.000Z</time>
      </trkpt>
      <trkpt lat="46.16759" lon="6.85836">
        <ele>1194</ele>
        <time>2000-01-01T09:08:06.000Z</time>
      </trkpt>
      <trkpt lat="46.16777" lon="6.85854">
        <ele>1192</ele>
        <time>2000-01-01T09:08:16.000Z</time>
      </trkpt>
      <trkpt lat="46.16806" lon="6.85885">
        <ele>1193</ele>
        <time>2000-01-01T09:08:26.000Z</time>
      </trkpt>
      <trkpt lat="46.16827" lon="6.85886">
        <ele>1184</ele>
        <time>2000-01-01T09:08:36.000Z</time>
      </trkpt>
      <trkpt lat="46.16831" lon="6.85888">
        <ele>1179.3</ele>
        <time>2000-01-01T09:08:46.000Z</time>
      </trkpt>
      <trkpt lat="46.16836" lon="6.85893">
        <ele>1179.4</ele>
        <time>2000-01-01T09:08:56.000Z</time>
      </trkpt>
      <trkpt lat="46.16839" lon="6.859">
        <ele>1179.3</ele>
        <time>2000-01-01T09:09:06.000Z</time>
      </trkpt>
      <trkpt lat="46.1684" lon="6.85955">
        <ele>1176</ele>
        <time>2000-01-01T09:09:16.000Z</time>
      </trkpt>
      <trkpt lat="46.16844" lon="6.85974">
        <ele>1171.2</ele>
        <time>2000-01-01T09:09:26.000Z</time>
      </trkpt>
      <trkpt lat="46.16869" lon="6.86">
        <ele>1173</ele>
        <time>2000-01-01T09:09:36.000Z</time>
      </trkpt>
      <trkpt lat="46.1689" lon="6.86015">
        <ele>1171</ele>
        <time>2000-01-01T09:09:46.000Z</time>
      </trkpt>
      <trkpt lat="46.16916" lon="6.86035">
        <ele>1169</ele>
        <time>2000-01-01T09:09:56.000Z</time>
      </trkpt>
      <trkpt lat="46.16938" lon="6.86052">
        <ele>1163</ele>
        <time>2000-01-01T09:10:06.000Z</time>
      </trkpt>
      <trkpt lat="46.16963" lon="6.86072">
        <ele>1161</ele>
        <time>2000-01-01T09:10:16.000Z</time>
      </trkpt>
      <trkpt lat="46.1699" lon="6.86089">
        <ele>1158</ele>
        <time>2000-01-01T09:10:26.000Z</time>
      </trkpt>
      <trkpt lat="46.17012" lon="6.86102">
        <ele>1157</ele>
        <time>2000-01-01T09:10:36.000Z</time>
      </trkpt>
      <trkpt lat="46.17036" lon="6.86117">
        <ele>1155</ele>
        <time>2000-01-01T09:10:46.000Z</time>
      </trkpt>
      <trkpt lat="46.17059" lon="6.86137">
        <ele>1154</ele>
        <time>2000-01-01T09:10:56.000Z</time>
      </trkpt>
      <trkpt lat="46.17075" lon="6.8616">
        <ele>1151</ele>
        <time>2000-01-01T09:11:06.000Z</time>
      </trkpt>
      <trkpt lat="46.17094" lon="6.8622">
        <ele>1133</ele>
        <time>2000-01-01T09:11:16.000Z</time>
      </trkpt>
      <trkpt lat="46.17108" lon="6.86246">
        <ele>1122</ele>
        <time>2000-01-01T09:11:26.000Z</time>
      </trkpt>
      <trkpt lat="46.17115" lon="6.86262">
        <ele>1114.7</ele>
        <time>2000-01-01T09:11:36.000Z</time>
      </trkpt>
      <trkpt lat="46.17126" lon="6.86279">
        <ele>1115</ele>
        <time>2000-01-01T09:11:46.000Z</time>
      </trkpt>
      <trkpt lat="46.17142" lon="6.86295">
        <ele>1111</ele>
        <time>2000-01-01T09:11:56.000Z</time>
      </trkpt>
      <trkpt lat="46.17153" lon="6.86309">
        <ele>1101</ele>
        <time>2000-01-01T09:12:06.000Z</time>
      </trkpt>
      <trkpt lat="46.17162" lon="6.86323">
        <ele>1102</ele>
        <time>2000-01-01T09:12:16.000Z</time>
      </trkpt>
      <trkpt lat="46.17171" lon="6.86355">
        <ele>1096</ele>
        <time>2000-01-01T09:12:26.000Z</time>
      </trkpt>
      <trkpt lat="46.17173" lon="6.86369">
        <ele>1089</ele>
        <time>2000-01-01T09:12:36.000Z</time>
      </trkpt>
      <trkpt lat="46.17179" lon="6.86369">
        <ele>1088.5</ele>
        <time>2000-01-01T09:12:46.000Z</time>
      </trkpt>
      <trkpt lat="46.17193" lon="6.86362">
        <ele>1095</ele>
        <time>2000-01-01T09:12:56.000Z</time>
      </trkpt>
      <trkpt lat="46.17203" lon="6.86367">
        <ele>1089.2</ele>
        <time>2000-01-01T09:13:06.000Z</time>
      </trkpt>
      <trkpt lat="46.17215" lon="6.86383">
        <ele>1091</ele>
        <time>2000-01-01T09:13:16.000Z</time>
      </trkpt>
      <trkpt lat="46.17237" lon="6.86409">
        <ele>1089</ele>
        <time>2000-01-01T09:13:26.000Z</time>
      </trkpt>
      <trkpt lat="46.17273" lon="6.8645">
        <ele>1085</ele>
        <time>2000-01-01T09:13:36.000Z</time>
      </trkpt>
      <trkpt lat="46.17295" lon="6.86474">
        <ele>1083</ele>
        <time>2000-01-01T09:13:46.000Z</time>
      </trkpt>
      <trkpt lat="46.17312" lon="6.86496">
        <ele>1083</ele>
        <time>2000-01-01T09:13:56.000Z</time>
      </trkpt>
      <trkpt lat="46.1733" lon="6.86519">
        <ele>1081</ele>
        <time>2000-01-01T09:14:06.000Z</time>
      </trkpt>
      <trkpt lat="46.17351" lon="6.86547">
        <ele>1079</ele>
        <time>2000-01-01T09:14:16.000Z</time>
      </trkpt>
      <trkpt lat="46.17368" lon="6.86571">
        <ele>1075</ele>
        <time>2000-01-01T09:14:26.000Z</time>
      </trkpt>
      <trkpt lat="46.1739" lon="6.866">
        <ele>1075</ele>
        <time>2000-01-01T09:14:36.000Z</time>
      </trkpt>
      <trkpt lat="46.17392" lon="6.86599">
        <ele>1077.2</ele>
        <time>2000-01-01T09:14:46.000Z</time>
      </trkpt>
      <trkpt lat="46.17398" lon="6.86606">
        <ele>1076</ele>
        <time>2000-01-01T09:14:56.000Z</time>
      </trkpt>
      <trkpt lat="46.17418" lon="6.86617">
        <ele>1076</ele>
        <time>2000-01-01T09:15:06.000Z</time>
      </trkpt>
      <trkpt lat="46.17445" lon="6.86629">
        <ele>1076</ele>
        <time>2000-01-01T09:15:16.000Z</time>
      </trkpt>
      <trkpt lat="46.1747" lon="6.86637">
        <ele>1076</ele>
        <time>2000-01-01T09:15:26.000Z</time>
      </trkpt>
      <trkpt lat="46.17493" lon="6.86646">
        <ele>1075</ele>
        <time>2000-01-01T09:15:36.000Z</time>
      </trkpt>
      <trkpt lat="46.17509" lon="6.8665">
        <ele>1065.5</ele>
        <time>2000-01-01T09:15:46.000Z</time>
      </trkpt>
      <trkpt lat="46.17519" lon="6.86655">
        <ele>1073</ele>
        <time>2000-01-01T09:15:56.000Z</time>
      </trkpt>
      <trkpt lat="46.17523" lon="6.86661">
        <ele>1064.8</ele>
        <time>2000-01-01T09:16:06.000Z</time>
      </trkpt>
      <trkpt lat="46.17523" lon="6.86668">
        <ele>1063.8</ele>
        <time>2000-01-01T09:16:16.000Z</time>
      </trkpt>
      <trkpt lat="46.17519" lon="6.86681">
        <ele>1067</ele>
        <time>2000-01-01T09:16:26.000Z</time>
      </trkpt>
      <trkpt lat="46.17499" lon="6.86701">
        <ele>1064</ele>
        <time>2000-01-01T09:16:36.000Z</time>
      </trkpt>
      <trkpt lat="46.17476" lon="6.86723">
        <ele>1061</ele>
        <time>2000-01-01T09:16:46.000Z</time>
      </trkpt>
      <trkpt lat="46.17457" lon="6.86743">
        <ele>1058</ele>
        <time>2000-01-01T09:16:56.000Z</time>
      </trkpt>
      <trkpt lat="46.17437" lon="6.86763">
        <ele>1056</ele>
        <time>2000-01-01T09:17:06.000Z</time>
      </trkpt>
      <trkpt lat="46.17438" lon="6.86792">
        <ele>1054</ele>
        <time>2000-01-01T09:17:16.000Z</time>
      </trkpt>
      <trkpt lat="46.1746" lon="6.86836">
        <ele>1050</ele>
        <time>2000-01-01T09:17:26.000Z</time>
      </trkpt>
      <trkpt lat="46.17483" lon="6.86868">
        <ele>1048</ele>
        <time>2000-01-01T09:17:36.000Z</time>
      </trkpt>
      <trkpt lat="46.17506" lon="6.869">
        <ele>1044</ele>
        <time>2000-01-01T09:17:46.000Z</time>
      </trkpt>
      <trkpt lat="46.17531" lon="6.86936">
        <ele>1043</ele>
        <time>2000-01-01T09:17:56.000Z</time>
      </trkpt>
      <trkpt lat="46.1753" lon="6.8694">
        <ele>1040.4</ele>
        <time>2000-01-01T09:18:06.000Z</time>
      </trkpt>
      <trkpt lat="46.17512" lon="6.87024">
        <ele>1037</ele>
        <time>2000-01-01T09:18:16.000Z</time>
      </trkpt>
      <trkpt lat="46.17511" lon="6.87066">
        <ele>1035</ele>
        <time>2000-01-01T09:18:26.000Z</time>
      </trkpt>
      <trkpt lat="46.17506" lon="6.871">
        <ele>1034</ele>
        <time>2000-01-01T09:18:36.000Z</time>
      </trkpt>
      <trkpt lat="46.17501" lon="6.87137">
        <ele>1034</ele>
        <time>2000-01-01T09:18:46.000Z</time>
      </trkpt>
      <trkpt lat="46.17495" lon="6.87077">
        <ele>1035</ele>
        <time>2000-01-01T09:18:56.000Z</time>
      </trkpt>
      <trkpt lat="46.17497" lon="6.87039">
        <ele>1036</ele>
        <time>2000-01-01T09:19:06.000Z</time>
      </trkpt>
      <trkpt lat="46.17499" lon="6.8699">
        <ele>1039</ele>
        <time>2000-01-01T09:19:16.000Z</time>
      </trkpt>
      <trkpt lat="46.17508" lon="6.86948">
        <ele>1041</ele>
        <time>2000-01-01T09:19:26.000Z</time>
      </trkpt>
      <trkpt lat="46.17508" lon="6.8691">
        <ele>1043</ele>
        <time>2000-01-01T09:19:36.000Z</time>
      </trkpt>
      <trkpt lat="46.17508" lon="6.86861">
        <ele>1048</ele>
        <time>2000-01-01T09:19:46.000Z</time>
      </trkpt>
      <trkpt lat="46.17509" lon="6.86823">
        <ele>1051</ele>
        <time>2000-01-01T09:19:56.000Z</time>
      </trkpt>
      <trkpt lat="46.17509" lon="6.86774">
        <ele>1056</ele>
        <time>2000-01-01T09:20:06.000Z</time>
      </trkpt>
      <trkpt lat="46.17509" lon="6.86726">
        <ele>1061</ele>
        <time>2000-01-01T09:20:16.000Z</time>
      </trkpt>
      <trkpt lat="46.17509" lon="6.8669">
        <ele>1066</ele>
        <time>2000-01-01T09:20:26.000Z</time>
      </trkpt>
      <trkpt lat="46.17509" lon="6.86648">
        <ele>1076</ele>
        <time>2000-01-01T09:20:36.000Z</time>
      </trkpt>
      <trkpt lat="46.1751" lon="6.86613">
        <ele>1085</ele>
        <time>2000-01-01T09:20:46.000Z</time>
      </trkpt>
      <trkpt lat="46.1751" lon="6.86564">
        <ele>1098</ele>
        <time>2000-01-01T09:20:56.000Z</time>
      </trkpt>
      <trkpt lat="46.1751" lon="6.86515">
        <ele>1115</ele>
        <time>2000-01-01T09:21:06.000Z</time>
      </trkpt>
      <trkpt lat="46.1751" lon="6.86477">
        <ele>1130</ele>
        <time>2000-01-01T09:21:16.000Z</time>
      </trkpt>
      <trkpt lat="46.1751" lon="6.86431">
        <ele>1144</ele>
        <time>2000-01-01T09:21:26.000Z</time>
      </trkpt>
      <trkpt lat="46.17511" lon="6.86386">
        <ele>1168</ele>
        <time>2000-01-01T09:21:36.000Z</time>
      </trkpt>
      <trkpt lat="46.17511" lon="6.8634">
        <ele>1181</ele>
        <time>2000-01-01T09:21:46.000Z</time>
      </trkpt>
      <trkpt lat="46.17511" lon="6.86295">
        <ele>1196</ele>
        <time>2000-01-01T09:21:56.000Z</time>
      </trkpt>
      <trkpt lat="46.17511" lon="6.86245">
        <ele>1208</ele>
        <time>2000-01-01T09:22:06.000Z</time>
      </trkpt>
      <trkpt lat="46.17512" lon="6.86186">
        <ele>1221</ele>
        <time>2000-01-01T09:22:16.000Z</time>
      </trkpt>
      <trkpt lat="46.17512" lon="6.8614">
        <ele>1240</ele>
        <time>2000-01-01T09:22:26.000Z</time>
      </trkpt>
      <trkpt lat="46.17512" lon="6.86094">
        <ele>1257</ele>
        <time>2000-01-01T09:22:36.000Z</time>
      </trkpt>
      <trkpt lat="46.17512" lon="6.86039">
        <ele>1279</ele>
        <time>2000-01-01T09:22:46.000Z</time>
      </trkpt>
      <trkpt lat="46.17513" lon="6.85982">
        <ele>1300</ele>
        <time>2000-01-01T09:22:56.000Z</time>
      </trkpt>
      <trkpt lat="46.17513" lon="6.85933">
        <ele>1315</ele>
        <time>2000-01-01T09:23:06.000Z</time>
      </trkpt>
      <trkpt lat="46.17513" lon="6.85884">
        <ele>1333</ele>
        <time>2000-01-01T09:23:16.000Z</time>
      </trkpt>
      <trkpt lat="46.17513" lon="6.85848">
        <ele>1346</ele>
        <time>2000-01-01T09:23:26.000Z</time>
      </trkpt>
      <trkpt lat="46.17513" lon="6.85805">
        <ele>1361</ele>
        <time>2000-01-01T09:23:36.000Z</time>
      </trkpt>
      <trkpt lat="46.17514" lon="6.85768">
        <ele>1376</ele>
        <time>2000-01-01T09:23:46.000Z</time>
      </trkpt>
      <trkpt lat="46.17514" lon="6.85722">
        <ele>1393</ele>
        <time>2000-01-01T09:23:56.000Z</time>
      </trkpt>
      <trkpt lat="46.17514" lon="6.85676">
        <ele>1412</ele>
        <time>2000-01-01T09:24:06.000Z</time>
      </trkpt>
      <trkpt lat="46.17514" lon="6.85622">
        <ele>1438</ele>
        <time>2000-01-01T09:24:16.000Z</time>
      </trkpt>
      <trkpt lat="46.17515" lon="6.85573">
        <ele>1462</ele>
        <time>2000-01-01T09:24:26.000Z</time>
      </trkpt>
      <trkpt lat="46.17515" lon="6.85528">
        <ele>1479</ele>
        <time>2000-01-01T09:24:36.000Z</time>
      </trkpt>
      <trkpt lat="46.17515" lon="6.85491">
        <ele>1486</ele>
        <time>2000-01-01T09:24:46.000Z</time>
      </trkpt>
      <trkpt lat="46.17515" lon="6.85442">
        <ele>1491</ele>
        <time>2000-01-01T09:24:56.000Z</time>
      </trkpt>
      <trkpt lat="46.17516" lon="6.85382">
        <ele>1503</ele>
        <time>2000-01-01T09:25:06.000Z</time>
      </trkpt>
      <trkpt lat="46.17516" lon="6.85331">
        <ele>1515</ele>
        <time>2000-01-01T09:25:16.000Z</time>
      </trkpt>
      <trkpt lat="46.17516" lon="6.85281">
        <ele>1533</ele>
        <time>2000-01-01T09:25:26.000Z</time>
      </trkpt>
      <trkpt lat="46.17516" lon="6.8523">
        <ele>1548</ele>
        <time>2000-01-01T09:25:36.000Z</time>
      </trkpt>
      <trkpt lat="46.17516" lon="6.85178">
        <ele>1565</ele>
        <time>2000-01-01T09:25:46.000Z</time>
      </trkpt>
      <trkpt lat="46.17517" lon="6.85126">
        <ele>1585</ele>
        <time>2000-01-01T09:25:56.000Z</time>
      </trkpt>
      <trkpt lat="46.17517" lon="6.85082">
        <ele>1602</ele>
        <time>2000-01-01T09:26:06.000Z</time>
      </trkpt>
      <trkpt lat="46.17517" lon="6.85045">
        <ele>1623</ele>
        <time>2000-01-01T09:26:16.000Z</time>
      </trkpt>
      <trkpt lat="46.17517" lon="6.85">
        <ele>1645</ele>
        <time>2000-01-01T09:26:26.000Z</time>
      </trkpt>
      <trkpt lat="46.17518" lon="6.84953">
        <ele>1671</ele>
        <time>2000-01-01T09:26:36.000Z</time>
      </trkpt>
      <trkpt lat="46.17518" lon="6.84905">
        <ele>1702</ele>
        <time>2000-01-01T09:26:46.000Z</time>
      </trkpt>
      <trkpt lat="46.17518" lon="6.84858">
        <ele>1741</ele>
        <time>2000-01-01T09:26:56.000Z</time>
      </trkpt>
      <trkpt lat="46.17518" lon="6.84791">
        <ele>1783</ele>
        <time>2000-01-01T09:27:06.000Z</time>
      </trkpt>
      <trkpt lat="46.17519" lon="6.84753">
        <ele>1812</ele>
        <time>2000-01-01T09:27:16.000Z</time>
      </trkpt>
      <trkpt lat="46.17519" lon="6.84704">
        <ele>1863</ele>
        <time>2000-01-01T09:27:26.000Z</time>
      </trkpt>
      <trkpt lat="46.17519" lon="6.84655">
        <ele>1899</ele>
        <time>2000-01-01T09:27:36.000Z</time>
      </trkpt>
      <trkpt lat="46.17519" lon="6.84618">
        <ele>1918</ele>
        <time>2000-01-01T09:27:46.000Z</time>
      </trkpt>
      <trkpt lat="46.17519" lon="6.84572">
        <ele>1921</ele>
        <time>2000-01-01T09:27:56.000Z</time>
      </trkpt>
      <trkpt lat="46.17511" lon="6.84527">
        <ele>1922</ele>
        <time>2000-01-01T09:28:06.000Z</time>
      </trkpt>
      <trkpt lat="46.1753" lon="6.845">
        <ele>1920</ele>
        <time>2000-01-01T09:28:16.000Z</time>
      </trkpt>
      <trkpt lat="46.17558" lon="6.84461">
        <ele>1919</ele>
        <time>2000-01-01T09:28:26.000Z</time>
      </trkpt>
      <trkpt lat="46.17577" lon="6.84444">
        <ele>1916</ele>
        <time>2000-01-01T09:28:36.000Z</time>
      </trkpt>
      <trkpt lat="46.17577" lon="6.844">
        <ele>1908</ele>
        <time>2000-01-01T09:28:46.000Z</time>
      </trkpt>
      <trkpt lat="46.17576" lon="6.84363">
        <ele>1904</ele>
        <time>2000-01-01T09:28:56.000Z</time>
      </trkpt>
      <trkpt lat="46.17576" lon="6.84319">
        <ele>1899</ele>
        <time>2000-01-01T09:29:06.000Z</time>
      </trkpt>
      <trkpt lat="46.17573" lon="6.84275">
        <ele>1899</ele>
        <time>2000-01-01T09:29:16.000Z</time>
      </trkpt>
      <trkpt lat="46.1757" lon="6.84239">
        <ele>1899</ele>
        <time>2000-01-01T09:29:26.000Z</time>
      </trkpt>
      <trkpt lat="46.17567" lon="6.84195">
        <ele>1898</ele>
        <time>2000-01-01T09:29:36.000Z</time>
      </trkpt>
      <trkpt lat="46.17589" lon="6.84139">
        <ele>1897</ele>
        <time>2000-01-01T09:29:46.000Z</time>
      </trkpt>
      <trkpt lat="46.17591" lon="6.84104">
        <ele>1897</ele>
        <time>2000-01-01T09:29:56.000Z</time>
      </trkpt>
      <trkpt lat="46.17594" lon="6.84066">
        <ele>1892</ele>
        <time>2000-01-01T09:30:06.000Z</time>
      </trkpt>
      <trkpt lat="46.176" lon="6.84026">
        <ele>1891</ele>
        <time>2000-01-01T09:30:16.000Z</time>
      </trkpt>
      <trkpt lat="46.1761" lon="6.83966">
        <ele>1884</ele>
        <time>2000-01-01T09:30:26.000Z</time>
      </trkpt>
      <trkpt lat="46.17617" lon="6.83917">
        <ele>1880</ele>
        <time>2000-01-01T09:30:36.000Z</time>
      </trkpt>
      <trkpt lat="46.17626" lon="6.8386">
        <ele>1873</ele>
        <time>2000-01-01T09:30:46.000Z</time>
      </trkpt>
      <trkpt lat="46.17645" lon="6.83825">
        <ele>1873</ele>
        <time>2000-01-01T09:30:56.000Z</time>
      </trkpt>
      <trkpt lat="46.1766" lon="6.83796">
        <ele>1871</ele>
        <time>2000-01-01T09:31:06.000Z</time>
      </trkpt>
      <trkpt lat="46.1768" lon="6.83759">
        <ele>1867</ele>
        <time>2000-01-01T09:31:16.000Z</time>
      </trkpt>
      <trkpt lat="46.17706" lon="6.83754">
        <ele>1864</ele>
        <time>2000-01-01T09:31:26.000Z</time>
      </trkpt>
      <trkpt lat="46.17741" lon="6.83748">
        <ele>1860</ele>
        <time>2000-01-01T09:31:36.000Z</time>
      </trkpt>
      <trkpt lat="46.17764" lon="6.83734">
        <ele>1858</ele>
        <time>2000-01-01T09:31:46.000Z</time>
      </trkpt>
      <trkpt lat="46.17792" lon="6.83718">
        <ele>1851</ele>
        <time>2000-01-01T09:31:56.000Z</time>
      </trkpt>
      <trkpt lat="46.17777" lon="6.83691">
        <ele>1850</ele>
        <time>2000-01-01T09:32:06.000Z</time>
      </trkpt>
      <trkpt lat="46.1776" lon="6.83661">
        <ele>1846</ele>
        <time>2000-01-01T09:32:16.000Z</time>
      </trkpt>
      <trkpt lat="46.17742" lon="6.83633">
        <ele>1842</ele>
        <time>2000-01-01T09:32:26.000Z</time>
      </trkpt>
      <trkpt lat="46.17747" lon="6.83572">
        <ele>1834</ele>
        <time>2000-01-01T09:32:36.000Z</time>
      </trkpt>
      <trkpt lat="46.17754" lon="6.8354">
        <ele>1831</ele>
        <time>2000-01-01T09:32:46.000Z</time>
      </trkpt>
      <trkpt lat="46.17762" lon="6.83508">
        <ele>1827</ele>
        <time>2000-01-01T09:32:56.000Z</time>
      </trkpt>
      <trkpt lat="46.17772" lon="6.83474">
        <ele>1823</ele>
        <time>2000-01-01T09:33:06.000Z</time>
      </trkpt>
      <trkpt lat="46.17802" lon="6.8345">
        <ele>1817</ele>
        <time>2000-01-01T09:33:16.000Z</time>
      </trkpt>
      <trkpt lat="46.17831" lon="6.83426">
        <ele>1811</ele>
        <time>2000-01-01T09:33:26.000Z</time>
      </trkpt>
      <trkpt lat="46.17853" lon="6.83407">
        <ele>1807</ele>
        <time>2000-01-01T09:33:36.000Z</time>
      </trkpt>
      <trkpt lat="46.17881" lon="6.83385">
        <ele>1801</ele>
        <time>2000-01-01T09:33:46.000Z</time>
      </trkpt>
      <trkpt lat="46.17884" lon="6.83348">
        <ele>1800</ele>
        <time>2000-01-01T09:33:56.000Z</time>
      </trkpt>
      <trkpt lat="46.17888" lon="6.83302">
        <ele>1800</ele>
        <time>2000-01-01T09:34:06.000Z</time>
      </trkpt>
      <trkpt lat="46.179" lon="6.83254">
        <ele>1800</ele>
        <time>2000-01-01T09:34:16.000Z</time>
      </trkpt>
      <trkpt lat="46.17904" lon="6.83219">
        <ele>1800</ele>
        <time>2000-01-01T09:34:26.000Z</time>
      </trkpt>
      <trkpt lat="46.17909" lon="6.83179">
        <ele>1800</ele>
        <time>2000-01-01T09:34:36.000Z</time>
      </trkpt>
      <trkpt lat="46.17918" lon="6.83143">
        <ele>1797</ele>
        <time>2000-01-01T09:34:46.000Z</time>
      </trkpt>
      <trkpt lat="46.1793" lon="6.83095">
        <ele>1793</ele>
        <time>2000-01-01T09:34:56.000Z</time>
      </trkpt>
      <trkpt lat="46.17941" lon="6.83065">
        <ele>1787</ele>
        <time>2000-01-01T09:35:06.000Z</time>
      </trkpt>
      <trkpt lat="46.17952" lon="6.83035">
        <ele>1784</ele>
        <time>2000-01-01T09:35:16.000Z</time>
      </trkpt>
      <trkpt lat="46.17963" lon="6.82995">
        <ele>1784</ele>
        <time>2000-01-01T09:35:26.000Z</time>
      </trkpt>
      <trkpt lat="46.17971" lon="6.82956">
        <ele>1784</ele>
        <time>2000-01-01T09:35:36.000Z</time>
      </trkpt>
      <trkpt lat="46.17979" lon="6.82937">
        <ele>1774.7</ele>
        <time>2000-01-01T09:35:46.000Z</time>
      </trkpt>
      <trkpt lat="46.17991" lon="6.82929">
        <ele>1784</ele>
        <time>2000-01-01T09:35:56.000Z</time>
      </trkpt>
      <trkpt lat="46.18015" lon="6.82927">
        <ele>1778</ele>
        <time>2000-01-01T09:36:06.000Z</time>
      </trkpt>
      <trkpt lat="46.1804" lon="6.82926">
        <ele>1774</ele>
        <time>2000-01-01T09:36:16.000Z</time>
      </trkpt>
      <trkpt lat="46.18055" lon="6.82916">
        <ele>1765.2</ele>
        <time>2000-01-01T09:36:26.000Z</time>
      </trkpt>
      <trkpt lat="46.18073" lon="6.82899">
        <ele>1771</ele>
        <time>2000-01-01T09:36:36.000Z</time>
      </trkpt>
      <trkpt lat="46.18091" lon="6.82897">
        <ele>1759.4</ele>
        <time>2000-01-01T09:36:46.000Z</time>
      </trkpt>
      <trkpt lat="46.18113" lon="6.8289">
        <ele>1765</ele>
        <time>2000-01-01T09:36:56.000Z</time>
      </trkpt>
      <trkpt lat="46.18135" lon="6.8288">
        <ele>1763</ele>
        <time>2000-01-01T09:37:06.000Z</time>
      </trkpt>
      <trkpt lat="46.1814" lon="6.82881">
        <ele>1753.9</ele>
        <time>2000-01-01T09:37:16.000Z</time>
      </trkpt>
      <trkpt lat="46.18143" lon="6.82886">
        <ele>1753.3</ele>
        <time>2000-01-01T09:37:26.000Z</time>
      </trkpt>
      <trkpt lat="46.18132" lon="6.8293">
        <ele>1759</ele>
        <time>2000-01-01T09:37:36.000Z</time>
      </trkpt>
      <trkpt lat="46.18115" lon="6.82945">
        <ele>1755</ele>
        <time>2000-01-01T09:37:46.000Z</time>
      </trkpt>
      <trkpt lat="46.18101" lon="6.82982">
        <ele>1752</ele>
        <time>2000-01-01T09:37:56.000Z</time>
      </trkpt>
      <trkpt lat="46.1808" lon="6.83013">
        <ele>1749</ele>
        <time>2000-01-01T09:38:06.000Z</time>
      </trkpt>
      <trkpt lat="46.18076" lon="6.83046">
        <ele>1749</ele>
        <time>2000-01-01T09:38:16.000Z</time>
      </trkpt>
      <trkpt lat="46.18092" lon="6.8308">
        <ele>1742</ele>
        <time>2000-01-01T09:38:26.000Z</time>
      </trkpt>
      <trkpt lat="46.18114" lon="6.83129">
        <ele>1734</ele>
        <time>2000-01-01T09:38:36.000Z</time>
      </trkpt>
      <trkpt lat="46.18134" lon="6.83154">
        <ele>1728</ele>
        <time>2000-01-01T09:38:46.000Z</time>
      </trkpt>
      <trkpt lat="46.1816" lon="6.83188">
        <ele>1722</ele>
        <time>2000-01-01T09:38:56.000Z</time>
      </trkpt>
      <trkpt lat="46.18196" lon="6.83201">
        <ele>1716</ele>
        <time>2000-01-01T09:39:06.000Z</time>
      </trkpt>
      <trkpt lat="46.18205" lon="6.83219">
        <ele>1712.6</ele>
        <time>2000-01-01T09:39:16.000Z</time>
      </trkpt>
      <trkpt lat="46.18214" lon="6.83217">
        <ele>1712</ele>
        <time>2000-01-01T09:39:26.000Z</time>
      </trkpt>
      <trkpt lat="46.18207" lon="6.83169">
        <ele>1712</ele>
        <time>2000-01-01T09:39:36.000Z</time>
      </trkpt>
      <trkpt lat="46.18227" lon="6.83138">
        <ele>1710</ele>
        <time>2000-01-01T09:39:46.000Z</time>
      </trkpt>
      <trkpt lat="46.18263" lon="6.83125">
        <ele>1705</ele>
        <time>2000-01-01T09:39:56.000Z</time>
      </trkpt>
      <trkpt lat="46.18261" lon="6.83173">
        <ele>1701</ele>
        <time>2000-01-01T09:40:06.000Z</time>
      </trkpt>
      <trkpt lat="46.18276" lon="6.83211">
        <ele>1700</ele>
        <time>2000-01-01T09:40:16.000Z</time>
      </trkpt>
      <trkpt lat="46.18288" lon="6.83244">
        <ele>1697</ele>
        <time>2000-01-01T09:40:26.000Z</time>
      </trkpt>
      <trkpt lat="46.18304" lon="6.83283">
        <ele>1693</ele>
        <time>2000-01-01T09:40:36.000Z</time>
      </trkpt>
      <trkpt lat="46.18337" lon="6.83323">
        <ele>1686</ele>
        <time>2000-01-01T09:40:46.000Z</time>
      </trkpt>
      <trkpt lat="46.1834" lon="6.83379">
        <ele>1685</ele>
        <time>2000-01-01T09:40:56.000Z</time>
      </trkpt>
      <trkpt lat="46.18359" lon="6.83427">
        <ele>1685</ele>
        <time>2000-01-01T09:41:06.000Z</time>
      </trkpt>
      <trkpt lat="46.18375" lon="6.83433">
        <ele>1677.5</ele>
        <time>2000-01-01T09:41:16.000Z</time>
      </trkpt>
      <trkpt lat="46.18411" lon="6.8335">
        <ele>1685</ele>
        <time>2000-01-01T09:41:26.000Z</time>
      </trkpt>
      <trkpt lat="46.18428" lon="6.83311">
        <ele>1687</ele>
        <time>2000-01-01T09:41:36.000Z</time>
      </trkpt>
      <trkpt lat="46.18446" lon="6.83272">
        <ele>1695</ele>
        <time>2000-01-01T09:41:46.000Z</time>
      </trkpt>
      <trkpt lat="46.18466" lon="6.83227">
        <ele>1703</ele>
        <time>2000-01-01T09:41:56.000Z</time>
      </trkpt>
      <trkpt lat="46.18477" lon="6.83201">
        <ele>1706</ele>
        <time>2000-01-01T09:42:06.000Z</time>
      </trkpt>
      <trkpt lat="46.18491" lon="6.8317">
        <ele>1713</ele>
        <time>2000-01-01T09:42:16.000Z</time>
      </trkpt>
      <trkpt lat="46.18508" lon="6.83133">
        <ele>1717</ele>
        <time>2000-01-01T09:42:26.000Z</time>
      </trkpt>
      <trkpt lat="46.18524" lon="6.83095">
        <ele>1727</ele>
        <time>2000-01-01T09:42:36.000Z</time>
      </trkpt>
      <trkpt lat="46.18546" lon="6.83046">
        <ele>1736</ele>
        <time>2000-01-01T09:42:46.000Z</time>
      </trkpt>
      <trkpt lat="46.18568" lon="6.82996">
        <ele>1746</ele>
        <time>2000-01-01T09:42:56.000Z</time>
      </trkpt>
      <trkpt lat="46.18591" lon="6.82947">
        <ele>1760</ele>
        <time>2000-01-01T09:43:06.000Z</time>
      </trkpt>
      <trkpt lat="46.18613" lon="6.82897">
        <ele>1774</ele>
        <time>2000-01-01T09:43:16.000Z</time>
      </trkpt>
      <trkpt lat="46.18635" lon="6.82848">
        <ele>1787</ele>
        <time>2000-01-01T09:43:26.000Z</time>
      </trkpt>
      <trkpt lat="46.18657" lon="6.82799">
        <ele>1797</ele>
        <time>2000-01-01T09:43:36.000Z</time>
      </trkpt>
      <trkpt lat="46.18673" lon="6.82763">
        <ele>1807</ele>
        <time>2000-01-01T09:43:46.000Z</time>
      </trkpt>
      <trkpt lat="46.18686" lon="6.82734">
        <ele>1812</ele>
        <time>2000-01-01T09:43:56.000Z</time>
      </trkpt>
      <trkpt lat="46.187" lon="6.82703">
        <ele>1821</ele>
        <time>2000-01-01T09:44:06.000Z</time>
      </trkpt>
      <trkpt lat="46.18713" lon="6.82672">
        <ele>1835</ele>
        <time>2000-01-01T09:44:16.000Z</time>
      </trkpt>
      <trkpt lat="46.18728" lon="6.8264">
        <ele>1846</ele>
        <time>2000-01-01T09:44:26.000Z</time>
      </trkpt>
      <trkpt lat="46.18747" lon="6.82597">
        <ele>1861</ele>
        <time>2000-01-01T09:44:36.000Z</time>
      </trkpt>
      <trkpt lat="46.18769" lon="6.82546">
        <ele>1880</ele>
        <time>2000-01-01T09:44:46.000Z</time>
      </trkpt>
      <trkpt lat="46.18789" lon="6.82502">
        <ele>1895</ele>
        <time>2000-01-01T09:44:56.000Z</time>
      </trkpt>
      <trkpt lat="46.18808" lon="6.82459">
        <ele>1920</ele>
        <time>2000-01-01T09:45:06.000Z</time>
      </trkpt>
      <trkpt lat="46.18828" lon="6.82415">
        <ele>1938</ele>
        <time>2000-01-01T09:45:16.000Z</time>
      </trkpt>
      <trkpt lat="46.18841" lon="6.82386">
        <ele>1948</ele>
        <time>2000-01-01T09:45:26.000Z</time>
      </trkpt>
      <trkpt lat="46.18855" lon="6.82355">
        <ele>1957</ele>
        <time>2000-01-01T09:45:36.000Z</time>
      </trkpt>
      <trkpt lat="46.18874" lon="6.82313">
        <ele>1966</ele>
        <time>2000-01-01T09:45:46.000Z</time>
      </trkpt>
      <trkpt lat="46.18892" lon="6.8227">
        <ele>1973</ele>
        <time>2000-01-01T09:45:56.000Z</time>
      </trkpt>
      <trkpt lat="46.18907" lon="6.82237">
        <ele>1980</ele>
        <time>2000-01-01T09:46:06.000Z</time>
      </trkpt>
      <trkpt lat="46.18928" lon="6.82189">
        <ele>1991</ele>
        <time>2000-01-01T09:46:16.000Z</time>
      </trkpt>
      <trkpt lat="46.18943" lon="6.82157">
        <ele>2001</ele>
        <time>2000-01-01T09:46:26.000Z</time>
      </trkpt>
      <trkpt lat="46.18961" lon="6.82115">
        <ele>2012</ele>
        <time>2000-01-01T09:46:36.000Z</time>
      </trkpt>
      <trkpt lat="46.1898" lon="6.82074">
        <ele>2026</ele>
        <time>2000-01-01T09:46:46.000Z</time>
      </trkpt>
      <trkpt lat="46.18994" lon="6.82042">
        <ele>2041</ele>
        <time>2000-01-01T09:46:56.000Z</time>
      </trkpt>
      <trkpt lat="46.19012" lon="6.82001">
        <ele>2063</ele>
        <time>2000-01-01T09:47:06.000Z</time>
      </trkpt>
      <trkpt lat="46.1903" lon="6.81962">
        <ele>2084</ele>
        <time>2000-01-01T09:47:16.000Z</time>
      </trkpt>
      <trkpt lat="46.19043" lon="6.81932">
        <ele>2105</ele>
        <time>2000-01-01T09:47:26.000Z</time>
      </trkpt>
      <trkpt lat="46.19061" lon="6.81892">
        <ele>2129</ele>
        <time>2000-01-01T09:47:36.000Z</time>
      </trkpt>
      <trkpt lat="46.19079" lon="6.81852">
        <ele>2148</ele>
        <time>2000-01-01T09:47:46.000Z</time>
      </trkpt>
      <trkpt lat="46.19092" lon="6.81823">
        <ele>2161</ele>
        <time>2000-01-01T09:47:56.000Z</time>
      </trkpt>
      <trkpt lat="46.19105" lon="6.81794">
        <ele>2171</ele>
        <time>2000-01-01T09:48:06.000Z</time>
      </trkpt>
      <trkpt lat="46.19126" lon="6.81745">
        <ele>2196</ele>
        <time>2000-01-01T09:48:16.000Z</time>
      </trkpt>
      <trkpt lat="46.19145" lon="6.81703">
        <ele>2214</ele>
        <time>2000-01-01T09:48:26.000Z</time>
      </trkpt>
      <trkpt lat="46.19163" lon="6.81662">
        <ele>2228</ele>
        <time>2000-01-01T09:48:36.000Z</time>
      </trkpt>
      <trkpt lat="46.19178" lon="6.8163">
        <ele>2234</ele>
        <time>2000-01-01T09:48:46.000Z</time>
      </trkpt>
      <trkpt lat="46.19197" lon="6.81588">
        <ele>2240</ele>
        <time>2000-01-01T09:48:56.000Z</time>
      </trkpt>
      <trkpt lat="46.19191" lon="6.81551">
        <ele>2240</ele>
        <time>2000-01-01T09:49:06.000Z</time>
      </trkpt>
      <trkpt lat="46.19177" lon="6.815">
        <ele>2236</ele>
        <time>2000-01-01T09:49:16.000Z</time>
      </trkpt>
      <trkpt lat="46.19152" lon="6.81466">
        <ele>2233</ele>
        <time>2000-01-01T09:49:26.000Z</time>
      </trkpt>
      <trkpt lat="46.19109" lon="6.81477">
        <ele>2226</ele>
        <time>2000-01-01T09:49:36.000Z</time>
      </trkpt>
      <trkpt lat="46.19086" lon="6.81486">
        <ele>2220</ele>
        <time>2000-01-01T09:49:46.000Z</time>
      </trkpt>
      <trkpt lat="46.19062" lon="6.81495">
        <ele>2212</ele>
        <time>2000-01-01T09:49:56.000Z</time>
      </trkpt>
      <trkpt lat="46.19047" lon="6.81529">
        <ele>2212</ele>
        <time>2000-01-01T09:50:06.000Z</time>
      </trkpt>
      <trkpt lat="46.19026" lon="6.81576">
        <ele>2212</ele>
        <time>2000-01-01T09:50:16.000Z</time>
      </trkpt>
      <trkpt lat="46.19004" lon="6.81604">
        <ele>2208</ele>
        <time>2000-01-01T09:50:26.000Z</time>
      </trkpt>
      <trkpt lat="46.18986" lon="6.81627">
        <ele>2201</ele>
        <time>2000-01-01T09:50:36.000Z</time>
      </trkpt>
      <trkpt lat="46.18966" lon="6.81652">
        <ele>2196</ele>
        <time>2000-01-01T09:50:46.000Z</time>
      </trkpt>
      <trkpt lat="46.18931" lon="6.81676">
        <ele>2188</ele>
        <time>2000-01-01T09:50:56.000Z</time>
      </trkpt>
      <trkpt lat="46.18903" lon="6.8169">
        <ele>2177</ele>
        <time>2000-01-01T09:51:06.000Z</time>
      </trkpt>
      <trkpt lat="46.18878" lon="6.81702">
        <ele>2169</ele>
        <time>2000-01-01T09:51:16.000Z</time>
      </trkpt>
      <trkpt lat="46.18848" lon="6.81716">
        <ele>2169</ele>
        <time>2000-01-01T09:51:26.000Z</time>
      </trkpt>
      <trkpt lat="46.18872" lon="6.81715">
        <ele>2169</ele>
        <time>2000-01-01T09:51:36.000Z</time>
      </trkpt>
      <trkpt lat="46.18896" lon="6.81713">
        <ele>2172</ele>
        <time>2000-01-01T09:51:46.000Z</time>
      </trkpt>
      <trkpt lat="46.18907" lon="6.81732">
        <ele>2175.5</ele>
        <time>2000-01-01T09:51:56.000Z</time>
      </trkpt>
      <trkpt lat="46.18934" lon="6.81733">
        <ele>2170</ele>
        <time>2000-01-01T09:52:06.000Z</time>
      </trkpt>
      <trkpt lat="46.18954" lon="6.81769">
        <ele>2173</ele>
        <time>2000-01-01T09:52:16.000Z</time>
      </trkpt>
      <trkpt lat="46.18974" lon="6.81763">
        <ele>2176</ele>
        <time>2000-01-01T09:52:26.000Z</time>
      </trkpt>
      <trkpt lat="46.19003" lon="6.81778">
        <ele>2166</ele>
        <time>2000-01-01T09:52:36.000Z</time>
      </trkpt>
      <trkpt lat="46.19018" lon="6.8182">
        <ele>2167</ele>
        <time>2000-01-01T09:52:46.000Z</time>
      </trkpt>
      <trkpt lat="46.1905" lon="6.81804">
        <ele>2163</ele>
        <time>2000-01-01T09:52:56.000Z</time>
      </trkpt>
      <trkpt lat="46.1907" lon="6.81822">
        <ele>2159</ele>
        <time>2000-01-01T09:53:06.000Z</time>
      </trkpt>
      <trkpt lat="46.19088" lon="6.81876">
        <ele>2140</ele>
        <time>2000-01-01T09:53:16.000Z</time>
      </trkpt>
      <trkpt lat="46.19105" lon="6.81905">
        <ele>2128</ele>
        <time>2000-01-01T09:53:26.000Z</time>
      </trkpt>
      <trkpt lat="46.19128" lon="6.81943">
        <ele>2116</ele>
        <time>2000-01-01T09:53:36.000Z</time>
      </trkpt>
      <trkpt lat="46.19133" lon="6.81989">
        <ele>2110</ele>
        <time>2000-01-01T09:53:46.000Z</time>
      </trkpt>
      <trkpt lat="46.19137" lon="6.82014">
        <ele>2116.2</ele>
        <time>2000-01-01T09:53:56.000Z</time>
      </trkpt>
      <trkpt lat="46.19148" lon="6.82032">
        <ele>2100</ele>
        <time>2000-01-01T09:54:06.000Z</time>
      </trkpt>
      <trkpt lat="46.19166" lon="6.82077">
        <ele>2095</ele>
        <time>2000-01-01T09:54:16.000Z</time>
      </trkpt>
      <trkpt lat="46.19185" lon="6.8212">
        <ele>2088</ele>
        <time>2000-01-01T09:54:26.000Z</time>
      </trkpt>
      <trkpt lat="46.19225" lon="6.82124">
        <ele>2086</ele>
        <time>2000-01-01T09:54:36.000Z</time>
      </trkpt>
      <trkpt lat="46.19216" lon="6.82075">
        <ele>2084</ele>
        <time>2000-01-01T09:54:46.000Z</time>
      </trkpt>
      <trkpt lat="46.1924" lon="6.82085">
        <ele>2076</ele>
        <time>2000-01-01T09:54:56.000Z</time>
      </trkpt>
      <trkpt lat="46.19275" lon="6.82109">
        <ele>2070</ele>
        <time>2000-01-01T09:55:06.000Z</time>
      </trkpt>
      <trkpt lat="46.19303" lon="6.82101">
        <ele>2067</ele>
        <time>2000-01-01T09:55:16.000Z</time>
      </trkpt>
      <trkpt lat="46.19326" lon="6.82094">
        <ele>2063</ele>
        <time>2000-01-01T09:55:26.000Z</time>
      </trkpt>
      <trkpt lat="46.1935" lon="6.82088">
        <ele>2056</ele>
        <time>2000-01-01T09:55:36.000Z</time>
      </trkpt>
      <trkpt lat="46.19384" lon="6.82078">
        <ele>2049</ele>
        <time>2000-01-01T09:55:46.000Z</time>
      </trkpt>
      <trkpt lat="46.19417" lon="6.82068">
        <ele>2042</ele>
        <time>2000-01-01T09:55:56.000Z</time>
      </trkpt>
      <trkpt lat="46.19443" lon="6.82061">
        <ele>2040</ele>
        <time>2000-01-01T09:56:06.000Z</time>
      </trkpt>
      <trkpt lat="46.19477" lon="6.82051">
        <ele>2033</ele>
        <time>2000-01-01T09:56:16.000Z</time>
      </trkpt>
      <trkpt lat="46.1951" lon="6.82029">
        <ele>2018</ele>
        <time>2000-01-01T09:56:26.000Z</time>
      </trkpt>
      <trkpt lat="46.19542" lon="6.82006">
        <ele>2011</ele>
        <time>2000-01-01T09:56:36.000Z</time>
      </trkpt>
      <trkpt lat="46.19569" lon="6.81988">
        <ele>2007</ele>
        <time>2000-01-01T09:56:46.000Z</time>
      </trkpt>
      <trkpt lat="46.19591" lon="6.81972">
        <ele>2006</ele>
        <time>2000-01-01T09:56:56.000Z</time>
      </trkpt>
      <trkpt lat="46.19617" lon="6.81955">
        <ele>2006</ele>
        <time>2000-01-01T09:57:06.000Z</time>
      </trkpt>
      <trkpt lat="46.19636" lon="6.8191">
        <ele>1998</ele>
        <time>2000-01-01T09:57:16.000Z</time>
      </trkpt>
      <trkpt lat="46.19656" lon="6.81865">
        <ele>1995</ele>
        <time>2000-01-01T09:57:26.000Z</time>
      </trkpt>
      <trkpt lat="46.19675" lon="6.8182">
        <ele>1994</ele>
        <time>2000-01-01T09:57:36.000Z</time>
      </trkpt>
      <trkpt lat="46.19689" lon="6.81788">
        <ele>1992</ele>
        <time>2000-01-01T09:57:46.000Z</time>
      </trkpt>
      <trkpt lat="46.19706" lon="6.81748">
        <ele>1991</ele>
        <time>2000-01-01T09:57:56.000Z</time>
      </trkpt>
      <trkpt lat="46.19707" lon="6.817">
        <ele>1986</ele>
        <time>2000-01-01T09:58:06.000Z</time>
      </trkpt>
      <trkpt lat="46.19707" lon="6.81662">
        <ele>1983</ele>
        <time>2000-01-01T09:58:16.000Z</time>
      </trkpt>
      <trkpt lat="46.19707" lon="6.81615">
        <ele>1979</ele>
        <time>2000-01-01T09:58:26.000Z</time>
      </trkpt>
      <trkpt lat="46.19708" lon="6.81573">
        <ele>1978</ele>
        <time>2000-01-01T09:58:36.000Z</time>
      </trkpt>
      <trkpt lat="46.19696" lon="6.81553">
        <ele>1978</ele>
        <time>2000-01-01T09:58:46.000Z</time>
      </trkpt>
      <trkpt lat="46.19687" lon="6.81493">
        <ele>1978</ele>
        <time>2000-01-01T09:58:56.000Z</time>
      </trkpt>
      <trkpt lat="46.19675" lon="6.81459">
        <ele>1979</ele>
        <time>2000-01-01T09:59:06.000Z</time>
      </trkpt>
      <trkpt lat="46.19681" lon="6.81429">
        <ele>1980</ele>
        <time>2000-01-01T09:59:16.000Z</time>
      </trkpt>
      <trkpt lat="46.1967" lon="6.81397">
        <ele>1982</ele>
        <time>2000-01-01T09:59:26.000Z</time>
      </trkpt>
      <trkpt lat="46.19657" lon="6.81359">
        <ele>1984</ele>
        <time>2000-01-01T09:59:36.000Z</time>
      </trkpt>
      <trkpt lat="46.19645" lon="6.81326">
        <ele>1984</ele>
        <time>2000-01-01T09:59:46.000Z</time>
      </trkpt>
      <trkpt lat="46.19643" lon="6.81293">
        <ele>1984</ele>
        <time>2000-01-01T09:59:56.000Z</time>
      </trkpt>
      <trkpt lat="46.19661" lon="6.81307">
        <ele>1981</ele>
        <time>2000-01-01T10:00:06.000Z</time>
      </trkpt>
      <trkpt lat="46.19669" lon="6.81296">
        <ele>1982.5</ele>
        <time>2000-01-01T10:00:16.000Z</time>
      </trkpt>
      <trkpt lat="46.19747" lon="6.81287">
        <ele>1971</ele>
        <time>2000-01-01T10:00:26.000Z</time>
      </trkpt>
      <trkpt lat="46.19769" lon="6.81253">
        <ele>1968</ele>
        <time>2000-01-01T10:00:36.000Z</time>
      </trkpt>
      <trkpt lat="46.19791" lon="6.81218">
        <ele>1966</ele>
        <time>2000-01-01T10:00:46.000Z</time>
      </trkpt>
      <trkpt lat="46.19819" lon="6.81175">
        <ele>1966</ele>
        <time>2000-01-01T10:00:56.000Z</time>
      </trkpt>
      <trkpt lat="46.19791" lon="6.81125">
        <ele>1969</ele>
        <time>2000-01-01T10:01:06.000Z</time>
      </trkpt>
      <trkpt lat="46.1978" lon="6.81095">
        <ele>1971</ele>
        <time>2000-01-01T10:01:16.000Z</time>
      </trkpt>
      <trkpt lat="46.19768" lon="6.81077">
        <ele>1966.8</ele>
        <time>2000-01-01T10:01:26.000Z</time>
      </trkpt>
      <trkpt lat="46.19777" lon="6.81033">
        <ele>1971</ele>
        <time>2000-01-01T10:01:36.000Z</time>
      </trkpt>
      <trkpt lat="46.19801" lon="6.81013">
        <ele>1970</ele>
        <time>2000-01-01T10:01:46.000Z</time>
      </trkpt>
      <trkpt lat="46.198" lon="6.80975">
        <ele>1970</ele>
        <time>2000-01-01T10:01:56.000Z</time>
      </trkpt>
      <trkpt lat="46.19784" lon="6.80953">
        <ele>1972</ele>
        <time>2000-01-01T10:02:06.000Z</time>
      </trkpt>
      <trkpt lat="46.19781" lon="6.80927">
        <ele>1968.9</ele>
        <time>2000-01-01T10:02:16.000Z</time>
      </trkpt>
      <trkpt lat="46.19773" lon="6.80908">
        <ele>1974</ele>
        <time>2000-01-01T10:02:26.000Z</time>
      </trkpt>
      <trkpt lat="46.19788" lon="6.80886">
        <ele>1974</ele>
        <time>2000-01-01T10:02:36.000Z</time>
      </trkpt>
      <trkpt lat="46.19781" lon="6.80853">
        <ele>1976</ele>
        <time>2000-01-01T10:02:46.000Z</time>
      </trkpt>
      <trkpt lat="46.1976" lon="6.80836">
        <ele>1978</ele>
        <time>2000-01-01T10:02:56.000Z</time>
      </trkpt>
      <trkpt lat="46.19757" lon="6.80796">
        <ele>1981</ele>
        <time>2000-01-01T10:03:06.000Z</time>
      </trkpt>
      <trkpt lat="46.19741" lon="6.80763">
        <ele>1982</ele>
        <time>2000-01-01T10:03:16.000Z</time>
      </trkpt>
      <trkpt lat="46.19717" lon="6.80713">
        <ele>1985</ele>
        <time>2000-01-01T10:03:26.000Z</time>
      </trkpt>
      <trkpt lat="46.19697" lon="6.80693">
        <ele>1986</ele>
        <time>2000-01-01T10:03:36.000Z</time>
      </trkpt>
      <trkpt lat="46.19694" lon="6.80648">
        <ele>1990</ele>
        <time>2000-01-01T10:03:46.000Z</time>
      </trkpt>
      <trkpt lat="46.19692" lon="6.80611">
        <ele>1993</ele>
        <time>2000-01-01T10:03:56.000Z</time>
      </trkpt>
      <trkpt lat="46.1969" lon="6.80562">
        <ele>1992</ele>
        <time>2000-01-01T10:04:06.000Z</time>
      </trkpt>
      <trkpt lat="46.1969" lon="6.8051">
        <ele>1991</ele>
        <time>2000-01-01T10:04:16.000Z</time>
      </trkpt>
      <trkpt lat="46.19685" lon="6.80478">
        <ele>1991</ele>
        <time>2000-01-01T10:04:26.000Z</time>
      </trkpt>
      <trkpt lat="46.19699" lon="6.80484">
        <ele>1994</ele>
        <time>2000-01-01T10:04:36.000Z</time>
      </trkpt>
      <trkpt lat="46.19706" lon="6.80464">
        <ele>1989</ele>
        <time>2000-01-01T10:04:46.000Z</time>
      </trkpt>
      <trkpt lat="46.19708" lon="6.80454">
        <ele>1991.9</ele>
        <time>2000-01-01T10:04:56.000Z</time>
      </trkpt>
      <trkpt lat="46.19709" lon="6.80445">
        <ele>1990.6</ele>
        <time>2000-01-01T10:05:06.000Z</time>
      </trkpt>
      <trkpt lat="46.19712" lon="6.80435">
        <ele>1987</ele>
        <time>2000-01-01T10:05:16.000Z</time>
      </trkpt>
      <trkpt lat="46.19722" lon="6.80418">
        <ele>1986.2</ele>
        <time>2000-01-01T10:05:26.000Z</time>
      </trkpt>
      <trkpt lat="46.19727" lon="6.80406">
        <ele>1983</ele>
        <time>2000-01-01T10:05:36.000Z</time>
      </trkpt>
      <trkpt lat="46.19729" lon="6.80396">
        <ele>1983.8</ele>
        <time>2000-01-01T10:05:46.000Z</time>
      </trkpt>
      <trkpt lat="46.19734" lon="6.80381">
        <ele>1981</ele>
        <time>2000-01-01T10:05:56.000Z</time>
      </trkpt>
      <trkpt lat="46.19742" lon="6.80349">
        <ele>1978</ele>
        <time>2000-01-01T10:06:06.000Z</time>
      </trkpt>
      <trkpt lat="46.19742" lon="6.80345">
        <ele>1979.1</ele>
        <time>2000-01-01T10:06:16.000Z</time>
      </trkpt>
      <trkpt lat="46.19744" lon="6.80339">
        <ele>1978.7</ele>
        <time>2000-01-01T10:06:26.000Z</time>
      </trkpt>
      <trkpt lat="46.19749" lon="6.80335">
        <ele>1979.1</ele>
        <time>2000-01-01T10:06:36.000Z</time>
      </trkpt>
      <trkpt lat="46.19757" lon="6.80311">
        <ele>1975</ele>
        <time>2000-01-01T10:06:46.000Z</time>
      </trkpt>
      <trkpt lat="46.19761" lon="6.80302">
        <ele>1975.8</ele>
        <time>2000-01-01T10:06:56.000Z</time>
      </trkpt>
      <trkpt lat="46.19767" lon="6.80285">
        <ele>1971</ele>
        <time>2000-01-01T10:07:06.000Z</time>
      </trkpt>
      <trkpt lat="46.19771" lon="6.80279">
        <ele>1973.5</ele>
        <time>2000-01-01T10:07:16.000Z</time>
      </trkpt>
      <trkpt lat="46.19773" lon="6.80272">
        <ele>1972.5</ele>
        <time>2000-01-01T10:07:26.000Z</time>
      </trkpt>
      <trkpt lat="46.19782" lon="6.80251">
        <ele>1968</ele>
        <time>2000-01-01T10:07:36.000Z</time>
      </trkpt>
      <trkpt lat="46.19787" lon="6.80246">
        <ele>1970.4</ele>
        <time>2000-01-01T10:07:46.000Z</time>
      </trkpt>
      <trkpt lat="46.19789" lon="6.80241">
        <ele>1970.1</ele>
        <time>2000-01-01T10:07:56.000Z</time>
      </trkpt>
      <trkpt lat="46.1979" lon="6.80234">
        <ele>1969.3</ele>
        <time>2000-01-01T10:08:06.000Z</time>
      </trkpt>
      <trkpt lat="46.1979" lon="6.80211">
        <ele>1963</ele>
        <time>2000-01-01T10:08:16.000Z</time>
      </trkpt>
      <trkpt lat="46.19789" lon="6.802">
        <ele>1965</ele>
        <time>2000-01-01T10:08:26.000Z</time>
      </trkpt>
      <trkpt lat="46.19791" lon="6.80191">
        <ele>1964.6</ele>
        <time>2000-01-01T10:08:36.000Z</time>
      </trkpt>
      <trkpt lat="46.19793" lon="6.80189">
        <ele>1964.9</ele>
        <time>2000-01-01T10:08:46.000Z</time>
      </trkpt>
      <trkpt lat="46.19795" lon="6.80185">
        <ele>1963</ele>
        <time>2000-01-01T10:08:56.000Z</time>
      </trkpt>
      <trkpt lat="46.19793" lon="6.80179">
        <ele>1964.2</ele>
        <time>2000-01-01T10:09:06.000Z</time>
      </trkpt>
      <trkpt lat="46.19793" lon="6.80159">
        <ele>1962.3</ele>
        <time>2000-01-01T10:09:16.000Z</time>
      </trkpt>
      <trkpt lat="46.19795" lon="6.80148">
        <ele>1959</ele>
        <time>2000-01-01T10:09:26.000Z</time>
      </trkpt>
      <trkpt lat="46.19799" lon="6.80141">
        <ele>1961.4</ele>
        <time>2000-01-01T10:09:36.000Z</time>
      </trkpt>
      <trkpt lat="46.19802" lon="6.80133">
        <ele>1961.6</ele>
        <time>2000-01-01T10:09:46.000Z</time>
      </trkpt>
      <trkpt lat="46.19802" lon="6.80125">
        <ele>1961</ele>
        <time>2000-01-01T10:09:56.000Z</time>
      </trkpt>
      <trkpt lat="46.19798" lon="6.80111">
        <ele>1957</ele>
        <time>2000-01-01T10:10:06.000Z</time>
      </trkpt>
      <trkpt lat="46.19798" lon="6.80106">
        <ele>1958.7</ele>
        <time>2000-01-01T10:10:16.000Z</time>
      </trkpt>
      <trkpt lat="46.198" lon="6.80089">
        <ele>1958.8</ele>
        <time>2000-01-01T10:10:26.000Z</time>
      </trkpt>
      <trkpt lat="46.198" lon="6.80077">
        <ele>1956</ele>
        <time>2000-01-01T10:10:36.000Z</time>
      </trkpt>
      <trkpt lat="46.19801" lon="6.80068">
        <ele>1957.8</ele>
        <time>2000-01-01T10:10:46.000Z</time>
      </trkpt>
      <trkpt lat="46.19803" lon="6.80064">
        <ele>1958</ele>
        <time>2000-01-01T10:10:56.000Z</time>
      </trkpt>
      <trkpt lat="46.19804" lon="6.80059">
        <ele>1957.9</ele>
        <time>2000-01-01T10:11:06.000Z</time>
      </trkpt>
      <trkpt lat="46.19817" lon="6.80042">
        <ele>1956</ele>
        <time>2000-01-01T10:11:16.000Z</time>
      </trkpt>
      <trkpt lat="46.19823" lon="6.8003">
        <ele>1956.6</ele>
        <time>2000-01-01T10:11:26.000Z</time>
      </trkpt>
      <trkpt lat="46.19826" lon="6.8002">
        <ele>1955.4</ele>
        <time>2000-01-01T10:11:36.000Z</time>
      </trkpt>
      <trkpt lat="46.19843" lon="6.79979">
        <ele>1948</ele>
        <time>2000-01-01T10:11:46.000Z</time>
      </trkpt>
      <trkpt lat="46.1985" lon="6.79953">
        <ele>1947</ele>
        <time>2000-01-01T10:11:56.000Z</time>
      </trkpt>
      <trkpt lat="46.19856" lon="6.79937">
        <ele>1946.2</ele>
        <time>2000-01-01T10:12:06.000Z</time>
      </trkpt>
      <trkpt lat="46.19861" lon="6.79926">
        <ele>1943</ele>
        <time>2000-01-01T10:12:16.000Z</time>
      </trkpt>
      <trkpt lat="46.19861" lon="6.79921">
        <ele>1944.5</ele>
        <time>2000-01-01T10:12:26.000Z</time>
      </trkpt>
      <trkpt lat="46.19863" lon="6.79915">
        <ele>1943.7</ele>
        <time>2000-01-01T10:12:36.000Z</time>
      </trkpt>
      <trkpt lat="46.19866" lon="6.799">
        <ele>1941</ele>
        <time>2000-01-01T10:12:46.000Z</time>
      </trkpt>
      <trkpt lat="46.19869" lon="6.79888">
        <ele>1940.1</ele>
        <time>2000-01-01T10:12:56.000Z</time>
      </trkpt>
      <trkpt lat="46.19877" lon="6.79865">
        <ele>1938</ele>
        <time>2000-01-01T10:13:06.000Z</time>
      </trkpt>
      <trkpt lat="46.19892" lon="6.79818">
        <ele>1936</ele>
        <time>2000-01-01T10:13:16.000Z</time>
      </trkpt>
      <trkpt lat="46.199" lon="6.79804">
        <ele>1935.2</ele>
        <time>2000-01-01T10:13:26.000Z</time>
      </trkpt>
      <trkpt lat="46.19905" lon="6.79798">
        <ele>1936</ele>
        <time>2000-01-01T10:13:36.000Z</time>
      </trkpt>
      <trkpt lat="46.19919" lon="6.79784">
        <ele>1934</ele>
        <time>2000-01-01T10:13:46.000Z</time>
      </trkpt>
      <trkpt lat="46.1996" lon="6.79766">
        <ele>1931</ele>
        <time>2000-01-01T10:13:56.000Z</time>
      </trkpt>
      <trkpt lat="46.19967" lon="6.79762">
        <ele>1928.2</ele>
        <time>2000-01-01T10:14:06.000Z</time>
      </trkpt>
      <trkpt lat="46.19982" lon="6.79764">
        <ele>1927</ele>
        <time>2000-01-01T10:14:16.000Z</time>
      </trkpt>
      <trkpt lat="46.19986" lon="6.79763">
        <ele>1927.5</ele>
        <time>2000-01-01T10:14:26.000Z</time>
      </trkpt>
      <trkpt lat="46.19988" lon="6.79761">
        <ele>1927.4</ele>
        <time>2000-01-01T10:14:36.000Z</time>
      </trkpt>
      <trkpt lat="46.19994" lon="6.79759">
        <ele>1927.3</ele>
        <time>2000-01-01T10:14:46.000Z</time>
      </trkpt>
      <trkpt lat="46.19997" lon="6.79759">
        <ele>1927.3</ele>
        <time>2000-01-01T10:14:56.000Z</time>
      </trkpt>
      <trkpt lat="46.20003" lon="6.79761">
        <ele>1927</ele>
        <time>2000-01-01T10:15:06.000Z</time>
      </trkpt>
      <trkpt lat="46.20007" lon="6.79761">
        <ele>1928</ele>
        <time>2000-01-01T10:15:16.000Z</time>
      </trkpt>
      <trkpt lat="46.20018" lon="6.79758">
        <ele>1928.9</ele>
        <time>2000-01-01T10:15:26.000Z</time>
      </trkpt>
      <trkpt lat="46.20024" lon="6.79755">
        <ele>1929</ele>
        <time>2000-01-01T10:15:36.000Z</time>
      </trkpt>
      <trkpt lat="46.20026" lon="6.79752">
        <ele>1929.7</ele>
        <time>2000-01-01T10:15:46.000Z</time>
      </trkpt>
      <trkpt lat="46.20032" lon="6.79736">
        <ele>1929.1</ele>
        <time>2000-01-01T10:15:56.000Z</time>
      </trkpt>
      <trkpt lat="46.20035" lon="6.79731">
        <ele>1929</ele>
        <time>2000-01-01T10:16:06.000Z</time>
      </trkpt>
      <trkpt lat="46.20041" lon="6.79716">
        <ele>1927</ele>
        <time>2000-01-01T10:16:16.000Z</time>
      </trkpt>
      <trkpt lat="46.20043" lon="6.79716">
        <ele>1927.1</ele>
        <time>2000-01-01T10:16:26.000Z</time>
      </trkpt>
      <trkpt lat="46.20045" lon="6.79715">
        <ele>1926.9</ele>
        <time>2000-01-01T10:16:36.000Z</time>
      </trkpt>
      <trkpt lat="46.2005" lon="6.79715">
        <ele>1927</ele>
        <time>2000-01-01T10:16:46.000Z</time>
      </trkpt>
      <trkpt lat="46.20054" lon="6.79716">
        <ele>1927.4</ele>
        <time>2000-01-01T10:16:56.000Z</time>
      </trkpt>
      <trkpt lat="46.20057" lon="6.79718">
        <ele>1927.6</ele>
        <time>2000-01-01T10:17:06.000Z</time>
      </trkpt>
      <trkpt lat="46.20068" lon="6.79722">
        <ele>1927</ele>
        <time>2000-01-01T10:17:16.000Z</time>
      </trkpt>
      <trkpt lat="46.20093" lon="6.79725">
        <ele>1921</ele>
        <time>2000-01-01T10:17:26.000Z</time>
      </trkpt>
      <trkpt lat="46.20102" lon="6.79725">
        <ele>1921.5</ele>
        <time>2000-01-01T10:17:36.000Z</time>
      </trkpt>
      <trkpt lat="46.20105" lon="6.79724">
        <ele>1921</ele>
        <time>2000-01-01T10:17:46.000Z</time>
      </trkpt>
      <trkpt lat="46.20106" lon="6.79723">
        <ele>1920.7</ele>
        <time>2000-01-01T10:17:56.000Z</time>
      </trkpt>
      <trkpt lat="46.20107" lon="6.7972">
        <ele>1920</ele>
        <time>2000-01-01T10:18:06.000Z</time>
      </trkpt>
      <trkpt lat="46.20106" lon="6.79717">
        <ele>1919.4</ele>
        <time>2000-01-01T10:18:16.000Z</time>
      </trkpt>
      <trkpt lat="46.20101" lon="6.79713">
        <ele>1916</ele>
        <time>2000-01-01T10:18:26.000Z</time>
      </trkpt>
      <trkpt lat="46.20098" lon="6.79712">
        <ele>1919</ele>
        <time>2000-01-01T10:18:36.000Z</time>
      </trkpt>
      <trkpt lat="46.20096" lon="6.79709">
        <ele>1918.5</ele>
        <time>2000-01-01T10:18:46.000Z</time>
      </trkpt>
      <trkpt lat="46.20094" lon="6.79704">
        <ele>1917.5</ele>
        <time>2000-01-01T10:18:56.000Z</time>
      </trkpt>
      <trkpt lat="46.2009" lon="6.79701">
        <ele>1917.1</ele>
        <time>2000-01-01T10:19:06.000Z</time>
      </trkpt>
      <trkpt lat="46.20084" lon="6.79694">
        <ele>1916</ele>
        <time>2000-01-01T10:19:16.000Z</time>
      </trkpt>
      <trkpt lat="46.20082" lon="6.79688">
        <ele>1914.6</ele>
        <time>2000-01-01T10:19:26.000Z</time>
      </trkpt>
      <trkpt lat="46.20082" lon="6.79686">
        <ele>1914.1</ele>
        <time>2000-01-01T10:19:36.000Z</time>
      </trkpt>
      <trkpt lat="46.20083" lon="6.79684">
        <ele>1913.4</ele>
        <time>2000-01-01T10:19:46.000Z</time>
      </trkpt>
      <trkpt lat="46.20084" lon="6.79683">
        <ele>1913.1</ele>
        <time>2000-01-01T10:19:56.000Z</time>
      </trkpt>
      <trkpt lat="46.20086" lon="6.79683">
        <ele>1913</ele>
        <time>2000-01-01T10:20:06.000Z</time>
      </trkpt>
      <trkpt lat="46.2009" lon="6.79685">
        <ele>1913.2</ele>
        <time>2000-01-01T10:20:16.000Z</time>
      </trkpt>
      <trkpt lat="46.20095" lon="6.79685">
        <ele>1910</ele>
        <time>2000-01-01T10:20:26.000Z</time>
      </trkpt>
      <trkpt lat="46.20098" lon="6.79684">
        <ele>1912.5</ele>
        <time>2000-01-01T10:20:36.000Z</time>
      </trkpt>
      <trkpt lat="46.20106" lon="6.79673">
        <ele>1909.6</ele>
        <time>2000-01-01T10:20:46.000Z</time>
      </trkpt>
      <trkpt lat="46.20106" lon="6.79668">
        <ele>1908.5</ele>
        <time>2000-01-01T10:20:56.000Z</time>
      </trkpt>
      <trkpt lat="46.20108" lon="6.7965">
        <ele>1902</ele>
        <time>2000-01-01T10:21:06.000Z</time>
      </trkpt>
      <trkpt lat="46.20108" lon="6.79646">
        <ele>1904.1</ele>
        <time>2000-01-01T10:21:16.000Z</time>
      </trkpt>
      <trkpt lat="46.20113" lon="6.79639">
        <ele>1903</ele>
        <time>2000-01-01T10:21:26.000Z</time>
      </trkpt>
      <trkpt lat="46.2012" lon="6.79632">
        <ele>1901.1</ele>
        <time>2000-01-01T10:21:36.000Z</time>
      </trkpt>
      <trkpt lat="46.20133" lon="6.79614">
        <ele>1894</ele>
        <time>2000-01-01T10:21:46.000Z</time>
      </trkpt>
      <trkpt lat="46.20136" lon="6.79608">
        <ele>1895.3</ele>
        <time>2000-01-01T10:21:56.000Z</time>
      </trkpt>
      <trkpt lat="46.20138" lon="6.796">
        <ele>1893.9</ele>
        <time>2000-01-01T10:22:06.000Z</time>
      </trkpt>
      <trkpt lat="46.20138" lon="6.79594">
        <ele>1892.8</ele>
        <time>2000-01-01T10:22:16.000Z</time>
      </trkpt>
      <trkpt lat="46.20139" lon="6.79586">
        <ele>1888</ele>
        <time>2000-01-01T10:22:26.000Z</time>
      </trkpt>
      <trkpt lat="46.20143" lon="6.79576">
        <ele>1890.7</ele>
        <time>2000-01-01T10:22:36.000Z</time>
      </trkpt>
      <trkpt lat="46.20146" lon="6.79572">
        <ele>1890.8</ele>
        <time>2000-01-01T10:22:46.000Z</time>
      </trkpt>
      <trkpt lat="46.20152" lon="6.79562">
        <ele>1887</ele>
        <time>2000-01-01T10:22:56.000Z</time>
      </trkpt>
      <trkpt lat="46.20158" lon="6.79546">
        <ele>1887.6</ele>
        <time>2000-01-01T10:23:06.000Z</time>
      </trkpt>
      <trkpt lat="46.20167" lon="6.79529">
        <ele>1880</ele>
        <time>2000-01-01T10:23:16.000Z</time>
      </trkpt>
      <trkpt lat="46.20175" lon="6.79516">
        <ele>1884.5</ele>
        <time>2000-01-01T10:23:26.000Z</time>
      </trkpt>
      <trkpt lat="46.20182" lon="6.79508">
        <ele>1879</ele>
        <time>2000-01-01T10:23:36.000Z</time>
      </trkpt>
      <trkpt lat="46.20199" lon="6.79481">
        <ele>1879</ele>
        <time>2000-01-01T10:23:46.000Z</time>
      </trkpt>
      <trkpt lat="46.20206" lon="6.79473">
        <ele>1881.2</ele>
        <time>2000-01-01T10:23:56.000Z</time>
      </trkpt>
      <trkpt lat="46.20215" lon="6.79465">
        <ele>1877</ele>
        <time>2000-01-01T10:24:06.000Z</time>
      </trkpt>
      <trkpt lat="46.20222" lon="6.7946">
        <ele>1881</ele>
        <time>2000-01-01T10:24:16.000Z</time>
      </trkpt>
      <trkpt lat="46.20225" lon="6.79456">
        <ele>1880.5</ele>
        <time>2000-01-01T10:24:26.000Z</time>
      </trkpt>
      <trkpt lat="46.20228" lon="6.7945">
        <ele>1879.5</ele>
        <time>2000-01-01T10:24:36.000Z</time>
      </trkpt>
      <trkpt lat="46.20241" lon="6.79435">
        <ele>1875</ele>
        <time>2000-01-01T10:24:46.000Z</time>
      </trkpt>
      <trkpt lat="46.20243" lon="6.79432">
        <ele>1878.3</ele>
        <time>2000-01-01T10:24:56.000Z</time>
      </trkpt>
      <trkpt lat="46.20245" lon="6.79424">
        <ele>1876.5</ele>
        <time>2000-01-01T10:25:06.000Z</time>
      </trkpt>
      <trkpt lat="46.20249" lon="6.79416">
        <ele>1875.5</ele>
        <time>2000-01-01T10:25:16.000Z</time>
      </trkpt>
      <trkpt lat="46.20259" lon="6.79406">
        <ele>1870</ele>
        <time>2000-01-01T10:25:26.000Z</time>
      </trkpt>
      <trkpt lat="46.20266" lon="6.79395">
        <ele>1874.3</ele>
        <time>2000-01-01T10:25:36.000Z</time>
      </trkpt>
      <trkpt lat="46.2027" lon="6.79391">
        <ele>1874.2</ele>
        <time>2000-01-01T10:25:46.000Z</time>
      </trkpt>
      <trkpt lat="46.20276" lon="6.79387">
        <ele>1870</ele>
        <time>2000-01-01T10:25:56.000Z</time>
      </trkpt>
      <trkpt lat="46.20278" lon="6.79382">
        <ele>1873.9</ele>
        <time>2000-01-01T10:26:06.000Z</time>
      </trkpt>
      <trkpt lat="46.20281" lon="6.79377">
        <ele>1873.5</ele>
        <time>2000-01-01T10:26:16.000Z</time>
      </trkpt>
      <trkpt lat="46.20286" lon="6.79357">
        <ele>1865</ele>
        <time>2000-01-01T10:26:26.000Z</time>
      </trkpt>
      <trkpt lat="46.20297" lon="6.79344">
        <ele>1869.1</ele>
        <time>2000-01-01T10:26:36.000Z</time>
      </trkpt>
      <trkpt lat="46.20308" lon="6.79326">
        <ele>1862</ele>
        <time>2000-01-01T10:26:46.000Z</time>
      </trkpt>
      <trkpt lat="46.20318" lon="6.79316">
        <ele>1867.1</ele>
        <time>2000-01-01T10:26:56.000Z</time>
      </trkpt>
      <trkpt lat="46.20324" lon="6.79308">
        <ele>1862</ele>
        <time>2000-01-01T10:27:06.000Z</time>
      </trkpt>
      <trkpt lat="46.20327" lon="6.79301">
        <ele>1865.4</ele>
        <time>2000-01-01T10:27:16.000Z</time>
      </trkpt>
      <trkpt lat="46.20329" lon="6.79291">
        <ele>1863.2</ele>
        <time>2000-01-01T10:27:26.000Z</time>
      </trkpt>
      <trkpt lat="46.20336" lon="6.79272">
        <ele>1857</ele>
        <time>2000-01-01T10:27:36.000Z</time>
      </trkpt>
      <trkpt lat="46.2034" lon="6.79267">
        <ele>1859.8</ele>
        <time>2000-01-01T10:27:46.000Z</time>
      </trkpt>
      <trkpt lat="46.20346" lon="6.79262">
        <ele>1859.6</ele>
        <time>2000-01-01T10:27:56.000Z</time>
      </trkpt>
      <trkpt lat="46.20349" lon="6.79261">
        <ele>1859.7</ele>
        <time>2000-01-01T10:28:06.000Z</time>
      </trkpt>
      <trkpt lat="46.20356" lon="6.7926">
        <ele>1857</ele>
        <time>2000-01-01T10:28:16.000Z</time>
      </trkpt>
      <trkpt lat="46.20364" lon="6.7926">
        <ele>1861.3</ele>
        <time>2000-01-01T10:28:26.000Z</time>
      </trkpt>
      <trkpt lat="46.20387" lon="6.79255">
        <ele>1857</ele>
        <time>2000-01-01T10:28:36.000Z</time>
      </trkpt>
      <trkpt lat="46.20395" lon="6.79254">
        <ele>1860.5</ele>
        <time>2000-01-01T10:28:46.000Z</time>
      </trkpt>
      <trkpt lat="46.20403" lon="6.7925">
        <ele>1859.5</ele>
        <time>2000-01-01T10:28:56.000Z</time>
      </trkpt>
      <trkpt lat="46.20411" lon="6.79247">
        <ele>1856</ele>
        <time>2000-01-01T10:29:06.000Z</time>
      </trkpt>
      <trkpt lat="46.20418" lon="6.79242">
        <ele>1857.7</ele>
        <time>2000-01-01T10:29:16.000Z</time>
      </trkpt>
      <trkpt lat="46.20422" lon="6.79238">
        <ele>1856.4</ele>
        <time>2000-01-01T10:29:26.000Z</time>
      </trkpt>
      <trkpt lat="46.20436" lon="6.7923">
        <ele>1849</ele>
        <time>2000-01-01T10:29:36.000Z</time>
      </trkpt>
      <trkpt lat="46.20442" lon="6.79228">
        <ele>1852.2</ele>
        <time>2000-01-01T10:29:46.000Z</time>
      </trkpt>
      <trkpt lat="46.20448" lon="6.79228">
        <ele>1852.2</ele>
        <time>2000-01-01T10:29:56.000Z</time>
      </trkpt>
      <trkpt lat="46.20457" lon="6.79224">
        <ele>1848</ele>
        <time>2000-01-01T10:30:06.000Z</time>
      </trkpt>
      <trkpt lat="46.20463" lon="6.7922">
        <ele>1850.1</ele>
        <time>2000-01-01T10:30:16.000Z</time>
      </trkpt>
      <trkpt lat="46.2047" lon="6.79212">
        <ele>1848</ele>
        <time>2000-01-01T10:30:26.000Z</time>
      </trkpt>
      <trkpt lat="46.20481" lon="6.79204">
        <ele>1845</ele>
        <time>2000-01-01T10:30:36.000Z</time>
      </trkpt>
      <trkpt lat="46.20491" lon="6.79198">
        <ele>1844.7</ele>
        <time>2000-01-01T10:30:46.000Z</time>
      </trkpt>
      <trkpt lat="46.20505" lon="6.79194">
        <ele>1842</ele>
        <time>2000-01-01T10:30:56.000Z</time>
      </trkpt>
      <trkpt lat="46.20508" lon="6.79192">
        <ele>1844.4</ele>
        <time>2000-01-01T10:31:06.000Z</time>
      </trkpt>
      <trkpt lat="46.20517" lon="6.79189">
        <ele>1844.8</ele>
        <time>2000-01-01T10:31:16.000Z</time>
      </trkpt>
      <trkpt lat="46.2052" lon="6.79186">
        <ele>1844.4</ele>
        <time>2000-01-01T10:31:26.000Z</time>
      </trkpt>
      <trkpt lat="46.20527" lon="6.79173">
        <ele>1839</ele>
        <time>2000-01-01T10:31:36.000Z</time>
      </trkpt>
      <trkpt lat="46.20532" lon="6.79165">
        <ele>1840.3</ele>
        <time>2000-01-01T10:31:46.000Z</time>
      </trkpt>
      <trkpt lat="46.20546" lon="6.79146">
        <ele>1835</ele>
        <time>2000-01-01T10:31:56.000Z</time>
      </trkpt>
      <trkpt lat="46.2056" lon="6.79136">
        <ele>1836.9</ele>
        <time>2000-01-01T10:32:06.000Z</time>
      </trkpt>
      <trkpt lat="46.20566" lon="6.79134">
        <ele>1834</ele>
        <time>2000-01-01T10:32:16.000Z</time>
      </trkpt>
      <trkpt lat="46.20569" lon="6.79132">
        <ele>1837.2</ele>
        <time>2000-01-01T10:32:26.000Z</time>
      </trkpt>
      <trkpt lat="46.20588" lon="6.7911">
        <ele>1834</ele>
        <time>2000-01-01T10:32:36.000Z</time>
      </trkpt>
      <trkpt lat="46.20592" lon="6.79104">
        <ele>1836.5</ele>
        <time>2000-01-01T10:32:46.000Z</time>
      </trkpt>
      <trkpt lat="46.20602" lon="6.79085">
        <ele>1834</ele>
        <time>2000-01-01T10:32:56.000Z</time>
      </trkpt>
      <trkpt lat="46.20608" lon="6.79077">
        <ele>1834.4</ele>
        <time>2000-01-01T10:33:06.000Z</time>
      </trkpt>
      <trkpt lat="46.20616" lon="6.79062">
        <ele>1832</ele>
        <time>2000-01-01T10:33:16.000Z</time>
      </trkpt>
      <trkpt lat="46.20619" lon="6.79055">
        <ele>1831.4</ele>
        <time>2000-01-01T10:33:26.000Z</time>
      </trkpt>
      <trkpt lat="46.20632" lon="6.79038">
        <ele>1827</ele>
        <time>2000-01-01T10:33:36.000Z</time>
      </trkpt>
      <trkpt lat="46.20638" lon="6.79035">
        <ele>1827.8</ele>
        <time>2000-01-01T10:33:46.000Z</time>
      </trkpt>
      <trkpt lat="46.20646" lon="6.79028">
        <ele>1826.1</ele>
        <time>2000-01-01T10:33:56.000Z</time>
      </trkpt>
      <trkpt lat="46.20654" lon="6.79023">
        <ele>1823</ele>
        <time>2000-01-01T10:34:06.000Z</time>
      </trkpt>
      <trkpt lat="46.20658" lon="6.79022">
        <ele>1824.8</ele>
        <time>2000-01-01T10:34:16.000Z</time>
      </trkpt>
      <trkpt lat="46.20664" lon="6.79016">
        <ele>1823.5</ele>
        <time>2000-01-01T10:34:26.000Z</time>
      </trkpt>
      <trkpt lat="46.20666" lon="6.79002">
        <ele>1819</ele>
        <time>2000-01-01T10:34:36.000Z</time>
      </trkpt>
      <trkpt lat="46.20667" lon="6.78999">
        <ele>1819.8</ele>
        <time>2000-01-01T10:34:46.000Z</time>
      </trkpt>
      <trkpt lat="46.2067" lon="6.78995">
        <ele>1819.3</ele>
        <time>2000-01-01T10:34:56.000Z</time>
      </trkpt>
      <trkpt lat="46.20676" lon="6.7899">
        <ele>1818.8</ele>
        <time>2000-01-01T10:35:06.000Z</time>
      </trkpt>
      <trkpt lat="46.20682" lon="6.78983">
        <ele>1816</ele>
        <time>2000-01-01T10:35:16.000Z</time>
      </trkpt>
      <trkpt lat="46.20685" lon="6.78977">
        <ele>1816.6</ele>
        <time>2000-01-01T10:35:26.000Z</time>
      </trkpt>
      <trkpt lat="46.2069" lon="6.78975">
        <ele>1816.4</ele>
        <time>2000-01-01T10:35:36.000Z</time>
      </trkpt>
      <trkpt lat="46.20693" lon="6.78977">
        <ele>1817</ele>
        <time>2000-01-01T10:35:46.000Z</time>
      </trkpt>
      <trkpt lat="46.20695" lon="6.78977">
        <ele>1817.1</ele>
        <time>2000-01-01T10:35:56.000Z</time>
      </trkpt>
      <trkpt lat="46.20696" lon="6.78976">
        <ele>1817.1</ele>
        <time>2000-01-01T10:36:06.000Z</time>
      </trkpt>
      <trkpt lat="46.20697" lon="6.78974">
        <ele>1816.9</ele>
        <time>2000-01-01T10:36:16.000Z</time>
      </trkpt>
      <trkpt lat="46.20697" lon="6.78964">
        <ele>1813</ele>
        <time>2000-01-01T10:36:26.000Z</time>
      </trkpt>
      <trkpt lat="46.20696" lon="6.78958">
        <ele>1814.3</ele>
        <time>2000-01-01T10:36:36.000Z</time>
      </trkpt>
      <trkpt lat="46.20696" lon="6.78955">
        <ele>1813.8</ele>
        <time>2000-01-01T10:36:46.000Z</time>
      </trkpt>
      <trkpt lat="46.20698" lon="6.78949">
        <ele>1813.3</ele>
        <time>2000-01-01T10:36:56.000Z</time>
      </trkpt>
      <trkpt lat="46.20699" lon="6.78944">
        <ele>1812.8</ele>
        <time>2000-01-01T10:37:06.000Z</time>
      </trkpt>
      <trkpt lat="46.20701" lon="6.78929">
        <ele>1810</ele>
        <time>2000-01-01T10:37:16.000Z</time>
      </trkpt>
      <trkpt lat="46.20711" lon="6.78901">
        <ele>1809</ele>
        <time>2000-01-01T10:37:26.000Z</time>
      </trkpt>
      <trkpt lat="46.20719" lon="6.78882">
        <ele>1808.7</ele>
        <time>2000-01-01T10:37:36.000Z</time>
      </trkpt>
      <trkpt lat="46.20722" lon="6.78873">
        <ele>1807</ele>
        <time>2000-01-01T10:37:46.000Z</time>
      </trkpt>
      <trkpt lat="46.20734" lon="6.78851">
        <ele>1806</ele>
        <time>2000-01-01T10:37:56.000Z</time>
      </trkpt>
      <trkpt lat="46.20742" lon="6.78845">
        <ele>1808.1</ele>
        <time>2000-01-01T10:38:06.000Z</time>
      </trkpt>
      <trkpt lat="46.20742" lon="6.78842">
        <ele>1807.8</ele>
        <time>2000-01-01T10:38:16.000Z</time>
      </trkpt>
      <trkpt lat="46.20741" lon="6.78841">
        <ele>1807.5</ele>
        <time>2000-01-01T10:38:26.000Z</time>
      </trkpt>
      <trkpt lat="46.2074" lon="6.78838">
        <ele>1807.1</ele>
        <time>2000-01-01T10:38:36.000Z</time>
      </trkpt>
      <trkpt lat="46.2074" lon="6.78833">
        <ele>1806.5</ele>
        <time>2000-01-01T10:38:46.000Z</time>
      </trkpt>
      <trkpt lat="46.20741" lon="6.78828">
        <ele>1804</ele>
        <time>2000-01-01T10:38:56.000Z</time>
      </trkpt>
      <trkpt lat="46.20743" lon="6.78824">
        <ele>1805.8</ele>
        <time>2000-01-01T10:39:06.000Z</time>
      </trkpt>
      <trkpt lat="46.20749" lon="6.78819">
        <ele>1805.8</ele>
        <time>2000-01-01T10:39:16.000Z</time>
      </trkpt>
      <trkpt lat="46.20755" lon="6.78817">
        <ele>1806</ele>
        <time>2000-01-01T10:39:26.000Z</time>
      </trkpt>
      <trkpt lat="46.2076" lon="6.78812">
        <ele>1804</ele>
        <time>2000-01-01T10:39:36.000Z</time>
      </trkpt>
      <trkpt lat="46.20766" lon="6.7881">
        <ele>1805.8</ele>
        <time>2000-01-01T10:39:46.000Z</time>
      </trkpt>
      <trkpt lat="46.2076" lon="6.78807">
        <ele>1804.9</ele>
        <time>2000-01-01T10:39:56.000Z</time>
      </trkpt>
      <trkpt lat="46.20754" lon="6.78802">
        <ele>1803</ele>
        <time>2000-01-01T10:40:06.000Z</time>
      </trkpt>
      <trkpt lat="46.2075" lon="6.78794">
        <ele>1803.2</ele>
        <time>2000-01-01T10:40:16.000Z</time>
      </trkpt>
      <trkpt lat="46.2075" lon="6.78782">
        <ele>1802.3</ele>
        <time>2000-01-01T10:40:26.000Z</time>
      </trkpt>
      <trkpt lat="46.20755" lon="6.78776">
        <ele>1801</ele>
        <time>2000-01-01T10:40:36.000Z</time>
      </trkpt>
      <trkpt lat="46.20768" lon="6.78767">
        <ele>1799.6</ele>
        <time>2000-01-01T10:40:46.000Z</time>
      </trkpt>
      <trkpt lat="46.2077" lon="6.78741">
        <ele>1792</ele>
        <time>2000-01-01T10:40:56.000Z</time>
      </trkpt>
      <trkpt lat="46.20776" lon="6.78729">
        <ele>1786.8</ele>
        <time>2000-01-01T10:41:06.000Z</time>
      </trkpt>
      <trkpt lat="46.20795" lon="6.78726">
        <ele>1783</ele>
        <time>2000-01-01T10:41:16.000Z</time>
      </trkpt>
      <trkpt lat="46.20805" lon="6.78729">
        <ele>1787.4</ele>
        <time>2000-01-01T10:41:26.000Z</time>
      </trkpt>
      <trkpt lat="46.2081" lon="6.78727">
        <ele>1786.7</ele>
        <time>2000-01-01T10:41:36.000Z</time>
      </trkpt>
      <trkpt lat="46.20809" lon="6.78716">
        <ele>1778</ele>
        <time>2000-01-01T10:41:46.000Z</time>
      </trkpt>
      <trkpt lat="46.20798" lon="6.78708">
        <ele>1778.3</ele>
        <time>2000-01-01T10:41:56.000Z</time>
      </trkpt>
      <trkpt lat="46.20786" lon="6.78703">
        <ele>1772</ele>
        <time>2000-01-01T10:42:06.000Z</time>
      </trkpt>
      <trkpt lat="46.20768" lon="6.78693">
        <ele>1770</ele>
        <time>2000-01-01T10:42:16.000Z</time>
      </trkpt>
      <trkpt lat="46.20766" lon="6.78683">
        <ele>1767.4</ele>
        <time>2000-01-01T10:42:26.000Z</time>
      </trkpt>
      <trkpt lat="46.20786" lon="6.78682">
        <ele>1765</ele>
        <time>2000-01-01T10:42:36.000Z</time>
      </trkpt>
      <trkpt lat="46.20795" lon="6.78677">
        <ele>1764.8</ele>
        <time>2000-01-01T10:42:46.000Z</time>
      </trkpt>
      <trkpt lat="46.20785" lon="6.78666">
        <ele>1757</ele>
        <time>2000-01-01T10:42:56.000Z</time>
      </trkpt>
      <trkpt lat="46.20797" lon="6.78664">
        <ele>1759.4</ele>
        <time>2000-01-01T10:43:06.000Z</time>
      </trkpt>
      <trkpt lat="46.20791" lon="6.78648">
        <ele>1747</ele>
        <time>2000-01-01T10:43:16.000Z</time>
      </trkpt>
      <trkpt lat="46.20801" lon="6.78647">
        <ele>1751.6</ele>
        <time>2000-01-01T10:43:26.000Z</time>
      </trkpt>
      <trkpt lat="46.20805" lon="6.7864">
        <ele>1748.5</ele>
        <time>2000-01-01T10:43:36.000Z</time>
      </trkpt>
      <trkpt lat="46.20816" lon="6.78629">
        <ele>1738</ele>
        <time>2000-01-01T10:43:46.000Z</time>
      </trkpt>
      <trkpt lat="46.20825" lon="6.78626">
        <ele>1743.4</ele>
        <time>2000-01-01T10:43:56.000Z</time>
      </trkpt>
      <trkpt lat="46.2083" lon="6.78619">
        <ele>1740.5</ele>
        <time>2000-01-01T10:44:06.000Z</time>
      </trkpt>
      <trkpt lat="46.20841" lon="6.78609">
        <ele>1733</ele>
        <time>2000-01-01T10:44:16.000Z</time>
      </trkpt>
      <trkpt lat="46.20852" lon="6.78591">
        <ele>1730.8</ele>
        <time>2000-01-01T10:44:26.000Z</time>
      </trkpt>
      <trkpt lat="46.2087" lon="6.78591">
        <ele>1732</ele>
        <time>2000-01-01T10:44:36.000Z</time>
      </trkpt>
      <trkpt lat="46.20878" lon="6.78593">
        <ele>1735.3</ele>
        <time>2000-01-01T10:44:46.000Z</time>
      </trkpt>
      <trkpt lat="46.20891" lon="6.78585">
        <ele>1734</ele>
        <time>2000-01-01T10:44:56.000Z</time>
      </trkpt>
      <trkpt lat="46.20904" lon="6.78603">
        <ele>1743.7</ele>
        <time>2000-01-01T10:45:06.000Z</time>
      </trkpt>
      <trkpt lat="46.20909" lon="6.78595">
        <ele>1736</ele>
        <time>2000-01-01T10:45:16.000Z</time>
      </trkpt>
      <trkpt lat="46.20924" lon="6.78594">
        <ele>1744.8</ele>
        <time>2000-01-01T10:45:26.000Z</time>
      </trkpt>
      <trkpt lat="46.20936" lon="6.78596">
        <ele>1743</ele>
        <time>2000-01-01T10:45:36.000Z</time>
      </trkpt>
      <trkpt lat="46.20943" lon="6.78599">
        <ele>1751.8</ele>
        <time>2000-01-01T10:45:46.000Z</time>
      </trkpt>
      <trkpt lat="46.20945" lon="6.78606">
        <ele>1755.1</ele>
        <time>2000-01-01T10:45:56.000Z</time>
      </trkpt>
      <trkpt lat="46.20948" lon="6.78598">
        <ele>1747</ele>
        <time>2000-01-01T10:46:06.000Z</time>
      </trkpt>
      <trkpt lat="46.2095" lon="6.78588">
        <ele>1749.1</ele>
        <time>2000-01-01T10:46:16.000Z</time>
      </trkpt>
      <trkpt lat="46.20953" lon="6.78591">
        <ele>1751</ele>
        <time>2000-01-01T10:46:26.000Z</time>
      </trkpt>
      <trkpt lat="46.20957" lon="6.78587">
        <ele>1750.2</ele>
        <time>2000-01-01T10:46:36.000Z</time>
      </trkpt>
      <trkpt lat="46.2097" lon="6.78586">
        <ele>1748</ele>
        <time>2000-01-01T10:46:46.000Z</time>
      </trkpt>
      <trkpt lat="46.20975" lon="6.78583">
        <ele>1752.1</ele>
        <time>2000-01-01T10:46:56.000Z</time>
      </trkpt>
      <trkpt lat="46.20982" lon="6.78582">
        <ele>1752.4</ele>
        <time>2000-01-01T10:47:06.000Z</time>
      </trkpt>
      <trkpt lat="46.20994" lon="6.78578">
        <ele>1748</ele>
        <time>2000-01-01T10:47:16.000Z</time>
      </trkpt>
      <trkpt lat="46.21003" lon="6.78576">
        <ele>1751.9</ele>
        <time>2000-01-01T10:47:26.000Z</time>
      </trkpt>
      <trkpt lat="46.21007" lon="6.78576">
        <ele>1752.6</ele>
        <time>2000-01-01T10:47:36.000Z</time>
      </trkpt>
      <trkpt lat="46.21013" lon="6.78573">
        <ele>1745</ele>
        <time>2000-01-01T10:47:46.000Z</time>
      </trkpt>
      <trkpt lat="46.21017" lon="6.78569">
        <ele>1751.2</ele>
        <time>2000-01-01T10:47:56.000Z</time>
      </trkpt>
      <trkpt lat="46.2103" lon="6.78552">
        <ele>1742</ele>
        <time>2000-01-01T10:48:06.000Z</time>
      </trkpt>
      <trkpt lat="46.21033" lon="6.78547">
        <ele>1745.7</ele>
        <time>2000-01-01T10:48:16.000Z</time>
      </trkpt>
      <trkpt lat="46.21036" lon="6.78539">
        <ele>1743.9</ele>
        <time>2000-01-01T10:48:26.000Z</time>
      </trkpt>
      <trkpt lat="46.21043" lon="6.78525">
        <ele>1738</ele>
        <time>2000-01-01T10:48:36.000Z</time>
      </trkpt>
      <trkpt lat="46.21051" lon="6.78503">
        <ele>1739.5</ele>
        <time>2000-01-01T10:48:46.000Z</time>
      </trkpt>
      <trkpt lat="46.21061" lon="6.78478">
        <ele>1736</ele>
        <time>2000-01-01T10:48:56.000Z</time>
      </trkpt>
      <trkpt lat="46.21068" lon="6.78456">
        <ele>1737.5</ele>
        <time>2000-01-01T10:49:06.000Z</time>
      </trkpt>
      <trkpt lat="46.2107" lon="6.78442">
        <ele>1729</ele>
        <time>2000-01-01T10:49:16.000Z</time>
      </trkpt>
      <trkpt lat="46.21072" lon="6.78416">
        <ele>1730.9</ele>
        <time>2000-01-01T10:49:26.000Z</time>
      </trkpt>
      <trkpt lat="46.21074" lon="6.78406">
        <ele>1726</ele>
        <time>2000-01-01T10:49:36.000Z</time>
      </trkpt>
      <trkpt lat="46.21078" lon="6.78393">
        <ele>1730.5</ele>
        <time>2000-01-01T10:49:46.000Z</time>
      </trkpt>
      <trkpt lat="46.21082" lon="6.78374">
        <ele>1726</ele>
        <time>2000-01-01T10:49:56.000Z</time>
      </trkpt>
      <trkpt lat="46.21087" lon="6.78357">
        <ele>1728.5</ele>
        <time>2000-01-01T10:50:06.000Z</time>
      </trkpt>
      <trkpt lat="46.21088" lon="6.78351">
        <ele>1728</ele>
        <time>2000-01-01T10:50:16.000Z</time>
      </trkpt>
      <trkpt lat="46.21089" lon="6.78344">
        <ele>1720</ele>
        <time>2000-01-01T10:50:26.000Z</time>
      </trkpt>
      <trkpt lat="46.21089" lon="6.78339">
        <ele>1726.3</ele>
        <time>2000-01-01T10:50:36.000Z</time>
      </trkpt>
      <trkpt lat="46.21088" lon="6.78331">
        <ele>1724.2</ele>
        <time>2000-01-01T10:50:46.000Z</time>
      </trkpt>
      <trkpt lat="46.21088" lon="6.78322">
        <ele>1722.2</ele>
        <time>2000-01-01T10:50:56.000Z</time>
      </trkpt>
      <trkpt lat="46.21089" lon="6.78313">
        <ele>1714</ele>
        <time>2000-01-01T10:51:06.000Z</time>
      </trkpt>
      <trkpt lat="46.21089" lon="6.78308">
        <ele>1719.8</ele>
        <time>2000-01-01T10:51:16.000Z</time>
      </trkpt>
      <trkpt lat="46.2109" lon="6.78303">
        <ele>1719.2</ele>
        <time>2000-01-01T10:51:26.000Z</time>
      </trkpt>
      <trkpt lat="46.21108" lon="6.78257">
        <ele>1708</ele>
        <time>2000-01-01T10:51:36.000Z</time>
      </trkpt>
      <trkpt lat="46.21115" lon="6.78241">
        <ele>1714.5</ele>
        <time>2000-01-01T10:51:46.000Z</time>
      </trkpt>
      <trkpt lat="46.21117" lon="6.78234">
        <ele>1713.6</ele>
        <time>2000-01-01T10:51:56.000Z</time>
      </trkpt>
      <trkpt lat="46.21119" lon="6.78223">
        <ele>1704</ele>
        <time>2000-01-01T10:52:06.000Z</time>
      </trkpt>
      <trkpt lat="46.21119" lon="6.78208">
        <ele>1708.1</ele>
        <time>2000-01-01T10:52:16.000Z</time>
      </trkpt>
      <trkpt lat="46.2112" lon="6.78198">
        <ele>1706.3</ele>
        <time>2000-01-01T10:52:26.000Z</time>
      </trkpt>
      <trkpt lat="46.2112" lon="6.7818">
        <ele>1699</ele>
        <time>2000-01-01T10:52:36.000Z</time>
      </trkpt>
      <trkpt lat="46.21121" lon="6.78167">
        <ele>1699.8</ele>
        <time>2000-01-01T10:52:46.000Z</time>
      </trkpt>
      <trkpt lat="46.21124" lon="6.78152">
        <ele>1695</ele>
        <time>2000-01-01T10:52:56.000Z</time>
      </trkpt>
      <trkpt lat="46.21129" lon="6.78133">
        <ele>1693.8</ele>
        <time>2000-01-01T10:53:06.000Z</time>
      </trkpt>
      <trkpt lat="46.21131" lon="6.78123">
        <ele>1690</ele>
        <time>2000-01-01T10:53:16.000Z</time>
      </trkpt>
      <trkpt lat="46.21132" lon="6.78115">
        <ele>1689.8</ele>
        <time>2000-01-01T10:53:26.000Z</time>
      </trkpt>
      <trkpt lat="46.21132" lon="6.78109">
        <ele>1687.9</ele>
        <time>2000-01-01T10:53:36.000Z</time>
      </trkpt>
      <trkpt lat="46.21131" lon="6.78103">
        <ele>1685.7</ele>
        <time>2000-01-01T10:53:46.000Z</time>
      </trkpt>
      <trkpt lat="46.21132" lon="6.78086">
        <ele>1679</ele>
        <time>2000-01-01T10:53:56.000Z</time>
      </trkpt>
      <trkpt lat="46.21134" lon="6.78078">
        <ele>1680</ele>
        <time>2000-01-01T10:54:06.000Z</time>
      </trkpt>
      <trkpt lat="46.2114" lon="6.78063">
        <ele>1678.8</ele>
        <time>2000-01-01T10:54:16.000Z</time>
      </trkpt>
      <trkpt lat="46.21145" lon="6.78044">
        <ele>1671</ele>
        <time>2000-01-01T10:54:26.000Z</time>
      </trkpt>
      <trkpt lat="46.2116" lon="6.77992">
        <ele>1660</ele>
        <time>2000-01-01T10:54:36.000Z</time>
      </trkpt>
      <trkpt lat="46.21163" lon="6.77976">
        <ele>1663.5</ele>
        <time>2000-01-01T10:54:46.000Z</time>
      </trkpt>
      <trkpt lat="46.21171" lon="6.77941">
        <ele>1654</ele>
        <time>2000-01-01T10:54:56.000Z</time>
      </trkpt>
      <trkpt lat="46.21174" lon="6.7793">
        <ele>1653.7</ele>
        <time>2000-01-01T10:55:06.000Z</time>
      </trkpt>
      <trkpt lat="46.21179" lon="6.77916">
        <ele>1645</ele>
        <time>2000-01-01T10:55:16.000Z</time>
      </trkpt>
      <trkpt lat="46.21186" lon="6.77902">
        <ele>1649.2</ele>
        <time>2000-01-01T10:55:26.000Z</time>
      </trkpt>
      <trkpt lat="46.21196" lon="6.77885">
        <ele>1643</ele>
        <time>2000-01-01T10:55:36.000Z</time>
      </trkpt>
      <trkpt lat="46.21215" lon="6.77857">
        <ele>1638</ele>
        <time>2000-01-01T10:55:46.000Z</time>
      </trkpt>
      <trkpt lat="46.21234" lon="6.77823">
        <ele>1634</ele>
        <time>2000-01-01T10:55:56.000Z</time>
      </trkpt>
      <trkpt lat="46.2125" lon="6.77799">
        <ele>1632</ele>
        <time>2000-01-01T10:56:06.000Z</time>
      </trkpt>
      <trkpt lat="46.21264" lon="6.77781">
        <ele>1631</ele>
        <time>2000-01-01T10:56:16.000Z</time>
      </trkpt>
      <trkpt lat="46.21268" lon="6.77761">
        <ele>1629.6</ele>
        <time>2000-01-01T10:56:26.000Z</time>
      </trkpt>
      <trkpt lat="46.21266" lon="6.77753">
        <ele>1624</ele>
        <time>2000-01-01T10:56:36.000Z</time>
      </trkpt>
      <trkpt lat="46.2126" lon="6.77749">
        <ele>1624</ele>
        <time>2000-01-01T10:56:46.000Z</time>
      </trkpt>
      <trkpt lat="46.21232" lon="6.7776">
        <ele>1617</ele>
        <time>2000-01-01T10:56:56.000Z</time>
      </trkpt>
      <trkpt lat="46.2121" lon="6.77774">
        <ele>1616</ele>
        <time>2000-01-01T10:57:06.000Z</time>
      </trkpt>
      <trkpt lat="46.21187" lon="6.77789">
        <ele>1611</ele>
        <time>2000-01-01T10:57:16.000Z</time>
      </trkpt>
      <trkpt lat="46.21162" lon="6.77801">
        <ele>1611</ele>
        <time>2000-01-01T10:57:26.000Z</time>
      </trkpt>
      <trkpt lat="46.21131" lon="6.77816">
        <ele>1605</ele>
        <time>2000-01-01T10:57:36.000Z</time>
      </trkpt>
      <trkpt lat="46.21117" lon="6.77825">
        <ele>1604.4</ele>
        <time>2000-01-01T10:57:46.000Z</time>
      </trkpt>
      <trkpt lat="46.21107" lon="6.77835">
        <ele>1600</ele>
        <time>2000-01-01T10:57:56.000Z</time>
      </trkpt>
      <trkpt lat="46.21094" lon="6.7785">
        <ele>1601.9</ele>
        <time>2000-01-01T10:58:06.000Z</time>
      </trkpt>
      <trkpt lat="46.21088" lon="6.77855">
        <ele>1597</ele>
        <time>2000-01-01T10:58:16.000Z</time>
      </trkpt>
      <trkpt lat="46.2108" lon="6.7786">
        <ele>1599</ele>
        <time>2000-01-01T10:58:26.000Z</time>
      </trkpt>
      <trkpt lat="46.21071" lon="6.77864">
        <ele>1597.3</ele>
        <time>2000-01-01T10:58:36.000Z</time>
      </trkpt>
      <trkpt lat="46.21064" lon="6.77866">
        <ele>1594</ele>
        <time>2000-01-01T10:58:46.000Z</time>
      </trkpt>
      <trkpt lat="46.21052" lon="6.77868">
        <ele>1592.9</ele>
        <time>2000-01-01T10:58:56.000Z</time>
      </trkpt>
      <trkpt lat="46.21043" lon="6.77871">
        <ele>1590</ele>
        <time>2000-01-01T10:59:06.000Z</time>
      </trkpt>
      <trkpt lat="46.21025" lon="6.77888">
        <ele>1585</ele>
        <time>2000-01-01T10:59:16.000Z</time>
      </trkpt>
      <trkpt lat="46.21015" lon="6.77902">
        <ele>1586.2</ele>
        <time>2000-01-01T10:59:26.000Z</time>
      </trkpt>
      <trkpt lat="46.21" lon="6.77926">
        <ele>1579</ele>
        <time>2000-01-01T10:59:36.000Z</time>
      </trkpt>
      <trkpt lat="46.20992" lon="6.77936">
        <ele>1581.1</ele>
        <time>2000-01-01T10:59:46.000Z</time>
      </trkpt>
      <trkpt lat="46.2098" lon="6.77957">
        <ele>1574</ele>
        <time>2000-01-01T10:59:56.000Z</time>
      </trkpt>
      <trkpt lat="46.20971" lon="6.7797">
        <ele>1574.6</ele>
        <time>2000-01-01T11:00:06.000Z</time>
      </trkpt>
      <trkpt lat="46.20961" lon="6.77979">
        <ele>1571</ele>
        <time>2000-01-01T11:00:16.000Z</time>
      </trkpt>
      <trkpt lat="46.2095" lon="6.77992">
        <ele>1570.7</ele>
        <time>2000-01-01T11:00:26.000Z</time>
      </trkpt>
      <trkpt lat="46.20926" lon="6.78014">
        <ele>1563</ele>
        <time>2000-01-01T11:00:36.000Z</time>
      </trkpt>
      <trkpt lat="46.2091" lon="6.78025">
        <ele>1562.1</ele>
        <time>2000-01-01T11:00:46.000Z</time>
      </trkpt>
      <trkpt lat="46.2085" lon="6.78057">
        <ele>1545</ele>
        <time>2000-01-01T11:00:56.000Z</time>
      </trkpt>
      <trkpt lat="46.20837" lon="6.78062">
        <ele>1546.4</ele>
        <time>2000-01-01T11:01:06.000Z</time>
      </trkpt>
      <trkpt lat="46.20822" lon="6.78063">
        <ele>1542</ele>
        <time>2000-01-01T11:01:16.000Z</time>
      </trkpt>
      <trkpt lat="46.20787" lon="6.78052">
        <ele>1535</ele>
        <time>2000-01-01T11:01:26.000Z</time>
      </trkpt>
      <trkpt lat="46.20778" lon="6.7805">
        <ele>1534</ele>
        <time>2000-01-01T11:01:36.000Z</time>
      </trkpt>
      <trkpt lat="46.20749" lon="6.78051">
        <ele>1527</ele>
        <time>2000-01-01T11:01:46.000Z</time>
      </trkpt>
      <trkpt lat="46.20736" lon="6.78058">
        <ele>1527.8</ele>
        <time>2000-01-01T11:01:56.000Z</time>
      </trkpt>
      <trkpt lat="46.20729" lon="6.7806">
        <ele>1524</ele>
        <time>2000-01-01T11:02:06.000Z</time>
      </trkpt>
      <trkpt lat="46.20723" lon="6.7806">
        <ele>1525.6</ele>
        <time>2000-01-01T11:02:16.000Z</time>
      </trkpt>
      <trkpt lat="46.20711" lon="6.78056">
        <ele>1524.6</ele>
        <time>2000-01-01T11:02:26.000Z</time>
      </trkpt>
      <trkpt lat="46.207" lon="6.78042">
        <ele>1522</ele>
        <time>2000-01-01T11:02:36.000Z</time>
      </trkpt>
      <trkpt lat="46.20709" lon="6.78028">
        <ele>1521</ele>
        <time>2000-01-01T11:02:46.000Z</time>
      </trkpt>
      <trkpt lat="46.20719" lon="6.78002">
        <ele>1516</ele>
        <time>2000-01-01T11:02:56.000Z</time>
      </trkpt>
      <trkpt lat="46.20724" lon="6.77992">
        <ele>1515.8</ele>
        <time>2000-01-01T11:03:06.000Z</time>
      </trkpt>
      <trkpt lat="46.20731" lon="6.77983">
        <ele>1514.9</ele>
        <time>2000-01-01T11:03:16.000Z</time>
      </trkpt>
      <trkpt lat="46.20735" lon="6.77974">
        <ele>1512</ele>
        <time>2000-01-01T11:03:26.000Z</time>
      </trkpt>
      <trkpt lat="46.20746" lon="6.77933">
        <ele>1508</ele>
        <time>2000-01-01T11:03:36.000Z</time>
      </trkpt>
      <trkpt lat="46.20754" lon="6.779">
        <ele>1505</ele>
        <time>2000-01-01T11:03:46.000Z</time>
      </trkpt>
      <trkpt lat="46.20751" lon="6.77897">
        <ele>1506</ele>
        <time>2000-01-01T11:03:56.000Z</time>
      </trkpt>
      <trkpt lat="46.20747" lon="6.77896">
        <ele>1505.6</ele>
        <time>2000-01-01T11:04:06.000Z</time>
      </trkpt>
      <trkpt lat="46.20745" lon="6.77892">
        <ele>1505.1</ele>
        <time>2000-01-01T11:04:16.000Z</time>
      </trkpt>
      <trkpt lat="46.20743" lon="6.77886">
        <ele>1504.5</ele>
        <time>2000-01-01T11:04:26.000Z</time>
      </trkpt>
      <trkpt lat="46.20739" lon="6.77867">
        <ele>1501</ele>
        <time>2000-01-01T11:04:36.000Z</time>
      </trkpt>
      <trkpt lat="46.20736" lon="6.77859">
        <ele>1502.3</ele>
        <time>2000-01-01T11:04:46.000Z</time>
      </trkpt>
      <trkpt lat="46.2073" lon="6.77837">
        <ele>1499</ele>
        <time>2000-01-01T11:04:56.000Z</time>
      </trkpt>
      <trkpt lat="46.20726" lon="6.7783">
        <ele>1500</ele>
        <time>2000-01-01T11:05:06.000Z</time>
      </trkpt>
      <trkpt lat="46.20723" lon="6.77822">
        <ele>1499.6</ele>
        <time>2000-01-01T11:05:16.000Z</time>
      </trkpt>
      <trkpt lat="46.20719" lon="6.77814">
        <ele>1498</ele>
        <time>2000-01-01T11:05:26.000Z</time>
      </trkpt>
      <trkpt lat="46.20698" lon="6.7778">
        <ele>1496</ele>
        <time>2000-01-01T11:05:36.000Z</time>
      </trkpt>
      <trkpt lat="46.20696" lon="6.77773">
        <ele>1496.9</ele>
        <time>2000-01-01T11:05:46.000Z</time>
      </trkpt>
      <trkpt lat="46.20695" lon="6.77768">
        <ele>1496.7</ele>
        <time>2000-01-01T11:05:56.000Z</time>
      </trkpt>
      <trkpt lat="46.20695" lon="6.77759">
        <ele>1496.3</ele>
        <time>2000-01-01T11:06:06.000Z</time>
      </trkpt>
      <trkpt lat="46.20696" lon="6.77755">
        <ele>1496.2</ele>
        <time>2000-01-01T11:06:16.000Z</time>
      </trkpt>
      <trkpt lat="46.20693" lon="6.77758">
        <ele>1495</ele>
        <time>2000-01-01T11:06:26.000Z</time>
      </trkpt>
      <trkpt lat="46.20699" lon="6.7772">
        <ele>1495</ele>
        <time>2000-01-01T11:06:36.000Z</time>
      </trkpt>
      <trkpt lat="46.20707" lon="6.77669">
        <ele>1499</ele>
        <time>2000-01-01T11:06:46.000Z</time>
      </trkpt>
      <trkpt lat="46.20669" lon="6.77633">
        <ele>1504</ele>
        <time>2000-01-01T11:06:56.000Z</time>
      </trkpt>
      <trkpt lat="46.20645" lon="6.77635">
        <ele>1508</ele>
        <time>2000-01-01T11:07:06.000Z</time>
      </trkpt>
      <trkpt lat="46.20621" lon="6.77638">
        <ele>1512</ele>
        <time>2000-01-01T11:07:16.000Z</time>
      </trkpt>
      <trkpt lat="46.20577" lon="6.77623">
        <ele>1523</ele>
        <time>2000-01-01T11:07:26.000Z</time>
      </trkpt>
      <trkpt lat="46.20538" lon="6.77609">
        <ele>1532</ele>
        <time>2000-01-01T11:07:36.000Z</time>
      </trkpt>
      <trkpt lat="46.205" lon="6.77595">
        <ele>1548</ele>
        <time>2000-01-01T11:07:46.000Z</time>
      </trkpt>
      <trkpt lat="46.20461" lon="6.77581">
        <ele>1556</ele>
        <time>2000-01-01T11:07:56.000Z</time>
      </trkpt>
      <trkpt lat="46.20423" lon="6.77567">
        <ele>1574</ele>
        <time>2000-01-01T11:08:06.000Z</time>
      </trkpt>
      <trkpt lat="46.20384" lon="6.77553">
        <ele>1590</ele>
        <time>2000-01-01T11:08:16.000Z</time>
      </trkpt>
      <trkpt lat="46.20358" lon="6.77543">
        <ele>1602</ele>
        <time>2000-01-01T11:08:26.000Z</time>
      </trkpt>
      <trkpt lat="46.20318" lon="6.77529">
        <ele>1619</ele>
        <time>2000-01-01T11:08:36.000Z</time>
      </trkpt>
      <trkpt lat="46.20274" lon="6.77514">
        <ele>1639</ele>
        <time>2000-01-01T11:08:46.000Z</time>
      </trkpt>
      <trkpt lat="46.20238" lon="6.77501">
        <ele>1654</ele>
        <time>2000-01-01T11:08:56.000Z</time>
      </trkpt>
      <trkpt lat="46.20202" lon="6.77488">
        <ele>1665</ele>
        <time>2000-01-01T11:09:06.000Z</time>
      </trkpt>
      <trkpt lat="46.20166" lon="6.77475">
        <ele>1677</ele>
        <time>2000-01-01T11:09:16.000Z</time>
      </trkpt>
      <trkpt lat="46.2014" lon="6.77465">
        <ele>1685</ele>
        <time>2000-01-01T11:09:26.000Z</time>
      </trkpt>
      <trkpt lat="46.20101" lon="6.77451">
        <ele>1692</ele>
        <time>2000-01-01T11:09:36.000Z</time>
      </trkpt>
      <trkpt lat="46.20058" lon="6.77436">
        <ele>1707</ele>
        <time>2000-01-01T11:09:46.000Z</time>
      </trkpt>
      <trkpt lat="46.20015" lon="6.7742">
        <ele>1720</ele>
        <time>2000-01-01T11:09:56.000Z</time>
      </trkpt>
      <trkpt lat="46.19971" lon="6.77405">
        <ele>1733</ele>
        <time>2000-01-01T11:10:06.000Z</time>
      </trkpt>
      <trkpt lat="46.19932" lon="6.77391">
        <ele>1746</ele>
        <time>2000-01-01T11:10:16.000Z</time>
      </trkpt>
      <trkpt lat="46.19894" lon="6.77377">
        <ele>1763</ele>
        <time>2000-01-01T11:10:26.000Z</time>
      </trkpt>
      <trkpt lat="46.19855" lon="6.77363">
        <ele>1779</ele>
        <time>2000-01-01T11:10:36.000Z</time>
      </trkpt>
      <trkpt lat="46.19817" lon="6.77349">
        <ele>1804</ele>
        <time>2000-01-01T11:10:46.000Z</time>
      </trkpt>
      <trkpt lat="46.19778" lon="6.77335">
        <ele>1827</ele>
        <time>2000-01-01T11:10:56.000Z</time>
      </trkpt>
      <trkpt lat="46.19751" lon="6.77326">
        <ele>1843</ele>
        <time>2000-01-01T11:11:06.000Z</time>
      </trkpt>
      <trkpt lat="46.19711" lon="6.77311">
        <ele>1869</ele>
        <time>2000-01-01T11:11:16.000Z</time>
      </trkpt>
      <trkpt lat="46.1967" lon="6.77307">
        <ele>1869</ele>
        <time>2000-01-01T11:11:26.000Z</time>
      </trkpt>
      <trkpt lat="46.1963" lon="6.77302">
        <ele>1866</ele>
        <time>2000-01-01T11:11:36.000Z</time>
      </trkpt>
      <trkpt lat="46.19589" lon="6.77298">
        <ele>1860</ele>
        <time>2000-01-01T11:11:46.000Z</time>
      </trkpt>
      <trkpt lat="46.19549" lon="6.77293">
        <ele>1853</ele>
        <time>2000-01-01T11:11:56.000Z</time>
      </trkpt>
      <trkpt lat="46.19514" lon="6.77289">
        <ele>1845</ele>
        <time>2000-01-01T11:12:06.000Z</time>
      </trkpt>
      <trkpt lat="46.19478" lon="6.77285">
        <ele>1837</ele>
        <time>2000-01-01T11:12:16.000Z</time>
      </trkpt>
      <trkpt lat="46.19443" lon="6.77282">
        <ele>1834</ele>
        <time>2000-01-01T11:12:26.000Z</time>
      </trkpt>
      <trkpt lat="46.194" lon="6.77277">
        <ele>1830</ele>
        <time>2000-01-01T11:12:36.000Z</time>
      </trkpt>
      <trkpt lat="46.1942" lon="6.77243">
        <ele>1829</ele>
        <time>2000-01-01T11:12:46.000Z</time>
      </trkpt>
      <trkpt lat="46.19436" lon="6.77214">
        <ele>1828</ele>
        <time>2000-01-01T11:12:56.000Z</time>
      </trkpt>
      <trkpt lat="46.19457" lon="6.77178">
        <ele>1826</ele>
        <time>2000-01-01T11:13:06.000Z</time>
      </trkpt>
      <trkpt lat="46.19474" lon="6.77132">
        <ele>1825</ele>
        <time>2000-01-01T11:13:16.000Z</time>
      </trkpt>
      <trkpt lat="46.19491" lon="6.77086">
        <ele>1825</ele>
        <time>2000-01-01T11:13:26.000Z</time>
      </trkpt>
      <trkpt lat="46.19508" lon="6.7704">
        <ele>1823</ele>
        <time>2000-01-01T11:13:36.000Z</time>
      </trkpt>
      <trkpt lat="46.19519" lon="6.77008">
        <ele>1822</ele>
        <time>2000-01-01T11:13:46.000Z</time>
      </trkpt>
      <trkpt lat="46.19532" lon="6.76974">
        <ele>1822</ele>
        <time>2000-01-01T11:13:56.000Z</time>
      </trkpt>
      <trkpt lat="46.19538" lon="6.76931">
        <ele>1820</ele>
        <time>2000-01-01T11:14:06.000Z</time>
      </trkpt>
      <trkpt lat="46.19542" lon="6.76895">
        <ele>1820</ele>
        <time>2000-01-01T11:14:16.000Z</time>
      </trkpt>
      <trkpt lat="46.19547" lon="6.76854">
        <ele>1819</ele>
        <time>2000-01-01T11:14:26.000Z</time>
      </trkpt>
      <trkpt lat="46.19568" lon="6.76834">
        <ele>1817</ele>
        <time>2000-01-01T11:14:36.000Z</time>
      </trkpt>
      <trkpt lat="46.19591" lon="6.76811">
        <ele>1815</ele>
        <time>2000-01-01T11:14:46.000Z</time>
      </trkpt>
      <trkpt lat="46.19612" lon="6.76775">
        <ele>1814</ele>
        <time>2000-01-01T11:14:56.000Z</time>
      </trkpt>
      <trkpt lat="46.196" lon="6.76765">
        <ele>1812.8</ele>
        <time>2000-01-01T11:15:06.000Z</time>
      </trkpt>
      <trkpt lat="46.19575" lon="6.76763">
        <ele>1813</ele>
        <time>2000-01-01T11:15:16.000Z</time>
      </trkpt>
      <trkpt lat="46.19541" lon="6.76758">
        <ele>1813</ele>
        <time>2000-01-01T11:15:26.000Z</time>
      </trkpt>
      <trkpt lat="46.19519" lon="6.76758">
        <ele>1812</ele>
        <time>2000-01-01T11:15:36.000Z</time>
      </trkpt>
      <trkpt lat="46.19487" lon="6.76787">
        <ele>1812</ele>
        <time>2000-01-01T11:15:46.000Z</time>
      </trkpt>
      <trkpt lat="46.19466" lon="6.76821">
        <ele>1807</ele>
        <time>2000-01-01T11:15:56.000Z</time>
      </trkpt>
      <trkpt lat="46.1943" lon="6.76796">
        <ele>1802</ele>
        <time>2000-01-01T11:16:06.000Z</time>
      </trkpt>
      <trkpt lat="46.19402" lon="6.76799">
        <ele>1800</ele>
        <time>2000-01-01T11:16:16.000Z</time>
      </trkpt>
      <trkpt lat="46.19361" lon="6.76803">
        <ele>1797</ele>
        <time>2000-01-01T11:16:26.000Z</time>
      </trkpt>
      <trkpt lat="46.19336" lon="6.76809">
        <ele>1792</ele>
        <time>2000-01-01T11:16:36.000Z</time>
      </trkpt>
      <trkpt lat="46.19305" lon="6.76818">
        <ele>1792</ele>
        <time>2000-01-01T11:16:46.000Z</time>
      </trkpt>
      <trkpt lat="46.19282" lon="6.76802">
        <ele>1789</ele>
        <time>2000-01-01T11:16:56.000Z</time>
      </trkpt>
      <trkpt lat="46.19253" lon="6.76783">
        <ele>1788</ele>
        <time>2000-01-01T11:17:06.000Z</time>
      </trkpt>
      <trkpt lat="46.19237" lon="6.76763">
        <ele>1785</ele>
        <time>2000-01-01T11:17:16.000Z</time>
      </trkpt>
      <trkpt lat="46.19249" lon="6.76751">
        <ele>1782.5</ele>
        <time>2000-01-01T11:17:26.000Z</time>
      </trkpt>
      <trkpt lat="46.19321" lon="6.76718">
        <ele>1763</ele>
        <time>2000-01-01T11:17:36.000Z</time>
      </trkpt>
      <trkpt lat="46.19349" lon="6.76702">
        <ele>1759</ele>
        <time>2000-01-01T11:17:46.000Z</time>
      </trkpt>
      <trkpt lat="46.19373" lon="6.76688">
        <ele>1757</ele>
        <time>2000-01-01T11:17:56.000Z</time>
      </trkpt>
      <trkpt lat="46.19402" lon="6.76671">
        <ele>1755</ele>
        <time>2000-01-01T11:18:06.000Z</time>
      </trkpt>
      <trkpt lat="46.19419" lon="6.76639">
        <ele>1750</ele>
        <time>2000-01-01T11:18:16.000Z</time>
      </trkpt>
      <trkpt lat="46.19444" lon="6.76591">
        <ele>1749</ele>
        <time>2000-01-01T11:18:26.000Z</time>
      </trkpt>
      <trkpt lat="46.19459" lon="6.7656">
        <ele>1747</ele>
        <time>2000-01-01T11:18:36.000Z</time>
      </trkpt>
      <trkpt lat="46.19479" lon="6.76521">
        <ele>1744</ele>
        <time>2000-01-01T11:18:46.000Z</time>
      </trkpt>
      <trkpt lat="46.195" lon="6.76481">
        <ele>1741</ele>
        <time>2000-01-01T11:18:56.000Z</time>
      </trkpt>
      <trkpt lat="46.1952" lon="6.7647">
        <ele>1742</ele>
        <time>2000-01-01T11:19:06.000Z</time>
      </trkpt>
      <trkpt lat="46.1952" lon="6.76471">
        <ele>1741.6</ele>
        <time>2000-01-01T11:19:16.000Z</time>
      </trkpt>
      <trkpt lat="46.19525" lon="6.76473">
        <ele>1742</ele>
        <time>2000-01-01T11:19:26.000Z</time>
      </trkpt>
      <trkpt lat="46.19536" lon="6.76475">
        <ele>1743</ele>
        <time>2000-01-01T11:19:36.000Z</time>
      </trkpt>
      <trkpt lat="46.19558" lon="6.76482">
        <ele>1744</ele>
        <time>2000-01-01T11:19:46.000Z</time>
      </trkpt>
      <trkpt lat="46.19577" lon="6.76487">
        <ele>1744</ele>
        <time>2000-01-01T11:19:56.000Z</time>
      </trkpt>
      <trkpt lat="46.19601" lon="6.76492">
        <ele>1745</ele>
        <time>2000-01-01T11:20:06.000Z</time>
      </trkpt>
      <trkpt lat="46.19627" lon="6.76498">
        <ele>1745</ele>
        <time>2000-01-01T11:20:16.000Z</time>
      </trkpt>
      <trkpt lat="46.19652" lon="6.76501">
        <ele>1746</ele>
        <time>2000-01-01T11:20:26.000Z</time>
      </trkpt>
      <trkpt lat="46.19669" lon="6.76504">
        <ele>1749</ele>
        <time>2000-01-01T11:20:36.000Z</time>
      </trkpt>
      <trkpt lat="46.19677" lon="6.76504">
        <ele>1748</ele>
        <time>2000-01-01T11:20:46.000Z</time>
      </trkpt>
      <trkpt lat="46.19685" lon="6.76503">
        <ele>1750.4</ele>
        <time>2000-01-01T11:20:56.000Z</time>
      </trkpt>
      <trkpt lat="46.19698" lon="6.76498">
        <ele>1748</ele>
        <time>2000-01-01T11:21:06.000Z</time>
      </trkpt>
      <trkpt lat="46.19711" lon="6.76495">
        <ele>1752.8</ele>
        <time>2000-01-01T11:21:16.000Z</time>
      </trkpt>
      <trkpt lat="46.19714" lon="6.76496">
        <ele>1753.3</ele>
        <time>2000-01-01T11:21:26.000Z</time>
      </trkpt>
      <trkpt lat="46.19716" lon="6.76498">
        <ele>1751</ele>
        <time>2000-01-01T11:21:36.000Z</time>
      </trkpt>
      <trkpt lat="46.19725" lon="6.76512">
        <ele>1756.5</ele>
        <time>2000-01-01T11:21:46.000Z</time>
      </trkpt>
      <trkpt lat="46.19728" lon="6.76515">
        <ele>1757</ele>
        <time>2000-01-01T11:21:56.000Z</time>
      </trkpt>
      <trkpt lat="46.19734" lon="6.76519">
        <ele>1756</ele>
        <time>2000-01-01T11:22:06.000Z</time>
      </trkpt>
      <trkpt lat="46.19742" lon="6.76522">
        <ele>1758.8</ele>
        <time>2000-01-01T11:22:16.000Z</time>
      </trkpt>
      <trkpt lat="46.19823" lon="6.76472">
        <ele>1757</ele>
        <time>2000-01-01T11:22:26.000Z</time>
      </trkpt>
      <trkpt lat="46.19825" lon="6.76425">
        <ele>1756</ele>
        <time>2000-01-01T11:22:36.000Z</time>
      </trkpt>
      <trkpt lat="46.19824" lon="6.76383">
        <ele>1755</ele>
        <time>2000-01-01T11:22:46.000Z</time>
      </trkpt>
      <trkpt lat="46.19824" lon="6.76349">
        <ele>1752</ele>
        <time>2000-01-01T11:22:56.000Z</time>
      </trkpt>
      <trkpt lat="46.19823" lon="6.76315">
        <ele>1749</ele>
        <time>2000-01-01T11:23:06.000Z</time>
      </trkpt>
      <trkpt lat="46.19823" lon="6.7626">
        <ele>1744</ele>
        <time>2000-01-01T11:23:16.000Z</time>
      </trkpt>
      <trkpt lat="46.19822" lon="6.76221">
        <ele>1742</ele>
        <time>2000-01-01T11:23:26.000Z</time>
      </trkpt>
      <trkpt lat="46.19821" lon="6.76169">
        <ele>1737</ele>
        <time>2000-01-01T11:23:36.000Z</time>
      </trkpt>
      <trkpt lat="46.19821" lon="6.76129">
        <ele>1733</ele>
        <time>2000-01-01T11:23:46.000Z</time>
      </trkpt>
      <trkpt lat="46.1982" lon="6.76083">
        <ele>1730</ele>
        <time>2000-01-01T11:23:56.000Z</time>
      </trkpt>
      <trkpt lat="46.19819" lon="6.76038">
        <ele>1725</ele>
        <time>2000-01-01T11:24:06.000Z</time>
      </trkpt>
      <trkpt lat="46.19818" lon="6.75987">
        <ele>1722</ele>
        <time>2000-01-01T11:24:16.000Z</time>
      </trkpt>
      <trkpt lat="46.19807" lon="6.75939">
        <ele>1717</ele>
        <time>2000-01-01T11:24:26.000Z</time>
      </trkpt>
      <trkpt lat="46.19799" lon="6.75902">
        <ele>1713</ele>
        <time>2000-01-01T11:24:36.000Z</time>
      </trkpt>
      <trkpt lat="46.19789" lon="6.75854">
        <ele>1708</ele>
        <time>2000-01-01T11:24:46.000Z</time>
      </trkpt>
      <trkpt lat="46.19777" lon="6.75803">
        <ele>1706</ele>
        <time>2000-01-01T11:24:56.000Z</time>
      </trkpt>
      <trkpt lat="46.19764" lon="6.75848">
        <ele>1705</ele>
        <time>2000-01-01T11:25:06.000Z</time>
      </trkpt>
      <trkpt lat="46.19752" lon="6.75893">
        <ele>1704</ele>
        <time>2000-01-01T11:25:16.000Z</time>
      </trkpt>
      <trkpt lat="46.19743" lon="6.75925">
        <ele>1704</ele>
        <time>2000-01-01T11:25:26.000Z</time>
      </trkpt>
      <trkpt lat="46.19733" lon="6.75961">
        <ele>1702</ele>
        <time>2000-01-01T11:25:36.000Z</time>
      </trkpt>
      <trkpt lat="46.19713" lon="6.75924">
        <ele>1701</ele>
        <time>2000-01-01T11:25:46.000Z</time>
      </trkpt>
      <trkpt lat="46.19692" lon="6.75887">
        <ele>1698</ele>
        <time>2000-01-01T11:25:56.000Z</time>
      </trkpt>
      <trkpt lat="46.19665" lon="6.75837">
        <ele>1693</ele>
        <time>2000-01-01T11:26:06.000Z</time>
      </trkpt>
      <trkpt lat="46.19654" lon="6.758">
        <ele>1691</ele>
        <time>2000-01-01T11:26:16.000Z</time>
      </trkpt>
      <trkpt lat="46.19637" lon="6.75743">
        <ele>1687</ele>
        <time>2000-01-01T11:26:26.000Z</time>
      </trkpt>
      <trkpt lat="46.19626" lon="6.75705">
        <ele>1686</ele>
        <time>2000-01-01T11:26:36.000Z</time>
      </trkpt>
      <trkpt lat="46.1961" lon="6.75647">
        <ele>1680</ele>
        <time>2000-01-01T11:26:46.000Z</time>
      </trkpt>
      <trkpt lat="46.19594" lon="6.75618">
        <ele>1678</ele>
        <time>2000-01-01T11:26:56.000Z</time>
      </trkpt>
      <trkpt lat="46.19574" lon="6.75582">
        <ele>1674</ele>
        <time>2000-01-01T11:27:06.000Z</time>
      </trkpt>
      <trkpt lat="46.19553" lon="6.75542">
        <ele>1669</ele>
        <time>2000-01-01T11:27:16.000Z</time>
      </trkpt>
      <trkpt lat="46.19573" lon="6.75501">
        <ele>1664</ele>
        <time>2000-01-01T11:27:26.000Z</time>
      </trkpt>
      <trkpt lat="46.19578" lon="6.75457">
        <ele>1658</ele>
        <time>2000-01-01T11:27:36.000Z</time>
      </trkpt>
      <trkpt lat="46.19597" lon="6.75414">
        <ele>1654</ele>
        <time>2000-01-01T11:27:46.000Z</time>
      </trkpt>
      <trkpt lat="46.196" lon="6.75377">
        <ele>1652</ele>
        <time>2000-01-01T11:27:56.000Z</time>
      </trkpt>
      <trkpt lat="46.19604" lon="6.75332">
        <ele>1650</ele>
        <time>2000-01-01T11:28:06.000Z</time>
      </trkpt>
      <trkpt lat="46.1959" lon="6.75345">
        <ele>1649.7</ele>
        <time>2000-01-01T11:28:16.000Z</time>
      </trkpt>
      <trkpt lat="46.19575" lon="6.75335">
        <ele>1647</ele>
        <time>2000-01-01T11:28:26.000Z</time>
      </trkpt>
      <trkpt lat="46.19552" lon="6.75293">
        <ele>1642</ele>
        <time>2000-01-01T11:28:36.000Z</time>
      </trkpt>
      <trkpt lat="46.19552" lon="6.75259">
        <ele>1640</ele>
        <time>2000-01-01T11:28:46.000Z</time>
      </trkpt>
      <trkpt lat="46.19552" lon="6.75224">
        <ele>1638</ele>
        <time>2000-01-01T11:28:56.000Z</time>
      </trkpt>
      <trkpt lat="46.19538" lon="6.75201">
        <ele>1637</ele>
        <time>2000-01-01T11:29:06.000Z</time>
      </trkpt>
      <trkpt lat="46.19555" lon="6.75148">
        <ele>1635</ele>
        <time>2000-01-01T11:29:16.000Z</time>
      </trkpt>
      <trkpt lat="46.19578" lon="6.75093">
        <ele>1635</ele>
        <time>2000-01-01T11:29:26.000Z</time>
      </trkpt>
      <trkpt lat="46.19596" lon="6.75047">
        <ele>1636</ele>
        <time>2000-01-01T11:29:36.000Z</time>
      </trkpt>
      <trkpt lat="46.19615" lon="6.75001">
        <ele>1639</ele>
        <time>2000-01-01T11:29:46.000Z</time>
      </trkpt>
      <trkpt lat="46.19633" lon="6.74955">
        <ele>1640</ele>
        <time>2000-01-01T11:29:56.000Z</time>
      </trkpt>
      <trkpt lat="46.19647" lon="6.74921">
        <ele>1642</ele>
        <time>2000-01-01T11:30:06.000Z</time>
      </trkpt>
      <trkpt lat="46.19666" lon="6.74873">
        <ele>1643</ele>
        <time>2000-01-01T11:30:16.000Z</time>
      </trkpt>
      <trkpt lat="46.19689" lon="6.74818">
        <ele>1648</ele>
        <time>2000-01-01T11:30:26.000Z</time>
      </trkpt>
      <trkpt lat="46.19706" lon="6.74775">
        <ele>1655</ele>
        <time>2000-01-01T11:30:36.000Z</time>
      </trkpt>
      <trkpt lat="46.19723" lon="6.74732">
        <ele>1662</ele>
        <time>2000-01-01T11:30:46.000Z</time>
      </trkpt>
      <trkpt lat="46.19737" lon="6.74698">
        <ele>1667</ele>
        <time>2000-01-01T11:30:56.000Z</time>
      </trkpt>
      <trkpt lat="46.19755" lon="6.74652">
        <ele>1671</ele>
        <time>2000-01-01T11:31:06.000Z</time>
      </trkpt>
      <trkpt lat="46.19778" lon="6.74597">
        <ele>1674</ele>
        <time>2000-01-01T11:31:16.000Z</time>
      </trkpt>
      <trkpt lat="46.19796" lon="6.74551">
        <ele>1679</ele>
        <time>2000-01-01T11:31:26.000Z</time>
      </trkpt>
      <trkpt lat="46.19815" lon="6.74505">
        <ele>1682</ele>
        <time>2000-01-01T11:31:36.000Z</time>
      </trkpt>
      <trkpt lat="46.19833" lon="6.74459">
        <ele>1690</ele>
        <time>2000-01-01T11:31:46.000Z</time>
      </trkpt>
      <trkpt lat="46.19847" lon="6.74425">
        <ele>1693</ele>
        <time>2000-01-01T11:31:56.000Z</time>
      </trkpt>
      <trkpt lat="46.19866" lon="6.74377">
        <ele>1701</ele>
        <time>2000-01-01T11:32:06.000Z</time>
      </trkpt>
      <trkpt lat="46.19889" lon="6.74322">
        <ele>1708</ele>
        <time>2000-01-01T11:32:16.000Z</time>
      </trkpt>
      <trkpt lat="46.19906" lon="6.7428">
        <ele>1721</ele>
        <time>2000-01-01T11:32:26.000Z</time>
      </trkpt>
      <trkpt lat="46.19922" lon="6.74239">
        <ele>1737</ele>
        <time>2000-01-01T11:32:36.000Z</time>
      </trkpt>
      <trkpt lat="46.19934" lon="6.74208">
        <ele>1744</ele>
        <time>2000-01-01T11:32:46.000Z</time>
      </trkpt>
      <trkpt lat="46.19947" lon="6.74176">
        <ele>1751</ele>
        <time>2000-01-01T11:32:56.000Z</time>
      </trkpt>
      <trkpt lat="46.1997" lon="6.7412">
        <ele>1754</ele>
        <time>2000-01-01T11:33:06.000Z</time>
      </trkpt>
      <trkpt lat="46.19932" lon="6.74111">
        <ele>1750</ele>
        <time>2000-01-01T11:33:16.000Z</time>
      </trkpt>
      <trkpt lat="46.19897" lon="6.74102">
        <ele>1747</ele>
        <time>2000-01-01T11:33:26.000Z</time>
      </trkpt>
      <trkpt lat="46.19863" lon="6.74093">
        <ele>1737</ele>
        <time>2000-01-01T11:33:36.000Z</time>
      </trkpt>
      <trkpt lat="46.19828" lon="6.74084">
        <ele>1725</ele>
        <time>2000-01-01T11:33:46.000Z</time>
      </trkpt>
      <trkpt lat="46.19792" lon="6.74074">
        <ele>1716</ele>
        <time>2000-01-01T11:33:56.000Z</time>
      </trkpt>
      <trkpt lat="46.19766" lon="6.74068">
        <ele>1715</ele>
        <time>2000-01-01T11:34:06.000Z</time>
      </trkpt>
      <trkpt lat="46.19763" lon="6.74037">
        <ele>1715</ele>
        <time>2000-01-01T11:34:16.000Z</time>
      </trkpt>
      <trkpt lat="46.19738" lon="6.74036">
        <ele>1709</ele>
        <time>2000-01-01T11:34:26.000Z</time>
      </trkpt>
      <trkpt lat="46.19709" lon="6.74034">
        <ele>1700</ele>
        <time>2000-01-01T11:34:36.000Z</time>
      </trkpt>
      <trkpt lat="46.19677" lon="6.74029">
        <ele>1691</ele>
        <time>2000-01-01T11:34:46.000Z</time>
      </trkpt>
      <trkpt lat="46.19658" lon="6.73991">
        <ele>1686</ele>
        <time>2000-01-01T11:34:56.000Z</time>
      </trkpt>
      <trkpt lat="46.1964" lon="6.73953">
        <ele>1682</ele>
        <time>2000-01-01T11:35:06.000Z</time>
      </trkpt>
      <trkpt lat="46.19617" lon="6.73907">
        <ele>1680</ele>
        <time>2000-01-01T11:35:16.000Z</time>
      </trkpt>
      <trkpt lat="46.19589" lon="6.73886">
        <ele>1679</ele>
        <time>2000-01-01T11:35:26.000Z</time>
      </trkpt>
      <trkpt lat="46.19561" lon="6.73864">
        <ele>1679</ele>
        <time>2000-01-01T11:35:36.000Z</time>
      </trkpt>
      <trkpt lat="46.19532" lon="6.73841">
        <ele>1674</ele>
        <time>2000-01-01T11:35:46.000Z</time>
      </trkpt>
      <trkpt lat="46.19514" lon="6.73811">
        <ele>1672</ele>
        <time>2000-01-01T11:35:56.000Z</time>
      </trkpt>
      <trkpt lat="46.1949" lon="6.73771">
        <ele>1670</ele>
        <time>2000-01-01T11:36:06.000Z</time>
      </trkpt>
      <trkpt lat="46.1947" lon="6.73725">
        <ele>1666</ele>
        <time>2000-01-01T11:36:16.000Z</time>
      </trkpt>
      <trkpt lat="46.19448" lon="6.73709">
        <ele>1664</ele>
        <time>2000-01-01T11:36:26.000Z</time>
      </trkpt>
      <trkpt lat="46.19424" lon="6.73691">
        <ele>1658</ele>
        <time>2000-01-01T11:36:36.000Z</time>
      </trkpt>
      <trkpt lat="46.19409" lon="6.73663">
        <ele>1657</ele>
        <time>2000-01-01T11:36:46.000Z</time>
      </trkpt>
      <trkpt lat="46.19393" lon="6.73633">
        <ele>1656</ele>
        <time>2000-01-01T11:36:56.000Z</time>
      </trkpt>
      <trkpt lat="46.19377" lon="6.7359">
        <ele>1653</ele>
        <time>2000-01-01T11:37:06.000Z</time>
      </trkpt>
      <trkpt lat="46.19362" lon="6.73547">
        <ele>1653</ele>
        <time>2000-01-01T11:37:16.000Z</time>
      </trkpt>
      <trkpt lat="46.19351" lon="6.73516">
        <ele>1651</ele>
        <time>2000-01-01T11:37:26.000Z</time>
      </trkpt>
      <trkpt lat="46.19339" lon="6.73483">
        <ele>1646</ele>
        <time>2000-01-01T11:37:36.000Z</time>
      </trkpt>
      <trkpt lat="46.19308" lon="6.73445">
        <ele>1645</ele>
        <time>2000-01-01T11:37:46.000Z</time>
      </trkpt>
      <trkpt lat="46.19289" lon="6.73396">
        <ele>1644</ele>
        <time>2000-01-01T11:37:56.000Z</time>
      </trkpt>
      <trkpt lat="46.19271" lon="6.73348">
        <ele>1644</ele>
        <time>2000-01-01T11:38:06.000Z</time>
      </trkpt>
      <trkpt lat="46.19259" lon="6.73314">
        <ele>1640</ele>
        <time>2000-01-01T11:38:16.000Z</time>
      </trkpt>
      <trkpt lat="46.19243" lon="6.73272">
        <ele>1636</ele>
        <time>2000-01-01T11:38:26.000Z</time>
      </trkpt>
      <trkpt lat="46.19237" lon="6.73221">
        <ele>1636</ele>
        <time>2000-01-01T11:38:36.000Z</time>
      </trkpt>
      <trkpt lat="46.19235" lon="6.73182">
        <ele>1636</ele>
        <time>2000-01-01T11:38:46.000Z</time>
      </trkpt>
      <trkpt lat="46.19233" lon="6.73126">
        <ele>1636</ele>
        <time>2000-01-01T11:38:56.000Z</time>
      </trkpt>
      <trkpt lat="46.19232" lon="6.73092">
        <ele>1636</ele>
        <time>2000-01-01T11:39:06.000Z</time>
      </trkpt>
      <trkpt lat="46.19231" lon="6.73058">
        <ele>1636</ele>
        <time>2000-01-01T11:39:16.000Z</time>
      </trkpt>
      <trkpt lat="46.19232" lon="6.73005">
        <ele>1632</ele>
        <time>2000-01-01T11:39:26.000Z</time>
      </trkpt>
      <trkpt lat="46.19232" lon="6.72952">
        <ele>1628</ele>
        <time>2000-01-01T11:39:36.000Z</time>
      </trkpt>
      <trkpt lat="46.19233" lon="6.72899">
        <ele>1624</ele>
        <time>2000-01-01T11:39:46.000Z</time>
      </trkpt>
      <trkpt lat="46.19233" lon="6.7286">
        <ele>1621</ele>
        <time>2000-01-01T11:39:56.000Z</time>
      </trkpt>
      <trkpt lat="46.19234" lon="6.72809">
        <ele>1618</ele>
        <time>2000-01-01T11:40:06.000Z</time>
      </trkpt>
      <trkpt lat="46.19237" lon="6.72762">
        <ele>1616</ele>
        <time>2000-01-01T11:40:16.000Z</time>
      </trkpt>
      <trkpt lat="46.1924" lon="6.7272">
        <ele>1615</ele>
        <time>2000-01-01T11:40:26.000Z</time>
      </trkpt>
      <trkpt lat="46.19243" lon="6.72686">
        <ele>1612</ele>
        <time>2000-01-01T11:40:36.000Z</time>
      </trkpt>
      <trkpt lat="46.19246" lon="6.7265">
        <ele>1611</ele>
        <time>2000-01-01T11:40:46.000Z</time>
      </trkpt>
      <trkpt lat="46.19246" lon="6.72616">
        <ele>1610</ele>
        <time>2000-01-01T11:40:56.000Z</time>
      </trkpt>
      <trkpt lat="46.19246" lon="6.72581">
        <ele>1610</ele>
        <time>2000-01-01T11:41:06.000Z</time>
      </trkpt>
      <trkpt lat="46.19249" lon="6.7254">
        <ele>1609</ele>
        <time>2000-01-01T11:41:16.000Z</time>
      </trkpt>
      <trkpt lat="46.19252" lon="6.72506">
        <ele>1608</ele>
        <time>2000-01-01T11:41:26.000Z</time>
      </trkpt>
      <trkpt lat="46.19255" lon="6.7247">
        <ele>1605</ele>
        <time>2000-01-01T11:41:36.000Z</time>
      </trkpt>
      <trkpt lat="46.19279" lon="6.72437">
        <ele>1605</ele>
        <time>2000-01-01T11:41:46.000Z</time>
      </trkpt>
      <trkpt lat="46.19301" lon="6.72408">
        <ele>1605</ele>
        <time>2000-01-01T11:41:56.000Z</time>
      </trkpt>
      <trkpt lat="46.19318" lon="6.72384">
        <ele>1604</ele>
        <time>2000-01-01T11:42:06.000Z</time>
      </trkpt>
      <trkpt lat="46.19338" lon="6.72358">
        <ele>1603</ele>
        <time>2000-01-01T11:42:16.000Z</time>
      </trkpt>
      <trkpt lat="46.19365" lon="6.72329">
        <ele>1603</ele>
        <time>2000-01-01T11:42:26.000Z</time>
      </trkpt>
      <trkpt lat="46.19393" lon="6.723">
        <ele>1602</ele>
        <time>2000-01-01T11:42:36.000Z</time>
      </trkpt>
      <trkpt lat="46.19413" lon="6.72278">
        <ele>1602</ele>
        <time>2000-01-01T11:42:46.000Z</time>
      </trkpt>
      <trkpt lat="46.19439" lon="6.72251">
        <ele>1600</ele>
        <time>2000-01-01T11:42:56.000Z</time>
      </trkpt>
      <trkpt lat="46.19465" lon="6.7223">
        <ele>1594</ele>
        <time>2000-01-01T11:43:06.000Z</time>
      </trkpt>
      <trkpt lat="46.19487" lon="6.72212">
        <ele>1591</ele>
        <time>2000-01-01T11:43:16.000Z</time>
      </trkpt>
      <trkpt lat="46.19513" lon="6.72191">
        <ele>1580</ele>
        <time>2000-01-01T11:43:26.000Z</time>
      </trkpt>
      <trkpt lat="46.19529" lon="6.72159">
        <ele>1567</ele>
        <time>2000-01-01T11:43:36.000Z</time>
      </trkpt>
      <trkpt lat="46.19552" lon="6.72114">
        <ele>1551</ele>
        <time>2000-01-01T11:43:46.000Z</time>
      </trkpt>
      <trkpt lat="46.19555" lon="6.72073">
        <ele>1541</ele>
        <time>2000-01-01T11:43:56.000Z</time>
      </trkpt>
      <trkpt lat="46.19561" lon="6.72011">
        <ele>1526</ele>
        <time>2000-01-01T11:44:06.000Z</time>
      </trkpt>
      <trkpt lat="46.1955" lon="6.71968">
        <ele>1514</ele>
        <time>2000-01-01T11:44:16.000Z</time>
      </trkpt>
      <trkpt lat="46.19541" lon="6.7193">
        <ele>1504</ele>
        <time>2000-01-01T11:44:26.000Z</time>
      </trkpt>
      <trkpt lat="46.19529" lon="6.71877">
        <ele>1487</ele>
        <time>2000-01-01T11:44:36.000Z</time>
      </trkpt>
      <trkpt lat="46.19536" lon="6.71872">
        <ele>1487.7</ele>
        <time>2000-01-01T11:44:46.000Z</time>
      </trkpt>
      <trkpt lat="46.19548" lon="6.7186">
        <ele>1484</ele>
        <time>2000-01-01T11:44:56.000Z</time>
      </trkpt>
      <trkpt lat="46.19557" lon="6.71852">
        <ele>1483.3</ele>
        <time>2000-01-01T11:45:06.000Z</time>
      </trkpt>
      <trkpt lat="46.19564" lon="6.71848">
        <ele>1482.5</ele>
        <time>2000-01-01T11:45:16.000Z</time>
      </trkpt>
      <trkpt lat="46.19576" lon="6.71846">
        <ele>1482</ele>
        <time>2000-01-01T11:45:26.000Z</time>
      </trkpt>
      <trkpt lat="46.19583" lon="6.71844">
        <ele>1481.3</ele>
        <time>2000-01-01T11:45:36.000Z</time>
      </trkpt>
      <trkpt lat="46.19588" lon="6.7184">
        <ele>1480.8</ele>
        <time>2000-01-01T11:45:46.000Z</time>
      </trkpt>
      <trkpt lat="46.19591" lon="6.71833">
        <ele>1479.5</ele>
        <time>2000-01-01T11:45:56.000Z</time>
      </trkpt>
      <trkpt lat="46.19594" lon="6.71824">
        <ele>1478</ele>
        <time>2000-01-01T11:46:06.000Z</time>
      </trkpt>
      <trkpt lat="46.19594" lon="6.7182">
        <ele>1477.7</ele>
        <time>2000-01-01T11:46:16.000Z</time>
      </trkpt>
      <trkpt lat="46.19609" lon="6.71817">
        <ele>1478</ele>
        <time>2000-01-01T11:46:26.000Z</time>
      </trkpt>
      <trkpt lat="46.19618" lon="6.71797">
        <ele>1473</ele>
        <time>2000-01-01T11:46:36.000Z</time>
      </trkpt>
      <trkpt lat="46.19625" lon="6.71788">
        <ele>1473.2</ele>
        <time>2000-01-01T11:46:46.000Z</time>
      </trkpt>
      <trkpt lat="46.1963" lon="6.71785">
        <ele>1472.7</ele>
        <time>2000-01-01T11:46:56.000Z</time>
      </trkpt>
      <trkpt lat="46.19639" lon="6.71782">
        <ele>1473</ele>
        <time>2000-01-01T11:47:06.000Z</time>
      </trkpt>
      <trkpt lat="46.19648" lon="6.71775">
        <ele>1470.3</ele>
        <time>2000-01-01T11:47:16.000Z</time>
      </trkpt>
      <trkpt lat="46.19652" lon="6.71773">
        <ele>1469.8</ele>
        <time>2000-01-01T11:47:26.000Z</time>
      </trkpt>
      <trkpt lat="46.19659" lon="6.71772">
        <ele>1470</ele>
        <time>2000-01-01T11:47:36.000Z</time>
      </trkpt>
      <trkpt lat="46.19666" lon="6.71772">
        <ele>1469</ele>
        <time>2000-01-01T11:47:46.000Z</time>
      </trkpt>
      <trkpt lat="46.19673" lon="6.71768">
        <ele>1470.4</ele>
        <time>2000-01-01T11:47:56.000Z</time>
      </trkpt>
      <trkpt lat="46.19675" lon="6.71765">
        <ele>1470.6</ele>
        <time>2000-01-01T11:48:06.000Z</time>
      </trkpt>
      <trkpt lat="46.19675" lon="6.71746">
        <ele>1466</ele>
        <time>2000-01-01T11:48:16.000Z</time>
      </trkpt>
      <trkpt lat="46.19676" lon="6.71732">
        <ele>1463.3</ele>
        <time>2000-01-01T11:48:26.000Z</time>
      </trkpt>
      <trkpt lat="46.19677" lon="6.71725">
        <ele>1461.7</ele>
        <time>2000-01-01T11:48:36.000Z</time>
      </trkpt>
      <trkpt lat="46.19679" lon="6.7172">
        <ele>1463</ele>
        <time>2000-01-01T11:48:46.000Z</time>
      </trkpt>
      <trkpt lat="46.19688" lon="6.71712">
        <ele>1462.2</ele>
        <time>2000-01-01T11:48:56.000Z</time>
      </trkpt>
      <trkpt lat="46.19704" lon="6.71691">
        <ele>1461</ele>
        <time>2000-01-01T11:49:06.000Z</time>
      </trkpt>
      <trkpt lat="46.19712" lon="6.71682">
        <ele>1460.7</ele>
        <time>2000-01-01T11:49:16.000Z</time>
      </trkpt>
      <trkpt lat="46.19721" lon="6.71675">
        <ele>1458</ele>
        <time>2000-01-01T11:49:26.000Z</time>
      </trkpt>
      <trkpt lat="46.19744" lon="6.71663">
        <ele>1457</ele>
        <time>2000-01-01T11:49:36.000Z</time>
      </trkpt>
      <trkpt lat="46.19764" lon="6.71659">
        <ele>1450</ele>
        <time>2000-01-01T11:49:46.000Z</time>
      </trkpt>
      <trkpt lat="46.19767" lon="6.71657">
        <ele>1456.3</ele>
        <time>2000-01-01T11:49:56.000Z</time>
      </trkpt>
      <trkpt lat="46.19769" lon="6.71657">
        <ele>1456.5</ele>
        <time>2000-01-01T11:50:06.000Z</time>
      </trkpt>
      <trkpt lat="46.19773" lon="6.71648">
        <ele>1456</ele>
        <time>2000-01-01T11:50:16.000Z</time>
      </trkpt>
      <trkpt lat="46.19772" lon="6.71641">
        <ele>1454.8</ele>
        <time>2000-01-01T11:50:26.000Z</time>
      </trkpt>
      <trkpt lat="46.19765" lon="6.71617">
        <ele>1450</ele>
        <time>2000-01-01T11:50:36.000Z</time>
      </trkpt>
      <trkpt lat="46.19759" lon="6.71573">
        <ele>1446</ele>
        <time>2000-01-01T11:50:46.000Z</time>
      </trkpt>
      <trkpt lat="46.19759" lon="6.7156">
        <ele>1445.8</ele>
        <time>2000-01-01T11:50:56.000Z</time>
      </trkpt>
      <trkpt lat="46.19762" lon="6.71549">
        <ele>1445.4</ele>
        <time>2000-01-01T11:51:06.000Z</time>
      </trkpt>
      <trkpt lat="46.19762" lon="6.71547">
        <ele>1445</ele>
        <time>2000-01-01T11:51:16.000Z</time>
      </trkpt>
      <trkpt lat="46.19767" lon="6.71539">
        <ele>1442</ele>
        <time>2000-01-01T11:51:26.000Z</time>
      </trkpt>
      <trkpt lat="46.19764" lon="6.71538">
        <ele>1443.7</ele>
        <time>2000-01-01T11:51:36.000Z</time>
      </trkpt>
      <trkpt lat="46.19759" lon="6.71539">
        <ele>1442.6</ele>
        <time>2000-01-01T11:51:46.000Z</time>
      </trkpt>
      <trkpt lat="46.19754" lon="6.71541">
        <ele>1441.6</ele>
        <time>2000-01-01T11:51:56.000Z</time>
      </trkpt>
      <trkpt lat="46.19748" lon="6.71555">
        <ele>1439</ele>
        <time>2000-01-01T11:52:06.000Z</time>
      </trkpt>
      <trkpt lat="46.19745" lon="6.71572">
        <ele>1439.1</ele>
        <time>2000-01-01T11:52:16.000Z</time>
      </trkpt>
      <trkpt lat="46.19746" lon="6.71586">
        <ele>1436</ele>
        <time>2000-01-01T11:52:26.000Z</time>
      </trkpt>
      <trkpt lat="46.19745" lon="6.7158">
        <ele>1439.4</ele>
        <time>2000-01-01T11:52:36.000Z</time>
      </trkpt>
      <trkpt lat="46.19741" lon="6.71571">
        <ele>1436.7</ele>
        <time>2000-01-01T11:52:46.000Z</time>
      </trkpt>
      <trkpt lat="46.1974" lon="6.71564">
        <ele>1435.7</ele>
        <time>2000-01-01T11:52:56.000Z</time>
      </trkpt>
      <trkpt lat="46.1974" lon="6.71558">
        <ele>1429</ele>
        <time>2000-01-01T11:53:06.000Z</time>
      </trkpt>
      <trkpt lat="46.19736" lon="6.71536">
        <ele>1431</ele>
        <time>2000-01-01T11:53:16.000Z</time>
      </trkpt>
      <trkpt lat="46.19735" lon="6.71507">
        <ele>1426</ele>
        <time>2000-01-01T11:53:26.000Z</time>
      </trkpt>
      <trkpt lat="46.19735" lon="6.71483">
        <ele>1422.4</ele>
        <time>2000-01-01T11:53:36.000Z</time>
      </trkpt>
      <trkpt lat="46.19737" lon="6.71476">
        <ele>1420</ele>
        <time>2000-01-01T11:53:46.000Z</time>
      </trkpt>
      <trkpt lat="46.19746" lon="6.71465">
        <ele>1422.7</ele>
        <time>2000-01-01T11:53:56.000Z</time>
      </trkpt>
      <trkpt lat="46.19747" lon="6.71459">
        <ele>1421.8</ele>
        <time>2000-01-01T11:54:06.000Z</time>
      </trkpt>
      <trkpt lat="46.19746" lon="6.71444">
        <ele>1415</ele>
        <time>2000-01-01T11:54:16.000Z</time>
      </trkpt>
      <trkpt lat="46.19747" lon="6.71431">
        <ele>1415.8</ele>
        <time>2000-01-01T11:54:26.000Z</time>
      </trkpt>
      <trkpt lat="46.1975" lon="6.71416">
        <ele>1408</ele>
        <time>2000-01-01T11:54:36.000Z</time>
      </trkpt>
      <trkpt lat="46.19752" lon="6.71403">
        <ele>1410.9</ele>
        <time>2000-01-01T11:54:46.000Z</time>
      </trkpt>
      <trkpt lat="46.19754" lon="6.71398">
        <ele>1410.3</ele>
        <time>2000-01-01T11:54:56.000Z</time>
      </trkpt>
      <trkpt lat="46.19756" lon="6.71374">
        <ele>1403</ele>
        <time>2000-01-01T11:55:06.000Z</time>
      </trkpt>
      <trkpt lat="46.19759" lon="6.71367">
        <ele>1406.6</ele>
        <time>2000-01-01T11:55:16.000Z</time>
      </trkpt>
      <trkpt lat="46.19761" lon="6.71358">
        <ele>1405.4</ele>
        <time>2000-01-01T11:55:26.000Z</time>
      </trkpt>
      <trkpt lat="46.1976" lon="6.71345">
        <ele>1402</ele>
        <time>2000-01-01T11:55:36.000Z</time>
      </trkpt>
      <trkpt lat="46.19761" lon="6.71358">
        <ele>1405.4</ele>
        <time>2000-01-01T11:55:46.000Z</time>
      </trkpt>
      <trkpt lat="46.19766" lon="6.71344">
        <ele>1401</ele>
        <time>2000-01-01T11:55:56.000Z</time>
      </trkpt>
      <trkpt lat="46.19778" lon="6.71334">
        <ele>1402.3</ele>
        <time>2000-01-01T11:56:06.000Z</time>
      </trkpt>
      <trkpt lat="46.1977" lon="6.71307">
        <ele>1396</ele>
        <time>2000-01-01T11:56:16.000Z</time>
      </trkpt>
      <trkpt lat="46.19768" lon="6.71297">
        <ele>1397.3</ele>
        <time>2000-01-01T11:56:26.000Z</time>
      </trkpt>
      <trkpt lat="46.19769" lon="6.71265">
        <ele>1391</ele>
        <time>2000-01-01T11:56:36.000Z</time>
      </trkpt>
      <trkpt lat="46.19768" lon="6.71245">
        <ele>1391.6</ele>
        <time>2000-01-01T11:56:46.000Z</time>
      </trkpt>
      <trkpt lat="46.19766" lon="6.71231">
        <ele>1387</ele>
        <time>2000-01-01T11:56:56.000Z</time>
      </trkpt>
      <trkpt lat="46.19767" lon="6.71217">
        <ele>1387.5</ele>
        <time>2000-01-01T11:57:06.000Z</time>
      </trkpt>
      <trkpt lat="46.19771" lon="6.71202">
        <ele>1384</ele>
        <time>2000-01-01T11:57:16.000Z</time>
      </trkpt>
      <trkpt lat="46.19772" lon="6.71196">
        <ele>1384.9</ele>
        <time>2000-01-01T11:57:26.000Z</time>
      </trkpt>
      <trkpt lat="46.19772" lon="6.71185">
        <ele>1383.5</ele>
        <time>2000-01-01T11:57:36.000Z</time>
      </trkpt>
      <trkpt lat="46.19766" lon="6.71147">
        <ele>1375</ele>
        <time>2000-01-01T11:57:46.000Z</time>
      </trkpt>
      <trkpt lat="46.19764" lon="6.71114">
        <ele>1371</ele>
        <time>2000-01-01T11:57:56.000Z</time>
      </trkpt>
      <trkpt lat="46.19759" lon="6.71086">
        <ele>1364</ele>
        <time>2000-01-01T11:58:06.000Z</time>
      </trkpt>
      <trkpt lat="46.19755" lon="6.71046">
        <ele>1360</ele>
        <time>2000-01-01T11:58:16.000Z</time>
      </trkpt>
      <trkpt lat="46.19753" lon="6.71033">
        <ele>1360.9</ele>
        <time>2000-01-01T11:58:26.000Z</time>
      </trkpt>
      <trkpt lat="46.19751" lon="6.71032">
        <ele>1360</ele>
        <time>2000-01-01T11:58:36.000Z</time>
      </trkpt>
      <trkpt lat="46.19746" lon="6.71034">
        <ele>1358.7</ele>
        <time>2000-01-01T11:58:46.000Z</time>
      </trkpt>
      <trkpt lat="46.19731" lon="6.71053">
        <ele>1355</ele>
        <time>2000-01-01T11:58:56.000Z</time>
      </trkpt>
      <trkpt lat="46.19719" lon="6.7106">
        <ele>1352.7</ele>
        <time>2000-01-01T11:59:06.000Z</time>
      </trkpt>
      <trkpt lat="46.19702" lon="6.71067">
        <ele>1349</ele>
        <time>2000-01-01T11:59:16.000Z</time>
      </trkpt>
      <trkpt lat="46.197" lon="6.71067">
        <ele>1348.4</ele>
        <time>2000-01-01T11:59:26.000Z</time>
      </trkpt>
      <trkpt lat="46.19697" lon="6.71064">
        <ele>1347.6</ele>
        <time>2000-01-01T11:59:36.000Z</time>
      </trkpt>
      <trkpt lat="46.19694" lon="6.71059">
        <ele>1346.8</ele>
        <time>2000-01-01T11:59:46.000Z</time>
      </trkpt>
      <trkpt lat="46.19693" lon="6.71056">
        <ele>1346.4</ele>
        <time>2000-01-01T11:59:56.000Z</time>
      </trkpt>
      <trkpt lat="46.1969" lon="6.71043">
        <ele>1340</ele>
        <time>2000-01-01T12:00:06.000Z</time>
      </trkpt>
      <trkpt lat="46.19688" lon="6.71028">
        <ele>1342.5</ele>
        <time>2000-01-01T12:00:16.000Z</time>
      </trkpt>
      <trkpt lat="46.19685" lon="6.70993">
        <ele>1335</ele>
        <time>2000-01-01T12:00:26.000Z</time>
      </trkpt>
      <trkpt lat="46.19683" lon="6.7098">
        <ele>1334.3</ele>
        <time>2000-01-01T12:00:36.000Z</time>
      </trkpt>
      <trkpt lat="46.19683" lon="6.70971">
        <ele>1332.8</ele>
        <time>2000-01-01T12:00:46.000Z</time>
      </trkpt>
      <trkpt lat="46.19684" lon="6.70961">
        <ele>1330</ele>
        <time>2000-01-01T12:00:56.000Z</time>
      </trkpt>
      <trkpt lat="46.19687" lon="6.70943">
        <ele>1329.9</ele>
        <time>2000-01-01T12:01:06.000Z</time>
      </trkpt>
      <trkpt lat="46.1969" lon="6.70915">
        <ele>1320</ele>
        <time>2000-01-01T12:01:16.000Z</time>
      </trkpt>
      <trkpt lat="46.1969" lon="6.70899">
        <ele>1324</ele>
        <time>2000-01-01T12:01:26.000Z</time>
      </trkpt>
      <trkpt lat="46.19678" lon="6.70865">
        <ele>1313</ele>
        <time>2000-01-01T12:01:36.000Z</time>
      </trkpt>
      <trkpt lat="46.19675" lon="6.70853">
        <ele>1314.8</ele>
        <time>2000-01-01T12:01:46.000Z</time>
      </trkpt>
      <trkpt lat="46.19665" lon="6.70761">
        <ele>1299</ele>
        <time>2000-01-01T12:01:56.000Z</time>
      </trkpt>
      <trkpt lat="46.19663" lon="6.70737">
        <ele>1298.8</ele>
        <time>2000-01-01T12:02:06.000Z</time>
      </trkpt>
      <trkpt lat="46.19662" lon="6.70729">
        <ele>1295</ele>
        <time>2000-01-01T12:02:16.000Z</time>
      </trkpt>
      <trkpt lat="46.19659" lon="6.70714">
        <ele>1296.2</ele>
        <time>2000-01-01T12:02:26.000Z</time>
      </trkpt>
      <trkpt lat="46.19655" lon="6.70725">
        <ele>1292</ele>
        <time>2000-01-01T12:02:36.000Z</time>
      </trkpt>
      <trkpt lat="46.19659" lon="6.70714">
        <ele>1296.2</ele>
        <time>2000-01-01T12:02:46.000Z</time>
      </trkpt>
      <trkpt lat="46.19655" lon="6.70705">
        <ele>1294.6</ele>
        <time>2000-01-01T12:02:56.000Z</time>
      </trkpt>
      <trkpt lat="46.19653" lon="6.70704">
        <ele>1293.9</ele>
        <time>2000-01-01T12:03:06.000Z</time>
      </trkpt>
      <trkpt lat="46.19651" lon="6.70704">
        <ele>1292</ele>
        <time>2000-01-01T12:03:16.000Z</time>
      </trkpt>
      <trkpt lat="46.19644" lon="6.707">
        <ele>1290.9</ele>
        <time>2000-01-01T12:03:26.000Z</time>
      </trkpt>
      <trkpt lat="46.19641" lon="6.7069">
        <ele>1289.2</ele>
        <time>2000-01-01T12:03:36.000Z</time>
      </trkpt>
      <trkpt lat="46.19642" lon="6.70668">
        <ele>1286</ele>
        <time>2000-01-01T12:03:46.000Z</time>
      </trkpt>
      <trkpt lat="46.19642" lon="6.70651">
        <ele>1284.9</ele>
        <time>2000-01-01T12:03:56.000Z</time>
      </trkpt>
      <trkpt lat="46.1964" lon="6.70608">
        <ele>1272</ele>
        <time>2000-01-01T12:04:06.000Z</time>
      </trkpt>
      <trkpt lat="46.19638" lon="6.70584">
        <ele>1274.7</ele>
        <time>2000-01-01T12:04:16.000Z</time>
      </trkpt>
      <trkpt lat="46.19636" lon="6.7058">
        <ele>1269</ele>
        <time>2000-01-01T12:04:26.000Z</time>
      </trkpt>
      <trkpt lat="46.19635" lon="6.70581">
        <ele>1273.2</ele>
        <time>2000-01-01T12:04:36.000Z</time>
      </trkpt>
      <trkpt lat="46.19633" lon="6.70587">
        <ele>1273.1</ele>
        <time>2000-01-01T12:04:46.000Z</time>
      </trkpt>
      <trkpt lat="46.19632" lon="6.70593">
        <ele>1273.5</ele>
        <time>2000-01-01T12:04:56.000Z</time>
      </trkpt>
      <trkpt lat="46.19624" lon="6.70605">
        <ele>1269</ele>
        <time>2000-01-01T12:05:06.000Z</time>
      </trkpt>
      <trkpt lat="46.19617" lon="6.70617">
        <ele>1269.2</ele>
        <time>2000-01-01T12:05:16.000Z</time>
      </trkpt>
      <trkpt lat="46.19615" lon="6.70617">
        <ele>1268.3</ele>
        <time>2000-01-01T12:05:26.000Z</time>
      </trkpt>
      <trkpt lat="46.19613" lon="6.70616">
        <ele>1267.2</ele>
        <time>2000-01-01T12:05:36.000Z</time>
      </trkpt>
      <trkpt lat="46.1961" lon="6.70608">
        <ele>1261</ele>
        <time>2000-01-01T12:05:46.000Z</time>
      </trkpt>
      <trkpt lat="46.19608" lon="6.70571">
        <ele>1257</ele>
        <time>2000-01-01T12:05:56.000Z</time>
      </trkpt>
      <trkpt lat="46.19608" lon="6.70509">
        <ele>1248</ele>
        <time>2000-01-01T12:06:06.000Z</time>
      </trkpt>
      <trkpt lat="46.19607" lon="6.70507">
        <ele>1253</ele>
        <time>2000-01-01T12:06:16.000Z</time>
      </trkpt>
      <trkpt lat="46.19605" lon="6.70506">
        <ele>1252.1</ele>
        <time>2000-01-01T12:06:26.000Z</time>
      </trkpt>
      <trkpt lat="46.19601" lon="6.70509">
        <ele>1250.7</ele>
        <time>2000-01-01T12:06:36.000Z</time>
      </trkpt>
      <trkpt lat="46.19596" lon="6.70517">
        <ele>1249.6</ele>
        <time>2000-01-01T12:06:46.000Z</time>
      </trkpt>
      <trkpt lat="46.19588" lon="6.70526">
        <ele>1244</ele>
        <time>2000-01-01T12:06:56.000Z</time>
      </trkpt>
      <trkpt lat="46.19577" lon="6.70536">
        <ele>1245</ele>
        <time>2000-01-01T12:07:06.000Z</time>
      </trkpt>
      <trkpt lat="46.19565" lon="6.7055">
        <ele>1239</ele>
        <time>2000-01-01T12:07:16.000Z</time>
      </trkpt>
      <trkpt lat="46.1955" lon="6.70566">
        <ele>1237.9</ele>
        <time>2000-01-01T12:07:26.000Z</time>
      </trkpt>
      <trkpt lat="46.19548" lon="6.70565">
        <ele>1234</ele>
        <time>2000-01-01T12:07:36.000Z</time>
      </trkpt>
      <trkpt lat="46.19545" lon="6.70562">
        <ele>1236.5</ele>
        <time>2000-01-01T12:07:46.000Z</time>
      </trkpt>
      <trkpt lat="46.19541" lon="6.70557">
        <ele>1235.4</ele>
        <time>2000-01-01T12:07:56.000Z</time>
      </trkpt>
      <trkpt lat="46.19539" lon="6.70552">
        <ele>1234.5</ele>
        <time>2000-01-01T12:08:06.000Z</time>
      </trkpt>
      <trkpt lat="46.19539" lon="6.70542">
        <ele>1231</ele>
        <time>2000-01-01T12:08:16.000Z</time>
      </trkpt>
      <trkpt lat="46.19537" lon="6.70524">
        <ele>1231.2</ele>
        <time>2000-01-01T12:08:26.000Z</time>
      </trkpt>
      <trkpt lat="46.19535" lon="6.7049">
        <ele>1224</ele>
        <time>2000-01-01T12:08:36.000Z</time>
      </trkpt>
      <trkpt lat="46.19531" lon="6.70455">
        <ele>1220</ele>
        <time>2000-01-01T12:08:46.000Z</time>
      </trkpt>
      <trkpt lat="46.19529" lon="6.70429">
        <ele>1218</ele>
        <time>2000-01-01T12:08:56.000Z</time>
      </trkpt>
      <trkpt lat="46.19532" lon="6.70412">
        <ele>1214</ele>
        <time>2000-01-01T12:09:06.000Z</time>
      </trkpt>
      <trkpt lat="46.19532" lon="6.70406">
        <ele>1215</ele>
        <time>2000-01-01T12:09:16.000Z</time>
      </trkpt>
      <trkpt lat="46.1953" lon="6.704">
        <ele>1213.5</ele>
        <time>2000-01-01T12:09:26.000Z</time>
      </trkpt>
      <trkpt lat="46.1953" lon="6.70398">
        <ele>1213.2</ele>
        <time>2000-01-01T12:09:36.000Z</time>
      </trkpt>
      <trkpt lat="46.19528" lon="6.70397">
        <ele>1212.5</ele>
        <time>2000-01-01T12:09:46.000Z</time>
      </trkpt>
      <trkpt lat="46.19523" lon="6.70398">
        <ele>1211.2</ele>
        <time>2000-01-01T12:09:56.000Z</time>
      </trkpt>
      <trkpt lat="46.19518" lon="6.70401">
        <ele>1207</ele>
        <time>2000-01-01T12:10:06.000Z</time>
      </trkpt>
      <trkpt lat="46.19509" lon="6.70411">
        <ele>1209</ele>
        <time>2000-01-01T12:10:16.000Z</time>
      </trkpt>
      <trkpt lat="46.19498" lon="6.7042">
        <ele>1203</ele>
        <time>2000-01-01T12:10:26.000Z</time>
      </trkpt>
      <trkpt lat="46.19491" lon="6.70429">
        <ele>1203.6</ele>
        <time>2000-01-01T12:10:36.000Z</time>
      </trkpt>
      <trkpt lat="46.19486" lon="6.7044">
        <ele>1202.7</ele>
        <time>2000-01-01T12:10:46.000Z</time>
      </trkpt>
      <trkpt lat="46.19476" lon="6.70456">
        <ele>1196</ele>
        <time>2000-01-01T12:10:56.000Z</time>
      </trkpt>
      <trkpt lat="46.1947" lon="6.70471">
        <ele>1197.2</ele>
        <time>2000-01-01T12:11:06.000Z</time>
      </trkpt>
      <trkpt lat="46.19467" lon="6.7048">
        <ele>1191</ele>
        <time>2000-01-01T12:11:16.000Z</time>
      </trkpt>
      <trkpt lat="46.19463" lon="6.70502">
        <ele>1194.4</ele>
        <time>2000-01-01T12:11:26.000Z</time>
      </trkpt>
      <trkpt lat="46.19461" lon="6.70507">
        <ele>1191</ele>
        <time>2000-01-01T12:11:36.000Z</time>
      </trkpt>
      <trkpt lat="46.19458" lon="6.70512">
        <ele>1191.5</ele>
        <time>2000-01-01T12:11:46.000Z</time>
      </trkpt>
      <trkpt lat="46.19454" lon="6.70523">
        <ele>1189.4</ele>
        <time>2000-01-01T12:11:56.000Z</time>
      </trkpt>
      <trkpt lat="46.19445" lon="6.70563">
        <ele>1181</ele>
        <time>2000-01-01T12:12:06.000Z</time>
      </trkpt>
      <trkpt lat="46.19444" lon="6.70565">
        <ele>1183.7</ele>
        <time>2000-01-01T12:12:16.000Z</time>
      </trkpt>
      <trkpt lat="46.19443" lon="6.70561">
        <ele>1183.1</ele>
        <time>2000-01-01T12:12:26.000Z</time>
      </trkpt>
      <trkpt lat="46.19442" lon="6.70541">
        <ele>1182.5</ele>
        <time>2000-01-01T12:12:36.000Z</time>
      </trkpt>
      <trkpt lat="46.19439" lon="6.70513">
        <ele>1175</ele>
        <time>2000-01-01T12:12:46.000Z</time>
      </trkpt>
      <trkpt lat="46.19437" lon="6.705">
        <ele>1178.7</ele>
        <time>2000-01-01T12:12:56.000Z</time>
      </trkpt>
      <trkpt lat="46.19432" lon="6.70481">
        <ele>1173</ele>
        <time>2000-01-01T12:13:06.000Z</time>
      </trkpt>
      <trkpt lat="46.19427" lon="6.70468">
        <ele>1167.8</ele>
        <time>2000-01-01T12:13:16.000Z</time>
      </trkpt>
      <trkpt lat="46.1942" lon="6.70434">
        <ele>1158</ele>
        <time>2000-01-01T12:13:26.000Z</time>
      </trkpt>
      <trkpt lat="46.19418" lon="6.70411">
        <ele>1160.2</ele>
        <time>2000-01-01T12:13:36.000Z</time>
      </trkpt>
      <trkpt lat="46.19416" lon="6.70398">
        <ele>1155</ele>
        <time>2000-01-01T12:13:46.000Z</time>
      </trkpt>
      <trkpt lat="46.19417" lon="6.70377">
        <ele>1156.4</ele>
        <time>2000-01-01T12:13:56.000Z</time>
      </trkpt>
      <trkpt lat="46.19419" lon="6.7035">
        <ele>1146</ele>
        <time>2000-01-01T12:14:06.000Z</time>
      </trkpt>
      <trkpt lat="46.19423" lon="6.70326">
        <ele>1148.7</ele>
        <time>2000-01-01T12:14:16.000Z</time>
      </trkpt>
      <trkpt lat="46.19426" lon="6.70304">
        <ele>1138</ele>
        <time>2000-01-01T12:14:26.000Z</time>
      </trkpt>
      <trkpt lat="46.19425" lon="6.70303">
        <ele>1142.3</ele>
        <time>2000-01-01T12:14:36.000Z</time>
      </trkpt>
      <trkpt lat="46.19408" lon="6.70316">
        <ele>1134</ele>
        <time>2000-01-01T12:14:46.000Z</time>
      </trkpt>
      <trkpt lat="46.19383" lon="6.70346">
        <ele>1131</ele>
        <time>2000-01-01T12:14:56.000Z</time>
      </trkpt>
      <trkpt lat="46.19372" lon="6.70365">
        <ele>1130.4</ele>
        <time>2000-01-01T12:15:06.000Z</time>
      </trkpt>
      <trkpt lat="46.19363" lon="6.70383">
        <ele>1125</ele>
        <time>2000-01-01T12:15:16.000Z</time>
      </trkpt>
      <trkpt lat="46.19352" lon="6.70409">
        <ele>1122</ele>
        <time>2000-01-01T12:15:26.000Z</time>
      </trkpt>
      <trkpt lat="46.19344" lon="6.70441">
        <ele>1117</ele>
        <time>2000-01-01T12:15:36.000Z</time>
      </trkpt>
      <trkpt lat="46.19343" lon="6.70451">
        <ele>1118.3</ele>
        <time>2000-01-01T12:15:46.000Z</time>
      </trkpt>
      <trkpt lat="46.19341" lon="6.70462">
        <ele>1117.3</ele>
        <time>2000-01-01T12:15:56.000Z</time>
      </trkpt>
      <trkpt lat="46.19338" lon="6.70471">
        <ele>1110</ele>
        <time>2000-01-01T12:16:06.000Z</time>
      </trkpt>
      <trkpt lat="46.19334" lon="6.70476">
        <ele>1113.7</ele>
        <time>2000-01-01T12:16:16.000Z</time>
      </trkpt>
      <trkpt lat="46.19329" lon="6.70474">
        <ele>1109.4</ele>
        <time>2000-01-01T12:16:26.000Z</time>
      </trkpt>
      <trkpt lat="46.19328" lon="6.70471">
        <ele>1108.4</ele>
        <time>2000-01-01T12:16:36.000Z</time>
      </trkpt>
      <trkpt lat="46.19327" lon="6.7046">
        <ele>1103</ele>
        <time>2000-01-01T12:16:46.000Z</time>
      </trkpt>
      <trkpt lat="46.19327" lon="6.7045">
        <ele>1107.6</ele>
        <time>2000-01-01T12:16:56.000Z</time>
      </trkpt>
      <trkpt lat="46.19323" lon="6.7044">
        <ele>1105.2</ele>
        <time>2000-01-01T12:17:06.000Z</time>
      </trkpt>
      <trkpt lat="46.19314" lon="6.70423">
        <ele>1100</ele>
        <time>2000-01-01T12:17:16.000Z</time>
      </trkpt>
      <trkpt lat="46.19303" lon="6.70389">
        <ele>1093</ele>
        <time>2000-01-01T12:17:26.000Z</time>
      </trkpt>
      <trkpt lat="46.19295" lon="6.70346">
        <ele>1084</ele>
        <time>2000-01-01T12:17:36.000Z</time>
      </trkpt>
      <trkpt lat="46.19296" lon="6.70317">
        <ele>1079</ele>
        <time>2000-01-01T12:17:46.000Z</time>
      </trkpt>
      <trkpt lat="46.193" lon="6.70283">
        <ele>1073</ele>
        <time>2000-01-01T12:17:56.000Z</time>
      </trkpt>
      <trkpt lat="46.19305" lon="6.70255">
        <ele>1070</ele>
        <time>2000-01-01T12:18:06.000Z</time>
      </trkpt>
      <trkpt lat="46.19307" lon="6.70251">
        <ele>1073.8</ele>
        <time>2000-01-01T12:18:16.000Z</time>
      </trkpt>
      <trkpt lat="46.19314" lon="6.70233">
        <ele>1070.6</ele>
        <time>2000-01-01T12:18:26.000Z</time>
      </trkpt>
      <trkpt lat="46.19329" lon="6.70206">
        <ele>1059</ele>
        <time>2000-01-01T12:18:36.000Z</time>
      </trkpt>
      <trkpt lat="46.19338" lon="6.70188">
        <ele>1064.1</ele>
        <time>2000-01-01T12:18:46.000Z</time>
      </trkpt>
      <trkpt lat="46.19341" lon="6.70177">
        <ele>1058</ele>
        <time>2000-01-01T12:18:56.000Z</time>
      </trkpt>
      <trkpt lat="46.19345" lon="6.70167">
        <ele>1061</ele>
        <time>2000-01-01T12:19:06.000Z</time>
      </trkpt>
      <trkpt lat="46.1935" lon="6.70157">
        <ele>1060.5</ele>
        <time>2000-01-01T12:19:16.000Z</time>
      </trkpt>
      <trkpt lat="46.19349" lon="6.70152">
        <ele>1055</ele>
        <time>2000-01-01T12:19:26.000Z</time>
      </trkpt>
      <trkpt lat="46.19347" lon="6.7015">
        <ele>1057.1</ele>
        <time>2000-01-01T12:19:36.000Z</time>
      </trkpt>
      <trkpt lat="46.19344" lon="6.70151">
        <ele>1056.1</ele>
        <time>2000-01-01T12:19:46.000Z</time>
      </trkpt>
      <trkpt lat="46.1934" lon="6.70159">
        <ele>1056.4</ele>
        <time>2000-01-01T12:19:56.000Z</time>
      </trkpt>
      <trkpt lat="46.1933" lon="6.70167">
        <ele>1046</ele>
        <time>2000-01-01T12:20:06.000Z</time>
      </trkpt>
      <trkpt lat="46.19319" lon="6.70174">
        <ele>1051.2</ele>
        <time>2000-01-01T12:20:16.000Z</time>
      </trkpt>
      <trkpt lat="46.19306" lon="6.70184">
        <ele>1043</ele>
        <time>2000-01-01T12:20:26.000Z</time>
      </trkpt>
      <trkpt lat="46.1928" lon="6.70195">
        <ele>1034</ele>
        <time>2000-01-01T12:20:36.000Z</time>
      </trkpt>
      <trkpt lat="46.19263" lon="6.70204">
        <ele>1036.9</ele>
        <time>2000-01-01T12:20:46.000Z</time>
      </trkpt>
      <trkpt lat="46.19252" lon="6.70218">
        <ele>1033</ele>
        <time>2000-01-01T12:20:56.000Z</time>
      </trkpt>
      <trkpt lat="46.19236" lon="6.70229">
        <ele>1031.3</ele>
        <time>2000-01-01T12:21:06.000Z</time>
      </trkpt>
      <trkpt lat="46.19217" lon="6.7025">
        <ele>1023</ele>
        <time>2000-01-01T12:21:16.000Z</time>
      </trkpt>
      <trkpt lat="46.19213" lon="6.70252">
        <ele>1025.9</ele>
        <time>2000-01-01T12:21:26.000Z</time>
      </trkpt>
      <trkpt lat="46.19211" lon="6.70248">
        <ele>1024.3</ele>
        <time>2000-01-01T12:21:36.000Z</time>
      </trkpt>
      <trkpt lat="46.19211" lon="6.70243">
        <ele>1023.3</ele>
        <time>2000-01-01T12:21:46.000Z</time>
      </trkpt>
      <trkpt lat="46.19214" lon="6.70233">
        <ele>1019</ele>
        <time>2000-01-01T12:21:56.000Z</time>
      </trkpt>
      <trkpt lat="46.19219" lon="6.70221">
        <ele>1021.5</ele>
        <time>2000-01-01T12:22:06.000Z</time>
      </trkpt>
      <trkpt lat="46.19234" lon="6.70169">
        <ele>1010</ele>
        <time>2000-01-01T12:22:16.000Z</time>
      </trkpt>
      <trkpt lat="46.19247" lon="6.70136">
        <ele>1003</ele>
        <time>2000-01-01T12:22:26.000Z</time>
      </trkpt>
      <trkpt lat="46.19266" lon="6.70099">
        <ele>1001</ele>
        <time>2000-01-01T12:22:36.000Z</time>
      </trkpt>
      <trkpt lat="46.19267" lon="6.70095">
        <ele>1004</ele>
        <time>2000-01-01T12:22:46.000Z</time>
      </trkpt>
      <trkpt lat="46.19265" lon="6.70091">
        <ele>1002.5</ele>
        <time>2000-01-01T12:22:56.000Z</time>
      </trkpt>
      <trkpt lat="46.19262" lon="6.70091">
        <ele>1001.9</ele>
        <time>2000-01-01T12:23:06.000Z</time>
      </trkpt>
      <trkpt lat="46.1924" lon="6.70107">
        <ele>993</ele>
        <time>2000-01-01T12:23:16.000Z</time>
      </trkpt>
      <trkpt lat="46.19202" lon="6.70131">
        <ele>993</ele>
        <time>2000-01-01T12:23:26.000Z</time>
      </trkpt>
      <trkpt lat="46.19184" lon="6.70144">
        <ele>991</ele>
        <time>2000-01-01T12:23:36.000Z</time>
      </trkpt>
      <trkpt lat="46.1917" lon="6.70157">
        <ele>990.7</ele>
        <time>2000-01-01T12:23:46.000Z</time>
      </trkpt>
      <trkpt lat="46.19167" lon="6.70165">
        <ele>990</ele>
        <time>2000-01-01T12:23:56.000Z</time>
      </trkpt>
      <trkpt lat="46.19163" lon="6.70168">
        <ele>990.3</ele>
        <time>2000-01-01T12:24:06.000Z</time>
      </trkpt>
      <trkpt lat="46.19161" lon="6.70169">
        <ele>990</ele>
        <time>2000-01-01T12:24:16.000Z</time>
      </trkpt>
      <trkpt lat="46.19159" lon="6.70168">
        <ele>989.5</ele>
        <time>2000-01-01T12:24:26.000Z</time>
      </trkpt>
      <trkpt lat="46.19158" lon="6.70165">
        <ele>988.9</ele>
        <time>2000-01-01T12:24:36.000Z</time>
      </trkpt>
      <trkpt lat="46.19159" lon="6.7016">
        <ele>988.3</ele>
        <time>2000-01-01T12:24:46.000Z</time>
      </trkpt>
      <trkpt lat="46.19164" lon="6.70151">
        <ele>989</ele>
        <time>2000-01-01T12:24:56.000Z</time>
      </trkpt>
      <trkpt lat="46.19171" lon="6.70144">
        <ele>988.9</ele>
        <time>2000-01-01T12:25:06.000Z</time>
      </trkpt>
      <trkpt lat="46.19176" lon="6.70138">
        <ele>989.1</ele>
        <time>2000-01-01T12:25:16.000Z</time>
      </trkpt>
      <trkpt lat="46.19211" lon="6.70078">
        <ele>980</ele>
        <time>2000-01-01T12:25:26.000Z</time>
      </trkpt>
      <trkpt lat="46.19223" lon="6.70062">
        <ele>983.7</ele>
        <time>2000-01-01T12:25:36.000Z</time>
      </trkpt>
      <trkpt lat="46.19237" lon="6.70045">
        <ele>979</ele>
        <time>2000-01-01T12:25:46.000Z</time>
      </trkpt>
      <trkpt lat="46.19247" lon="6.7003">
        <ele>982.2</ele>
        <time>2000-01-01T12:25:56.000Z</time>
      </trkpt>
      <trkpt lat="46.19256" lon="6.70008">
        <ele>979</ele>
        <time>2000-01-01T12:26:06.000Z</time>
      </trkpt>
      <trkpt lat="46.19262" lon="6.69989">
        <ele>979.5</ele>
        <time>2000-01-01T12:26:16.000Z</time>
      </trkpt>
      <trkpt lat="46.19266" lon="6.69983">
        <ele>978</ele>
        <time>2000-01-01T12:26:26.000Z</time>
      </trkpt>
      <trkpt lat="46.19269" lon="6.6998">
        <ele>978.7</ele>
        <time>2000-01-01T12:26:36.000Z</time>
      </trkpt>
      <trkpt lat="46.19284" lon="6.69972">
        <ele>978</ele>
        <time>2000-01-01T12:26:46.000Z</time>
      </trkpt>
      <trkpt lat="46.1929" lon="6.69967">
        <ele>979.1</ele>
        <time>2000-01-01T12:26:56.000Z</time>
      </trkpt>
      <trkpt lat="46.19297" lon="6.6996">
        <ele>978.3</ele>
        <time>2000-01-01T12:27:06.000Z</time>
      </trkpt>
      <trkpt lat="46.19312" lon="6.69936">
        <ele>975</ele>
        <time>2000-01-01T12:27:16.000Z</time>
      </trkpt>
      <trkpt lat="46.19341" lon="6.69893">
        <ele>974</ele>
        <time>2000-01-01T12:27:26.000Z</time>
      </trkpt>
      <trkpt lat="46.19364" lon="6.69861">
        <ele>973</ele>
        <time>2000-01-01T12:27:36.000Z</time>
      </trkpt>
      <trkpt lat="46.19381" lon="6.69839">
        <ele>973</ele>
        <time>2000-01-01T12:27:46.000Z</time>
      </trkpt>
      <trkpt lat="46.19385" lon="6.69831">
        <ele>973.8</ele>
        <time>2000-01-01T12:27:56.000Z</time>
      </trkpt>
      <trkpt lat="46.19387" lon="6.69823">
        <ele>973.1</ele>
        <time>2000-01-01T12:28:06.000Z</time>
      </trkpt>
      <trkpt lat="46.19386" lon="6.69822">
        <ele>972.7</ele>
        <time>2000-01-01T12:28:16.000Z</time>
      </trkpt>
      <trkpt lat="46.19386" lon="6.69819">
        <ele>972.3</ele>
        <time>2000-01-01T12:28:26.000Z</time>
      </trkpt>
      <trkpt lat="46.19385" lon="6.69817">
        <ele>971.7</ele>
        <time>2000-01-01T12:28:36.000Z</time>
      </trkpt>
      <trkpt lat="46.19381" lon="6.69813">
        <ele>970</ele>
        <time>2000-01-01T12:28:46.000Z</time>
      </trkpt>
      <trkpt lat="46.19379" lon="6.69812">
        <ele>969.5</ele>
        <time>2000-01-01T12:28:56.000Z</time>
      </trkpt>
      <trkpt lat="46.19375" lon="6.69812">
        <ele>968.5</ele>
        <time>2000-01-01T12:29:06.000Z</time>
      </trkpt>
      <trkpt lat="46.19371" lon="6.69813">
        <ele>967.7</ele>
        <time>2000-01-01T12:29:16.000Z</time>
      </trkpt>
      <trkpt lat="46.19366" lon="6.69816">
        <ele>967</ele>
        <time>2000-01-01T12:29:26.000Z</time>
      </trkpt>
      <trkpt lat="46.19353" lon="6.69831">
        <ele>965</ele>
        <time>2000-01-01T12:29:36.000Z</time>
      </trkpt>
      <trkpt lat="46.19326" lon="6.69865">
        <ele>960</ele>
        <time>2000-01-01T12:29:46.000Z</time>
      </trkpt>
      <trkpt lat="46.19319" lon="6.69873">
        <ele>962.7</ele>
        <time>2000-01-01T12:29:56.000Z</time>
      </trkpt>
      <trkpt lat="46.19313" lon="6.69877">
        <ele>961.8</ele>
        <time>2000-01-01T12:30:06.000Z</time>
      </trkpt>
      <trkpt lat="46.19307" lon="6.69877">
        <ele>958</ele>
        <time>2000-01-01T12:30:16.000Z</time>
      </trkpt>
      <trkpt lat="46.19306" lon="6.69876">
        <ele>959.7</ele>
        <time>2000-01-01T12:30:26.000Z</time>
      </trkpt>
      <trkpt lat="46.19304" lon="6.69876">
        <ele>959.5</ele>
        <time>2000-01-01T12:30:36.000Z</time>
      </trkpt>
      <trkpt lat="46.19288" lon="6.69846">
        <ele>957</ele>
        <time>2000-01-01T12:30:46.000Z</time>
      </trkpt>
      <trkpt lat="46.19256" lon="6.6989">
        <ele>957</ele>
        <time>2000-01-01T12:30:56.000Z</time>
      </trkpt>
      <trkpt lat="46.19236" lon="6.69915">
        <ele>959</ele>
        <time>2000-01-01T12:31:06.000Z</time>
      </trkpt>
      <trkpt lat="46.19213" lon="6.69947">
        <ele>961</ele>
        <time>2000-01-01T12:31:16.000Z</time>
      </trkpt>
      <trkpt lat="46.19179" lon="6.69992">
        <ele>961</ele>
        <time>2000-01-01T12:31:26.000Z</time>
      </trkpt>
      <trkpt lat="46.19172" lon="6.70003">
        <ele>964.4</ele>
        <time>2000-01-01T12:31:36.000Z</time>
      </trkpt>
      <trkpt lat="46.19158" lon="6.69984">
        <ele>960</ele>
        <time>2000-01-01T12:31:46.000Z</time>
      </trkpt>
      <trkpt lat="46.19149" lon="6.69965">
        <ele>961</ele>
        <time>2000-01-01T12:31:56.000Z</time>
      </trkpt>
      <trkpt lat="46.19144" lon="6.69958">
        <ele>959</ele>
        <time>2000-01-01T12:32:06.000Z</time>
      </trkpt>
      <trkpt lat="46.19132" lon="6.69971">
        <ele>960</ele>
        <time>2000-01-01T12:32:16.000Z</time>
      </trkpt>
      <trkpt lat="46.19111" lon="6.69997">
        <ele>959</ele>
        <time>2000-01-01T12:32:26.000Z</time>
      </trkpt>
      <trkpt lat="46.19132" lon="6.69971">
        <ele>957</ele>
        <time>2000-01-01T12:32:36.000Z</time>
      </trkpt>
      <trkpt lat="46.19129" lon="6.69969">
        <ele>959.5</ele>
        <time>2000-01-01T12:32:46.000Z</time>
      </trkpt>
      <trkpt lat="46.19123" lon="6.69971">
        <ele>958.7</ele>
        <time>2000-01-01T12:32:56.000Z</time>
      </trkpt>
      <trkpt lat="46.19114" lon="6.69979">
        <ele>955</ele>
        <time>2000-01-01T12:33:06.000Z</time>
      </trkpt>
      <trkpt lat="46.19103" lon="6.69982">
        <ele>957.4</ele>
        <time>2000-01-01T12:33:16.000Z</time>
      </trkpt>
      <trkpt lat="46.19096" lon="6.69979">
        <ele>956.2</ele>
        <time>2000-01-01T12:33:26.000Z</time>
      </trkpt>
      <trkpt lat="46.19091" lon="6.69975">
        <ele>953</ele>
        <time>2000-01-01T12:33:36.000Z</time>
      </trkpt>
      <trkpt lat="46.19087" lon="6.69966">
        <ele>953.5</ele>
        <time>2000-01-01T12:33:46.000Z</time>
      </trkpt>
      <trkpt lat="46.19084" lon="6.69951">
        <ele>950.4</ele>
        <time>2000-01-01T12:33:56.000Z</time>
      </trkpt>
      <trkpt lat="46.19084" lon="6.6992">
        <ele>944</ele>
        <time>2000-01-01T12:34:06.000Z</time>
      </trkpt>
      <trkpt lat="46.19087" lon="6.69884">
        <ele>941</ele>
        <time>2000-01-01T12:34:16.000Z</time>
      </trkpt>
      <trkpt lat="46.1909" lon="6.69842">
        <ele>936</ele>
        <time>2000-01-01T12:34:26.000Z</time>
      </trkpt>
      <trkpt lat="46.1909" lon="6.69833">
        <ele>934.7</ele>
        <time>2000-01-01T12:34:36.000Z</time>
      </trkpt>
      <trkpt lat="46.19087" lon="6.69823">
        <ele>933.4</ele>
        <time>2000-01-01T12:34:46.000Z</time>
      </trkpt>
      <trkpt lat="46.19082" lon="6.69819">
        <ele>931</ele>
        <time>2000-01-01T12:34:56.000Z</time>
      </trkpt>
      <trkpt lat="46.19055" lon="6.69804">
        <ele>929</ele>
        <time>2000-01-01T12:35:06.000Z</time>
      </trkpt>
      <trkpt lat="46.19037" lon="6.69798">
        <ele>928.9</ele>
        <time>2000-01-01T12:35:16.000Z</time>
      </trkpt>
      <trkpt lat="46.19033" lon="6.69798">
        <ele>928</ele>
        <time>2000-01-01T12:35:26.000Z</time>
      </trkpt>
      <trkpt lat="46.1902" lon="6.69806">
        <ele>928.8</ele>
        <time>2000-01-01T12:35:36.000Z</time>
      </trkpt>
      <trkpt lat="46.1902" lon="6.69807">
        <ele>928.9</ele>
        <time>2000-01-01T12:35:46.000Z</time>
      </trkpt>
      <trkpt lat="46.19012" lon="6.69809">
        <ele>928</ele>
        <time>2000-01-01T12:35:56.000Z</time>
      </trkpt>
      <trkpt lat="46.19004" lon="6.6981">
        <ele>928.8</ele>
        <time>2000-01-01T12:36:06.000Z</time>
      </trkpt>
      <trkpt lat="46.18995" lon="6.69815">
        <ele>928.9</ele>
        <time>2000-01-01T12:36:16.000Z</time>
      </trkpt>
      <trkpt lat="46.18994" lon="6.69817">
        <ele>927</ele>
        <time>2000-01-01T12:36:26.000Z</time>
      </trkpt>
      <trkpt lat="46.18984" lon="6.69822">
        <ele>928.4</ele>
        <time>2000-01-01T12:36:36.000Z</time>
      </trkpt>
      <trkpt lat="46.18974" lon="6.69825">
        <ele>927</ele>
        <time>2000-01-01T12:36:46.000Z</time>
      </trkpt>
      <trkpt lat="46.18971" lon="6.69822">
        <ele>927</ele>
        <time>2000-01-01T12:36:56.000Z</time>
      </trkpt>
      <trkpt lat="46.18969" lon="6.69817">
        <ele>927</ele>
        <time>2000-01-01T12:37:06.000Z</time>
      </trkpt>
      <trkpt lat="46.18968" lon="6.69812">
        <ele>927</ele>
        <time>2000-01-01T12:37:16.000Z</time>
      </trkpt>
      <trkpt lat="46.18969" lon="6.69797">
        <ele>922</ele>
        <time>2000-01-01T12:37:26.000Z</time>
      </trkpt>
      <trkpt lat="46.18973" lon="6.69769">
        <ele>922</ele>
        <time>2000-01-01T12:37:36.000Z</time>
      </trkpt>
      <trkpt lat="46.18976" lon="6.69756">
        <ele>922</ele>
        <time>2000-01-01T12:37:46.000Z</time>
      </trkpt>
      <trkpt lat="46.18984" lon="6.69736">
        <ele>918</ele>
        <time>2000-01-01T12:37:56.000Z</time>
      </trkpt>
      <trkpt lat="46.18995" lon="6.69726">
        <ele>916.9</ele>
        <time>2000-01-01T12:38:06.000Z</time>
      </trkpt>
      <trkpt lat="46.18998" lon="6.69722">
        <ele>916.1</ele>
        <time>2000-01-01T12:38:16.000Z</time>
      </trkpt>
      <trkpt lat="46.18997" lon="6.69719">
        <ele>916</ele>
        <time>2000-01-01T12:38:26.000Z</time>
      </trkpt>
      <trkpt lat="46.18995" lon="6.69708">
        <ele>916</ele>
        <time>2000-01-01T12:38:36.000Z</time>
      </trkpt>
      <trkpt lat="46.18992" lon="6.69699">
        <ele>915.8</ele>
        <time>2000-01-01T12:38:46.000Z</time>
      </trkpt>
      <trkpt lat="46.18992" lon="6.69695">
        <ele>915.7</ele>
        <time>2000-01-01T12:38:56.000Z</time>
      </trkpt>
      <trkpt lat="46.18986" lon="6.69679">
        <ele>917</ele>
        <time>2000-01-01T12:39:06.000Z</time>
      </trkpt>
      <trkpt lat="46.1898" lon="6.69658">
        <ele>916.9</ele>
        <time>2000-01-01T12:39:16.000Z</time>
      </trkpt>
      <trkpt lat="46.18978" lon="6.69657">
        <ele>917.1</ele>
        <time>2000-01-01T12:39:26.000Z</time>
      </trkpt>
      <trkpt lat="46.18975" lon="6.69657">
        <ele>918</ele>
        <time>2000-01-01T12:39:36.000Z</time>
      </trkpt>
      <trkpt lat="46.18975" lon="6.6965">
        <ele>917.9</ele>
        <time>2000-01-01T12:39:46.000Z</time>
      </trkpt>
      <trkpt lat="46.18972" lon="6.69636">
        <ele>919.4</ele>
        <time>2000-01-01T12:39:56.000Z</time>
      </trkpt>
      <trkpt lat="46.18966" lon="6.69619">
        <ele>922</ele>
        <time>2000-01-01T12:40:06.000Z</time>
      </trkpt>
      <trkpt lat="46.18965" lon="6.69613">
        <ele>922.9</ele>
        <time>2000-01-01T12:40:16.000Z</time>
      </trkpt>
      <trkpt lat="46.18965" lon="6.69608">
        <ele>923.9</ele>
        <time>2000-01-01T12:40:26.000Z</time>
      </trkpt>
      <trkpt lat="46.18971" lon="6.69602">
        <ele>924.7</ele>
        <time>2000-01-01T12:40:36.000Z</time>
      </trkpt>
      <trkpt lat="46.18979" lon="6.69597">
        <ele>926</ele>
        <time>2000-01-01T12:40:46.000Z</time>
      </trkpt>
      <trkpt lat="46.18988" lon="6.6959">
        <ele>926.3</ele>
        <time>2000-01-01T12:40:56.000Z</time>
      </trkpt>
      <trkpt lat="46.18998" lon="6.69581">
        <ele>927</ele>
        <time>2000-01-01T12:41:06.000Z</time>
      </trkpt>
      <trkpt lat="46.19009" lon="6.69569">
        <ele>928.9</ele>
        <time>2000-01-01T12:41:16.000Z</time>
      </trkpt>
      <trkpt lat="46.19017" lon="6.69559">
        <ele>928</ele>
        <time>2000-01-01T12:41:26.000Z</time>
      </trkpt>
      <trkpt lat="46.19027" lon="6.69545">
        <ele>930.7</ele>
        <time>2000-01-01T12:41:36.000Z</time>
      </trkpt>
      <trkpt lat="46.19037" lon="6.69533">
        <ele>929</ele>
        <time>2000-01-01T12:41:46.000Z</time>
      </trkpt>
      <trkpt lat="46.19047" lon="6.69523">
        <ele>930.2</ele>
        <time>2000-01-01T12:41:56.000Z</time>
      </trkpt>
      <trkpt lat="46.19079" lon="6.69496">
        <ele>929</ele>
        <time>2000-01-01T12:42:06.000Z</time>
      </trkpt>
      <trkpt lat="46.19088" lon="6.69486">
        <ele>929.8</ele>
        <time>2000-01-01T12:42:16.000Z</time>
      </trkpt>
      <trkpt lat="46.19089" lon="6.69483">
        <ele>929.8</ele>
        <time>2000-01-01T12:42:26.000Z</time>
      </trkpt>
      <trkpt lat="46.19089" lon="6.69473">
        <ele>929</ele>
        <time>2000-01-01T12:42:36.000Z</time>
      </trkpt>
      <trkpt lat="46.19091" lon="6.69468">
        <ele>929.9</ele>
        <time>2000-01-01T12:42:46.000Z</time>
      </trkpt>
      <trkpt lat="46.19108" lon="6.69451">
        <ele>929</ele>
        <time>2000-01-01T12:42:56.000Z</time>
      </trkpt>
      <trkpt lat="46.19114" lon="6.69438">
        <ele>930.5</ele>
        <time>2000-01-01T12:43:06.000Z</time>
      </trkpt>
      <trkpt lat="46.19119" lon="6.69431">
        <ele>930.7</ele>
        <time>2000-01-01T12:43:16.000Z</time>
      </trkpt>
      <trkpt lat="46.1913" lon="6.69418">
        <ele>932</ele>
        <time>2000-01-01T12:43:26.000Z</time>
      </trkpt>
      <trkpt lat="46.19151" lon="6.69395">
        <ele>932</ele>
        <time>2000-01-01T12:43:36.000Z</time>
      </trkpt>
      <trkpt lat="46.19179" lon="6.69365">
        <ele>933</ele>
        <time>2000-01-01T12:43:46.000Z</time>
      </trkpt>
      <trkpt lat="46.19194" lon="6.69346">
        <ele>935</ele>
        <time>2000-01-01T12:43:56.000Z</time>
      </trkpt>
      <trkpt lat="46.192" lon="6.69336">
        <ele>935.9</ele>
        <time>2000-01-01T12:44:06.000Z</time>
      </trkpt>
      <trkpt lat="46.19204" lon="6.69322">
        <ele>938</ele>
        <time>2000-01-01T12:44:16.000Z</time>
      </trkpt>
      <trkpt lat="46.19204" lon="6.69314">
        <ele>938.1</ele>
        <time>2000-01-01T12:44:26.000Z</time>
      </trkpt>
      <trkpt lat="46.19202" lon="6.69306">
        <ele>939</ele>
        <time>2000-01-01T12:44:36.000Z</time>
      </trkpt>
      <trkpt lat="46.192" lon="6.69303">
        <ele>939.7</ele>
        <time>2000-01-01T12:44:46.000Z</time>
      </trkpt>
      <trkpt lat="46.19193" lon="6.69299">
        <ele>943</ele>
        <time>2000-01-01T12:44:56.000Z</time>
      </trkpt>
      <trkpt lat="46.19164" lon="6.69286">
        <ele>944</ele>
        <time>2000-01-01T12:45:06.000Z</time>
      </trkpt>
      <trkpt lat="46.19157" lon="6.69284">
        <ele>945.7</ele>
        <time>2000-01-01T12:45:16.000Z</time>
      </trkpt>
      <trkpt lat="46.1915" lon="6.69283">
        <ele>945.7</ele>
        <time>2000-01-01T12:45:26.000Z</time>
      </trkpt>
      <trkpt lat="46.19139" lon="6.69285">
        <ele>945</ele>
        <time>2000-01-01T12:45:36.000Z</time>
      </trkpt>
      <trkpt lat="46.19137" lon="6.69284">
        <ele>945.8</ele>
        <time>2000-01-01T12:45:46.000Z</time>
      </trkpt>
      <trkpt lat="46.19135" lon="6.6928">
        <ele>945.6</ele>
        <time>2000-01-01T12:45:56.000Z</time>
      </trkpt>
      <trkpt lat="46.19135" lon="6.69273">
        <ele>946.1</ele>
        <time>2000-01-01T12:46:06.000Z</time>
      </trkpt>
      <trkpt lat="46.19137" lon="6.69267">
        <ele>946.7</ele>
        <time>2000-01-01T12:46:16.000Z</time>
      </trkpt>
      <trkpt lat="46.19142" lon="6.69257">
        <ele>949</ele>
        <time>2000-01-01T12:46:26.000Z</time>
      </trkpt>
      <trkpt lat="46.1915" lon="6.69246">
        <ele>949.2</ele>
        <time>2000-01-01T12:46:36.000Z</time>
      </trkpt>
      <trkpt lat="46.19153" lon="6.69238">
        <ele>949.4</ele>
        <time>2000-01-01T12:46:46.000Z</time>
      </trkpt>
      <trkpt lat="46.19155" lon="6.6923">
        <ele>950</ele>
        <time>2000-01-01T12:46:56.000Z</time>
      </trkpt>
      <trkpt lat="46.1913" lon="6.6924">
        <ele>951</ele>
        <time>2000-01-01T12:47:06.000Z</time>
      </trkpt>
      <trkpt lat="46.19099" lon="6.69252">
        <ele>952</ele>
        <time>2000-01-01T12:47:16.000Z</time>
      </trkpt>
      <trkpt lat="46.19071" lon="6.69264">
        <ele>953</ele>
        <time>2000-01-01T12:47:26.000Z</time>
      </trkpt>
      <trkpt lat="46.19035" lon="6.69277">
        <ele>953</ele>
        <time>2000-01-01T12:47:36.000Z</time>
      </trkpt>
      <trkpt lat="46.19017" lon="6.69281">
        <ele>953.8</ele>
        <time>2000-01-01T12:47:46.000Z</time>
      </trkpt>
      <trkpt lat="46.18986" lon="6.69283">
        <ele>953</ele>
        <time>2000-01-01T12:47:56.000Z</time>
      </trkpt>
      <trkpt lat="46.18977" lon="6.69285">
        <ele>954.3</ele>
        <time>2000-01-01T12:48:06.000Z</time>
      </trkpt>
      <trkpt lat="46.18969" lon="6.69288">
        <ele>954.5</ele>
        <time>2000-01-01T12:48:16.000Z</time>
      </trkpt>
      <trkpt lat="46.1896" lon="6.69293">
        <ele>954</ele>
        <time>2000-01-01T12:48:26.000Z</time>
      </trkpt>
      <trkpt lat="46.18951" lon="6.693">
        <ele>954.3</ele>
        <time>2000-01-01T12:48:36.000Z</time>
      </trkpt>
      <trkpt lat="46.18905" lon="6.69348">
        <ele>955</ele>
        <time>2000-01-01T12:48:46.000Z</time>
      </trkpt>
      <trkpt lat="46.18873" lon="6.69384">
        <ele>955</ele>
        <time>2000-01-01T12:48:56.000Z</time>
      </trkpt>
      <trkpt lat="46.18869" lon="6.69387">
        <ele>955.7</ele>
        <time>2000-01-01T12:49:06.000Z</time>
      </trkpt>
      <trkpt lat="46.1885" lon="6.69408">
        <ele>956</ele>
        <time>2000-01-01T12:49:16.000Z</time>
      </trkpt>
      <trkpt lat="46.18848" lon="6.69411">
        <ele>955.6</ele>
        <time>2000-01-01T12:49:26.000Z</time>
      </trkpt>
      <trkpt lat="46.18826" lon="6.69436">
        <ele>956</ele>
        <time>2000-01-01T12:49:36.000Z</time>
      </trkpt>
      <trkpt lat="46.18807" lon="6.69459">
        <ele>956</ele>
        <time>2000-01-01T12:49:46.000Z</time>
      </trkpt>
      <trkpt lat="46.18787" lon="6.69487">
        <ele>956</ele>
        <time>2000-01-01T12:49:56.000Z</time>
      </trkpt>
      <trkpt lat="46.18769" lon="6.69515">
        <ele>957</ele>
        <time>2000-01-01T12:50:06.000Z</time>
      </trkpt>
      <trkpt lat="46.18746" lon="6.69551">
        <ele>957</ele>
        <time>2000-01-01T12:50:16.000Z</time>
      </trkpt>
      <trkpt lat="46.18741" lon="6.69557">
        <ele>958</ele>
        <time>2000-01-01T12:50:26.000Z</time>
      </trkpt>
      <trkpt lat="46.18729" lon="6.69576">
        <ele>957</ele>
        <time>2000-01-01T12:50:36.000Z</time>
      </trkpt>
      <trkpt lat="46.18712" lon="6.69599">
        <ele>957</ele>
        <time>2000-01-01T12:50:46.000Z</time>
      </trkpt>
      <trkpt lat="46.18694" lon="6.69623">
        <ele>958</ele>
        <time>2000-01-01T12:50:56.000Z</time>
      </trkpt>
      <trkpt lat="46.18668" lon="6.69662">
        <ele>959</ele>
        <time>2000-01-01T12:51:06.000Z</time>
      </trkpt>
      <trkpt lat="46.18661" lon="6.69671">
        <ele>959</ele>
        <time>2000-01-01T12:51:16.000Z</time>
      </trkpt>
      <trkpt lat="46.1864" lon="6.69701">
        <ele>959</ele>
        <time>2000-01-01T12:51:26.000Z</time>
      </trkpt>
      <trkpt lat="46.18624" lon="6.69727">
        <ele>960</ele>
        <time>2000-01-01T12:51:36.000Z</time>
      </trkpt>
      <trkpt lat="46.18606" lon="6.69754">
        <ele>960</ele>
        <time>2000-01-01T12:51:46.000Z</time>
      </trkpt>
      <trkpt lat="46.18579" lon="6.69793">
        <ele>961</ele>
        <time>2000-01-01T12:51:56.000Z</time>
      </trkpt>
      <trkpt lat="46.18561" lon="6.69818">
        <ele>961</ele>
        <time>2000-01-01T12:52:06.000Z</time>
      </trkpt>
      <trkpt lat="46.18539" lon="6.69849">
        <ele>961</ele>
        <time>2000-01-01T12:52:16.000Z</time>
      </trkpt>
      <trkpt lat="46.18509" lon="6.69893">
        <ele>962</ele>
        <time>2000-01-01T12:52:26.000Z</time>
      </trkpt>
      <trkpt lat="46.18507" lon="6.69897">
        <ele>963</ele>
        <time>2000-01-01T12:52:36.000Z</time>
      </trkpt>
      <trkpt lat="46.185" lon="6.69907">
        <ele>963</ele>
        <time>2000-01-01T12:52:46.000Z</time>
      </trkpt>
      <trkpt lat="46.1849" lon="6.69924">
        <ele>962</ele>
        <time>2000-01-01T12:52:56.000Z</time>
      </trkpt>
      <trkpt lat="46.18488" lon="6.69925">
        <ele>963.1</ele>
        <time>2000-01-01T12:53:06.000Z</time>
      </trkpt>
      <trkpt lat="46.18467" lon="6.69955">
        <ele>963</ele>
        <time>2000-01-01T12:53:16.000Z</time>
      </trkpt>
      <trkpt lat="46.18465" lon="6.69957">
        <ele>964</ele>
        <time>2000-01-01T12:53:26.000Z</time>
      </trkpt>
      <trkpt lat="46.18448" lon="6.69981">
        <ele>964</ele>
        <time>2000-01-01T12:53:36.000Z</time>
      </trkpt>
      <trkpt lat="46.18441" lon="6.6999">
        <ele>964.7</ele>
        <time>2000-01-01T12:53:46.000Z</time>
      </trkpt>
      <trkpt lat="46.18404" lon="6.70045">
        <ele>965</ele>
        <time>2000-01-01T12:53:56.000Z</time>
      </trkpt>
      <trkpt lat="46.18378" lon="6.70085">
        <ele>965</ele>
        <time>2000-01-01T12:54:06.000Z</time>
      </trkpt>
      <trkpt lat="46.18367" lon="6.70097">
        <ele>966.9</ele>
        <time>2000-01-01T12:54:16.000Z</time>
      </trkpt>
      <trkpt lat="46.18357" lon="6.70111">
        <ele>967</ele>
        <time>2000-01-01T12:54:26.000Z</time>
      </trkpt>
      <trkpt lat="46.18327" lon="6.70155">
        <ele>967</ele>
        <time>2000-01-01T12:54:36.000Z</time>
      </trkpt>
      <trkpt lat="46.18302" lon="6.70193">
        <ele>968</ele>
        <time>2000-01-01T12:54:46.000Z</time>
      </trkpt>
      <trkpt lat="46.18295" lon="6.70202">
        <ele>968.3</ele>
        <time>2000-01-01T12:54:56.000Z</time>
      </trkpt>
      <trkpt lat="46.1829" lon="6.70206">
        <ele>968.4</ele>
        <time>2000-01-01T12:55:06.000Z</time>
      </trkpt>
      <trkpt lat="46.18291" lon="6.70209">
        <ele>968.5</ele>
        <time>2000-01-01T12:55:16.000Z</time>
      </trkpt>
      <trkpt lat="46.18291" lon="6.70212">
        <ele>968</ele>
        <time>2000-01-01T12:55:26.000Z</time>
      </trkpt>
      <trkpt lat="46.1829" lon="6.70215">
        <ele>968.7</ele>
        <time>2000-01-01T12:55:36.000Z</time>
      </trkpt>
      <trkpt lat="46.18288" lon="6.70218">
        <ele>968.8</ele>
        <time>2000-01-01T12:55:46.000Z</time>
      </trkpt>
      <trkpt lat="46.18285" lon="6.7022">
        <ele>968.9</ele>
        <time>2000-01-01T12:55:56.000Z</time>
      </trkpt>
      <trkpt lat="46.1828" lon="6.7022">
        <ele>968.9</ele>
        <time>2000-01-01T12:56:06.000Z</time>
      </trkpt>
      <trkpt lat="46.18275" lon="6.70231">
        <ele>968</ele>
        <time>2000-01-01T12:56:16.000Z</time>
      </trkpt>
      <trkpt lat="46.18266" lon="6.70245">
        <ele>969.3</ele>
        <time>2000-01-01T12:56:26.000Z</time>
      </trkpt>
      <trkpt lat="46.18262" lon="6.70253">
        <ele>969</ele>
        <time>2000-01-01T12:56:36.000Z</time>
      </trkpt>
      <trkpt lat="46.18243" lon="6.7028">
        <ele>969</ele>
        <time>2000-01-01T12:56:46.000Z</time>
      </trkpt>
      <trkpt lat="46.18217" lon="6.70317">
        <ele>971</ele>
        <time>2000-01-01T12:56:56.000Z</time>
      </trkpt>
      <trkpt lat="46.18197" lon="6.70347">
        <ele>971</ele>
        <time>2000-01-01T12:57:06.000Z</time>
      </trkpt>
      <trkpt lat="46.18178" lon="6.70374">
        <ele>972</ele>
        <time>2000-01-01T12:57:16.000Z</time>
      </trkpt>
      <trkpt lat="46.18151" lon="6.70412">
        <ele>972</ele>
        <time>2000-01-01T12:57:26.000Z</time>
      </trkpt>
      <trkpt lat="46.18147" lon="6.70419">
        <ele>973</ele>
        <time>2000-01-01T12:57:36.000Z</time>
      </trkpt>
      <trkpt lat="46.18143" lon="6.70418">
        <ele>973</ele>
        <time>2000-01-01T12:57:46.000Z</time>
      </trkpt>
      <trkpt lat="46.18138" lon="6.70415">
        <ele>973</ele>
        <time>2000-01-01T12:57:56.000Z</time>
      </trkpt>
      <trkpt lat="46.18136" lon="6.70413">
        <ele>973.1</ele>
        <time>2000-01-01T12:58:06.000Z</time>
      </trkpt>
      <trkpt lat="46.18135" lon="6.70434">
        <ele>973</ele>
        <time>2000-01-01T12:58:16.000Z</time>
      </trkpt>
      <trkpt lat="46.18134" lon="6.7044">
        <ele>973.2</ele>
        <time>2000-01-01T12:58:26.000Z</time>
      </trkpt>
      <trkpt lat="46.18135" lon="6.70434">
        <ele>973.1</ele>
        <time>2000-01-01T12:58:36.000Z</time>
      </trkpt>
      <trkpt lat="46.18136" lon="6.70413">
        <ele>973</ele>
        <time>2000-01-01T12:58:46.000Z</time>
      </trkpt>
      <trkpt lat="46.18135" lon="6.70407">
        <ele>973.1</ele>
        <time>2000-01-01T12:58:56.000Z</time>
      </trkpt>
      <trkpt lat="46.18131" lon="6.704">
        <ele>973.1</ele>
        <time>2000-01-01T12:59:06.000Z</time>
      </trkpt>
      <trkpt lat="46.18124" lon="6.70392">
        <ele>972</ele>
        <time>2000-01-01T12:59:16.000Z</time>
      </trkpt>
      <trkpt lat="46.18121" lon="6.70383">
        <ele>972.9</ele>
        <time>2000-01-01T12:59:26.000Z</time>
      </trkpt>
      <trkpt lat="46.1812" lon="6.70376">
        <ele>972.9</ele>
        <time>2000-01-01T12:59:36.000Z</time>
      </trkpt>
      <trkpt lat="46.1812" lon="6.70368">
        <ele>972.8</ele>
        <time>2000-01-01T12:59:46.000Z</time>
      </trkpt>
      <trkpt lat="46.18122" lon="6.70352">
        <ele>972</ele>
        <time>2000-01-01T12:59:56.000Z</time>
      </trkpt>
      <trkpt lat="46.18127" lon="6.70344">
        <ele>972.4</ele>
        <time>2000-01-01T13:00:06.000Z</time>
      </trkpt>
      <trkpt lat="46.18124" lon="6.70342">
        <ele>972.5</ele>
        <time>2000-01-01T13:00:16.000Z</time>
      </trkpt>
      <trkpt lat="46.18121" lon="6.70337">
        <ele>972.6</ele>
        <time>2000-01-01T13:00:26.000Z</time>
      </trkpt>
      <trkpt lat="46.18108" lon="6.70319">
        <ele>973</ele>
        <time>2000-01-01T13:00:36.000Z</time>
      </trkpt>
      <trkpt lat="46.18091" lon="6.7029">
        <ele>974</ele>
        <time>2000-01-01T13:00:46.000Z</time>
      </trkpt>
      <trkpt lat="46.18069" lon="6.70254">
        <ele>976</ele>
        <time>2000-01-01T13:00:56.000Z</time>
      </trkpt>
      <trkpt lat="46.18055" lon="6.70232">
        <ele>977</ele>
        <time>2000-01-01T13:01:06.000Z</time>
      </trkpt>
      <trkpt lat="46.18046" lon="6.7022">
        <ele>977.8</ele>
        <time>2000-01-01T13:01:16.000Z</time>
      </trkpt>
      <trkpt lat="46.18019" lon="6.70193">
        <ele>981</ele>
        <time>2000-01-01T13:01:26.000Z</time>
      </trkpt>
      <trkpt lat="46.18018" lon="6.70191">
        <ele>981.1</ele>
        <time>2000-01-01T13:01:36.000Z</time>
      </trkpt>
      <trkpt lat="46.18014" lon="6.70188">
        <ele>981.6</ele>
        <time>2000-01-01T13:01:46.000Z</time>
      </trkpt>
      <trkpt lat="46.18011" lon="6.70188">
        <ele>981.9</ele>
        <time>2000-01-01T13:01:56.000Z</time>
      </trkpt>
      <trkpt lat="46.18009" lon="6.70189">
        <ele>982.1</ele>
        <time>2000-01-01T13:02:06.000Z</time>
      </trkpt>
      <trkpt lat="46.18001" lon="6.70175">
        <ele>983</ele>
        <time>2000-01-01T13:02:16.000Z</time>
      </trkpt>
      <trkpt lat="46.17996" lon="6.70169">
        <ele>983.1</ele>
        <time>2000-01-01T13:02:26.000Z</time>
      </trkpt>
      <trkpt lat="46.17993" lon="6.70164">
        <ele>983.4</ele>
        <time>2000-01-01T13:02:36.000Z</time>
      </trkpt>
      <trkpt lat="46.17989" lon="6.70163">
        <ele>983.7</ele>
        <time>2000-01-01T13:02:46.000Z</time>
      </trkpt>
      <trkpt lat="46.17988" lon="6.70176">
        <ele>983</ele>
        <time>2000-01-01T13:02:56.000Z</time>
      </trkpt>
      <trkpt lat="46.17988" lon="6.70189">
        <ele>983.4</ele>
        <time>2000-01-01T13:03:06.000Z</time>
      </trkpt>
      <trkpt lat="46.17976" lon="6.70183">
        <ele>987</ele>
        <time>2000-01-01T13:03:16.000Z</time>
      </trkpt>
      <trkpt lat="46.17943" lon="6.70154">
        <ele>992</ele>
        <time>2000-01-01T13:03:26.000Z</time>
      </trkpt>
      <trkpt lat="46.17925" lon="6.70133">
        <ele>999</ele>
        <time>2000-01-01T13:03:36.000Z</time>
      </trkpt>
      <trkpt lat="46.17906" lon="6.70112">
        <ele>1007</ele>
        <time>2000-01-01T13:03:46.000Z</time>
      </trkpt>
      <trkpt lat="46.17868" lon="6.70078">
        <ele>1024</ele>
        <time>2000-01-01T13:03:56.000Z</time>
      </trkpt>
      <trkpt lat="46.1783" lon="6.70043">
        <ele>1040</ele>
        <time>2000-01-01T13:04:06.000Z</time>
      </trkpt>
      <trkpt lat="46.17792" lon="6.70009">
        <ele>1057</ele>
        <time>2000-01-01T13:04:16.000Z</time>
      </trkpt>
      <trkpt lat="46.17754" lon="6.69975">
        <ele>1079</ele>
        <time>2000-01-01T13:04:26.000Z</time>
      </trkpt>
      <trkpt lat="46.17715" lon="6.69941">
        <ele>1103</ele>
        <time>2000-01-01T13:04:36.000Z</time>
      </trkpt>
      <trkpt lat="46.17677" lon="6.69906">
        <ele>1131</ele>
        <time>2000-01-01T13:04:46.000Z</time>
      </trkpt>
      <trkpt lat="46.17639" lon="6.69872">
        <ele>1158</ele>
        <time>2000-01-01T13:04:56.000Z</time>
      </trkpt>
      <trkpt lat="46.17601" lon="6.69838">
        <ele>1184</ele>
        <time>2000-01-01T13:05:06.000Z</time>
      </trkpt>
      <trkpt lat="46.17563" lon="6.69804">
        <ele>1198</ele>
        <time>2000-01-01T13:05:16.000Z</time>
      </trkpt>
      <trkpt lat="46.17525" lon="6.6977">
        <ele>1209</ele>
        <time>2000-01-01T13:05:26.000Z</time>
      </trkpt>
      <trkpt lat="46.17487" lon="6.69735">
        <ele>1226</ele>
        <time>2000-01-01T13:05:36.000Z</time>
      </trkpt>
      <trkpt lat="46.17449" lon="6.69701">
        <ele>1245</ele>
        <time>2000-01-01T13:05:46.000Z</time>
      </trkpt>
      <trkpt lat="46.17411" lon="6.69667">
        <ele>1263</ele>
        <time>2000-01-01T13:05:56.000Z</time>
      </trkpt>
      <trkpt lat="46.17373" lon="6.69633">
        <ele>1279</ele>
        <time>2000-01-01T13:06:06.000Z</time>
      </trkpt>
      <trkpt lat="46.17335" lon="6.69598">
        <ele>1294</ele>
        <time>2000-01-01T13:06:16.000Z</time>
      </trkpt>
      <trkpt lat="46.17297" lon="6.69564">
        <ele>1314</ele>
        <time>2000-01-01T13:06:26.000Z</time>
      </trkpt>
      <trkpt lat="46.17259" lon="6.6953">
        <ele>1328</ele>
        <time>2000-01-01T13:06:36.000Z</time>
      </trkpt>
      <trkpt lat="46.1722" lon="6.69496">
        <ele>1340</ele>
        <time>2000-01-01T13:06:46.000Z</time>
      </trkpt>
      <trkpt lat="46.17182" lon="6.69462">
        <ele>1357</ele>
        <time>2000-01-01T13:06:56.000Z</time>
      </trkpt>
      <trkpt lat="46.17144" lon="6.69427">
        <ele>1396</ele>
        <time>2000-01-01T13:07:06.000Z</time>
      </trkpt>
      <trkpt lat="46.17106" lon="6.69393">
        <ele>1421</ele>
        <time>2000-01-01T13:07:16.000Z</time>
      </trkpt>
      <trkpt lat="46.17068" lon="6.69359">
        <ele>1437</ele>
        <time>2000-01-01T13:07:26.000Z</time>
      </trkpt>
      <trkpt lat="46.1703" lon="6.69325">
        <ele>1456</ele>
        <time>2000-01-01T13:07:36.000Z</time>
      </trkpt>
      <trkpt lat="46.17004" lon="6.69302">
        <ele>1470</ele>
        <time>2000-01-01T13:07:46.000Z</time>
      </trkpt>
      <trkpt lat="46.16983" lon="6.69282">
        <ele>1485</ele>
        <time>2000-01-01T13:07:56.000Z</time>
      </trkpt>
      <trkpt lat="46.16958" lon="6.6926">
        <ele>1496</ele>
        <time>2000-01-01T13:08:06.000Z</time>
      </trkpt>
      <trkpt lat="46.16952" lon="6.69213">
        <ele>1496</ele>
        <time>2000-01-01T13:08:16.000Z</time>
      </trkpt>
      <trkpt lat="46.16954" lon="6.69213">
        <ele>1497.9</ele>
        <time>2000-01-01T13:08:26.000Z</time>
      </trkpt>
      <trkpt lat="46.16967" lon="6.69204">
        <ele>1496.2</ele>
        <time>2000-01-01T13:08:36.000Z</time>
      </trkpt>
      <trkpt lat="46.16967" lon="6.69203">
        <ele>1496.2</ele>
        <time>2000-01-01T13:08:46.000Z</time>
      </trkpt>
      <trkpt lat="46.17013" lon="6.69164">
        <ele>1490</ele>
        <time>2000-01-01T13:08:56.000Z</time>
      </trkpt>
      <trkpt lat="46.17022" lon="6.69157">
        <ele>1488.8</ele>
        <time>2000-01-01T13:09:06.000Z</time>
      </trkpt>
      <trkpt lat="46.17041" lon="6.69133">
        <ele>1485</ele>
        <time>2000-01-01T13:09:16.000Z</time>
      </trkpt>
      <trkpt lat="46.17051" lon="6.69119">
        <ele>1483.9</ele>
        <time>2000-01-01T13:09:26.000Z</time>
      </trkpt>
      <trkpt lat="46.17067" lon="6.69102">
        <ele>1481</ele>
        <time>2000-01-01T13:09:36.000Z</time>
      </trkpt>
      <trkpt lat="46.17074" lon="6.69097">
        <ele>1479.7</ele>
        <time>2000-01-01T13:09:46.000Z</time>
      </trkpt>
      <trkpt lat="46.17084" lon="6.69093">
        <ele>1478.3</ele>
        <time>2000-01-01T13:09:56.000Z</time>
      </trkpt>
      <trkpt lat="46.17094" lon="6.6909">
        <ele>1477</ele>
        <time>2000-01-01T13:10:06.000Z</time>
      </trkpt>
      <trkpt lat="46.17113" lon="6.69086">
        <ele>1475</ele>
        <time>2000-01-01T13:10:16.000Z</time>
      </trkpt>
      <trkpt lat="46.17131" lon="6.69086">
        <ele>1473.4</ele>
        <time>2000-01-01T13:10:26.000Z</time>
      </trkpt>
      <trkpt lat="46.1714" lon="6.69088">
        <ele>1473</ele>
        <time>2000-01-01T13:10:36.000Z</time>
      </trkpt>
      <trkpt lat="46.17175" lon="6.69108">
        <ele>1468</ele>
        <time>2000-01-01T13:10:46.000Z</time>
      </trkpt>
      <trkpt lat="46.17181" lon="6.6911">
        <ele>1466.4</ele>
        <time>2000-01-01T13:10:56.000Z</time>
      </trkpt>
      <trkpt lat="46.17191" lon="6.69107">
        <ele>1464.1</ele>
        <time>2000-01-01T13:11:06.000Z</time>
      </trkpt>
      <trkpt lat="46.17201" lon="6.69102">
        <ele>1461</ele>
        <time>2000-01-01T13:11:16.000Z</time>
      </trkpt>
      <trkpt lat="46.17207" lon="6.69094">
        <ele>1460.3</ele>
        <time>2000-01-01T13:11:26.000Z</time>
      </trkpt>
      <trkpt lat="46.17212" lon="6.69083">
        <ele>1459.3</ele>
        <time>2000-01-01T13:11:36.000Z</time>
      </trkpt>
      <trkpt lat="46.17213" lon="6.69071">
        <ele>1458</ele>
        <time>2000-01-01T13:11:46.000Z</time>
      </trkpt>
      <trkpt lat="46.17211" lon="6.69027">
        <ele>1449</ele>
        <time>2000-01-01T13:11:56.000Z</time>
      </trkpt>
      <trkpt lat="46.17211" lon="6.69011">
        <ele>1449.3</ele>
        <time>2000-01-01T13:12:06.000Z</time>
      </trkpt>
      <trkpt lat="46.1721" lon="6.69001">
        <ele>1447.6</ele>
        <time>2000-01-01T13:12:16.000Z</time>
      </trkpt>
      <trkpt lat="46.17211" lon="6.69">
        <ele>1444</ele>
        <time>2000-01-01T13:12:26.000Z</time>
      </trkpt>
      <trkpt lat="46.17213" lon="6.68989">
        <ele>1445.1</ele>
        <time>2000-01-01T13:12:36.000Z</time>
      </trkpt>
      <trkpt lat="46.17223" lon="6.68964">
        <ele>1439</ele>
        <time>2000-01-01T13:12:46.000Z</time>
      </trkpt>
      <trkpt lat="46.17226" lon="6.68953">
        <ele>1438.8</ele>
        <time>2000-01-01T13:12:56.000Z</time>
      </trkpt>
      <trkpt lat="46.17226" lon="6.68943">
        <ele>1438.2</ele>
        <time>2000-01-01T13:13:06.000Z</time>
      </trkpt>
      <trkpt lat="46.17223" lon="6.68932">
        <ele>1437</ele>
        <time>2000-01-01T13:13:16.000Z</time>
      </trkpt>
      <trkpt lat="46.17218" lon="6.68923">
        <ele>1437.3</ele>
        <time>2000-01-01T13:13:26.000Z</time>
      </trkpt>
      <trkpt lat="46.17192" lon="6.68888">
        <ele>1437</ele>
        <time>2000-01-01T13:13:36.000Z</time>
      </trkpt>
      <trkpt lat="46.17187" lon="6.68877">
        <ele>1434.4</ele>
        <time>2000-01-01T13:13:46.000Z</time>
      </trkpt>
      <trkpt lat="46.17176" lon="6.68802">
        <ele>1436</ele>
        <time>2000-01-01T13:13:56.000Z</time>
      </trkpt>
      <trkpt lat="46.17171" lon="6.68786">
        <ele>1435.9</ele>
        <time>2000-01-01T13:14:06.000Z</time>
      </trkpt>
      <trkpt lat="46.17167" lon="6.68778">
        <ele>1435</ele>
        <time>2000-01-01T13:14:16.000Z</time>
      </trkpt>
      <trkpt lat="46.17148" lon="6.68758">
        <ele>1434</ele>
        <time>2000-01-01T13:14:26.000Z</time>
      </trkpt>
      <trkpt lat="46.17139" lon="6.6875">
        <ele>1434</ele>
        <time>2000-01-01T13:14:36.000Z</time>
      </trkpt>
      <trkpt lat="46.17121" lon="6.68737">
        <ele>1435</ele>
        <time>2000-01-01T13:14:46.000Z</time>
      </trkpt>
      <trkpt lat="46.17079" lon="6.68729">
        <ele>1436</ele>
        <time>2000-01-01T13:14:56.000Z</time>
      </trkpt>
      <trkpt lat="46.17067" lon="6.68724">
        <ele>1436.5</ele>
        <time>2000-01-01T13:15:06.000Z</time>
      </trkpt>
      <trkpt lat="46.17035" lon="6.68718">
        <ele>1442</ele>
        <time>2000-01-01T13:15:16.000Z</time>
      </trkpt>
      <trkpt lat="46.17019" lon="6.68716">
        <ele>1446.6</ele>
        <time>2000-01-01T13:15:26.000Z</time>
      </trkpt>
      <trkpt lat="46.17006" lon="6.68713">
        <ele>1452</ele>
        <time>2000-01-01T13:15:36.000Z</time>
      </trkpt>
      <trkpt lat="46.16994" lon="6.68708">
        <ele>1451.1</ele>
        <time>2000-01-01T13:15:46.000Z</time>
      </trkpt>
      <trkpt lat="46.16985" lon="6.68703">
        <ele>1451</ele>
        <time>2000-01-01T13:15:56.000Z</time>
      </trkpt>
      <trkpt lat="46.16979" lon="6.68698">
        <ele>1452.8</ele>
        <time>2000-01-01T13:16:06.000Z</time>
      </trkpt>
      <trkpt lat="46.16979" lon="6.68693">
        <ele>1451.9</ele>
        <time>2000-01-01T13:16:16.000Z</time>
      </trkpt>
      <trkpt lat="46.16968" lon="6.68673">
        <ele>1451</ele>
        <time>2000-01-01T13:16:26.000Z</time>
      </trkpt>
      <trkpt lat="46.16962" lon="6.68667">
        <ele>1449.2</ele>
        <time>2000-01-01T13:16:36.000Z</time>
      </trkpt>
      <trkpt lat="46.16941" lon="6.68654">
        <ele>1448</ele>
        <time>2000-01-01T13:16:46.000Z</time>
      </trkpt>
      <trkpt lat="46.16931" lon="6.68649">
        <ele>1447.1</ele>
        <time>2000-01-01T13:16:56.000Z</time>
      </trkpt>
      <trkpt lat="46.16923" lon="6.68647">
        <ele>1447</ele>
        <time>2000-01-01T13:17:06.000Z</time>
      </trkpt>
      <trkpt lat="46.16917" lon="6.68643">
        <ele>1447.3</ele>
        <time>2000-01-01T13:17:16.000Z</time>
      </trkpt>
      <trkpt lat="46.16902" lon="6.68636">
        <ele>1444</ele>
        <time>2000-01-01T13:17:26.000Z</time>
      </trkpt>
      <trkpt lat="46.16893" lon="6.6863">
        <ele>1443.6</ele>
        <time>2000-01-01T13:17:36.000Z</time>
      </trkpt>
      <trkpt lat="46.16876" lon="6.68616">
        <ele>1439</ele>
        <time>2000-01-01T13:17:46.000Z</time>
      </trkpt>
      <trkpt lat="46.16848" lon="6.68586">
        <ele>1432</ele>
        <time>2000-01-01T13:17:56.000Z</time>
      </trkpt>
      <trkpt lat="46.1684" lon="6.6858">
        <ele>1432.6</ele>
        <time>2000-01-01T13:18:06.000Z</time>
      </trkpt>
      <trkpt lat="46.16833" lon="6.6858">
        <ele>1431.9</ele>
        <time>2000-01-01T13:18:16.000Z</time>
      </trkpt>
      <trkpt lat="46.16826" lon="6.68581">
        <ele>1430</ele>
        <time>2000-01-01T13:18:26.000Z</time>
      </trkpt>
      <trkpt lat="46.16819" lon="6.68583">
        <ele>1430.9</ele>
        <time>2000-01-01T13:18:36.000Z</time>
      </trkpt>
      <trkpt lat="46.16812" lon="6.68581">
        <ele>1430.3</ele>
        <time>2000-01-01T13:18:46.000Z</time>
      </trkpt>
      <trkpt lat="46.16806" lon="6.68576">
        <ele>1429</ele>
        <time>2000-01-01T13:18:56.000Z</time>
      </trkpt>
      <trkpt lat="46.16799" lon="6.68568">
        <ele>1428.4</ele>
        <time>2000-01-01T13:19:06.000Z</time>
      </trkpt>
      <trkpt lat="46.16792" lon="6.68563">
        <ele>1428</ele>
        <time>2000-01-01T13:19:16.000Z</time>
      </trkpt>
      <trkpt lat="46.16725" lon="6.68538">
        <ele>1419</ele>
        <time>2000-01-01T13:19:26.000Z</time>
      </trkpt>
      <trkpt lat="46.16683" lon="6.68516">
        <ele>1417</ele>
        <time>2000-01-01T13:19:36.000Z</time>
      </trkpt>
      <trkpt lat="46.16674" lon="6.68513">
        <ele>1417.1</ele>
        <time>2000-01-01T13:19:46.000Z</time>
      </trkpt>
      <trkpt lat="46.16666" lon="6.68511">
        <ele>1417</ele>
        <time>2000-01-01T13:19:56.000Z</time>
      </trkpt>
      <trkpt lat="46.16656" lon="6.68511">
        <ele>1415</ele>
        <time>2000-01-01T13:20:06.000Z</time>
      </trkpt>
      <trkpt lat="46.16616" lon="6.68515">
        <ele>1411</ele>
        <time>2000-01-01T13:20:16.000Z</time>
      </trkpt>
      <trkpt lat="46.16608" lon="6.68515">
        <ele>1411.2</ele>
        <time>2000-01-01T13:20:26.000Z</time>
      </trkpt>
      <trkpt lat="46.166" lon="6.68513">
        <ele>1410.1</ele>
        <time>2000-01-01T13:20:36.000Z</time>
      </trkpt>
      <trkpt lat="46.16585" lon="6.68507">
        <ele>1406</ele>
        <time>2000-01-01T13:20:46.000Z</time>
      </trkpt>
      <trkpt lat="46.16577" lon="6.68506">
        <ele>1406.4</ele>
        <time>2000-01-01T13:20:56.000Z</time>
      </trkpt>
      <trkpt lat="46.16568" lon="6.68508">
        <ele>1405.3</ele>
        <time>2000-01-01T13:21:06.000Z</time>
      </trkpt>
      <trkpt lat="46.16557" lon="6.68509">
        <ele>1402</ele>
        <time>2000-01-01T13:21:16.000Z</time>
      </trkpt>
      <trkpt lat="46.16553" lon="6.68508">
        <ele>1403.3</ele>
        <time>2000-01-01T13:21:26.000Z</time>
      </trkpt>
      <trkpt lat="46.16543" lon="6.68494">
        <ele>1400.3</ele>
        <time>2000-01-01T13:21:36.000Z</time>
      </trkpt>
      <trkpt lat="46.16529" lon="6.68478">
        <ele>1395</ele>
        <time>2000-01-01T13:21:46.000Z</time>
      </trkpt>
      <trkpt lat="46.16524" lon="6.6847">
        <ele>1396.6</ele>
        <time>2000-01-01T13:21:56.000Z</time>
      </trkpt>
      <trkpt lat="46.16516" lon="6.68452">
        <ele>1397</ele>
        <time>2000-01-01T13:22:06.000Z</time>
      </trkpt>
      <trkpt lat="46.16499" lon="6.68462">
        <ele>1395.6</ele>
        <time>2000-01-01T13:22:16.000Z</time>
      </trkpt>
      <trkpt lat="46.16486" lon="6.68471">
        <ele>1399</ele>
        <time>2000-01-01T13:22:26.000Z</time>
      </trkpt>
      <trkpt lat="46.16476" lon="6.68479">
        <ele>1400.6</ele>
        <time>2000-01-01T13:22:36.000Z</time>
      </trkpt>
      <trkpt lat="46.16469" lon="6.68483">
        <ele>1400</ele>
        <time>2000-01-01T13:22:46.000Z</time>
      </trkpt>
      <trkpt lat="46.16464" lon="6.68483">
        <ele>1402.3</ele>
        <time>2000-01-01T13:22:56.000Z</time>
      </trkpt>
      <trkpt lat="46.16459" lon="6.68481">
        <ele>1402.5</ele>
        <time>2000-01-01T13:23:06.000Z</time>
      </trkpt>
      <trkpt lat="46.16456" lon="6.68478">
        <ele>1402.5</ele>
        <time>2000-01-01T13:23:16.000Z</time>
      </trkpt>
      <trkpt lat="46.16447" lon="6.68473">
        <ele>1399</ele>
        <time>2000-01-01T13:23:26.000Z</time>
      </trkpt>
      <trkpt lat="46.16439" lon="6.68467">
        <ele>1402.6</ele>
        <time>2000-01-01T13:23:36.000Z</time>
      </trkpt>
      <trkpt lat="46.16405" lon="6.68447">
        <ele>1399</ele>
        <time>2000-01-01T13:23:46.000Z</time>
      </trkpt>
      <trkpt lat="46.16383" lon="6.68437">
        <ele>1399</ele>
        <time>2000-01-01T13:23:56.000Z</time>
      </trkpt>
      <trkpt lat="46.16363" lon="6.68426">
        <ele>1399</ele>
        <time>2000-01-01T13:24:06.000Z</time>
      </trkpt>
      <trkpt lat="46.16359" lon="6.6842">
        <ele>1399</ele>
        <time>2000-01-01T13:24:16.000Z</time>
      </trkpt>
      <trkpt lat="46.16354" lon="6.68415">
        <ele>1398</ele>
        <time>2000-01-01T13:24:26.000Z</time>
      </trkpt>
      <trkpt lat="46.16345" lon="6.68404">
        <ele>1395</ele>
        <time>2000-01-01T13:24:36.000Z</time>
      </trkpt>
      <trkpt lat="46.16339" lon="6.68395">
        <ele>1393.4</ele>
        <time>2000-01-01T13:24:46.000Z</time>
      </trkpt>
      <trkpt lat="46.16332" lon="6.68391">
        <ele>1392.7</ele>
        <time>2000-01-01T13:24:56.000Z</time>
      </trkpt>
      <trkpt lat="46.16324" lon="6.68389">
        <ele>1392</ele>
        <time>2000-01-01T13:25:06.000Z</time>
      </trkpt>
      <trkpt lat="46.16293" lon="6.68382">
        <ele>1390</ele>
        <time>2000-01-01T13:25:16.000Z</time>
      </trkpt>
      <trkpt lat="46.16282" lon="6.68382">
        <ele>1391.5</ele>
        <time>2000-01-01T13:25:26.000Z</time>
      </trkpt>
      <trkpt lat="46.16274" lon="6.68383">
        <ele>1390</ele>
        <time>2000-01-01T13:25:36.000Z</time>
      </trkpt>
      <trkpt lat="46.16243" lon="6.68394">
        <ele>1390</ele>
        <time>2000-01-01T13:25:46.000Z</time>
      </trkpt>
      <trkpt lat="46.16213" lon="6.68408">
        <ele>1390</ele>
        <time>2000-01-01T13:25:56.000Z</time>
      </trkpt>
      <trkpt lat="46.16196" lon="6.68412">
        <ele>1391.8</ele>
        <time>2000-01-01T13:26:06.000Z</time>
      </trkpt>
      <trkpt lat="46.16178" lon="6.68418">
        <ele>1387</ele>
        <time>2000-01-01T13:26:16.000Z</time>
      </trkpt>
      <trkpt lat="46.16141" lon="6.68432">
        <ele>1387</ele>
        <time>2000-01-01T13:26:26.000Z</time>
      </trkpt>
      <trkpt lat="46.16133" lon="6.68436">
        <ele>1387.4</ele>
        <time>2000-01-01T13:26:36.000Z</time>
      </trkpt>
      <trkpt lat="46.16118" lon="6.68447">
        <ele>1382</ele>
        <time>2000-01-01T13:26:46.000Z</time>
      </trkpt>
      <trkpt lat="46.16105" lon="6.68458">
        <ele>1385.8</ele>
        <time>2000-01-01T13:26:56.000Z</time>
      </trkpt>
      <trkpt lat="46.16079" lon="6.68478">
        <ele>1379</ele>
        <time>2000-01-01T13:27:06.000Z</time>
      </trkpt>
      <trkpt lat="46.16055" lon="6.68495">
        <ele>1379</ele>
        <time>2000-01-01T13:27:16.000Z</time>
      </trkpt>
      <trkpt lat="46.16049" lon="6.685">
        <ele>1382.5</ele>
        <time>2000-01-01T13:27:26.000Z</time>
      </trkpt>
      <trkpt lat="46.16042" lon="6.68513">
        <ele>1384.8</ele>
        <time>2000-01-01T13:27:36.000Z</time>
      </trkpt>
      <trkpt lat="46.16041" lon="6.68516">
        <ele>1384</ele>
        <time>2000-01-01T13:27:46.000Z</time>
      </trkpt>
      <trkpt lat="46.16039" lon="6.68518">
        <ele>1385.7</ele>
        <time>2000-01-01T13:27:56.000Z</time>
      </trkpt>
      <trkpt lat="46.16036" lon="6.68519">
        <ele>1385.7</ele>
        <time>2000-01-01T13:28:06.000Z</time>
      </trkpt>
      <trkpt lat="46.16031" lon="6.68517">
        <ele>1384.9</ele>
        <time>2000-01-01T13:28:16.000Z</time>
      </trkpt>
      <trkpt lat="46.16024" lon="6.68511">
        <ele>1384</ele>
        <time>2000-01-01T13:28:26.000Z</time>
      </trkpt>
      <trkpt lat="46.16008" lon="6.68499">
        <ele>1380.7</ele>
        <time>2000-01-01T13:28:36.000Z</time>
      </trkpt>
      <trkpt lat="46.16002" lon="6.68497">
        <ele>1378</ele>
        <time>2000-01-01T13:28:46.000Z</time>
      </trkpt>
      <trkpt lat="46.15994" lon="6.68496">
        <ele>1379.7</ele>
        <time>2000-01-01T13:28:56.000Z</time>
      </trkpt>
      <trkpt lat="46.15987" lon="6.68498">
        <ele>1380</ele>
        <time>2000-01-01T13:29:06.000Z</time>
      </trkpt>
      <trkpt lat="46.15971" lon="6.685">
        <ele>1377</ele>
        <time>2000-01-01T13:29:16.000Z</time>
      </trkpt>
      <trkpt lat="46.15965" lon="6.685">
        <ele>1379.7</ele>
        <time>2000-01-01T13:29:26.000Z</time>
      </trkpt>
      <trkpt lat="46.15959" lon="6.68501">
        <ele>1379.8</ele>
        <time>2000-01-01T13:29:36.000Z</time>
      </trkpt>
      <trkpt lat="46.15952" lon="6.685">
        <ele>1376</ele>
        <time>2000-01-01T13:29:46.000Z</time>
      </trkpt>
      <trkpt lat="46.15945" lon="6.68496">
        <ele>1378</ele>
        <time>2000-01-01T13:29:56.000Z</time>
      </trkpt>
      <trkpt lat="46.15937" lon="6.68488">
        <ele>1376.1</ele>
        <time>2000-01-01T13:30:06.000Z</time>
      </trkpt>
      <trkpt lat="46.15931" lon="6.68481">
        <ele>1374</ele>
        <time>2000-01-01T13:30:16.000Z</time>
      </trkpt>
      <trkpt lat="46.15922" lon="6.68468">
        <ele>1371.8</ele>
        <time>2000-01-01T13:30:26.000Z</time>
      </trkpt>
      <trkpt lat="46.15917" lon="6.68465">
        <ele>1371.2</ele>
        <time>2000-01-01T13:30:36.000Z</time>
      </trkpt>
      <trkpt lat="46.15911" lon="6.6846">
        <ele>1368</ele>
        <time>2000-01-01T13:30:46.000Z</time>
      </trkpt>
      <trkpt lat="46.15904" lon="6.68453">
        <ele>1368.8</ele>
        <time>2000-01-01T13:30:56.000Z</time>
      </trkpt>
      <trkpt lat="46.15898" lon="6.68449">
        <ele>1368.3</ele>
        <time>2000-01-01T13:31:06.000Z</time>
      </trkpt>
      <trkpt lat="46.15892" lon="6.68446">
        <ele>1367</ele>
        <time>2000-01-01T13:31:16.000Z</time>
      </trkpt>
      <trkpt lat="46.1588" lon="6.68443">
        <ele>1368.2</ele>
        <time>2000-01-01T13:31:26.000Z</time>
      </trkpt>
      <trkpt lat="46.15865" lon="6.68441">
        <ele>1367</ele>
        <time>2000-01-01T13:31:36.000Z</time>
      </trkpt>
      <trkpt lat="46.15856" lon="6.68438">
        <ele>1368.8</ele>
        <time>2000-01-01T13:31:46.000Z</time>
      </trkpt>
      <trkpt lat="46.1585" lon="6.68435">
        <ele>1368.9</ele>
        <time>2000-01-01T13:31:56.000Z</time>
      </trkpt>
      <trkpt lat="46.15844" lon="6.68427">
        <ele>1367</ele>
        <time>2000-01-01T13:32:06.000Z</time>
      </trkpt>
      <trkpt lat="46.15842" lon="6.68423">
        <ele>1367.7</ele>
        <time>2000-01-01T13:32:16.000Z</time>
      </trkpt>
      <trkpt lat="46.1584" lon="6.68412">
        <ele>1366.2</ele>
        <time>2000-01-01T13:32:26.000Z</time>
      </trkpt>
      <trkpt lat="46.15836" lon="6.68401">
        <ele>1364</ele>
        <time>2000-01-01T13:32:36.000Z</time>
      </trkpt>
      <trkpt lat="46.15835" lon="6.68392">
        <ele>1363.5</ele>
        <time>2000-01-01T13:32:46.000Z</time>
      </trkpt>
      <trkpt lat="46.15832" lon="6.68378">
        <ele>1361.9</ele>
        <time>2000-01-01T13:32:56.000Z</time>
      </trkpt>
      <trkpt lat="46.15828" lon="6.68367">
        <ele>1359</ele>
        <time>2000-01-01T13:33:06.000Z</time>
      </trkpt>
      <trkpt lat="46.15824" lon="6.68358">
        <ele>1359.5</ele>
        <time>2000-01-01T13:33:16.000Z</time>
      </trkpt>
      <trkpt lat="46.1582" lon="6.68351">
        <ele>1358.2</ele>
        <time>2000-01-01T13:33:26.000Z</time>
      </trkpt>
      <trkpt lat="46.15803" lon="6.68316">
        <ele>1349</ele>
        <time>2000-01-01T13:33:36.000Z</time>
      </trkpt>
      <trkpt lat="46.15775" lon="6.68276">
        <ele>1338</ele>
        <time>2000-01-01T13:33:46.000Z</time>
      </trkpt>
      <trkpt lat="46.15759" lon="6.68256">
        <ele>1332</ele>
        <time>2000-01-01T13:33:56.000Z</time>
      </trkpt>
      <trkpt lat="46.1574" lon="6.68234">
        <ele>1327</ele>
        <time>2000-01-01T13:34:06.000Z</time>
      </trkpt>
      <trkpt lat="46.15718" lon="6.6821">
        <ele>1321</ele>
        <time>2000-01-01T13:34:16.000Z</time>
      </trkpt>
      <trkpt lat="46.15698" lon="6.68185">
        <ele>1318</ele>
        <time>2000-01-01T13:34:26.000Z</time>
      </trkpt>
      <trkpt lat="46.15685" lon="6.68167">
        <ele>1317.3</ele>
        <time>2000-01-01T13:34:36.000Z</time>
      </trkpt>
      <trkpt lat="46.15672" lon="6.68147">
        <ele>1313</ele>
        <time>2000-01-01T13:34:46.000Z</time>
      </trkpt>
      <trkpt lat="46.15663" lon="6.68138">
        <ele>1312.3</ele>
        <time>2000-01-01T13:34:56.000Z</time>
      </trkpt>
      <trkpt lat="46.15654" lon="6.68133">
        <ele>1309</ele>
        <time>2000-01-01T13:35:06.000Z</time>
      </trkpt>
      <trkpt lat="46.15631" lon="6.68112">
        <ele>1304</ele>
        <time>2000-01-01T13:35:16.000Z</time>
      </trkpt>
      <trkpt lat="46.15627" lon="6.68105">
        <ele>1304.6</ele>
        <time>2000-01-01T13:35:26.000Z</time>
      </trkpt>
      <trkpt lat="46.15622" lon="6.68098">
        <ele>1304</ele>
        <time>2000-01-01T13:35:36.000Z</time>
      </trkpt>
      <trkpt lat="46.15617" lon="6.68088">
        <ele>1303</ele>
        <time>2000-01-01T13:35:46.000Z</time>
      </trkpt>
      <trkpt lat="46.15602" lon="6.68053">
        <ele>1303</ele>
        <time>2000-01-01T13:35:56.000Z</time>
      </trkpt>
      <trkpt lat="46.15599" lon="6.68034">
        <ele>1302.5</ele>
        <time>2000-01-01T13:36:06.000Z</time>
      </trkpt>
      <trkpt lat="46.15594" lon="6.68012">
        <ele>1301</ele>
        <time>2000-01-01T13:36:16.000Z</time>
      </trkpt>
      <trkpt lat="46.15592" lon="6.68">
        <ele>1301.1</ele>
        <time>2000-01-01T13:36:26.000Z</time>
      </trkpt>
      <trkpt lat="46.1559" lon="6.6797">
        <ele>1300</ele>
        <time>2000-01-01T13:36:36.000Z</time>
      </trkpt>
      <trkpt lat="46.15589" lon="6.67946">
        <ele>1297.5</ele>
        <time>2000-01-01T13:36:46.000Z</time>
      </trkpt>
      <trkpt lat="46.15586" lon="6.67923">
        <ele>1297</ele>
        <time>2000-01-01T13:36:56.000Z</time>
      </trkpt>
      <trkpt lat="46.15575" lon="6.67873">
        <ele>1295</ele>
        <time>2000-01-01T13:37:06.000Z</time>
      </trkpt>
      <trkpt lat="46.15571" lon="6.6786">
        <ele>1293.5</ele>
        <time>2000-01-01T13:37:16.000Z</time>
      </trkpt>
      <trkpt lat="46.15565" lon="6.67834">
        <ele>1290</ele>
        <time>2000-01-01T13:37:26.000Z</time>
      </trkpt>
      <trkpt lat="46.15557" lon="6.67809">
        <ele>1289</ele>
        <time>2000-01-01T13:37:36.000Z</time>
      </trkpt>
      <trkpt lat="46.1555" lon="6.6779">
        <ele>1289</ele>
        <time>2000-01-01T13:37:46.000Z</time>
      </trkpt>
      <trkpt lat="46.15541" lon="6.67778">
        <ele>1287</ele>
        <time>2000-01-01T13:37:56.000Z</time>
      </trkpt>
      <trkpt lat="46.15519" lon="6.67757">
        <ele>1287</ele>
        <time>2000-01-01T13:38:06.000Z</time>
      </trkpt>
      <trkpt lat="46.15491" lon="6.6773">
        <ele>1283</ele>
        <time>2000-01-01T13:38:16.000Z</time>
      </trkpt>
      <trkpt lat="46.15486" lon="6.67725">
        <ele>1284.5</ele>
        <time>2000-01-01T13:38:26.000Z</time>
      </trkpt>
      <trkpt lat="46.15447" lon="6.67672">
        <ele>1278</ele>
        <time>2000-01-01T13:38:36.000Z</time>
      </trkpt>
      <trkpt lat="46.15425" lon="6.67659">
        <ele>1275</ele>
        <time>2000-01-01T13:38:46.000Z</time>
      </trkpt>
      <trkpt lat="46.15402" lon="6.67646">
        <ele>1273</ele>
        <time>2000-01-01T13:38:56.000Z</time>
      </trkpt>
      <trkpt lat="46.15399" lon="6.67628">
        <ele>1270.2</ele>
        <time>2000-01-01T13:39:06.000Z</time>
      </trkpt>
      <trkpt lat="46.15418" lon="6.67614">
        <ele>1266</ele>
        <time>2000-01-01T13:39:16.000Z</time>
      </trkpt>
      <trkpt lat="46.15421" lon="6.67592">
        <ele>1263.5</ele>
        <time>2000-01-01T13:39:26.000Z</time>
      </trkpt>
      <trkpt lat="46.15384" lon="6.67542">
        <ele>1256</ele>
        <time>2000-01-01T13:39:36.000Z</time>
      </trkpt>
      <trkpt lat="46.15343" lon="6.67518">
        <ele>1255</ele>
        <time>2000-01-01T13:39:46.000Z</time>
      </trkpt>
      <trkpt lat="46.15361" lon="6.6749">
        <ele>1252</ele>
        <time>2000-01-01T13:39:56.000Z</time>
      </trkpt>
      <trkpt lat="46.15383" lon="6.67454">
        <ele>1248</ele>
        <time>2000-01-01T13:40:06.000Z</time>
      </trkpt>
      <trkpt lat="46.15395" lon="6.67423">
        <ele>1246</ele>
        <time>2000-01-01T13:40:16.000Z</time>
      </trkpt>
      <trkpt lat="46.15408" lon="6.67388">
        <ele>1242</ele>
        <time>2000-01-01T13:40:26.000Z</time>
      </trkpt>
      <trkpt lat="46.15418" lon="6.67374">
        <ele>1241.9</ele>
        <time>2000-01-01T13:40:36.000Z</time>
      </trkpt>
      <trkpt lat="46.15434" lon="6.67383">
        <ele>1241</ele>
        <time>2000-01-01T13:40:46.000Z</time>
      </trkpt>
      <trkpt lat="46.15461" lon="6.67397">
        <ele>1240</ele>
        <time>2000-01-01T13:40:56.000Z</time>
      </trkpt>
      <trkpt lat="46.15502" lon="6.67418">
        <ele>1236</ele>
        <time>2000-01-01T13:41:06.000Z</time>
      </trkpt>
      <trkpt lat="46.15516" lon="6.67419">
        <ele>1235</ele>
        <time>2000-01-01T13:41:16.000Z</time>
      </trkpt>
      <trkpt lat="46.15521" lon="6.67401">
        <ele>1233</ele>
        <time>2000-01-01T13:41:26.000Z</time>
      </trkpt>
      <trkpt lat="46.15534" lon="6.67394">
        <ele>1232.5</ele>
        <time>2000-01-01T13:41:36.000Z</time>
      </trkpt>
      <trkpt lat="46.15562" lon="6.67398">
        <ele>1229</ele>
        <time>2000-01-01T13:41:46.000Z</time>
      </trkpt>
      <trkpt lat="46.1557" lon="6.67393">
        <ele>1230</ele>
        <time>2000-01-01T13:41:56.000Z</time>
      </trkpt>
      <trkpt lat="46.15611" lon="6.67386">
        <ele>1226</ele>
        <time>2000-01-01T13:42:06.000Z</time>
      </trkpt>
      <trkpt lat="46.15631" lon="6.67382">
        <ele>1226</ele>
        <time>2000-01-01T13:42:16.000Z</time>
      </trkpt>
      <trkpt lat="46.1566" lon="6.67382">
        <ele>1225</ele>
        <time>2000-01-01T13:42:26.000Z</time>
      </trkpt>
      <trkpt lat="46.1568" lon="6.67391">
        <ele>1225</ele>
        <time>2000-01-01T13:42:36.000Z</time>
      </trkpt>
      <trkpt lat="46.15704" lon="6.67387">
        <ele>1221</ele>
        <time>2000-01-01T13:42:46.000Z</time>
      </trkpt>
      <trkpt lat="46.15731" lon="6.6738">
        <ele>1216</ele>
        <time>2000-01-01T13:42:56.000Z</time>
      </trkpt>
      <trkpt lat="46.15747" lon="6.67363">
        <ele>1212</ele>
        <time>2000-01-01T13:43:06.000Z</time>
      </trkpt>
      <trkpt lat="46.15762" lon="6.67327">
        <ele>1204</ele>
        <time>2000-01-01T13:43:16.000Z</time>
      </trkpt>
      <trkpt lat="46.15783" lon="6.67299">
        <ele>1199</ele>
        <time>2000-01-01T13:43:26.000Z</time>
      </trkpt>
      <trkpt lat="46.15792" lon="6.67286">
        <ele>1196.3</ele>
        <time>2000-01-01T13:43:36.000Z</time>
      </trkpt>
      <trkpt lat="46.15813" lon="6.67258">
        <ele>1187</ele>
        <time>2000-01-01T13:43:46.000Z</time>
      </trkpt>
      <trkpt lat="46.15834" lon="6.67238">
        <ele>1180</ele>
        <time>2000-01-01T13:43:56.000Z</time>
      </trkpt>
      <trkpt lat="46.1585" lon="6.67208">
        <ele>1177</ele>
        <time>2000-01-01T13:44:06.000Z</time>
      </trkpt>
      <trkpt lat="46.15868" lon="6.67217">
        <ele>1175</ele>
        <time>2000-01-01T13:44:16.000Z</time>
      </trkpt>
      <trkpt lat="46.15873" lon="6.67209">
        <ele>1174.3</ele>
        <time>2000-01-01T13:44:26.000Z</time>
      </trkpt>
      <trkpt lat="46.15894" lon="6.67216">
        <ele>1172</ele>
        <time>2000-01-01T13:44:36.000Z</time>
      </trkpt>
      <trkpt lat="46.15912" lon="6.67195">
        <ele>1169</ele>
        <time>2000-01-01T13:44:46.000Z</time>
      </trkpt>
      <trkpt lat="46.15936" lon="6.67186">
        <ele>1167</ele>
        <time>2000-01-01T13:44:56.000Z</time>
      </trkpt>
      <trkpt lat="46.15959" lon="6.67162">
        <ele>1165</ele>
        <time>2000-01-01T13:45:06.000Z</time>
      </trkpt>
      <trkpt lat="46.15984" lon="6.67147">
        <ele>1164</ele>
        <time>2000-01-01T13:45:16.000Z</time>
      </trkpt>
      <trkpt lat="46.15997" lon="6.67187">
        <ele>1164</ele>
        <time>2000-01-01T13:45:26.000Z</time>
      </trkpt>
      <trkpt lat="46.16017" lon="6.67213">
        <ele>1164</ele>
        <time>2000-01-01T13:45:36.000Z</time>
      </trkpt>
      <trkpt lat="46.16043" lon="6.67205">
        <ele>1161</ele>
        <time>2000-01-01T13:45:46.000Z</time>
      </trkpt>
      <trkpt lat="46.16082" lon="6.67219">
        <ele>1158</ele>
        <time>2000-01-01T13:45:56.000Z</time>
      </trkpt>
      <trkpt lat="46.16114" lon="6.67265">
        <ele>1157</ele>
        <time>2000-01-01T13:46:06.000Z</time>
      </trkpt>
      <trkpt lat="46.1611" lon="6.67228">
        <ele>1157</ele>
        <time>2000-01-01T13:46:16.000Z</time>
      </trkpt>
      <trkpt lat="46.16091" lon="6.67195">
        <ele>1157</ele>
        <time>2000-01-01T13:46:26.000Z</time>
      </trkpt>
    </trkseg>
  </trk>
</gpx>